U21944 / G-EZUN 7700 Squawk Report (20th of January, 2023)

Aircraft A320 Reg No. G-EZUN Age 10 years old
Model A320 Jet engines 2 First flight 17-02-12
Registered 22-03-12 Rollout 02-12 Delivered 22-03-12
Construction No. 5046 Line No. N/A Series 214
ADSHEX 406668 Airline name easyJet Owner N/A
Airfield based Luton~Beds~G First tracked N/A
Time Lat Lon Altitude Heading Speed Vertical Rate
2023-01-20 17:06:39 GMT 53.360802 -2.273993 0 315 2 0
2023-01-20 17:06:22 GMT 53.360641 -2.273758 0 315 5 0
2023-01-20 17:06:17 GMT 53.360550 -2.273604 0 315 7 0
2023-01-20 17:06:07 GMT 53.360329 -2.273241 0 348 8 0
2023-01-20 17:05:56 GMT 53.359943 -2.273189 0 0 10 0
2023-01-20 17:05:45 GMT 53.359394 -2.273189 0 0 12 0
2023-01-20 17:05:38 GMT 53.358971 -2.273169 0 0 13 0
2023-01-20 17:05:21 GMT 53.358021 -2.273150 0 340 12 0
2023-01-20 17:05:13 GMT 53.357674 -2.272817 0 320 15 0
2023-01-20 17:05:07 GMT 53.357327 -2.272332 0 320 16 0
2023-01-20 17:04:56 GMT 53.356697 -2.271484 0 320 18 0
2023-01-20 17:04:43 GMT 53.355919 -2.270434 0 320 14 0
2023-01-20 17:04:37 GMT 53.355572 -2.269972 0 320 14 0
2023-01-20 17:04:32 GMT 53.355366 -2.269677 0 320 13 0
2023-01-20 17:04:25 GMT 53.355091 -2.269324 0 323 9 0
2023-01-20 17:04:13 GMT 53.354790 -2.268939 0 2 12 0
2023-01-20 17:04:07 GMT 53.354496 -2.268939 0 30 12 0
2023-01-20 17:04:03 GMT 53.354336 -2.269101 0 47 12 0
2023-01-20 17:03:57 GMT 53.354107 -2.269560 0 50 17 0
2023-01-20 17:03:53 GMT 53.353893 -2.269989 0 50 18 0
2023-01-20 17:03:45 GMT 53.353462 -2.270878 0 50 18 0
2023-01-20 17:03:34 GMT 53.352917 -2.272032 0 50 19 0
2023-01-20 17:03:24 GMT 53.352356 -2.273189 0 50 20 0
2023-01-20 17:03:13 GMT 53.351704 -2.274513 0 50 21 0
2023-01-20 17:03:06 GMT 53.351273 -2.275422 0 50 19 0
2023-01-20 17:02:56 GMT 53.350765 -2.276465 0 50 17 0
2023-01-20 17:02:46 GMT 53.350307 -2.277407 0 50 17 0
2023-01-20 17:02:35 GMT 53.349773 -2.278532 0 50 16 0
2023-01-20 17:02:25 GMT 53.349232 -2.279643 0 50 18 0
2023-01-20 17:02:14 GMT 53.348724 -2.280693 0 50 19 0
2023-01-20 17:02:06 GMT 53.348305 -2.281566 0 50 19 0
2023-01-20 17:01:56 GMT 53.347725 -2.282753 0 50 19 0
2023-01-20 17:01:42 GMT 53.346874 -2.284195 0 22 24 0
2023-01-20 17:01:36 GMT 53.346153 -2.284666 0 19 26 0
2023-01-20 17:01:26 GMT 53.344944 -2.285439 0 25 29 0
2023-01-20 17:01:15 GMT 53.343773 -2.286588 125 39 30 0
2023-01-20 17:01:04 GMT 53.342548 -2.288805 0 50 46 0
2023-01-20 17:00:55 GMT 53.341152 -2.291709 0 50 66 0
2023-01-20 17:00:45 GMT 53.338989 -2.296182 -125 50 88 0
2023-01-20 17:00:35 GMT 53.336060 -2.302185 -125 50 117 -64
2023-01-20 17:00:25 GMT 53.332626 -2.309405 -25 51 125 -640
2023-01-20 17:00:21 GMT 53.330933 -2.312779 0 51 127 -704
2023-01-20 17:00:18 GMT 53.329926 -2.314898 25 51 125 -704
2023-01-20 17:00:15 GMT 53.327179 -2.320626 100 51 125 -704
2023-01-20 17:00:11 GMT 53.327179 -2.320626 125 51 125 -704
2023-01-20 17:00:05 GMT 53.324982 -2.325143 200 51 125 -704
2023-01-20 17:00:01 GMT 53.323540 -2.328132 225 51 125 -768
2023-01-20 16:59:55 GMT 53.320450 -2.334595 325 51 125 -640
2023-01-20 16:59:52 GMT 53.320450 -2.334595 325 50 125 -576
2023-01-20 16:59:48 GMT 53.318836 -2.337826 450 50 124 -640
2023-01-20 16:59:45 GMT 53.317905 -2.339765 400 50 124 -576
2023-01-20 16:59:42 GMT 53.316833 -2.341971 450 50 125 -576
2023-01-20 16:59:39 GMT 53.315674 -2.344369 500 51 124 -640
2023-01-20 16:59:36 GMT 53.313160 -2.349620 500 51 125 -704
2023-01-20 16:59:32 GMT 53.313160 -2.349620 575 51 124 -768
2023-01-20 16:59:28 GMT 53.311844 -2.352251 575 50 125 -768
2023-01-20 16:59:26 GMT 53.310879 -2.354225 625 50 125 -768
2023-01-20 16:59:22 GMT 53.309418 -2.357274 675 51 125 -768
2023-01-20 16:59:18 GMT 53.307758 -2.360768 725 51 124 -704
2023-01-20 16:59:12 GMT 53.305897 -2.364726 800 50 124 -576
2023-01-20 16:59:09 GMT 53.304428 -2.367711 825 50 123 -576
2023-01-20 16:59:05 GMT 53.303284 -2.369986 900 50 123 -576
2023-01-20 16:59:01 GMT 53.301819 -2.372968 950 50 125 -576
2023-01-20 16:58:58 GMT 53.300777 -2.375147 950 51 126 -640
2023-01-20 16:58:55 GMT 53.297981 -2.380883 1,000 51 128 -704
2023-01-20 16:58:50 GMT 53.297981 -2.380883 1,025 51 130 -704
2023-01-20 16:58:47 GMT 53.295654 -2.385891 1,075 51 131 -768
2023-01-20 16:58:44 GMT 53.295654 -2.385891 1,100 51 132 -768
2023-01-20 16:58:40 GMT 53.292480 -2.392351 1,175 50 137 -832
2023-01-20 16:58:36 GMT 53.292480 -2.392351 1,225 50 139 -832
2023-01-20 16:58:33 GMT 53.290970 -2.395412 1,250 50 142 -832
2023-01-20 16:58:29 GMT 53.289505 -2.398551 1,300 50 145 -832
2023-01-20 16:58:27 GMT 53.288860 -2.399786 1,325 50 147 -768
2023-01-20 16:58:24 GMT 53.287491 -2.402553 1,350 50 151 -640
2023-01-20 16:58:21 GMT 53.285366 -2.406975 1,425 51 156 -896
2023-01-20 16:58:17 GMT 53.284378 -2.408988 1,475 51 159 -832
2023-01-20 16:58:14 GMT 53.282574 -2.412711 1,500 51 160 -768
2023-01-20 16:58:11 GMT 53.281502 -2.414892 1,550 51 162 -896
2023-01-20 16:58:08 GMT 53.280014 -2.418042 1,600 51 167 -832
2023-01-20 16:58:05 GMT 53.278572 -2.421031 1,650 51 170 -832
2023-01-20 16:58:02 GMT 53.275360 -2.427665 1,850 51 175 -896
2023-01-20 16:57:58 GMT 53.275360 -2.427665 1,725 51 175 -896
2023-01-20 16:57:56 GMT 53.274078 -2.430333 1,775 51 178 -960
2023-01-20 16:57:53 GMT 53.272614 -2.433393 1,825 50 180 -1024
2023-01-20 16:57:50 GMT 53.271240 -2.436218 1,825 50 180 -1024
2023-01-20 16:57:47 GMT 53.267853 -2.443281 1,900 50 181 -1024
2023-01-20 16:57:44 GMT 53.267853 -2.443281 1,950 50 181 -1088
2023-01-20 16:57:41 GMT 53.266296 -2.446420 2,000 50 182 -1088
2023-01-20 16:57:38 GMT 53.261997 -2.455202 2,125 50 182 -1088
2023-01-20 16:57:34 GMT 53.261997 -2.455202 2,125 50 182 -1088
2023-01-20 16:57:31 GMT 53.260941 -2.457406 2,175 51 181 -832
2023-01-20 16:57:28 GMT 53.259483 -2.460453 2,200 51 181 -576
2023-01-20 16:57:26 GMT 53.258331 -2.462742 2,225 50 180 -320
2023-01-20 16:57:23 GMT 53.256737 -2.466027 2,225 49 179 0
2023-01-20 16:57:20 GMT 53.255035 -2.469334 2,225 49 179 0
2023-01-20 16:57:17 GMT 53.253155 -2.473136 2,225 49 179 0
2023-01-20 16:57:14 GMT 53.250175 -2.478871 2,250 49 180 -64
2023-01-20 16:57:11 GMT 53.250175 -2.478871 2,250 36 183 0
2023-01-20 16:57:08 GMT 53.248592 -2.481779 2,250 36 183 0
2023-01-20 16:57:05 GMT 53.246796 -2.485029 2,275 36 183 0
2023-01-20 16:57:02 GMT 53.244644 -2.488560 2,275 36 183 0
2023-01-20 16:56:59 GMT 53.243134 -2.490758 2,275 36 183 0
2023-01-20 16:56:57 GMT 53.241669 -2.492641 2,275 36 183 0
2023-01-20 16:56:55 GMT 53.240211 -2.494300 2,275 31 181 192
2023-01-20 16:56:52 GMT 53.238739 -2.495780 2,250 27 182 320
2023-01-20 16:56:50 GMT 53.237839 -2.496562 2,250 25 182 384
2023-01-20 16:56:49 GMT 53.236580 -2.497532 2,250 20 183 192
2023-01-20 16:56:48 GMT 53.235855 -2.497977 2,250 14 183 0
2023-01-20 16:56:45 GMT 53.233383 -2.499154 2,250 9 183 -64
2023-01-20 16:56:43 GMT 53.231598 -2.499713 2,250 8 184 -64
2023-01-20 16:56:42 GMT 53.230667 -2.499955 2,250 8 184 -64
2023-01-20 16:56:40 GMT 53.228668 -2.500410 2,250 7 186 -64
2023-01-20 16:56:37 GMT 53.226665 -2.500844 2,250 6 188 -64
2023-01-20 16:56:35 GMT 53.224548 -2.501273 2,250 3 190 0
2023-01-20 16:56:32 GMT 53.220474 -2.501652 2,250 353 197 -128
2023-01-20 16:56:29 GMT 53.219124 -2.501571 2,250 353 197 -128
2023-01-20 16:56:26 GMT 53.215714 -2.500959 2,250 348 200 -192
2023-01-20 16:56:23 GMT 53.214020 -2.500253 2,250 344 202 -320
2023-01-20 16:56:21 GMT 53.212555 -2.499547 2,275 341 203 -448
2023-01-20 16:56:20 GMT 53.211227 -2.498683 2,275 339 205 -448
2023-01-20 16:56:18 GMT 53.209999 -2.497774 2,300 334 206 -576
2023-01-20 16:56:17 GMT 53.208649 -2.496562 2,325 332 207 -576
2023-01-20 16:56:16 GMT 53.207718 -2.495674 2,325 327 208 -704
2023-01-20 16:56:14 GMT 53.206100 -2.493818 2,350 323 209 -832
2023-01-20 16:56:13 GMT 53.205322 -2.492798 2,375 318 211 -896
2023-01-20 16:56:10 GMT 53.202969 -2.489211 2,450 310 213 -960
2023-01-20 16:56:07 GMT 53.200653 -2.484637 2,475 305 216 -896
2023-01-20 16:56:06 GMT 53.200653 -2.484637 2,475 305 216 -896
2023-01-20 16:56:03 GMT 53.198914 -2.480321 2,525 302 217 -832
2023-01-20 16:56:01 GMT 53.197266 -2.475612 2,575 300 219 -704
2023-01-20 16:55:58 GMT 53.196266 -2.472732 2,600 300 221 -640
2023-01-20 16:55:56 GMT 53.195522 -2.470470 2,600 300 221 -640
2023-01-20 16:55:54 GMT 53.194546 -2.467642 2,625 300 222 -640
2023-01-20 16:55:53 GMT 53.194016 -2.466038 2,625 300 223 -640
2023-01-20 16:55:50 GMT 53.192780 -2.462350 2,650 300 225 -704
2023-01-20 16:55:48 GMT 53.191498 -2.458505 2,700 300 226 -640
2023-01-20 16:55:47 GMT 53.190948 -2.457014 2,700 300 229 -576
2023-01-20 16:55:46 GMT 53.189190 -2.451728 2,725 300 230 -640
2023-01-20 16:55:44 GMT 53.189190 -2.451728 2,725 300 231 -768
2023-01-20 16:55:43 GMT 53.188705 -2.450187 2,750 300 232 -768
2023-01-20 16:55:41 GMT 53.187607 -2.447043 2,775 300 236 -448
2023-01-20 16:55:39 GMT 53.186508 -2.443752 2,775 300 236 -448
2023-01-20 16:55:37 GMT 53.185455 -2.440613 2,800 300 238 -576
2023-01-20 16:55:34 GMT 53.183304 -2.434335 2,825 300 244 -832
2023-01-20 16:55:31 GMT 53.181656 -2.429391 2,875 300 246 -1024
2023-01-20 16:55:28 GMT 53.180328 -2.425389 2,925 300 248 -1216
2023-01-20 16:55:25 GMT 53.176853 -2.415134 3,025 300 251 -1472
2023-01-20 16:55:22 GMT 53.176853 -2.415134 3,225 300 253 -1664
2023-01-20 16:55:19 GMT 53.175365 -2.410691 3,225 300 253 -1728
2023-01-20 16:55:16 GMT 53.173874 -2.406248 3,225 300 254 -1792
2023-01-20 16:55:15 GMT 53.173130 -2.404067 3,250 300 255 -1792
2023-01-20 16:55:12 GMT 53.171314 -2.398735 3,425 300 258 -1792
2023-01-20 16:55:09 GMT 53.168613 -2.390819 3,500 300 263 -1920
2023-01-20 16:55:07 GMT 53.168613 -2.390819 3,500 300 263 -1920
2023-01-20 16:55:05 GMT 53.166565 -2.384679 3,750 300 263 -1920
2023-01-20 16:55:02 GMT 53.165131 -2.380580 3,750 300 263 -1920
2023-01-20 16:54:59 GMT 53.163681 -2.376278 3,750 300 263 -1920
2023-01-20 16:54:57 GMT 53.162750 -2.373518 3,850 300 264 -1920
2023-01-20 16:54:55 GMT 53.160606 -2.367231 3,950 300 268 -1856
2023-01-20 16:54:52 GMT 53.158401 -2.360883 4,025 300 269 -1856
2023-01-20 16:54:48 GMT 53.156418 -2.355033 4,175 300 271 -1856
2023-01-20 16:54:45 GMT 53.154835 -2.350509 4,175 300 272 -1856
2023-01-20 16:54:42 GMT 53.152771 -2.344404 4,350 300 276 -1856
2023-01-20 16:54:39 GMT 53.151203 -2.339926 4,375 300 276 -1856
2023-01-20 16:54:37 GMT 53.149899 -2.336049 4,425 300 277 -1920
2023-01-20 16:54:36 GMT 53.149521 -2.335066 4,450 300 277 -1984
2023-01-20 16:54:35 GMT 53.148193 -2.331142 4,525 300 279 -2048
2023-01-20 16:54:33 GMT 53.147617 -2.329344 4,550 300 279 -2048
2023-01-20 16:54:32 GMT 53.147003 -2.327611 4,600 300 279 -2048
2023-01-20 16:54:30 GMT 53.145538 -2.323295 4,675 300 279 -1920
2023-01-20 16:54:29 GMT 53.144806 -2.321254 4,700 300 279 -1920
2023-01-20 16:54:28 GMT 53.143616 -2.317792 4,750 300 279 -1920
2023-01-20 16:54:25 GMT 53.141556 -2.311680 4,875 300 280 -1920
2023-01-20 16:54:23 GMT 53.140312 -2.308018 4,950 300 280 -1920
2023-01-20 16:54:21 GMT 53.139679 -2.306266 4,950 300 280 -1920
2023-01-20 16:54:20 GMT 53.139099 -2.304463 4,975 300 280 -1920
2023-01-20 16:54:17 GMT 53.136681 -2.297354 5,100 300 280 -1856
2023-01-20 16:54:15 GMT 53.136063 -2.295593 5,125 300 280 -1856
2023-01-20 16:54:14 GMT 53.135422 -2.293710 5,175 300 280 -1856
2023-01-20 16:54:12 GMT 53.134117 -2.289842 5,225 300 280 -1920
2023-01-20 16:54:11 GMT 53.133499 -2.288138 5,250 300 280 -1920
2023-01-20 16:54:09 GMT 53.132172 -2.284136 5,325 300 280 -1920
2023-01-20 16:54:08 GMT 53.131485 -2.282096 5,375 300 280 -1920
2023-01-20 16:54:07 GMT 53.130844 -2.280212 5,400 300 280 -1920
2023-01-20 16:54:06 GMT 53.129471 -2.276289 5,475 300 280 -1920
2023-01-20 16:54:04 GMT 53.128811 -2.274331 5,500 300 280 -1920
2023-01-20 16:54:02 GMT 53.127457 -2.270325 5,550 300 280 -1920
2023-01-20 16:54:00 GMT 53.125832 -2.265526 5,650 300 280 -1920
2023-01-20 16:53:58 GMT 53.125088 -2.263507 5,675 300 279 -1920
2023-01-20 16:53:57 GMT 53.123474 -2.258711 5,775 300 279 -1920
2023-01-20 16:53:54 GMT 53.122467 -2.255729 5,825 300 279 -1856
2023-01-20 16:53:52 GMT 53.121037 -2.251470 5,875 300 279 -1856
2023-01-20 16:53:51 GMT 53.120453 -2.249922 5,900 300 279 -1856
2023-01-20 16:53:49 GMT 53.119217 -2.246155 5,975 300 279 -1856
2023-01-20 16:53:48 GMT 53.118523 -2.244200 6,000 300 279 -1856
2023-01-20 16:53:46 GMT 53.117294 -2.240583 6,075 300 279 -1856
2023-01-20 16:53:45 GMT 53.116058 -2.237052 6,125 300 279 -1856
2023-01-20 16:53:43 GMT 53.115311 -2.234910 6,150 300 279 -1856
2023-01-20 16:53:42 GMT 53.114056 -2.231194 6,225 300 279 -1856
2023-01-20 16:53:40 GMT 53.113449 -2.229498 6,250 300 279 -1856
2023-01-20 16:53:39 GMT 53.112194 -2.225701 6,300 300 279 -1856
2023-01-20 16:53:37 GMT 53.111572 -2.223947 6,325 300 279 -1856
2023-01-20 16:53:35 GMT 53.110237 -2.220127 6,400 300 279 -1856
2023-01-20 16:53:34 GMT 53.109539 -2.218107 6,425 300 279 -1856
2023-01-20 16:53:33 GMT 53.108234 -2.214311 6,475 300 279 -1856
2023-01-20 16:53:31 GMT 53.107586 -2.212453 6,525 300 280 -1792
2023-01-20 16:53:30 GMT 53.106327 -2.208737 6,575 300 281 -1728
2023-01-20 16:53:28 GMT 53.105713 -2.206996 6,600 300 281 -1728
2023-01-20 16:53:26 GMT 53.103790 -2.201346 6,700 300 281 -1728
2023-01-20 16:53:24 GMT 53.103104 -2.199463 6,725 300 281 -1728
2023-01-20 16:53:23 GMT 53.101856 -2.195812 6,775 300 281 -1792
2023-01-20 16:53:21 GMT 53.101227 -2.194048 6,800 300 281 -1856
2023-01-20 16:53:18 GMT 53.099346 -2.188541 6,900 300 280 -2048
2023-01-20 16:53:14 GMT 53.097290 -2.182670 7,000 300 280 -2240
2023-01-20 16:53:12 GMT 53.095917 -2.178746 7,100 300 279 -2368
2023-01-20 16:53:10 GMT 53.093262 -2.170944 7,250 300 279 -2368
2023-01-20 16:53:08 GMT 53.093262 -2.170944 7,250 300 277 -2368
2023-01-20 16:53:06 GMT 53.091843 -2.166901 7,350 300 277 -2432
2023-01-20 16:53:05 GMT 53.091064 -2.164688 7,400 300 276 -2432
2023-01-20 16:53:04 GMT 53.089848 -2.161089 7,475 300 276 -2432
2023-01-20 16:53:02 GMT 53.089142 -2.159119 7,525 300 276 -2432
2023-01-20 16:52:59 GMT 53.087265 -2.153625 7,650 300 275 -2368
2023-01-20 16:52:57 GMT 53.086258 -2.150650 7,725 300 274 -2240
2023-01-20 16:52:56 GMT 53.085388 -2.148132 7,750 300 274 -2176
2023-01-20 16:52:55 GMT 53.084793 -2.146454 7,775 300 274 -2112
2023-01-20 16:52:54 GMT 53.083282 -2.142105 7,850 300 274 -2048
2023-01-20 16:52:52 GMT 53.083282 -2.142105 7,875 300 273 -1984
2023-01-20 16:52:50 GMT 53.082027 -2.138332 7,925 300 273 -1920
2023-01-20 16:52:49 GMT 53.081329 -2.136370 8,000 300 272 -1792
2023-01-20 16:52:48 GMT 53.080032 -2.132645 8,025 300 272 -1664
2023-01-20 16:52:44 GMT 53.077789 -2.126083 8,125 300 274 -1664
2023-01-20 16:52:43 GMT 53.077240 -2.124405 8,150 300 274 -1664
2023-01-20 16:52:42 GMT 53.076626 -2.122716 8,175 300 274 -1664
2023-01-20 16:52:40 GMT 53.075272 -2.118759 8,225 300 274 -1664
2023-01-20 16:52:39 GMT 53.073349 -2.113113 8,325 300 274 -1664
2023-01-20 16:52:37 GMT 53.073349 -2.113113 8,325 300 274 -1664
2023-01-20 16:52:34 GMT 53.071552 -2.107884 8,400 300 274 -1664
2023-01-20 16:52:32 GMT 53.070297 -2.104274 8,450 300 274 -1664
2023-01-20 16:52:31 GMT 53.069733 -2.102509 8,475 300 274 -1664
2023-01-20 16:52:30 GMT 53.069092 -2.100677 8,500 300 274 -1600
2023-01-20 16:52:27 GMT 53.067131 -2.094936 8,600 300 274 -1600
2023-01-20 16:52:25 GMT 53.065842 -2.091141 8,625 300 274 -1600
2023-01-20 16:52:23 GMT 53.064663 -2.087795 8,700 300 275 -1600
2023-01-20 16:52:21 GMT 53.063080 -2.083165 8,750 300 275 -1600
2023-01-20 16:52:18 GMT 53.060532 -2.075806 8,850 300 275 -1600
2023-01-20 16:52:16 GMT 53.060532 -2.075806 8,875 300 275 -1600
2023-01-20 16:52:14 GMT 53.059250 -2.072144 8,925 300 275 -1600
2023-01-20 16:52:13 GMT 53.058609 -2.070312 8,950 300 275 -1600
2023-01-20 16:52:12 GMT 53.057419 -2.066803 9,025 300 275 -1600
2023-01-20 16:52:10 GMT 53.056564 -2.064331 9,075 300 275 -1600
2023-01-20 16:52:08 GMT 53.055405 -2.060928 9,075 301 275 -1600
2023-01-20 16:52:06 GMT 53.054096 -2.057190 9,150 301 275 -1600
2023-01-20 16:52:05 GMT 53.053398 -2.055150 9,175 301 275 -1600
2023-01-20 16:52:04 GMT 53.052094 -2.051461 9,225 300 276 -1600
2023-01-20 16:52:01 GMT 53.050838 -2.047852 9,275 301 277 -1664
2023-01-20 16:51:59 GMT 53.049500 -2.044067 9,325 301 277 -1600
2023-01-20 16:51:57 GMT 53.048492 -2.041092 9,400 301 277 -1600
2023-01-20 16:51:56 GMT 53.047810 -2.039141 9,400 301 277 -1600
2023-01-20 16:51:55 GMT 53.046413 -2.035139 9,475 300 278 -1536
2023-01-20 16:51:53 GMT 53.045746 -2.033157 9,500 300 278 -1536
2023-01-20 16:51:51 GMT 53.044373 -2.029343 9,550 300 278 -1600
2023-01-20 16:51:50 GMT 53.043732 -2.027512 9,600 300 278 -1600
2023-01-20 16:51:49 GMT 53.043091 -2.025604 9,625 300 278 -1600
2023-01-20 16:51:47 GMT 53.041759 -2.021798 9,675 300 279 -1664
2023-01-20 16:51:45 GMT 53.040733 -2.018895 9,700 300 279 -1664
2023-01-20 16:51:44 GMT 53.040035 -2.016854 9,750 300 279 -1664
2023-01-20 16:51:42 GMT 53.038696 -2.013016 9,775 300 279 -1728
2023-01-20 16:51:41 GMT 53.038010 -2.010956 9,850 300 279 -1664
2023-01-20 16:51:39 GMT 53.036732 -2.007359 9,875 300 279 -1472
2023-01-20 16:51:38 GMT 53.036125 -2.005476 9,925 300 279 -1408
2023-01-20 16:51:36 GMT 53.034897 -2.002029 9,950 300 279 -1280
2023-01-20 16:51:35 GMT 53.034309 -2.000296 9,975 300 280 -1216
2023-01-20 16:51:34 GMT 53.033569 -1.998138 10,025 300 281 -1152
2023-01-20 16:51:32 GMT 53.032288 -1.994400 10,025 300 281 -1088
2023-01-20 16:51:31 GMT 53.031658 -1.992606 10,050 300 281 -1024
2023-01-20 16:51:29 GMT 53.030411 -1.988983 10,075 300 282 -896
2023-01-20 16:51:27 GMT 53.029099 -1.985151 10,100 300 282 -768
2023-01-20 16:51:26 GMT 53.028442 -1.983337 10,125 300 283 -768
2023-01-20 16:51:25 GMT 53.027756 -1.981277 10,125 300 283 -768
2023-01-20 16:51:23 GMT 53.026398 -1.977382 10,150 300 285 -768
2023-01-20 16:51:22 GMT 53.025787 -1.975632 10,175 300 285 -768
2023-01-20 16:51:20 GMT 53.024460 -1.971817 10,200 300 287 -832
2023-01-20 16:51:18 GMT 53.023140 -1.967887 10,200 300 287 -832
2023-01-20 16:51:17 GMT 53.022488 -1.966003 10,225 300 288 -896
2023-01-20 16:51:16 GMT 53.021576 -1.963425 10,250 300 288 -896
2023-01-20 16:51:15 GMT 53.020859 -1.961373 10,275 300 290 -896
2023-01-20 16:51:13 GMT 53.019562 -1.957626 10,300 300 291 -832
2023-01-20 16:51:12 GMT 53.018295 -1.953840 10,325 300 292 -832
2023-01-20 16:51:10 GMT 53.017597 -1.951878 10,325 300 292 -960
2023-01-20 16:51:09 GMT 53.016201 -1.947798 10,375 300 293 -1024
2023-01-20 16:51:07 GMT 53.015488 -1.945724 10,375 300 293 -1024
2023-01-20 16:51:05 GMT 53.014435 -1.942697 10,425 300 294 -1152
2023-01-20 16:51:04 GMT 53.013783 -1.940735 10,425 300 294 -1216
2023-01-20 16:51:03 GMT 53.012432 -1.936811 10,475 300 296 -1408
2023-01-20 16:51:01 GMT 53.010941 -1.932495 10,525 300 296 -1472
2023-01-20 16:50:59 GMT 53.010361 -1.930771 10,550 300 296 -1536
2023-01-20 16:50:58 GMT 53.009033 -1.926923 10,600 300 297 -1728
2023-01-20 16:50:55 GMT 53.006973 -1.920929 10,700 300 298 -1856
2023-01-20 16:50:53 GMT 53.006195 -1.918716 10,725 300 298 -1792
2023-01-20 16:50:51 GMT 53.004517 -1.913897 10,800 300 299 -1792
2023-01-20 16:50:49 GMT 53.003036 -1.909637 10,850 300 299 -1792
2023-01-20 16:50:47 GMT 53.002144 -1.906913 10,900 300 299 -1856
2023-01-20 16:50:46 GMT 52.999863 -1.900321 10,975 300 299 -1856
2023-01-20 16:50:44 GMT 52.999863 -1.900321 11,075 300 300 -1856
2023-01-20 16:50:42 GMT 52.997723 -1.894200 11,100 300 300 -1856
2023-01-20 16:50:39 GMT 52.996605 -1.890982 11,125 300 301 -1856
2023-01-20 16:50:38 GMT 52.995895 -1.888885 11,200 300 301 -1856
2023-01-20 16:50:36 GMT 52.994522 -1.884918 11,275 300 301 -1856
2023-01-20 16:50:34 GMT 52.992462 -1.879054 11,325 300 301 -1664
2023-01-20 16:50:32 GMT 52.989899 -1.871599 11,400 300 301 -1600
2023-01-20 16:50:30 GMT 52.989899 -1.871599 11,425 300 301 -1536
2023-01-20 16:50:29 GMT 52.989166 -1.869507 11,450 300 301 -1344
2023-01-20 16:50:27 GMT 52.987900 -1.865792 11,500 300 301 -1216
2023-01-20 16:50:25 GMT 52.986877 -1.862946 11,525 300 301 -1152
2023-01-20 16:50:23 GMT 52.985199 -1.858024 11,550 300 301 -960
2023-01-20 16:50:22 GMT 52.984501 -1.856062 11,600 300 301 -960
2023-01-20 16:50:21 GMT 52.984131 -1.854935 11,600 300 301 -960
2023-01-20 16:50:19 GMT 52.982574 -1.850510 11,625 300 301 -960
2023-01-20 16:50:18 GMT 52.981941 -1.848685 11,650 300 301 -960
2023-01-20 16:50:16 GMT 52.980541 -1.844683 11,675 300 301 -1024
2023-01-20 16:50:15 GMT 52.979874 -1.842728 11,700 300 301 -1024
2023-01-20 16:50:13 GMT 52.978264 -1.838091 11,750 301 301 -1024
2023-01-20 16:50:12 GMT 52.977566 -1.836051 11,750 301 301 -1024
2023-01-20 16:50:11 GMT 52.976212 -1.832199 11,800 301 301 -1088
2023-01-20 16:50:08 GMT 52.975052 -1.828910 11,825 301 301 -1088
2023-01-20 16:50:07 GMT 52.974304 -1.826712 11,850 301 301 -1088
2023-01-20 16:50:06 GMT 52.973328 -1.823887 11,875 301 301 -1088
2023-01-20 16:50:04 GMT 52.971931 -1.819885 11,900 301 302 -1088
2023-01-20 16:50:03 GMT 52.971268 -1.818008 11,925 301 301 -1088
2023-01-20 16:50:02 GMT 52.970673 -1.816275 11,925 301 301 -1088
2023-01-20 16:49:59 GMT 52.968658 -1.810608 11,975 301 301 -1088
2023-01-20 16:49:57 GMT 52.967194 -1.806412 12,025 301 301 -1088
2023-01-20 16:49:56 GMT 52.966438 -1.804347 12,050 301 301 -1024
2023-01-20 16:49:55 GMT 52.965740 -1.802386 12,050 301 301 -1024
2023-01-20 16:49:53 GMT 52.962891 -1.794357 12,125 301 301 -960
2023-01-20 16:49:51 GMT 52.962891 -1.794357 12,125 301 300 -960
2023-01-20 16:49:50 GMT 52.962112 -1.792145 12,150 301 300 -960
2023-01-20 16:49:48 GMT 52.960693 -1.788177 12,175 301 300 -896
2023-01-20 16:49:46 GMT 52.959454 -1.784729 12,200 301 300 -896
2023-01-20 16:49:43 GMT 52.956573 -1.776505 12,275 301 299 -896
2023-01-20 16:49:41 GMT 52.955841 -1.774521 12,275 301 299 -832
2023-01-20 16:49:40 GMT 52.953690 -1.768417 12,325 301 298 -896
2023-01-20 16:49:38 GMT 52.953690 -1.768417 12,325 301 298 -896
2023-01-20 16:49:36 GMT 52.952179 -1.764069 12,375 301 298 -896
2023-01-20 16:49:35 GMT 52.951767 -1.762848 12,375 301 298 -896
2023-01-20 16:49:34 GMT 52.950424 -1.758990 12,400 301 297 -896
2023-01-20 16:49:31 GMT 52.948330 -1.753104 12,450 301 297 -896
2023-01-20 16:49:29 GMT 52.947372 -1.750183 12,475 301 297 -896
2023-01-20 16:49:27 GMT 52.946045 -1.746445 12,500 301 297 -960
2023-01-20 16:49:26 GMT 52.945305 -1.744393 12,500 301 297 -960
2023-01-20 16:49:23 GMT 52.943893 -1.740341 12,550 301 297 -960
2023-01-20 16:49:22 GMT 52.943207 -1.738358 12,550 301 297 -960
2023-01-20 16:49:20 GMT 52.941925 -1.734619 12,600 300 298 -1024
2023-01-20 16:49:19 GMT 52.941238 -1.732635 12,625 300 298 -1024
2023-01-20 16:49:17 GMT 52.939812 -1.728542 12,650 300 298 -1024
2023-01-20 16:49:16 GMT 52.938400 -1.724548 12,675 301 299 -1088
2023-01-20 16:49:14 GMT 52.937668 -1.722421 12,700 301 299 -1024
2023-01-20 16:49:13 GMT 52.935665 -1.716692 12,725 301 299 -1024
2023-01-20 16:49:11 GMT 52.935665 -1.716692 12,750 301 299 -1024
2023-01-20 16:49:08 GMT 52.933273 -1.709900 12,800 301 299 -1024
2023-01-20 16:49:06 GMT 52.931942 -1.706020 12,825 301 299 -1024
2023-01-20 16:49:05 GMT 52.931213 -1.703949 12,850 301 300 -1024
2023-01-20 16:49:04 GMT 52.929848 -1.700056 12,875 301 300 -1024
2023-01-20 16:49:02 GMT 52.929195 -1.698251 12,950 301 300 -1024
2023-01-20 16:49:00 GMT 52.926262 -1.689933 12,975 301 300 -960
2023-01-20 16:48:58 GMT 52.926262 -1.689933 12,975 301 300 -960
2023-01-20 16:48:57 GMT 52.924026 -1.683426 13,050 301 300 -960
2023-01-20 16:48:55 GMT 52.924026 -1.683426 13,050 301 300 -960
2023-01-20 16:48:53 GMT 52.922836 -1.680069 13,050 301 301 -960
2023-01-20 16:48:52 GMT 52.922169 -1.678162 13,075 301 301 -960
2023-01-20 16:48:51 GMT 52.921280 -1.675720 13,100 301 301 -960
2023-01-20 16:48:48 GMT 52.918537 -1.667803 13,175 301 302 -960
2023-01-20 16:48:46 GMT 52.917835 -1.665841 13,175 301 302 -960
2023-01-20 16:48:45 GMT 52.916348 -1.661604 13,225 301 302 -960
2023-01-20 16:48:42 GMT 52.914551 -1.656570 13,300 301 302 -1024
2023-01-20 16:48:39 GMT 52.913498 -1.653519 13,300 301 302 -1024
2023-01-20 16:48:37 GMT 52.911785 -1.648655 13,300 301 302 -1024
2023-01-20 16:48:36 GMT 52.911179 -1.646851 13,350 301 302 -1024
2023-01-20 16:48:34 GMT 52.909828 -1.643005 13,375 301 302 -1024
2023-01-20 16:48:33 GMT 52.909039 -1.640808 13,375 301 302 -1024
2023-01-20 16:48:32 GMT 52.907639 -1.636734 13,425 301 302 -1024
2023-01-20 16:48:30 GMT 52.906906 -1.634750 13,450 301 302 -1024
2023-01-20 16:48:28 GMT 52.905487 -1.630707 13,475 301 302 -1024
2023-01-20 16:48:27 GMT 52.904709 -1.628409 13,500 301 302 -1024
2023-01-20 16:48:25 GMT 52.903381 -1.624680 13,525 301 302 -1024
2023-01-20 16:48:24 GMT 52.901871 -1.620405 13,550 301 303 -1024
2023-01-20 16:48:22 GMT 52.901127 -1.618208 13,575 301 303 -960
2023-01-20 16:48:21 GMT 52.900379 -1.616167 13,600 301 303 -960
2023-01-20 16:48:19 GMT 52.898983 -1.612165 13,625 301 303 -960
2023-01-20 16:48:18 GMT 52.896606 -1.605453 13,675 301 303 -960
2023-01-20 16:48:16 GMT 52.896606 -1.605453 13,675 301 303 -960
2023-01-20 16:48:15 GMT 52.896011 -1.603699 13,700 301 303 -960
2023-01-20 16:48:13 GMT 52.894501 -1.599426 13,725 301 304 -960
2023-01-20 16:48:11 GMT 52.892281 -1.593175 13,775 301 304 -896
2023-01-20 16:48:09 GMT 52.891891 -1.592026 13,800 301 304 -896
2023-01-20 16:48:07 GMT 52.890198 -1.587219 13,825 301 304 -896
2023-01-20 16:48:06 GMT 52.889626 -1.585484 13,850 301 304 -896
2023-01-20 16:48:05 GMT 52.888916 -1.583633 13,850 301 304 -896
2023-01-20 16:48:03 GMT 52.887486 -1.579520 13,875 301 304 -832
2023-01-20 16:48:02 GMT 52.886833 -1.577715 13,900 301 304 -832
2023-01-20 16:48:01 GMT 52.886089 -1.575518 13,900 301 304 -832
2023-01-20 16:47:59 GMT 52.884567 -1.571198 13,950 301 304 -832
2023-01-20 16:47:58 GMT 52.883900 -1.569240 13,950 301 304 -832
2023-01-20 16:47:56 GMT 52.883156 -1.567278 13,975 301 304 -832
2023-01-20 16:47:55 GMT 52.881805 -1.563433 14,000 301 304 -896
2023-01-20 16:47:53 GMT 52.880829 -1.560686 14,025 301 304 -896
2023-01-20 16:47:52 GMT 52.880131 -1.558646 14,025 301 304 -896
2023-01-20 16:47:50 GMT 52.878799 -1.554947 14,125 301 305 -1024
2023-01-20 16:47:48 GMT 52.877010 -1.549779 14,125 301 305 -1088
2023-01-20 16:47:46 GMT 52.875847 -1.546561 14,150 301 307 -1152
2023-01-20 16:47:43 GMT 52.873707 -1.540519 14,225 301 307 -1344
2023-01-20 16:47:41 GMT 52.872162 -1.536179 14,225 301 307 -1408
2023-01-20 16:47:40 GMT 52.870743 -1.532059 14,300 301 309 -1600
2023-01-20 16:47:36 GMT 52.868401 -1.525452 14,375 301 309 -1856
2023-01-20 16:47:34 GMT 52.865479 -1.517258 14,500 301 309 -2112
2023-01-20 16:47:32 GMT 52.864304 -1.513838 14,525 301 309 -2112
2023-01-20 16:47:30 GMT 52.864304 -1.513838 14,575 301 309 -2176
2023-01-20 16:47:29 GMT 52.862366 -1.508408 14,675 301 309 -2240
2023-01-20 16:47:25 GMT 52.860535 -1.503143 15,125 301 309 -2240
2023-01-20 16:47:24 GMT 52.859802 -1.501083 14,800 301 309 -2304
2023-01-20 16:47:21 GMT 52.857319 -1.494062 14,925 301 308 -2304
2023-01-20 16:47:20 GMT 52.855591 -1.489029 15,000 301 308 -2304
2023-01-20 16:47:18 GMT 52.855591 -1.489029 15,050 301 308 -2304
2023-01-20 16:47:16 GMT 52.854061 -1.484645 15,125 300 308 -2240
2023-01-20 16:47:14 GMT 52.852711 -1.480800 15,175 300 308 -2176
2023-01-20 16:47:13 GMT 52.851967 -1.478760 15,225 300 308 -2112
2023-01-20 16:47:11 GMT 52.850601 -1.474762 15,375 300 309 -1984
2023-01-20 16:47:09 GMT 52.848801 -1.469578 15,375 300 309 -1984
2023-01-20 16:47:07 GMT 52.847305 -1.465378 15,450 300 309 -2048
2023-01-20 16:47:05 GMT 52.845886 -1.461258 15,500 300 309 -2048
2023-01-20 16:47:04 GMT 52.845215 -1.459377 15,550 300 309 -1984
2023-01-20 16:47:02 GMT 52.844193 -1.456316 15,600 300 309 -1920
2023-01-20 16:47:01 GMT 52.843399 -1.454041 15,625 300 309 -1856
2023-01-20 16:47:00 GMT 52.841354 -1.448212 15,700 300 309 -1728
2023-01-20 16:46:58 GMT 52.841354 -1.448212 15,725 300 310 -1728
2023-01-20 16:46:55 GMT 52.839249 -1.442032 15,775 300 311 -1536
2023-01-20 16:46:54 GMT 52.838280 -1.439209 15,825 300 311 -1536
2023-01-20 16:46:52 GMT 52.837162 -1.435913 15,875 300 311 -1536
2023-01-20 16:46:51 GMT 52.836044 -1.432724 15,900 300 312 -1472
2023-01-20 16:46:49 GMT 52.833389 -1.425018 15,975 300 313 -1472
2023-01-20 16:46:47 GMT 52.833389 -1.425018 16,000 300 313 -1536
2023-01-20 16:46:46 GMT 52.832703 -1.422958 16,025 300 313 -1536
2023-01-20 16:46:43 GMT 52.830826 -1.417542 16,075 300 315 -1664
2023-01-20 16:46:42 GMT 52.829575 -1.413862 16,150 300 315 -1856
2023-01-20 16:46:40 GMT 52.828354 -1.410446 16,175 300 315 -1920
2023-01-20 16:46:39 GMT 52.827667 -1.408447 16,225 300 316 -2240
2023-01-20 16:46:38 GMT 52.826965 -1.406328 16,300 300 316 -2368
2023-01-20 16:46:37 GMT 52.825424 -1.401825 16,350 300 315 -2560
2023-01-20 16:46:34 GMT 52.824051 -1.397858 16,425 300 315 -2688
2023-01-20 16:46:33 GMT 52.823292 -1.395656 16,525 300 315 -2688
2023-01-20 16:46:32 GMT 52.822498 -1.393302 16,550 300 314 -2752
2023-01-20 16:46:29 GMT 52.820869 -1.388515 16,650 300 314 -2752
2023-01-20 16:46:28 GMT 52.819565 -1.384659 16,725 300 313 -2688
2023-01-20 16:46:26 GMT 52.818123 -1.380354 16,825 300 312 -2496
2023-01-20 16:46:25 GMT 52.816307 -1.375017 17,000 300 312 -2368
2023-01-20 16:46:23 GMT 52.816307 -1.375017 17,000 300 312 -2304
2023-01-20 16:46:21 GMT 52.814537 -1.369760 17,025 300 312 -2112
2023-01-20 16:46:19 GMT 52.813328 -1.366228 17,100 300 312 -2112
2023-01-20 16:46:18 GMT 52.812675 -1.364345 17,100 300 312 -2048
2023-01-20 16:46:16 GMT 52.811234 -1.360092 17,175 300 313 -1984
2023-01-20 16:46:15 GMT 52.810490 -1.357910 17,200 300 313 -1856
2023-01-20 16:46:14 GMT 52.809769 -1.355743 17,250 300 313 -1856
2023-01-20 16:46:11 GMT 52.808300 -1.351475 17,300 300 313 -1792
2023-01-20 16:46:10 GMT 52.806976 -1.347656 17,350 300 313 -1792
2023-01-20 16:46:08 GMT 52.805511 -1.343460 17,425 300 314 -1792
2023-01-20 16:46:06 GMT 52.804138 -1.339569 17,500 301 314 -1856
2023-01-20 16:46:05 GMT 52.803406 -1.337509 17,525 301 315 -1856
2023-01-20 16:46:03 GMT 52.801804 -1.332932 17,575 301 314 -1920
2023-01-20 16:46:02 GMT 52.801071 -1.330795 17,600 301 314 -1920
2023-01-20 16:45:59 GMT 52.799561 -1.326675 17,700 301 314 -1920
2023-01-20 16:45:58 GMT 52.798828 -1.324615 17,700 301 314 -1920
2023-01-20 16:45:56 GMT 52.797127 -1.320007 17,800 302 315 -1984
2023-01-20 16:45:54 GMT 52.795578 -1.315842 17,850 302 314 -2048
2023-01-20 16:45:52 GMT 52.794067 -1.311722 17,875 303 315 -2048
2023-01-20 16:45:50 GMT 52.792797 -1.308393 18,000 303 315 -2048
2023-01-20 16:45:49 GMT 52.792053 -1.306458 18,100 303 314 -2048
2023-01-20 16:45:47 GMT 52.790085 -1.301422 18,100 304 314 -2048
2023-01-20 16:45:45 GMT 52.787815 -1.295680 18,150 304 314 -2048
2023-01-20 16:45:43 GMT 52.787155 -1.294022 18,275 305 313 -1984
2023-01-20 16:45:41 GMT 52.784233 -1.286970 18,325 305 314 -1984
2023-01-20 16:45:39 GMT 52.783401 -1.284943 18,450 305 314 -1984
2023-01-20 16:45:37 GMT 52.781845 -1.281204 18,450 305 314 -1984
2023-01-20 16:45:35 GMT 52.780518 -1.278000 18,450 305 314 -1984
2023-01-20 16:45:34 GMT 52.779602 -1.275864 18,500 305 315 -1920
2023-01-20 16:45:33 GMT 52.777111 -1.269784 18,600 305 315 -1920
2023-01-20 16:45:31 GMT 52.777111 -1.269784 18,600 305 315 -1920
2023-01-20 16:45:30 GMT 52.776180 -1.267665 18,650 305 315 -1920
2023-01-20 16:45:28 GMT 52.774429 -1.263351 18,725 305 316 -1920
2023-01-20 16:45:26 GMT 52.772690 -1.259232 18,850 305 316 -1984
2023-01-20 16:45:25 GMT 52.771805 -1.257150 18,825 305 316 -2048
2023-01-20 16:45:23 GMT 52.770222 -1.253305 18,850 305 316 -2048
2023-01-20 16:45:21 GMT 52.768406 -1.248910 18,950 305 317 -2176
2023-01-20 16:45:19 GMT 52.767101 -1.245771 19,075 305 317 -2176
2023-01-20 16:45:17 GMT 52.765366 -1.241684 19,075 305 317 -2176
2023-01-20 16:45:16 GMT 52.764450 -1.239471 19,125 305 317 -2240
2023-01-20 16:45:14 GMT 52.761246 -1.231689 19,250 305 317 -2304
2023-01-20 16:45:12 GMT 52.761246 -1.231689 19,300 305 317 -2304
2023-01-20 16:45:10 GMT 52.759701 -1.228036 19,450 305 317 -2304
2023-01-20 16:45:08 GMT 52.757401 -1.222534 19,450 305 317 -2304
2023-01-20 16:45:06 GMT 52.756302 -1.219875 19,600 305 317 -2304
2023-01-20 16:45:04 GMT 52.754208 -1.214852 19,600 305 317 -2240
2023-01-20 16:45:03 GMT 52.753368 -1.212812 19,625 305 317 -2176
2023-01-20 16:45:02 GMT 52.752579 -1.210850 19,675 305 317 -2048
2023-01-20 16:45:00 GMT 52.749550 -1.203709 19,925 305 318 -1984
2023-01-20 16:44:58 GMT 52.748295 -1.200727 19,925 305 318 -1984
2023-01-20 16:44:54 GMT 52.745865 -1.194839 19,925 305 318 -1728
2023-01-20 16:44:53 GMT 52.744949 -1.192627 20,000 305 319 -1408
2023-01-20 16:44:51 GMT 52.743439 -1.189041 20,000 305 319 -1408
2023-01-20 16:44:49 GMT 52.741730 -1.184954 20,050 305 319 -1408
2023-01-20 16:44:48 GMT 52.740921 -1.183014 20,075 305 319 -1280
2023-01-20 16:44:45 GMT 52.738052 -1.176086 20,150 304 320 -1152
2023-01-20 16:44:42 GMT 52.735886 -1.170654 20,200 304 321 -1216
2023-01-20 16:44:40 GMT 52.734238 -1.166611 20,275 304 323 -1600
2023-01-20 16:44:37 GMT 52.731812 -1.160431 20,375 303 323 -1792
2023-01-20 16:44:34 GMT 52.728973 -1.153183 20,450 301 326 -2048
2023-01-20 16:44:31 GMT 52.727673 -1.149719 20,525 302 326 -2048
2023-01-20 16:44:29 GMT 52.725723 -1.144562 20,525 301 327 -1984
2023-01-20 16:44:26 GMT 52.722977 -1.136856 21,275 299 332 -1024
2023-01-20 16:44:23 GMT 52.718948 -1.125031 20,900 299 329 -1728
2023-01-20 16:44:21 GMT 52.718948 -1.125031 20,900 298 331 -1472
2023-01-20 16:44:18 GMT 52.716888 -1.118546 20,950 297 333 -1280
2023-01-20 16:44:15 GMT 52.715057 -1.112601 20,975 298 333 -1216
2023-01-20 16:44:13 GMT 52.712082 -1.103287 21,050 298 333 -1088
2023-01-20 16:44:11 GMT 52.712082 -1.103287 21,200 312 321 -896
2023-01-20 16:44:08 GMT 52.709843 -1.096828 21,100 304 329 -768
2023-01-20 16:44:05 GMT 52.705048 -1.085292 21,175 306 327 -768
2023-01-20 16:44:02 GMT 52.705048 -1.085292 21,225 313 320 -896
2023-01-20 16:43:59 GMT 52.702347 -1.079721 21,225 313 320 -896
2023-01-20 16:43:56 GMT 52.696152 -1.068649 21,275 314 319 -896
2023-01-20 16:43:53 GMT 52.696152 -1.068649 21,300 314 319 -896
2023-01-20 16:43:51 GMT 52.694138 -1.065140 21,325 314 319 -960
2023-01-20 16:43:48 GMT 52.691315 -1.060338 21,400 314 319 -960
2023-01-20 16:43:45 GMT 52.688324 -1.055145 21,425 314 319 -896
2023-01-20 16:43:42 GMT 52.685032 -1.049430 21,500 314 318 -960
2023-01-20 16:43:40 GMT 52.682556 -1.045074 21,500 314 319 -896
2023-01-20 16:43:38 GMT 52.681137 -1.042633 21,550 314 318 -960
2023-01-20 16:43:35 GMT 52.677303 -1.036011 21,600 314 319 -1024
2023-01-20 16:43:32 GMT 52.672691 -1.027928 21,675 314 319 -1024
2023-01-20 16:43:30 GMT 52.672691 -1.027928 21,675 314 319 -1024
2023-01-20 16:43:28 GMT 52.670132 -1.023533 21,700 314 319 -1088
2023-01-20 16:43:25 GMT 52.668037 -1.019845 21,775 314 319 -1088
2023-01-20 16:43:22 GMT 52.664246 -1.013260 21,800 314 319 -1088
2023-01-20 16:43:19 GMT 52.661499 -1.008453 21,850 314 320 -1088
2023-01-20 16:43:17 GMT 52.660030 -1.005877 22,050 314 320 -1088
2023-01-20 16:43:14 GMT 52.656353 -0.999520 21,975 314 321 -1024
2023-01-20 16:43:11 GMT 52.654175 -0.995712 22,000 314 321 -1088
2023-01-20 16:43:09 GMT 52.650951 -0.990104 22,200 314 321 -1024
2023-01-20 16:43:06 GMT 52.648022 -0.985003 22,100 314 321 -1024
2023-01-20 16:43:03 GMT 52.645523 -0.980606 22,175 314 321 -960
2023-01-20 16:43:00 GMT 52.641830 -0.974173 22,225 314 321 -960
2023-01-20 16:42:57 GMT 52.639847 -0.970688 22,825 314 321 -960
2023-01-20 16:42:54 GMT 52.636337 -0.964521 22,325 314 321 -896
2023-01-20 16:42:51 GMT 52.633759 -0.960007 22,325 314 321 -896
2023-01-20 16:42:49 GMT 52.631195 -0.955582 22,375 314 320 -960
2023-01-20 16:42:46 GMT 52.627625 -0.949402 22,450 314 320 -960
2023-01-20 16:42:43 GMT 52.625610 -0.945816 22,475 314 320 -960
2023-01-20 16:42:41 GMT 52.623207 -0.941685 22,500 314 321 -960
2023-01-20 16:42:39 GMT 52.621628 -0.938950 22,500 314 321 -960
2023-01-20 16:42:37 GMT 52.618149 -0.932999 22,575 314 320 -1024
2023-01-20 16:42:34 GMT 52.615993 -0.929208 22,650 314 321 -1024
2023-01-20 16:42:31 GMT 52.612782 -0.923715 22,650 314 321 -1024
2023-01-20 16:42:29 GMT 52.611603 -0.921707 22,825 315 321 -1088
2023-01-20 16:42:27 GMT 52.605564 -0.911473 22,750 315 321 -1088
2023-01-20 16:42:24 GMT 52.605564 -0.911473 22,800 315 322 -1088
2023-01-20 16:42:21 GMT 52.602448 -0.906215 22,825 315 323 -1088
2023-01-20 16:42:19 GMT 52.600258 -0.902527 22,950 315 323 -1088
2023-01-20 16:42:16 GMT 52.594624 -0.893110 22,950 315 323 -1088
2023-01-20 16:42:13 GMT 52.594624 -0.893110 23,000 315 324 -1152
2023-01-20 16:42:10 GMT 52.591095 -0.887222 23,025 315 324 -1152
2023-01-20 16:42:08 GMT 52.585548 -0.878043 23,125 315 325 -1088
2023-01-20 16:42:05 GMT 52.585548 -0.878043 23,250 315 326 -1024
2023-01-20 16:42:02 GMT 52.582382 -0.872785 23,200 315 326 -1088
2023-01-20 16:41:59 GMT 52.579651 -0.868301 23,250 315 326 -1024
2023-01-20 16:41:57 GMT 52.577400 -0.864467 23,275 315 325 -960
2023-01-20 16:41:54 GMT 52.571686 -0.855103 23,375 315 325 -960
2023-01-20 16:41:52 GMT 52.571686 -0.855103 23,375 315 325 -960
2023-01-20 16:41:50 GMT 52.570633 -0.853348 23,425 315 325 -960
2023-01-20 16:41:48 GMT 52.567429 -0.848083 23,475 315 325 -960
2023-01-20 16:41:45 GMT 52.564087 -0.842651 23,600 316 323 -1152
2023-01-20 16:41:42 GMT 52.560081 -0.836060 23,550 316 323 -1024
2023-01-20 16:41:39 GMT 52.558502 -0.833470 23,575 316 323 -1024
2023-01-20 16:41:37 GMT 52.552460 -0.823669 23,625 316 323 -1152
2023-01-20 16:41:34 GMT 52.552460 -0.823669 23,700 316 324 -1280
2023-01-20 16:41:32 GMT 52.551472 -0.822013 23,725 316 325 -1536
2023-01-20 16:41:29 GMT 52.543304 -0.808868 23,800 315 328 -1792
2023-01-20 16:41:26 GMT 52.543304 -0.808868 23,875 316 325 -1728
2023-01-20 16:41:23 GMT 52.541088 -0.805298 23,925 316 326 -1728
2023-01-20 16:41:21 GMT 52.536713 -0.798078 24,050 315 328 -1792
2023-01-20 16:41:19 GMT 52.536713 -0.798078 24,050 313 329 -1792
2023-01-20 16:41:17 GMT 52.533501 -0.792428 24,150 312 330 -1856
2023-01-20 16:41:14 GMT 52.531406 -0.788426 24,275 309 335 -1856
2023-01-20 16:41:11 GMT 52.528801 -0.783011 24,325 307 337 -1856
2023-01-20 16:41:09 GMT 52.524719 -0.773544 24,375 304 339 -1856
2023-01-20 16:41:07 GMT 52.522888 -0.768738 24,450 303 341 -1856
2023-01-20 16:41:04 GMT 52.522888 -0.768738 24,500 301 344 -1856
2023-01-20 16:41:02 GMT 52.520325 -0.761490 24,625 299 346 -1856
2023-01-20 16:40:59 GMT 52.516891 -0.751114 24,675 299 347 -1856
2023-01-20 16:40:57 GMT 52.516891 -0.751114 24,775 299 347 -1856
2023-01-20 16:40:54 GMT 52.514328 -0.743256 24,925 299 348 -1856
2023-01-20 16:40:51 GMT 52.513092 -0.739517 24,925 299 348 -1856
2023-01-20 16:40:49 GMT 52.511673 -0.735092 25,000 299 348 -1856
2023-01-20 16:40:47 GMT 52.506737 -0.719918 25,100 299 348 -1792
2023-01-20 16:40:44 GMT 52.505539 -0.716324 25,175 299 348 -1792
2023-01-20 16:40:41 GMT 52.505539 -0.716324 25,200 299 348 -1792
2023-01-20 16:40:39 GMT 52.503662 -0.710526 25,350 299 348 -1792
2023-01-20 16:40:36 GMT 52.501373 -0.703506 25,425 299 348 -1792
2023-01-20 16:40:33 GMT 52.498856 -0.695801 25,475 299 348 -1792
2023-01-20 16:40:30 GMT 52.496613 -0.688858 25,575 299 348 -1792
2023-01-20 16:40:28 GMT 52.495468 -0.685349 25,600 299 348 -1792
2023-01-20 16:40:26 GMT 52.493500 -0.679321 25,725 299 348 -1728
2023-01-20 16:40:23 GMT 52.490707 -0.670624 25,825 299 348 -1728
2023-01-20 16:40:20 GMT 52.488625 -0.664280 25,900 299 349 -1728
2023-01-20 16:40:17 GMT 52.486996 -0.659415 26,025 299 349 -1728
2023-01-20 16:40:14 GMT 52.484711 -0.652237 26,025 299 349 -1792
2023-01-20 16:40:12 GMT 52.482697 -0.646210 26,150 299 350 -1792
2023-01-20 16:40:09 GMT 52.480385 -0.639090 26,275 299 350 -1856
2023-01-20 16:40:06 GMT 52.478119 -0.632172 26,350 299 350 -1856
2023-01-20 16:40:03 GMT 52.476288 -0.626602 26,375 299 350 -1856
2023-01-20 16:40:01 GMT 52.475266 -0.623396 26,400 299 350 -1920
2023-01-20 16:39:59 GMT 52.473263 -0.617353 26,500 299 351 -1920
2023-01-20 16:39:57 GMT 52.471252 -0.611115 26,600 299 352 -1920
2023-01-20 16:39:54 GMT 52.466515 -0.596715 26,775 299 353 -1920
2023-01-20 16:39:51 GMT 52.466515 -0.596715 26,775 299 353 -1920
2023-01-20 16:39:48 GMT 52.465302 -0.593033 26,950 299 353 -1984
2023-01-20 16:39:46 GMT 52.461205 -0.580470 26,975 299 355 -2048
2023-01-20 16:39:43 GMT 52.461205 -0.580470 26,975 299 355 -2048
2023-01-20 16:39:41 GMT 52.459305 -0.574646 27,050 299 355 -2048
2023-01-20 16:39:39 GMT 52.457291 -0.568466 27,200 299 356 -2112
2023-01-20 16:39:36 GMT 52.454865 -0.561142 27,300 299 357 -2176
2023-01-20 16:39:33 GMT 52.452667 -0.554504 27,350 299 357 -2176
2023-01-20 16:39:30 GMT 52.450733 -0.548610 27,450 299 359 -2304
2023-01-20 16:39:28 GMT 52.449234 -0.543976 27,525 299 359 -2368
2023-01-20 16:39:26 GMT 52.447861 -0.539932 27,675 299 359 -2368
2023-01-20 16:39:24 GMT 52.445938 -0.534014 27,825 299 360 -2560
2023-01-20 16:39:21 GMT 52.443649 -0.526962 27,800 299 360 -2560
2023-01-20 16:39:19 GMT 52.442493 -0.523499 27,850 299 360 -2560
2023-01-20 16:39:17 GMT 52.440678 -0.518005 27,975 299 361 -2624
2023-01-20 16:39:14 GMT 52.437881 -0.509415 28,125 299 361 -2688
2023-01-20 16:39:12 GMT 52.436768 -0.505920 28,175 299 361 -2752
2023-01-20 16:39:09 GMT 52.434586 -0.499344 28,300 299 361 -2688
2023-01-20 16:39:07 GMT 52.432617 -0.493317 28,550 299 361 -2688
2023-01-20 16:39:04 GMT 52.429642 -0.484161 28,775 299 361 -2560
2023-01-20 16:39:01 GMT 52.427994 -0.479126 28,700 299 361 -2560
2023-01-20 16:38:59 GMT 52.426758 -0.475316 28,775 299 362 -2560
2023-01-20 16:38:57 GMT 52.424805 -0.469273 28,925 299 362 -2432
2023-01-20 16:38:54 GMT 52.422195 -0.461347 29,000 299 362 -2368
2023-01-20 16:38:51 GMT 52.419823 -0.454049 29,125 299 364 -2304
2023-01-20 16:38:49 GMT 52.418659 -0.450439 29,225 299 365 -2304
2023-01-20 16:38:47 GMT 52.417099 -0.445709 29,300 299 365 -2304
2023-01-20 16:38:45 GMT 52.416000 -0.442352 29,300 299 365 -2304
2023-01-20 16:38:43 GMT 52.413864 -0.435922 29,500 299 371 -2048
2023-01-20 16:38:41 GMT 52.411488 -0.428545 29,550 299 366 -2304
2023-01-20 16:38:38 GMT 52.407944 -0.417709 29,675 299 367 -2240
2023-01-20 16:38:35 GMT 52.407944 -0.417709 29,700 299 367 -2240
2023-01-20 16:38:33 GMT 52.405483 -0.410261 29,825 299 368 -2176
2023-01-20 16:38:31 GMT 52.403549 -0.404205 29,900 299 369 -2112
2023-01-20 16:38:28 GMT 52.401897 -0.399196 30,000 299 370 -2112
2023-01-20 16:38:25 GMT 52.399521 -0.391922 30,500 299 376 -2496
2023-01-20 16:38:22 GMT 52.396732 -0.383423 30,250 299 373 -2048
2023-01-20 16:38:19 GMT 52.394302 -0.376053 30,300 299 373 -2112
2023-01-20 16:38:17 GMT 52.392609 -0.370865 30,325 299 374 -2176
2023-01-20 16:38:15 GMT 52.389565 -0.361529 30,525 299 374 -2304
2023-01-20 16:38:13 GMT 52.389565 -0.361529 30,500 299 376 -2368
2023-01-20 16:38:11 GMT 52.387756 -0.356140 30,600 299 376 -2432
2023-01-20 16:38:09 GMT 52.384769 -0.347089 30,700 299 376 -2432
2023-01-20 16:38:05 GMT 52.382217 -0.339508 30,875 299 377 -2496
2023-01-20 16:38:02 GMT 52.380531 -0.334377 31,000 299 377 -2496
2023-01-20 16:38:00 GMT 52.378372 -0.327988 31,100 299 378 -2368
2023-01-20 16:37:57 GMT 52.374710 -0.317001 31,225 299 378 -2368
2023-01-20 16:37:55 GMT 52.374710 -0.317001 31,275 299 379 -2304
2023-01-20 16:37:52 GMT 52.371323 -0.306931 31,375 299 380 -2368
2023-01-20 16:37:49 GMT 52.369221 -0.300476 31,575 299 381 -2368
2023-01-20 16:37:46 GMT 52.366566 -0.292707 31,650 299 382 -2496
2023-01-20 16:37:43 GMT 52.365005 -0.288010 31,675 299 382 -2560
2023-01-20 16:37:41 GMT 52.362282 -0.279759 31,925 299 383 -2816
2023-01-20 16:37:38 GMT 52.360107 -0.273285 31,925 299 383 -2880
2023-01-20 16:37:35 GMT 52.356884 -0.263515 32,150 299 382 -3264
2023-01-20 16:37:32 GMT 52.354385 -0.256042 32,275 299 382 -3392
2023-01-20 16:37:29 GMT 52.352509 -0.250473 32,400 299 382 -3200
2023-01-20 16:37:27 GMT 52.347702 -0.236053 32,575 299 382 -2816
2023-01-20 16:37:24 GMT 52.347702 -0.236053 32,750 299 383 -2368
2023-01-20 16:37:21 GMT 52.343334 -0.222944 32,800 299 383 -2368
2023-01-20 16:37:18 GMT 52.341614 -0.217922 32,900 299 384 -2560
2023-01-20 16:37:16 GMT 52.341614 -0.217922 33,025 299 385 -3072
2023-01-20 16:37:13 GMT 52.339191 -0.210467 33,050 299 385 -3072
2023-01-20 16:37:11 GMT 52.337147 -0.204346 33,450 299 384 -3584
2023-01-20 16:37:08 GMT 52.333832 -0.194244 33,425 299 384 -3584
2023-01-20 16:37:04 GMT 52.331406 -0.186844 33,625 299 382 -3776
2023-01-20 16:37:01 GMT 52.328751 -0.178757 33,800 299 382 -3840
2023-01-20 16:36:58 GMT 52.327042 -0.173584 34,025 299 379 -3968
2023-01-20 16:36:56 GMT 52.324722 -0.166626 34,150 299 379 -3968
2023-01-20 16:36:54 GMT 52.321270 -0.156241 34,300 299 377 -3840
2023-01-20 16:36:52 GMT 52.321270 -0.156241 34,400 299 376 -3712
2023-01-20 16:36:49 GMT 52.318771 -0.148621 34,525 299 376 -3584
2023-01-20 16:36:47 GMT 52.317444 -0.144653 34,650 299 375 -3456
2023-01-20 16:36:45 GMT 52.315544 -0.139056 34,800 299 375 -3200
2023-01-20 16:36:43 GMT 52.314377 -0.135498 34,875 299 375 -3072
2023-01-20 16:36:41 GMT 52.312271 -0.129318 35,125 299 374 -2688
2023-01-20 16:36:39 GMT 52.308609 -0.118408 35,425 299 374 -2432
2023-01-20 16:36:37 GMT 52.308609 -0.118408 35,225 299 374 -2432
2023-01-20 16:36:34 GMT 52.303619 -0.103607 35,500 299 374 -2176
2023-01-20 16:36:31 GMT 52.303619 -0.103607 35,500 299 374 -2048
2023-01-20 16:36:28 GMT 52.299854 -0.092285 35,575 299 375 -1792
2023-01-20 16:36:26 GMT 52.299854 -0.092285 35,600 299 375 -1664
2023-01-20 16:36:24 GMT 52.296158 -0.081329 35,775 299 375 -1536
2023-01-20 16:36:21 GMT 52.296158 -0.081329 35,725 299 375 -1408
2023-01-20 16:36:19 GMT 52.294006 -0.074844 35,750 299 376 -1280
2023-01-20 16:36:17 GMT 52.292362 -0.069999 35,825 299 376 -1088
2023-01-20 16:36:15 GMT 52.291168 -0.066452 35,825 299 376 -960
2023-01-20 16:36:13 GMT 52.289154 -0.060501 35,875 299 376 -640
2023-01-20 16:36:11 GMT 52.287872 -0.056763 35,900 299 377 -576
2023-01-20 16:36:09 GMT 52.285721 -0.050278 35,925 299 377 -576
2023-01-20 16:36:07 GMT 52.283981 -0.045013 35,950 299 377 -448
2023-01-20 16:36:05 GMT 52.282608 -0.041046 35,950 299 377 -64
2023-01-20 16:36:03 GMT 52.280304 -0.034215 35,975 299 377 -64
2023-01-20 16:36:00 GMT 52.278164 -0.027701 35,975 299 377 -64
2023-01-20 16:35:57 GMT 52.275974 -0.021266 35,975 299 377 -64
2023-01-20 16:35:55 GMT 52.274277 -0.016174 35,975 299 377 -64
2023-01-20 16:35:52 GMT 52.271275 -0.007377 36,000 299 377 -64
2023-01-20 16:35:49 GMT 52.267548 0.003738 36,000 299 376 -64
2023-01-20 16:35:47 GMT 52.267548 0.003738 36,000 299 376 -64
2023-01-20 16:35:45 GMT 52.265686 0.009338 36,000 299 376 -64
2023-01-20 16:35:43 GMT 52.263824 0.014753 36,000 299 376 -64
2023-01-20 16:35:40 GMT 52.261219 0.022443 36,000 299 375 0
2023-01-20 16:35:37 GMT 52.258705 0.029899 36,000 300 376 0
2023-01-20 16:35:34 GMT 52.256096 0.037589 36,000 300 377 0
2023-01-20 16:35:31 GMT 52.253952 0.043869 36,000 300 377 -64
2023-01-20 16:35:28 GMT 52.251160 0.052032 36,000 300 377 -64
2023-01-20 16:35:25 GMT 52.249020 0.058384 36,000 300 377 -64
2023-01-20 16:35:23 GMT 52.247360 0.063248 36,025 300 377 0
2023-01-20 16:35:21 GMT 52.245064 0.070077 36,000 300 377 0
2023-01-20 16:35:18 GMT 52.242970 0.076277 36,025 300 377 64
2023-01-20 16:35:16 GMT 52.241364 0.080795 36,000 300 377 64
2023-01-20 16:35:14 GMT 52.238937 0.088043 36,000 300 377 0
2023-01-20 16:35:11 GMT 52.234955 0.099640 36,000 300 377 0
2023-01-20 16:35:08 GMT 52.234955 0.099640 36,000 300 377 0
2023-01-20 16:35:06 GMT 52.230911 0.111433 36,000 300 378 0
2023-01-20 16:35:04 GMT 52.230911 0.111433 36,000 300 377 0
2023-01-20 16:35:02 GMT 52.227631 0.121002 36,000 300 378 0
2023-01-20 16:35:00 GMT 52.227631 0.121002 36,000 299 379 0
2023-01-20 16:34:57 GMT 52.223370 0.133562 36,000 299 379 0
2023-01-20 16:34:55 GMT 52.223370 0.133562 36,025 299 379 0
2023-01-20 16:34:52 GMT 52.221184 0.140076 36,000 299 379 -64
2023-01-20 16:34:50 GMT 52.218529 0.147766 36,000 299 379 -64
2023-01-20 16:34:47 GMT 52.217056 0.152206 36,000 299 379 -64
2023-01-20 16:34:45 GMT 52.214859 0.158691 36,025 299 379 -64
2023-01-20 16:34:43 GMT 52.213551 0.162598 36,025 299 379 0
2023-01-20 16:34:41 GMT 52.211517 0.168686 36,000 299 379 0
2023-01-20 16:34:39 GMT 52.210522 0.171622 36,025 299 379 0
2023-01-20 16:34:37 GMT 52.207729 0.179862 36,025 299 380 0
2023-01-20 16:34:34 GMT 52.204834 0.188522 36,025 299 379 0
2023-01-20 16:34:31 GMT 52.203232 0.193253 36,025 299 380 0
2023-01-20 16:34:28 GMT 52.201218 0.199280 36,000 299 380 0
2023-01-20 16:34:26 GMT 52.198929 0.206070 36,025 299 381 0
2023-01-20 16:34:24 GMT 52.197254 0.210938 36,000 299 381 64
2023-01-20 16:34:21 GMT 52.194351 0.219574 36,000 299 381 64
2023-01-20 16:34:19 GMT 52.192612 0.224609 36,000 299 381 64
2023-01-20 16:34:17 GMT 52.191296 0.228437 36,000 300 380 64
2023-01-20 16:34:15 GMT 52.186569 0.242386 36,000 300 380 64
2023-01-20 16:34:12 GMT 52.186569 0.242386 36,000 299 381 64
2023-01-20 16:34:09 GMT 52.184593 0.248213 36,000 299 381 64
2023-01-20 16:34:07 GMT 52.180405 0.260533 36,000 299 381 64
2023-01-20 16:34:05 GMT 52.180405 0.260533 36,000 300 382 -64
2023-01-20 16:34:02 GMT 52.178650 0.265656 36,000 299 381 64
2023-01-20 16:33:59 GMT 52.173328 0.281328 36,000 299 381 0
2023-01-20 16:33:56 GMT 52.171051 0.287933 36,000 300 382 64
2023-01-20 16:33:54 GMT 52.171051 0.287933 36,000 300 382 0
2023-01-20 16:33:51 GMT 52.168625 0.294952 36,000 300 382 64
2023-01-20 16:33:48 GMT 52.166061 0.302505 35,975 300 382 64
2023-01-20 16:33:45 GMT 52.163876 0.308873 35,975 300 382 64
2023-01-20 16:33:43 GMT 52.161621 0.315552 35,975 300 382 0
2023-01-20 16:33:40 GMT 52.159176 0.322684 35,975 300 382 0
2023-01-20 16:33:37 GMT 52.156338 0.330924 35,975 300 382 0
2023-01-20 16:33:34 GMT 52.154102 0.337437 35,975 300 382 -64
2023-01-20 16:33:31 GMT 52.150543 0.347824 35,975 300 382 -64
2023-01-20 16:33:27 GMT 52.147934 0.355301 36,000 300 382 -64
2023-01-20 16:33:24 GMT 52.146149 0.360565 36,000 300 381 -64
2023-01-20 16:33:21 GMT 52.143036 0.369568 36,000 300 381 -64
2023-01-20 16:33:18 GMT 52.141022 0.375419 36,000 300 381 0
2023-01-20 16:33:16 GMT 52.137527 0.385463 36,000 300 381 0
2023-01-20 16:33:14 GMT 52.137527 0.385463 36,000 300 381 0
2023-01-20 16:33:12 GMT 52.135296 0.391976 36,000 300 381 0
2023-01-20 16:33:09 GMT 52.133102 0.398331 36,000 300 381 0
2023-01-20 16:33:07 GMT 52.129753 0.407907 36,000 300 382 0
2023-01-20 16:33:02 GMT 52.126308 0.417873 36,000 300 382 0
2023-01-20 16:32:59 GMT 52.124168 0.424151 36,000 300 382 0
2023-01-20 16:32:57 GMT 52.122025 0.430298 36,000 300 382 0
2023-01-20 16:32:54 GMT 52.120377 0.435028 36,000 300 382 0
2023-01-20 16:32:51 GMT 52.117886 0.442121 36,000 300 382 -64
2023-01-20 16:32:49 GMT 52.115650 0.448635 36,000 300 382 -64
2023-01-20 16:32:47 GMT 52.110809 0.462603 36,000 300 381 -64
2023-01-20 16:32:44 GMT 52.110809 0.462603 36,000 300 382 0
2023-01-20 16:32:41 GMT 52.108063 0.470428 36,000 300 381 -64
2023-01-20 16:32:38 GMT 52.106689 0.474472 36,000 300 381 -64
2023-01-20 16:32:36 GMT 52.104801 0.479867 36,000 300 382 0
2023-01-20 16:32:34 GMT 52.103027 0.484924 36,000 300 382 -64
2023-01-20 16:32:31 GMT 52.099915 0.494071 36,000 300 382 -64
2023-01-20 16:32:28 GMT 52.097122 0.502075 36,000 300 382 -64
2023-01-20 16:32:25 GMT 52.092464 0.515573 36,000 300 382 -64
2023-01-20 16:32:23 GMT 52.092464 0.515573 36,000 300 382 -64
2023-01-20 16:32:20 GMT 52.090790 0.520281 36,000 300 382 -64
2023-01-20 16:32:18 GMT 52.088463 0.527030 36,000 300 382 0
2023-01-20 16:32:15 GMT 52.086273 0.533308 36,000 300 382 -64
2023-01-20 16:32:13 GMT 52.083759 0.540527 36,025 300 382 -64
2023-01-20 16:32:10 GMT 52.081993 0.545471 36,025 300 382 -64
2023-01-20 16:32:08 GMT 52.080643 0.549393 36,025 300 382 -64
2023-01-20 16:32:06 GMT 52.078491 0.555649 36,025 300 383 -64
2023-01-20 16:32:03 GMT 52.075382 0.564462 36,025 300 383 -64
2023-01-20 16:32:00 GMT 52.071121 0.576630 36,025 300 383 -64
2023-01-20 16:31:58 GMT 52.071121 0.576630 36,025 300 383 0
2023-01-20 16:31:55 GMT 52.068584 0.584002 36,025 300 383 0
2023-01-20 16:31:53 GMT 52.066772 0.589142 36,025 300 383 0
2023-01-20 16:31:50 GMT 52.064529 0.595627 36,025 300 383 0
2023-01-20 16:31:47 GMT 52.062241 0.602112 36,025 300 383 0
2023-01-20 16:31:45 GMT 52.060299 0.607779 36,025 300 383 0
2023-01-20 16:31:43 GMT 52.058437 0.613037 36,025 300 383 0
2023-01-20 16:31:41 GMT 52.057022 0.617142 36,025 300 384 64
2023-01-20 16:31:39 GMT 52.054413 0.624619 36,000 300 384 64
2023-01-20 16:31:36 GMT 52.052151 0.631086 36,025 300 384 64
2023-01-20 16:31:34 GMT 52.049915 0.637599 36,025 300 384 64
2023-01-20 16:31:31 GMT 52.047405 0.644819 36,025 300 385 128
2023-01-20 16:31:28 GMT 52.043518 0.656052 36,025 300 385 64
2023-01-20 16:31:26 GMT 52.043518 0.656052 36,000 300 385 64
2023-01-20 16:31:23 GMT 52.039116 0.668753 36,000 300 385 128
2023-01-20 16:31:21 GMT 52.039116 0.668753 36,000 300 385 64
2023-01-20 16:31:18 GMT 52.034138 0.683036 36,000 300 385 64
2023-01-20 16:31:15 GMT 52.034138 0.683036 36,000 300 385 64
2023-01-20 16:31:13 GMT 52.031948 0.689392 36,000 300 386 64
2023-01-20 16:31:10 GMT 52.029465 0.696564 36,000 300 386 0
2023-01-20 16:31:08 GMT 52.027340 0.702733 35,975 300 386 0
2023-01-20 16:31:05 GMT 52.025059 0.709246 36,000 300 386 0
2023-01-20 16:31:03 GMT 52.020683 0.721880 36,000 300 386 -64
2023-01-20 16:31:00 GMT 52.018539 0.727844 36,000 300 386 -64
2023-01-20 16:30:57 GMT 52.018539 0.727844 36,000 300 386 0
2023-01-20 16:30:55 GMT 52.016445 0.733887 36,000 300 386 0
2023-01-20 16:30:53 GMT 52.011883 0.747070 36,000 300 386 0
2023-01-20 16:30:50 GMT 52.011883 0.747070 36,000 300 386 0
2023-01-20 16:30:48 GMT 52.007416 0.759862 36,000 300 386 0
2023-01-20 16:30:45 GMT 52.006073 0.763779 36,000 300 386 -64
2023-01-20 16:30:43 GMT 52.006073 0.763779 36,000 300 386 -64
2023-01-20 16:30:41 GMT 52.003365 0.771476 36,000 300 386 -64
2023-01-20 16:30:38 GMT 52.001179 0.777754 36,025 300 386 -64
2023-01-20 16:30:35 GMT 51.998383 0.785836 36,025 300 386 -64
2023-01-20 16:30:32 GMT 51.996616 0.790859 36,025 300 386 -64
2023-01-20 16:30:29 GMT 51.993729 0.799177 36,025 300 386 0
2023-01-20 16:30:27 GMT 51.991959 0.804199 36,025 300 386 64
2023-01-20 16:30:25 GMT 51.990562 0.808280 36,025 300 386 64
2023-01-20 16:30:23 GMT 51.988770 0.813446 36,025 300 387 64
2023-01-20 16:30:21 GMT 51.986420 0.820129 36,025 300 387 64
2023-01-20 16:30:19 GMT 51.985397 0.823111 36,000 300 387 64
2023-01-20 16:30:17 GMT 51.982864 0.830307 36,000 300 387 0
2023-01-20 16:30:15 GMT 51.981537 0.834045 36,000 300 387 64
2023-01-20 16:30:13 GMT 51.979763 0.839199 36,000 300 387 64
2023-01-20 16:30:11 GMT 51.977142 0.846634 36,000 300 387 64
2023-01-20 16:30:08 GMT 51.975342 0.851833 36,000 300 387 0
2023-01-20 16:30:06 GMT 51.973984 0.855713 36,000 300 387 0
2023-01-20 16:30:04 GMT 51.971420 0.863037 36,000 300 387 0
2023-01-20 16:30:02 GMT 51.970093 0.866776 36,000 300 387 0
2023-01-20 16:29:59 GMT 51.967346 0.874634 36,000 300 387 0
2023-01-20 16:29:57 GMT 51.964783 0.881882 36,000 300 387 0
2023-01-20 16:29:54 GMT 51.962494 0.888443 36,000 300 387 0
2023-01-20 16:29:52 GMT 51.958675 0.899388 36,025 300 387 -64
2023-01-20 16:29:49 GMT 51.958675 0.899388 36,000 300 387 -64
2023-01-20 16:29:47 GMT 51.956039 0.906830 36,025 300 387 0
2023-01-20 16:29:44 GMT 51.954208 0.912094 36,025 300 387 -64
2023-01-20 16:29:42 GMT 51.952393 0.917280 36,025 300 387 0
2023-01-20 16:29:40 GMT 51.950455 0.922699 37,950 300 387 0
2023-01-20 16:29:37 GMT 51.945328 0.937271 36,025 300 387 0
2023-01-20 16:29:35 GMT 51.945328 0.937271 36,025 300 387 0
2023-01-20 16:29:32 GMT 51.943871 0.941450 36,000 300 387 0
2023-01-20 16:29:30 GMT 51.941162 0.949097 37,975 300 387 0
2023-01-20 16:29:27 GMT 51.936703 0.961775 36,000 300 386 0
2023-01-20 16:29:25 GMT 51.936703 0.961775 36,000 300 386 0
2023-01-20 16:29:22 GMT 51.933701 0.970154 36,025 300 386 0
2023-01-20 16:29:19 GMT 51.931046 0.977707 36,025 300 387 0
2023-01-20 16:29:16 GMT 51.929718 0.981522 36,000 300 387 0
2023-01-20 16:29:14 GMT 51.927441 0.987906 36,025 300 386 0
2023-01-20 16:29:12 GMT 51.924728 0.995560 36,025 300 386 0
2023-01-20 16:29:09 GMT 51.920643 1.007211 36,025 300 387 0
2023-01-20 16:29:06 GMT 51.920643 1.007211 36,025 300 387 0
2023-01-20 16:29:04 GMT 51.918781 1.012547 36,000 300 387 0
2023-01-20 16:29:02 GMT 51.916733 1.018276 36,025 300 387 0
2023-01-20 16:29:00 GMT 51.914589 1.024318 36,000 300 387 0
2023-01-20 16:28:57 GMT 51.912323 1.030731 36,025 300 387 0
2023-01-20 16:28:55 GMT 51.909943 1.037521 36,000 300 387 0
2023-01-20 16:28:52 GMT 51.908203 1.042557 36,025 300 387 0
2023-01-20 16:28:50 GMT 51.905273 1.050797 36,025 300 387 -64
2023-01-20 16:28:47 GMT 51.900253 1.065046 36,025 300 387 0
2023-01-20 16:28:44 GMT 51.898087 1.071167 36,025 300 387 0
2023-01-20 16:28:41 GMT 51.898087 1.071167 36,025 300 386 0
2023-01-20 16:28:38 GMT 51.895615 1.078262 36,025 300 386 0
2023-01-20 16:28:35 GMT 51.893082 1.085358 36,025 300 387 -64
2023-01-20 16:28:33 GMT 51.890854 1.091803 36,025 300 387 0
2023-01-20 16:28:30 GMT 51.888199 1.099301 36,025 300 386 0
2023-01-20 16:28:27 GMT 51.885868 1.105957 36,025 300 386 0
2023-01-20 16:28:25 GMT 51.884033 1.111104 36,025 300 386 0
2023-01-20 16:28:23 GMT 51.882111 1.116597 36,025 300 386 0
2023-01-20 16:28:21 GMT 51.879684 1.123352 36,025 300 386 0
2023-01-20 16:28:18 GMT 51.877022 1.131058 36,025 300 386 0
2023-01-20 16:28:15 GMT 51.875252 1.136017 36,025 300 386 0
2023-01-20 16:28:13 GMT 51.871437 1.146851 36,025 300 386 0
2023-01-20 16:28:11 GMT 51.871437 1.146851 36,025 300 386 0
2023-01-20 16:28:09 GMT 51.870026 1.150669 36,025 300 387 0
2023-01-20 16:28:07 GMT 51.867920 1.156682 36,025 300 387 0
2023-01-20 16:28:05 GMT 51.865311 1.163957 36,025 300 386 0
2023-01-20 16:28:02 GMT 51.863522 1.169052 36,025 300 386 0
2023-01-20 16:28:00 GMT 51.861694 1.174201 36,025 300 386 0
2023-01-20 16:27:57 GMT 51.856888 1.187711 36,025 300 386 0
2023-01-20 16:27:54 GMT 51.856888 1.187711 36,050 300 386 0
2023-01-20 16:27:52 GMT 51.854073 1.195526 36,050 300 386 0
2023-01-20 16:27:50 GMT 51.853607 1.196823 36,025 300 386 0
2023-01-20 16:27:47 GMT 51.850113 1.206715 36,025 300 386 64
2023-01-20 16:27:44 GMT 51.846252 1.217575 36,025 300 386 64
2023-01-20 16:27:42 GMT 51.846252 1.217575 36,025 300 386 0
2023-01-20 16:27:40 GMT 51.843132 1.226273 36,025 300 386 0
2023-01-20 16:27:37 GMT 51.840866 1.232621 36,025 300 386 0
2023-01-20 16:27:34 GMT 51.838058 1.240463 36,025 300 386 0
2023-01-20 16:27:31 GMT 51.833450 1.253510 36,025 300 386 64
2023-01-20 16:27:28 GMT 51.833450 1.253510 36,025 300 386 0
2023-01-20 16:27:26 GMT 51.831894 1.257860 36,025 300 386 64
2023-01-20 16:27:24 GMT 51.830425 1.261978 36,025 300 386 64
2023-01-20 16:27:21 GMT 51.826748 1.272202 36,025 300 386 64
2023-01-20 16:27:18 GMT 51.824570 1.278274 36,025 301 385 128
2023-01-20 16:27:16 GMT 51.822327 1.284510 36,025 301 385 128
2023-01-20 16:27:14 GMT 51.821091 1.287999 36,000 301 386 256
2023-01-20 16:27:12 GMT 51.819031 1.293714 36,000 301 386 0
2023-01-20 16:27:10 GMT 51.817612 1.297723 36,025 301 386 -128
2023-01-20 16:27:08 GMT 51.815277 1.304181 36,025 301 385 64
2023-01-20 16:27:06 GMT 51.812576 1.311678 36,000 301 385 0
2023-01-20 16:27:04 GMT 51.809429 1.320496 36,000 300 385 0
2023-01-20 16:27:02 GMT 51.809429 1.320496 36,000 301 385 0
2023-01-20 16:26:59 GMT 51.807495 1.325783 36,000 301 385 192
2023-01-20 16:26:57 GMT 51.804749 1.333503 36,000 301 385 0
2023-01-20 16:26:54 GMT 51.802231 1.340480 36,000 301 385 64
2023-01-20 16:26:51 GMT 51.800072 1.346512 36,000 301 384 128
2023-01-20 16:26:49 GMT 51.798706 1.350353 36,000 301 384 128
2023-01-20 16:26:46 GMT 51.792854 1.366577 36,000 300 384 -128
2023-01-20 16:26:43 GMT 51.792854 1.366577 36,000 300 384 64
2023-01-20 16:26:40 GMT 51.790695 1.372697 36,000 301 383 128
2023-01-20 16:26:37 GMT 51.787083 1.382675 36,000 301 383 0
2023-01-20 16:26:34 GMT 51.784431 1.390076 35,975 301 383 0
2023-01-20 16:26:31 GMT 51.782753 1.394806 35,975 301 383 0
2023-01-20 16:26:29 GMT 51.781036 1.399643 35,975 301 383 64
2023-01-20 16:26:26 GMT 51.776192 1.413116 35,975 301 383 0
2023-01-20 16:26:24 GMT 51.776192 1.413116 35,975 301 383 0
2023-01-20 16:26:22 GMT 51.774513 1.417770 35,975 301 383 0
2023-01-20 16:26:20 GMT 51.772614 1.423101 35,975 301 382 0
2023-01-20 16:26:17 GMT 51.769455 1.431934 35,975 301 382 0
2023-01-20 16:26:14 GMT 51.767487 1.437353 35,975 301 381 64
2023-01-20 16:26:12 GMT 51.764690 1.445084 35,975 301 381 0
2023-01-20 16:26:09 GMT 51.763321 1.448859 35,975 301 381 0
2023-01-20 16:26:07 GMT 51.761063 1.455154 35,975 301 381 0
2023-01-20 16:26:04 GMT 51.758194 1.463112 35,975 301 380 0
2023-01-20 16:26:01 GMT 51.752914 1.477737 35,975 301 380 0
2023-01-20 16:25:58 GMT 51.752914 1.477737 35,975 301 380 0
2023-01-20 16:25:56 GMT 51.749844 1.486282 35,975 301 380 0
2023-01-20 16:25:54 GMT 51.749844 1.486282 35,975 301 380 0
2023-01-20 16:25:52 GMT 51.747574 1.492508 35,975 301 380 0
2023-01-20 16:25:49 GMT 51.745510 1.498260 35,975 301 380 0
2023-01-20 16:25:47 GMT 51.744141 1.502009 35,975 301 380 0
2023-01-20 16:25:44 GMT 51.740997 1.510696 35,975 301 380 0
2023-01-20 16:25:42 GMT 51.738281 1.518192 35,975 301 379 0
2023-01-20 16:25:39 GMT 51.733978 1.530143 35,975 301 379 0
2023-01-20 16:25:36 GMT 51.733978 1.530143 35,975 301 379 0
2023-01-20 16:25:34 GMT 51.731781 1.536230 35,975 301 379 0
2023-01-20 16:25:31 GMT 51.729218 1.543356 35,975 301 379 0
2023-01-20 16:25:29 GMT 51.727406 1.548309 35,975 301 379 0
2023-01-20 16:25:26 GMT 51.725121 1.554642 35,975 301 378 0
2023-01-20 16:25:23 GMT 51.722809 1.561098 35,975 301 378 -64
2023-01-20 16:25:21 GMT 51.720375 1.567764 35,975 301 378 -64
2023-01-20 16:25:17 GMT 51.716629 1.578097 35,975 301 378 0
2023-01-20 16:25:14 GMT 51.714462 1.584091 35,975 301 377 0
2023-01-20 16:25:11 GMT 51.711716 1.591568 35,975 301 377 0
2023-01-20 16:25:09 GMT 51.709854 1.596680 35,975 301 377 0
2023-01-20 16:25:06 GMT 51.707386 1.603470 35,975 301 377 0
2023-01-20 16:25:03 GMT 51.702965 1.615601 35,975 301 377 0
2023-01-20 16:25:01 GMT 51.702965 1.615601 35,975 301 377 0
2023-01-20 16:24:58 GMT 51.700699 1.621745 35,975 301 377 0
2023-01-20 16:24:56 GMT 51.698448 1.627884 35,975 301 377 0
2023-01-20 16:24:54 GMT 51.695343 1.636517 35,975 301 377 -64
2023-01-20 16:24:52 GMT 51.695343 1.636517 35,975 301 377 -64
2023-01-20 16:24:49 GMT 51.691696 1.646576 35,975 301 377 0
2023-01-20 16:24:46 GMT 51.689713 1.652032 36,000 301 377 -64
2023-01-20 16:24:43 GMT 51.686188 1.661682 36,000 301 377 -64
2023-01-20 16:24:40 GMT 51.684807 1.665497 36,000 301 377 -64
2023-01-20 16:24:37 GMT 51.681610 1.674302 36,000 301 377 0
2023-01-20 16:24:34 GMT 51.678661 1.682434 36,000 301 377 0
2023-01-20 16:24:31 GMT 51.676529 1.688331 36,000 301 377 0
2023-01-20 16:24:28 GMT 51.673828 1.695903 36,000 301 377 0
2023-01-20 16:24:25 GMT 51.671219 1.703178 36,000 301 377 0
2023-01-20 16:24:22 GMT 51.667862 1.712494 36,000 301 378 -64
2023-01-20 16:24:19 GMT 51.666229 1.716985 36,000 301 378 -64
2023-01-20 16:24:17 GMT 51.663998 1.723175 36,000 301 377 0
2023-01-20 16:24:14 GMT 51.660927 1.731644 36,000 301 377 0
2023-01-20 16:24:11 GMT 51.658646 1.737900 36,000 301 378 0
2023-01-20 16:24:08 GMT 51.656845 1.742892 36,000 301 378 0
2023-01-20 16:24:06 GMT 51.654922 1.748237 36,000 301 378 0
2023-01-20 16:24:03 GMT 51.651672 1.757219 36,000 301 378 -64
2023-01-20 16:24:00 GMT 51.649101 1.764374 36,000 301 378 -64
2023-01-20 16:23:57 GMT 51.646172 1.772385 36,000 301 378 0
2023-01-20 16:23:54 GMT 51.643936 1.778523 36,000 301 378 64
2023-01-20 16:23:52 GMT 51.641701 1.784744 36,000 301 378 64
2023-01-20 16:23:49 GMT 51.639130 1.791885 36,000 301 378 0
2023-01-20 16:23:46 GMT 51.634670 1.804123 36,000 301 378 -64
2023-01-20 16:23:43 GMT 51.634670 1.804123 36,000 301 378 -64
2023-01-20 16:23:40 GMT 51.631786 1.812134 36,000 301 378 0
2023-01-20 16:23:37 GMT 51.629013 1.819722 36,000 301 378 -64
2023-01-20 16:23:34 GMT 51.626358 1.826997 36,000 301 378 -64
2023-01-20 16:23:32 GMT 51.624161 1.833084 36,000 301 378 -64
2023-01-20 16:23:29 GMT 51.622284 1.838131 36,000 301 378 -64
2023-01-20 16:23:26 GMT 51.616795 1.853333 36,025 301 378 -64
2023-01-20 16:23:23 GMT 51.614548 1.859510 36,025 301 378 0
2023-01-20 16:23:21 GMT 51.614548 1.859510 36,025 301 378 0
2023-01-20 16:23:18 GMT 51.612671 1.864558 36,025 301 378 64
2023-01-20 16:23:15 GMT 51.609394 1.873703 36,000 301 379 64
2023-01-20 16:23:12 GMT 51.607498 1.878885 36,025 301 379 64
2023-01-20 16:23:10 GMT 51.605621 1.883933 36,000 301 378 0
2023-01-20 16:23:07 GMT 51.602463 1.892692 36,000 301 379 0
2023-01-20 16:23:05 GMT 51.596924 1.907687 36,000 301 379 64
2023-01-20 16:23:02 GMT 51.596924 1.907687 36,000 301 379 -64
2023-01-20 16:22:59 GMT 51.595688 1.911101 36,025 301 379 -64
2023-01-20 16:22:57 GMT 51.593582 1.916892 36,025 301 379 -128
2023-01-20 16:22:54 GMT 51.591980 1.921271 36,025 301 379 64
2023-01-20 16:22:51 GMT 51.588165 1.931610 36,025 301 379 -128
2023-01-20 16:22:49 GMT 51.586899 1.935078 36,025 301 379 -128
2023-01-20 16:22:47 GMT 51.585480 1.939013 36,025 301 379 -128
2023-01-20 16:22:45 GMT 51.582859 1.946106 36,025 301 379 0
2023-01-20 16:22:42 GMT 51.580021 1.953888 36,025 301 379 64
2023-01-20 16:22:39 GMT 51.577744 1.960095 36,050 301 379 0
2023-01-20 16:22:36 GMT 51.575176 1.967010 36,025 301 380 -128
2023-01-20 16:22:34 GMT 51.573502 1.971588 36,025 301 380 -128
2023-01-20 16:22:32 GMT 51.571175 1.977844 36,025 301 379 -128
2023-01-20 16:22:29 GMT 51.567497 1.987839 36,025 301 380 64
2023-01-20 16:22:27 GMT 51.567497 1.987839 36,025 301 380 0
2023-01-20 16:22:24 GMT 51.564056 1.997136 36,025 301 380 64
2023-01-20 16:22:21 GMT 51.561905 2.002926 36,025 301 381 -192
2023-01-20 16:22:18 GMT 51.559116 2.010574 36,025 301 381 -192
2023-01-20 16:22:16 GMT 51.557281 2.015546 36,050 301 381 -192
2023-01-20 16:22:14 GMT 51.556046 2.018814 36,050 301 381 64
2023-01-20 16:22:11 GMT 51.552246 2.029130 36,050 301 381 64
2023-01-20 16:22:08 GMT 51.547256 2.042715 36,050 301 381 64
2023-01-20 16:22:05 GMT 51.547256 2.042715 36,050 301 381 -64
2023-01-20 16:22:03 GMT 51.545837 2.046649 36,050 301 381 -64
2023-01-20 16:22:01 GMT 51.544464 2.050286 36,050 301 381 0
2023-01-20 16:21:59 GMT 51.542587 2.055334 36,050 301 381 0
2023-01-20 16:21:57 GMT 51.540619 2.060679 36,050 301 381 0
2023-01-20 16:21:54 GMT 51.536865 2.070923 36,050 301 381 0
2023-01-20 16:21:51 GMT 51.535629 2.074338 36,050 301 381 0
2023-01-20 16:21:49 GMT 51.533203 2.080870 36,050 301 381 -64
2023-01-20 16:21:46 GMT 51.531235 2.086215 36,050 301 381 64
2023-01-20 16:21:44 GMT 51.528534 2.093564 36,050 301 381 64
2023-01-20 16:21:41 GMT 51.526764 2.098312 36,050 301 381 64
2023-01-20 16:21:39 GMT 51.523773 2.106406 36,050 301 381 64
2023-01-20 16:21:36 GMT 51.521805 2.111750 36,050 301 381 64
2023-01-20 16:21:34 GMT 51.520111 2.116427 36,025 301 381 0
2023-01-20 16:21:31 GMT 51.517502 2.123479 36,025 301 381 0
2023-01-20 16:21:29 GMT 51.515125 2.129898 36,025 301 382 128
2023-01-20 16:21:27 GMT 51.510193 2.143326 36,025 301 382 128
2023-01-20 16:21:24 GMT 51.510193 2.143326 36,025 301 382 64
2023-01-20 16:21:21 GMT 51.507862 2.149658 36,025 301 383 128
2023-01-20 16:21:18 GMT 51.502625 2.163935 36,000 301 382 64
2023-01-20 16:21:15 GMT 51.499996 2.171097 36,000 301 383 128
2023-01-20 16:21:12 GMT 51.498596 2.174922 36,000 301 383 128
2023-01-20 16:21:08 GMT 51.496319 2.181091 36,000 301 383 64
2023-01-20 16:21:06 GMT 51.492779 2.190628 36,000 301 383 64
2023-01-20 16:21:04 GMT 51.492779 2.190628 36,000 301 383 64
2023-01-20 16:21:01 GMT 51.489986 2.198181 35,975 301 382 64
2023-01-20 16:20:59 GMT 51.488525 2.202165 35,975 301 382 64
2023-01-20 16:20:57 GMT 51.486774 2.206955 35,975 301 382 64
2023-01-20 16:20:55 GMT 51.484909 2.211964 35,975 301 382 64
2023-01-20 16:20:53 GMT 51.483097 2.216949 35,975 301 382 64
2023-01-20 16:20:50 GMT 51.479561 2.226410 35,975 301 382 128
2023-01-20 16:20:47 GMT 51.477047 2.233276 35,975 301 382 128
2023-01-20 16:20:44 GMT 51.474701 2.239726 35,975 301 382 64
2023-01-20 16:20:41 GMT 51.471504 2.248306 35,975 301 381 0
2023-01-20 16:20:38 GMT 51.469597 2.253418 35,975 301 382 0
2023-01-20 16:20:35 GMT 51.466805 2.260971 35,975 301 382 0
2023-01-20 16:20:33 GMT 51.465408 2.264742 35,975 301 382 0
2023-01-20 16:20:31 GMT 51.462708 2.272110 35,975 301 381 0
2023-01-20 16:20:28 GMT 51.459686 2.280257 35,975 301 381 0
2023-01-20 16:20:25 GMT 51.457993 2.284859 35,975 301 381 -64
2023-01-20 16:20:23 GMT 51.455566 2.291392 35,975 301 381 0
2023-01-20 16:20:20 GMT 51.453323 2.297479 35,975 301 381 0
2023-01-20 16:20:17 GMT 51.449951 2.306595 35,975 301 381 0
2023-01-20 16:20:14 GMT 51.446835 2.315063 35,975 301 380 0
2023-01-20 16:20:11 GMT 51.445312 2.319006 35,975 301 380 0
2023-01-20 16:20:08 GMT 51.440083 2.333145 35,975 301 380 0
2023-01-20 16:20:05 GMT 51.440083 2.333145 35,975 301 380 0
2023-01-20 16:20:03 GMT 51.436203 2.343651 35,975 301 380 0
2023-01-20 16:20:01 GMT 51.436203 2.343651 35,975 301 380 0
2023-01-20 16:19:58 GMT 51.433960 2.349664 35,975 301 380 0
2023-01-20 16:19:56 GMT 51.431213 2.357161 35,975 301 379 0
2023-01-20 16:19:53 GMT 51.428818 2.363586 35,975 301 378 -64
2023-01-20 16:19:51 GMT 51.427048 2.368393 35,975 301 378 -64
2023-01-20 16:19:48 GMT 51.422699 2.380099 35,975 301 379 0
2023-01-20 16:19:45 GMT 51.422699 2.380099 35,975 301 379 0
2023-01-20 16:19:43 GMT 51.420067 2.387161 35,975 301 378 0
2023-01-20 16:19:40 GMT 51.417690 2.393646 35,975 301 378 0
2023-01-20 16:19:38 GMT 51.415272 2.400208 35,975 301 378 0
2023-01-20 16:19:35 GMT 51.411758 2.409717 35,975 301 378 0
2023-01-20 16:19:33 GMT 51.411758 2.409717 35,975 301 378 0
2023-01-20 16:19:31 GMT 51.409973 2.414468 35,975 301 378 0
2023-01-20 16:19:28 GMT 51.405914 2.425461 35,975 301 378 0
2023-01-20 16:19:25 GMT 51.403702 2.431319 35,975 301 377 0
2023-01-20 16:19:22 GMT 51.399719 2.442083 35,950 301 377 64
2023-01-20 16:19:20 GMT 51.399719 2.442083 35,975 301 377 64
2023-01-20 16:19:16 GMT 51.396091 2.451859 35,950 301 378 0
2023-01-20 16:19:14 GMT 51.393906 2.457671 35,950 301 378 64
2023-01-20 16:19:11 GMT 51.389969 2.468286 35,950 301 378 0
2023-01-20 16:19:09 GMT 51.389969 2.468286 35,950 301 378 0
2023-01-20 16:19:07 GMT 51.388226 2.472916 35,950 301 378 0
2023-01-20 16:19:04 GMT 51.383663 2.485199 35,950 301 379 -64
2023-01-20 16:19:02 GMT 51.383663 2.485199 35,950 301 379 0
2023-01-20 16:18:59 GMT 51.381363 2.491298 35,950 301 379 0
2023-01-20 16:18:57 GMT 51.379051 2.497406 35,975 302 379 -64
2023-01-20 16:18:54 GMT 51.377052 2.502670 35,975 302 378 -64
2023-01-20 16:18:52 GMT 51.374538 2.509384 35,975 302 379 -64
2023-01-20 16:18:49 GMT 51.369930 2.521515 35,975 302 378 -64
2023-01-20 16:18:47 GMT 51.369930 2.521515 35,975 302 378 0
2023-01-20 16:18:44 GMT 51.364471 2.535689 35,975 302 378 0
2023-01-20 16:18:42 GMT 51.362804 2.540054 35,975 302 378 0
2023-01-20 16:18:39 GMT 51.362804 2.540054 35,975 302 378 0
2023-01-20 16:18:36 GMT 51.359894 2.547566 35,975 302 378 0
2023-01-20 16:18:33 GMT 51.356689 2.555880 35,975 302 378 -64
2023-01-20 16:18:29 GMT 51.354263 2.562041 35,975 303 378 -64
2023-01-20 16:18:27 GMT 51.351379 2.569316 35,975 303 378 -64
2023-01-20 16:18:24 GMT 51.348038 2.577853 35,975 303 378 -64
2023-01-20 16:18:21 GMT 51.345955 2.583160 35,975 302 379 -64
2023-01-20 16:18:18 GMT 51.343231 2.590175 36,000 301 380 0
2023-01-20 16:18:15 GMT 51.340897 2.596411 36,000 301 380 0
2023-01-20 16:18:13 GMT 51.339432 2.600568 36,000 294 387 0
2023-01-20 16:18:11 GMT 51.335220 2.614004 36,000 296 384 -64
2023-01-20 16:18:09 GMT 51.335220 2.614004 36,000 293 387 0
2023-01-20 16:18:06 GMT 51.332794 2.622912 36,000 291 391 -64
2023-01-20 16:18:03 GMT 51.331802 2.627029 36,000 291 391 -64
2023-01-20 16:18:01 GMT 51.330173 2.634048 36,000 289 393 0
2023-01-20 16:17:58 GMT 51.328766 2.640802 36,000 288 395 -64
2023-01-20 16:17:56 GMT 51.327240 2.648773 36,000 287 396 0
2023-01-20 16:17:53 GMT 51.326065 2.655351 36,000 287 396 0
2023-01-20 16:17:51 GMT 51.324966 2.661215 36,000 287 397 0
2023-01-20 16:17:48 GMT 51.322865 2.672653 36,000 287 397 0
2023-01-20 16:17:45 GMT 51.321808 2.678363 36,000 287 397 0
2023-01-20 16:17:43 GMT 51.320755 2.684301 36,000 287 397 0
2023-01-20 16:17:39 GMT 51.318813 2.694778 36,000 287 398 0
2023-01-20 16:17:36 GMT 51.317184 2.703676 36,000 287 398 0
2023-01-20 16:17:33 GMT 51.315601 2.712250 36,000 287 398 0
2023-01-20 16:17:31 GMT 51.314163 2.720007 36,000 287 399 -64
2023-01-20 16:17:28 GMT 51.312607 2.728469 36,000 287 399 -64
2023-01-20 16:17:25 GMT 51.311325 2.735521 36,000 287 399 -64
2023-01-20 16:17:22 GMT 51.309860 2.743390 36,000 287 399 -64
2023-01-20 16:17:19 GMT 51.307407 2.756500 36,025 287 399 0
2023-01-20 16:17:15 GMT 51.305878 2.764843 36,025 287 399 0
2023-01-20 16:17:12 GMT 51.304245 2.773438 36,025 287 399 0
2023-01-20 16:17:09 GMT 51.302628 2.781991 36,000 287 399 0
2023-01-20 16:17:06 GMT 51.300247 2.794759 36,000 287 400 0
2023-01-20 16:17:03 GMT 51.299011 2.801514 36,025 287 400 0
2023-01-20 16:17:01 GMT 51.299011 2.801514 36,025 287 400 0
2023-01-20 16:16:59 GMT 51.297958 2.807007 36,000 287 401 0
2023-01-20 16:16:57 GMT 51.295258 2.821334 36,025 287 401 -64
2023-01-20 16:16:54 GMT 51.295258 2.821334 36,025 287 402 -64
2023-01-20 16:16:51 GMT 51.293629 2.829971 36,025 287 401 -64
2023-01-20 16:16:48 GMT 51.290184 2.848434 36,025 287 402 -64
2023-01-20 16:16:45 GMT 51.288834 2.855835 36,025 287 402 -64
2023-01-20 16:16:42 GMT 51.288834 2.855835 36,025 287 402 -64
2023-01-20 16:16:39 GMT 51.286926 2.865873 36,025 287 402 0
2023-01-20 16:16:36 GMT 51.286148 2.870178 36,025 287 403 0
2023-01-20 16:16:34 GMT 51.282990 2.886955 36,025 287 403 -64
2023-01-20 16:16:31 GMT 51.281982 2.892374 36,025 287 403 -64
2023-01-20 16:16:29 GMT 51.280884 2.898386 36,025 287 404 0
2023-01-20 16:16:27 GMT 51.280014 2.902915 36,025 287 404 0
2023-01-20 16:16:23 GMT 51.279011 2.908478 36,025 287 404 128
2023-01-20 16:16:21 GMT 51.276264 2.923355 36,025 287 404 64
2023-01-20 16:16:18 GMT 51.276264 2.923355 36,050 287 404 0
2023-01-20 16:16:16 GMT 51.275436 2.927782 36,025 287 404 64
2023-01-20 16:16:13 GMT 51.273148 2.940030 36,025 287 405 64
2023-01-20 16:16:10 GMT 51.271610 2.948456 36,025 287 406 64
2023-01-20 16:16:07 GMT 51.269943 2.957475 36,025 287 406 64
2023-01-20 16:16:03 GMT 51.268295 2.966383 36,025 287 406 64
2023-01-20 16:16:01 GMT 51.266769 2.974548 36,025 287 406 64
2023-01-20 16:15:58 GMT 51.263901 2.990211 36,025 287 406 0
2023-01-20 16:15:55 GMT 51.263901 2.990211 36,025 287 406 64
2023-01-20 16:15:53 GMT 51.262985 2.995036 36,025 287 406 0
2023-01-20 16:15:50 GMT 51.260437 3.008728 36,025 287 406 -64
2023-01-20 16:15:47 GMT 51.259880 3.011551 36,025 287 409 0
2023-01-20 16:15:45 GMT 51.258671 3.018188 36,025 287 407 -64
2023-01-20 16:15:43 GMT 51.256210 3.031262 36,025 287 407 64
2023-01-20 16:15:40 GMT 51.256210 3.031262 36,025 287 407 64
2023-01-20 16:15:38 GMT 51.253189 3.047667 36,025 287 407 64
2023-01-20 16:15:35 GMT 51.253189 3.047667 36,025 287 407 64
2023-01-20 16:15:33 GMT 51.251999 3.053977 36,000 287 408 0
2023-01-20 16:15:30 GMT 51.249172 3.069077 36,000 287 408 0
2023-01-20 16:15:28 GMT 51.249172 3.069077 36,000 287 409 0
2023-01-20 16:15:25 GMT 51.247787 3.076395 36,000 287 409 0
2023-01-20 16:15:23 GMT 51.246613 3.082657 36,000 287 409 0
2023-01-20 16:15:20 GMT 51.245495 3.088684 36,000 287 409 0
2023-01-20 16:15:17 GMT 51.243587 3.098755 36,000 287 409 0
2023-01-20 16:15:15 GMT 51.242249 3.105790 36,000 287 409 0
2023-01-20 16:15:13 GMT 51.241211 3.111420 36,000 287 409 0
2023-01-20 16:15:11 GMT 51.237720 3.129883 36,000 287 409 -64
2023-01-20 16:15:08 GMT 51.237720 3.129883 36,000 287 409 -64
2023-01-20 16:15:05 GMT 51.235474 3.141867 36,000 287 409 -64
2023-01-20 16:15:02 GMT 51.233505 3.152260 36,000 287 409 0
2023-01-20 16:14:59 GMT 51.233505 3.152260 36,000 287 408 0
2023-01-20 16:14:56 GMT 51.231857 3.160871 36,000 287 409 0
2023-01-20 16:14:53 GMT 51.230072 3.170372 36,000 287 408 64
2023-01-20 16:14:50 GMT 51.227371 3.184476 36,000 287 408 64
2023-01-20 16:14:48 GMT 51.227371 3.184476 36,000 287 408 64
2023-01-20 16:14:45 GMT 51.224499 3.199539 36,000 287 409 0
2023-01-20 16:14:43 GMT 51.224499 3.199539 36,000 287 409 0
2023-01-20 16:14:40 GMT 51.222656 3.209196 36,000 287 409 0
2023-01-20 16:14:37 GMT 51.221741 3.214095 36,000 287 409 0
2023-01-20 16:14:35 GMT 51.220078 3.222885 36,000 287 409 0
2023-01-20 16:14:32 GMT 51.218994 3.228496 36,000 287 409 0
2023-01-20 16:14:29 GMT 51.217300 3.237478 36,000 287 409 0
2023-01-20 16:14:27 GMT 51.216156 3.243491 36,000 287 409 64
2023-01-20 16:14:24 GMT 51.214600 3.251582 36,000 287 409 64
2023-01-20 16:14:21 GMT 51.212448 3.262791 36,000 287 409 0
2023-01-20 16:14:18 GMT 51.211029 3.270288 36,000 287 409 64
2023-01-20 16:14:14 GMT 51.209061 3.280681 36,000 287 409 64
2023-01-20 16:14:12 GMT 51.208237 3.284986 36,000 287 409 0
2023-01-20 16:14:10 GMT 51.207088 3.290939 36,000 287 409 0
2023-01-20 16:14:07 GMT 51.202972 3.312378 35,975 287 409 0
2023-01-20 16:14:04 GMT 51.202972 3.312378 36,000 288 409 0
2023-01-20 16:14:01 GMT 51.201920 3.317871 35,975 288 409 0
2023-01-20 16:13:59 GMT 51.200760 3.324051 35,975 288 409 0
2023-01-20 16:13:57 GMT 51.199875 3.328629 35,975 288 409 0
2023-01-20 16:13:54 GMT 51.197918 3.338776 36,000 288 409 0
2023-01-20 16:13:52 GMT 51.196613 3.345642 35,975 288 409 0
2023-01-20 16:13:49 GMT 51.192936 3.364639 35,975 288 409 -64
2023-01-20 16:13:46 GMT 51.191574 3.371689 35,975 288 409 0
2023-01-20 16:13:43 GMT 51.191574 3.371689 35,975 288 409 0
2023-01-20 16:13:40 GMT 51.188702 3.386536 36,000 288 409 0
2023-01-20 16:13:37 GMT 51.188702 3.386536 36,000 288 409 0
2023-01-20 16:13:34 GMT 51.187042 3.395295 36,000 288 409 0
2023-01-20 16:13:32 GMT 51.185955 3.400955 36,000 288 409 -64
2023-01-20 16:13:30 GMT 51.183060 3.416006 36,000 288 409 -64
2023-01-20 16:13:27 GMT 51.183060 3.416006 36,000 288 409 -64
2023-01-20 16:13:24 GMT 51.181252 3.425369 36,000 288 409 -64
2023-01-20 16:13:21 GMT 51.180088 3.431473 36,000 288 409 -64
2023-01-20 16:13:19 GMT 51.178391 3.440205 36,000 288 409 -64
2023-01-20 16:13:16 GMT 51.176697 3.449113 36,000 288 409 -64
2023-01-20 16:13:13 GMT 51.175461 3.455423 36,000 287 409 0
2023-01-20 16:13:10 GMT 51.173813 3.464108 36,000 287 409 0
2023-01-20 16:13:08 GMT 51.172733 3.469696 36,000 287 409 0
2023-01-20 16:13:06 GMT 51.171150 3.478012 36,000 287 409 0
2023-01-20 16:13:03 GMT 51.167801 3.495560 36,000 287 409 0
2023-01-20 16:13:00 GMT 51.166405 3.502808 36,000 287 409 0
2023-01-20 16:12:57 GMT 51.166405 3.502808 36,000 287 409 0
2023-01-20 16:12:53 GMT 51.164474 3.512953 36,000 287 409 0
2023-01-20 16:12:51 GMT 51.163101 3.520153 36,000 287 409 0
2023-01-20 16:12:49 GMT 51.160164 3.535538 36,000 288 409 -64
2023-01-20 16:12:46 GMT 51.160164 3.535538 36,000 287 409 0
2023-01-20 16:12:43 GMT 51.158489 3.544159 36,000 288 409 -64
2023-01-20 16:12:40 GMT 51.157185 3.551102 36,000 288 409 -64
2023-01-20 16:12:38 GMT 51.156006 3.557269 36,025 288 409 0
2023-01-20 16:12:36 GMT 51.155136 3.561707 36,000 288 409 0
2023-01-20 16:12:33 GMT 51.152847 3.573674 36,025 288 409 -64
2023-01-20 16:12:30 GMT 51.151134 3.582382 36,025 288 409 0
2023-01-20 16:12:27 GMT 51.149830 3.589325 36,025 288 410 0
2023-01-20 16:12:25 GMT 51.148712 3.595047 36,025 288 411 64
2023-01-20 16:12:22 GMT 51.146992 3.603973 36,025 288 410 0
2023-01-20 16:12:19 GMT 51.145222 3.612900 36,025 288 410 0
2023-01-20 16:12:17 GMT 51.144196 3.618393 36,025 288 410 0
2023-01-20 16:12:15 GMT 51.142612 3.626404 36,025 288 410 0
2023-01-20 16:12:12 GMT 51.141815 3.630610 36,025 288 410 0
2023-01-20 16:12:10 GMT 51.140350 3.638108 36,025 288 410 0
2023-01-20 16:12:07 GMT 51.138657 3.646851 36,025 288 410 64
2023-01-20 16:12:05 GMT 51.137493 3.652878 36,000 288 411 64
2023-01-20 16:12:02 GMT 51.135490 3.663254 36,000 288 411 64
2023-01-20 16:11:59 GMT 51.134033 3.670621 36,000 288 411 64
2023-01-20 16:11:57 GMT 51.132935 3.676411 36,000 288 411 64
2023-01-20 16:11:55 GMT 51.130230 3.690338 36,000 288 411 0
2023-01-20 16:11:52 GMT 51.128414 3.699570 36,000 288 411 0
2023-01-20 16:11:49 GMT 51.128414 3.699570 36,000 288 411 64
2023-01-20 16:11:46 GMT 51.125763 3.713455 36,000 288 411 64
2023-01-20 16:11:43 GMT 51.125763 3.713455 36,000 288 410 0
2023-01-20 16:11:40 GMT 51.123573 3.724670 36,000 288 411 64
2023-01-20 16:11:36 GMT 51.121765 3.734015 36,000 288 410 0
2023-01-20 16:11:34 GMT 51.120117 3.742329 36,000 288 410 0
2023-01-20 16:11:31 GMT 51.118835 3.748936 36,000 288 410 0
2023-01-20 16:11:28 GMT 51.116364 3.761630 36,000 288 410 64
2023-01-20 16:11:25 GMT 51.114899 3.769127 36,000 288 410 64
2023-01-20 16:11:22 GMT 51.113525 3.776328 35,975 288 410 64
2023-01-20 16:11:19 GMT 51.112030 3.783951 35,975 288 410 0
2023-01-20 16:11:16 GMT 51.109955 3.794737 35,975 288 411 0
2023-01-20 16:11:13 GMT 51.108765 3.800750 35,975 288 411 0
2023-01-20 16:11:10 GMT 51.106815 3.810730 35,975 288 411 -64
2023-01-20 16:11:08 GMT 51.104675 3.821640 35,975 288 411 -64
2023-01-20 16:11:06 GMT 51.102951 3.830566 35,975 288 411 -64
2023-01-20 16:11:03 GMT 51.102951 3.830566 35,975 288 411 -64
2023-01-20 16:11:00 GMT 51.100708 3.841949 36,000 288 411 -64
2023-01-20 16:10:57 GMT 51.099648 3.847580 36,000 288 411 -64
2023-01-20 16:10:54 GMT 51.097870 3.856572 36,000 288 411 -64
2023-01-20 16:10:51 GMT 51.096268 3.864961 36,000 288 411 -64
2023-01-20 16:10:48 GMT 51.094620 3.873444 36,025 288 411 -64
2023-01-20 16:10:45 GMT 51.091499 3.889542 36,000 288 410 -64
2023-01-20 16:10:42 GMT 51.091499 3.889542 36,000 288 410 -64
2023-01-20 16:10:39 GMT 51.089493 3.899775 36,000 288 410 -64
2023-01-20 16:10:36 GMT 51.087914 3.908005 36,000 288 410 -64
2023-01-20 16:10:33 GMT 51.085728 3.919220 36,025 288 410 0
2023-01-20 16:10:30 GMT 51.084003 3.928070 36,025 288 410 0
2023-01-20 16:10:27 GMT 51.082794 3.934097 36,025 288 410 0
2023-01-20 16:10:25 GMT 51.081306 3.941879 36,025 288 410 0
2023-01-20 16:10:22 GMT 51.080063 3.948100 36,025 288 410 0
2023-01-20 16:10:20 GMT 51.079071 3.953094 36,025 288 410 0
2023-01-20 16:10:18 GMT 51.077396 3.961716 36,025 288 410 0
2023-01-20 16:10:16 GMT 51.076557 3.966064 36,025 288 410 0
2023-01-20 16:10:14 GMT 51.073975 3.979129 36,025 288 410 0
2023-01-20 16:10:11 GMT 51.073975 3.979129 36,025 288 410 64
2023-01-20 16:10:09 GMT 51.071716 3.990479 36,025 288 410 0
2023-01-20 16:10:07 GMT 51.070412 3.997040 36,025 288 410 0
2023-01-20 16:10:05 GMT 51.070412 3.997040 36,025 288 410 0
2023-01-20 16:10:02 GMT 51.068363 4.007416 36,025 288 411 0
2023-01-20 16:09:59 GMT 51.066875 4.014893 36,025 288 411 0
2023-01-20 16:09:57 GMT 51.065414 4.022184 36,025 288 411 0
2023-01-20 16:09:54 GMT 51.063629 4.031092 36,025 288 412 0
2023-01-20 16:09:51 GMT 51.062172 4.038467 36,025 288 412 0
2023-01-20 16:09:49 GMT 51.061569 4.041484 36,025 288 412 0
2023-01-20 16:09:47 GMT 51.057999 4.059597 36,025 288 412 0
2023-01-20 16:09:44 GMT 51.057999 4.059597 36,025 288 412 0
2023-01-20 16:09:41 GMT 51.056446 4.067230 36,025 288 412 0
2023-01-20 16:09:39 GMT 51.053375 4.082609 36,025 288 412 0
2023-01-20 16:09:36 GMT 51.053375 4.082609 36,025 288 412 0
2023-01-20 16:09:33 GMT 51.051975 4.089661 36,025 288 412 0
2023-01-20 16:09:30 GMT 51.050262 4.098420 36,025 288 412 0
2023-01-20 16:09:27 GMT 51.046829 4.115716 36,025 288 412 0
2023-01-20 16:09:24 GMT 51.046829 4.115716 36,025 288 412 0
2023-01-20 16:09:21 GMT 51.044952 4.125218 36,025 288 412 0
2023-01-20 16:09:18 GMT 51.043831 4.130783 36,025 288 412 0
2023-01-20 16:09:16 GMT 51.042107 4.139481 36,025 288 413 0
2023-01-20 16:09:14 GMT 51.041519 4.142440 36,025 288 413 0
2023-01-20 16:09:12 GMT 51.038269 4.158919 36,025 288 413 0
2023-01-20 16:09:09 GMT 51.038269 4.158919 36,025 288 413 0
2023-01-20 16:09:07 GMT 51.036709 4.166794 36,025 288 413 64
2023-01-20 16:09:04 GMT 51.035500 4.172897 36,025 288 413 64
2023-01-20 16:09:01 GMT 51.031952 4.190913 36,000 288 413 64
2023-01-20 16:08:58 GMT 51.030704 4.197159 36,000 288 413 64
2023-01-20 16:08:56 GMT 51.030704 4.197159 36,000 288 413 64
2023-01-20 16:08:54 GMT 51.027863 4.211273 36,000 288 413 0
2023-01-20 16:08:51 GMT 51.026512 4.218140 36,000 288 413 64
2023-01-20 16:08:48 GMT 51.026512 4.218140 36,000 288 413 64
2023-01-20 16:08:46 GMT 51.024929 4.225998 36,000 288 413 64
2023-01-20 16:08:43 GMT 51.023254 4.234314 36,000 288 413 64
2023-01-20 16:08:40 GMT 51.021561 4.242875 36,000 288 413 0
2023-01-20 16:08:37 GMT 51.019775 4.251783 36,000 288 413 0
2023-01-20 16:08:35 GMT 51.018631 4.257573 36,000 288 413 0
2023-01-20 16:08:33 GMT 51.017483 4.263153 35,975 288 413 0
2023-01-20 16:08:30 GMT 51.015759 4.271851 35,975 288 413 0
2023-01-20 16:08:28 GMT 51.014923 4.276123 35,975 288 413 0
2023-01-20 16:08:26 GMT 51.013504 4.283258 36,000 288 413 0
2023-01-20 16:08:24 GMT 51.012642 4.287415 35,975 288 413 0
2023-01-20 16:08:21 GMT 51.010620 4.297659 35,975 288 413 0
2023-01-20 16:08:19 GMT 51.009384 4.303671 36,000 288 413 0
2023-01-20 16:08:17 GMT 51.008194 4.309758 36,000 288 412 0
2023-01-20 16:08:15 GMT 51.007336 4.313889 36,000 288 412 0
2023-01-20 16:08:12 GMT 51.005100 4.325104 36,000 288 412 0
2023-01-20 16:08:09 GMT 51.003845 4.331286 35,975 288 412 0
2023-01-20 16:08:06 GMT 51.000957 4.345779 35,975 288 412 0
2023-01-20 16:08:04 GMT 51.000957 4.345779 36,000 288 412 0
2023-01-20 16:08:01 GMT 50.999176 4.354594 36,000 288 412 -64
2023-01-20 16:07:58 GMT 50.997253 4.364096 36,000 288 412 0
2023-01-20 16:07:56 GMT 50.996429 4.368105 36,000 288 412 -64
2023-01-20 16:07:54 GMT 50.995148 4.374414 36,000 288 412 -64
2023-01-20 16:07:52 GMT 50.993973 4.380264 36,000 288 412 0
2023-01-20 16:07:50 GMT 50.992855 4.385757 36,000 288 412 0
2023-01-20 16:07:47 GMT 50.991135 4.394379 36,000 288 411 -64
2023-01-20 16:07:45 GMT 50.989243 4.403736 36,000 288 411 -64
2023-01-20 16:07:42 GMT 50.986431 4.417648 36,000 288 411 -64
2023-01-20 16:07:40 GMT 50.986431 4.417648 36,000 288 412 -64
2023-01-20 16:07:37 GMT 50.984104 4.429092 36,000 288 412 -64
2023-01-20 16:07:35 GMT 50.984104 4.429092 36,000 288 412 -64
2023-01-20 16:07:32 GMT 50.982239 4.438477 36,000 288 412 -64
2023-01-20 16:07:30 GMT 50.978943 4.454808 36,025 288 412 -64
2023-01-20 16:07:27 GMT 50.977478 4.462008 36,025 288 412 -128
2023-01-20 16:07:24 GMT 50.977478 4.462008 36,025 288 412 -128
2023-01-20 16:07:21 GMT 50.975956 4.469604 36,025 288 412 -128
2023-01-20 16:07:19 GMT 50.973118 4.483643 36,025 288 411 0
2023-01-20 16:07:16 GMT 50.973118 4.483643 36,025 288 411 0
2023-01-20 16:07:14 GMT 50.972000 4.489059 36,025 288 411 0
2023-01-20 16:07:11 GMT 50.969788 4.500163 36,025 288 411 0
2023-01-20 16:07:08 GMT 50.968601 4.505997 36,025 288 411 0
2023-01-20 16:07:06 GMT 50.967438 4.511719 36,025 288 411 0
2023-01-20 16:07:04 GMT 50.966217 4.517905 36,025 288 411 0
2023-01-20 16:07:01 GMT 50.964180 4.528122 36,025 288 411 0
2023-01-20 16:06:58 GMT 50.962875 4.534378 36,025 288 411 0
2023-01-20 16:06:55 GMT 50.960735 4.544983 36,025 288 411 0
2023-01-20 16:06:52 GMT 50.958641 4.555359 36,025 288 411 0
2023-01-20 16:06:49 GMT 50.957062 4.563186 36,025 288 411 0
2023-01-20 16:06:46 GMT 50.953857 4.578998 36,025 288 412 0
2023-01-20 16:06:43 GMT 50.952209 4.587015 36,025 288 412 0
2023-01-20 16:06:40 GMT 50.952209 4.587015 36,025 288 412 0
2023-01-20 16:06:37 GMT 50.950073 4.597473 36,025 288 412 64
2023-01-20 16:06:34 GMT 50.948364 4.605870 36,025 288 412 64
2023-01-20 16:06:31 GMT 50.946911 4.612961 36,025 288 412 64
2023-01-20 16:06:29 GMT 50.943604 4.629104 36,025 288 412 64
2023-01-20 16:06:26 GMT 50.943604 4.629104 36,000 289 412 64
2023-01-20 16:06:23 GMT 50.942139 4.636230 36,025 288 412 64
2023-01-20 16:06:19 GMT 50.940125 4.646029 36,000 289 412 64
2023-01-20 16:06:16 GMT 50.938385 4.654566 36,000 289 412 64
2023-01-20 16:06:14 GMT 50.937241 4.660059 36,000 289 412 64
2023-01-20 16:06:12 GMT 50.936005 4.666072 36,000 289 412 64
2023-01-20 16:06:09 GMT 50.933533 4.678097 36,000 289 412 0
2023-01-20 16:06:06 GMT 50.932480 4.683380 36,000 289 412 0
2023-01-20 16:06:04 GMT 50.930710 4.692001 36,000 289 412 0
2023-01-20 16:06:01 GMT 50.929173 4.699402 36,000 289 412 0
2023-01-20 16:05:58 GMT 50.926517 4.712296 36,000 289 412 0
2023-01-20 16:05:56 GMT 50.926517 4.712296 36,000 289 412 0
2023-01-20 16:05:54 GMT 50.924927 4.719890 36,000 289 412 0
2023-01-20 16:05:51 GMT 50.923260 4.728088 36,000 289 412 0
2023-01-20 16:05:49 GMT 50.920609 4.740906 36,000 289 412 64
2023-01-20 16:05:46 GMT 50.920609 4.740906 36,000 289 412 64
2023-01-20 16:05:44 GMT 50.919395 4.746628 35,975 288 412 128
2023-01-20 16:05:41 GMT 50.917301 4.756927 35,975 288 412 128
2023-01-20 16:05:39 GMT 50.916183 4.762344 35,975 288 412 64
2023-01-20 16:05:36 GMT 50.914600 4.770126 35,975 288 412 64
2023-01-20 16:05:34 GMT 50.913712 4.774525 35,975 288 412 0
2023-01-20 16:05:32 GMT 50.911949 4.782944 35,975 288 412 0
2023-01-20 16:05:29 GMT 50.910233 4.791449 35,975 288 412 64
2023-01-20 16:05:26 GMT 50.908813 4.798279 35,950 288 412 64
2023-01-20 16:05:23 GMT 50.906662 4.808894 35,975 288 412 64
2023-01-20 16:05:20 GMT 50.905197 4.815903 35,950 288 411 64
2023-01-20 16:05:16 GMT 50.903194 4.825592 35,950 289 411 64
2023-01-20 16:05:14 GMT 50.899658 4.842892 35,950 289 411 0
2023-01-20 16:05:11 GMT 50.897964 4.851132 35,950 289 411 0
2023-01-20 16:05:08 GMT 50.896317 4.859149 35,950 289 411 -64
2023-01-20 16:05:05 GMT 50.896317 4.859149 35,950 288 411 0
2023-01-20 16:05:03 GMT 50.895142 4.864731 35,950 288 411 0
2023-01-20 16:05:00 GMT 50.893341 4.873402 35,950 288 411 0
2023-01-20 16:04:58 GMT 50.892197 4.879117 35,950 289 410 0
2023-01-20 16:04:55 GMT 50.889725 4.891069 35,950 289 410 0
2023-01-20 16:04:52 GMT 50.888485 4.897232 35,950 289 410 0
2023-01-20 16:04:49 GMT 50.886932 4.904802 35,950 289 409 0
2023-01-20 16:04:46 GMT 50.885086 4.913712 35,950 289 410 0
2023-01-20 16:04:44 GMT 50.884251 4.917679 35,975 289 409 0
2023-01-20 16:04:42 GMT 50.882946 4.923935 35,975 289 410 -64
2023-01-20 16:04:39 GMT 50.881084 4.933090 35,975 289 409 0
2023-01-20 16:04:36 GMT 50.878143 4.947114 35,975 289 410 -64
2023-01-20 16:04:34 GMT 50.877045 4.952533 35,975 289 410 0
2023-01-20 16:04:32 GMT 50.877045 4.952533 35,975 289 410 -64
2023-01-20 16:04:29 GMT 50.873428 4.969829 35,975 289 410 -64
2023-01-20 16:04:26 GMT 50.871960 4.976807 35,975 289 410 -64
2023-01-20 16:04:23 GMT 50.871960 4.976807 35,975 289 410 -64
2023-01-20 16:04:20 GMT 50.869858 4.986902 36,000 289 410 -64
2023-01-20 16:04:17 GMT 50.868027 4.995736 36,000 289 410 -64
2023-01-20 16:04:14 GMT 50.866287 5.004272 36,000 289 410 0
2023-01-20 16:04:12 GMT 50.865490 5.008087 36,000 289 409 0
2023-01-20 16:04:09 GMT 50.861435 5.027581 36,000 289 409 0
2023-01-20 16:04:06 GMT 50.861435 5.027581 36,000 289 409 0
2023-01-20 16:04:04 GMT 50.860462 5.032196 36,000 289 409 0
2023-01-20 16:04:02 GMT 50.858688 5.040869 36,000 289 409 0
2023-01-20 16:03:59 GMT 50.857620 5.045853 36,000 289 409 0
2023-01-20 16:03:56 GMT 50.855576 5.055641 36,000 289 409 -64
2023-01-20 16:03:54 GMT 50.854523 5.060763 36,000 289 412 0
2023-01-20 16:03:52 GMT 50.853287 5.066702 36,000 289 409 -64
2023-01-20 16:03:49 GMT 50.851429 5.075684 36,000 289 409 0
2023-01-20 16:03:47 GMT 50.849030 5.087115 36,000 289 409 -64
2023-01-20 16:03:44 GMT 50.849030 5.087115 36,000 289 409 -64
2023-01-20 16:03:42 GMT 50.845657 5.103149 36,000 289 409 -64
2023-01-20 16:03:39 GMT 50.845657 5.103149 36,000 289 409 0
2023-01-20 16:03:37 GMT 50.844120 5.110550 36,000 289 409 0
2023-01-20 16:03:34 GMT 50.840515 5.127720 36,000 289 409 0
2023-01-20 16:03:31 GMT 50.838638 5.136776 36,000 289 409 -64
2023-01-20 16:03:28 GMT 50.838638 5.136776 36,000 289 409 -64
2023-01-20 16:03:25 GMT 50.836258 5.148134 36,000 289 410 -64
2023-01-20 16:03:23 GMT 50.836258 5.148134 36,000 289 410 -64
2023-01-20 16:03:21 GMT 50.832733 5.164910 36,025 289 410 -64
2023-01-20 16:03:17 GMT 50.830482 5.175552 36,025 289 410 -64
2023-01-20 16:03:14 GMT 50.830482 5.175552 36,025 289 410 -64
2023-01-20 16:03:11 GMT 50.829071 5.182206 36,025 289 411 0
2023-01-20 16:03:08 GMT 50.827103 5.191634 36,025 289 411 0
2023-01-20 16:03:05 GMT 50.825596 5.198898 36,025 289 411 0
2023-01-20 16:03:03 GMT 50.823730 5.207672 36,025 289 411 0
2023-01-20 16:03:00 GMT 50.822010 5.215912 36,025 289 411 0
2023-01-20 16:02:57 GMT 50.817902 5.235431 36,025 289 411 0
2023-01-20 16:02:53 GMT 50.817902 5.235431 36,000 289 412 0
2023-01-20 16:02:50 GMT 50.816704 5.240936 36,025 289 412 0
2023-01-20 16:02:47 GMT 50.814793 5.250092 36,025 289 412 0
2023-01-20 16:02:45 GMT 50.813255 5.257187 36,025 289 412 64
2023-01-20 16:02:43 GMT 50.811348 5.266266 36,025 289 412 0
2023-01-20 16:02:40 GMT 50.809998 5.272522 36,000 289 412 64
2023-01-20 16:02:37 GMT 50.807251 5.285645 36,000 289 412 64
2023-01-20 16:02:35 GMT 50.807251 5.285645 36,025 289 412 0
2023-01-20 16:02:33 GMT 50.805954 5.291773 36,025 289 412 0
2023-01-20 16:02:30 GMT 50.804413 5.299072 36,025 289 412 0
2023-01-20 16:02:27 GMT 50.802567 5.307733 36,025 289 412 0
2023-01-20 16:02:25 GMT 50.801105 5.314789 36,025 289 412 0
2023-01-20 16:02:23 GMT 50.799618 5.321884 36,025 289 412 0
2023-01-20 16:02:20 GMT 50.798355 5.327701 36,025 289 413 64
2023-01-20 16:02:17 GMT 50.796638 5.335846 36,025 289 413 64
2023-01-20 16:02:15 GMT 50.795105 5.343141 36,025 289 413 64
2023-01-20 16:02:13 GMT 50.794170 5.347595 36,000 289 414 0
2023-01-20 16:02:11 GMT 50.792355 5.356140 36,000 289 413 0
2023-01-20 16:02:08 GMT 50.790260 5.366135 36,000 289 413 0
2023-01-20 16:02:04 GMT 50.788490 5.374374 36,000 289 413 0
2023-01-20 16:02:01 GMT 50.786957 5.381668 36,000 289 414 0
2023-01-20 16:01:58 GMT 50.784897 5.391392 36,000 289 414 0
2023-01-20 16:01:54 GMT 50.782997 5.400391 36,000 289 414 0
2023-01-20 16:01:52 GMT 50.781097 5.409430 36,000 289 414 -64
2023-01-20 16:01:49 GMT 50.777554 5.426102 36,000 289 414 0
2023-01-20 16:01:46 GMT 50.777554 5.426102 36,000 289 414 64
2023-01-20 16:01:43 GMT 50.775970 5.433578 36,000 289 414 0
2023-01-20 16:01:40 GMT 50.772198 5.451279 36,000 289 414 0
2023-01-20 16:01:37 GMT 50.770802 5.457916 36,000 289 414 0
2023-01-20 16:01:34 GMT 50.770802 5.457916 36,000 289 414 0
2023-01-20 16:01:32 GMT 50.769379 5.464585 36,000 289 414 0
2023-01-20 16:01:29 GMT 50.766907 5.476313 36,000 289 414 0
2023-01-20 16:01:26 GMT 50.763260 5.493622 36,000 289 414 0
2023-01-20 16:01:23 GMT 50.763260 5.493622 36,000 289 414 0
2023-01-20 16:01:20 GMT 50.761909 5.499954 36,000 289 414 0
2023-01-20 16:01:17 GMT 50.760086 5.508679 36,000 289 414 64
2023-01-20 16:01:14 GMT 50.758621 5.515508 36,000 289 414 64
2023-01-20 16:01:12 GMT 50.756603 5.525055 36,000 289 414 0
2023-01-20 16:01:09 GMT 50.754684 5.534066 36,000 289 414 0
2023-01-20 16:01:06 GMT 50.752808 5.542974 36,000 289 414 0
2023-01-20 16:01:03 GMT 50.751064 5.551071 36,000 289 414 0
2023-01-20 16:01:00 GMT 50.749619 5.557938 36,000 289 413 64
2023-01-20 16:00:57 GMT 50.746170 5.574077 36,000 289 413 64
2023-01-20 16:00:54 GMT 50.746170 5.574077 36,000 289 413 64
2023-01-20 16:00:52 GMT 50.744934 5.579793 36,000 289 413 64
2023-01-20 16:00:49 GMT 50.743195 5.587921 36,000 289 413 64
2023-01-20 16:00:46 GMT 50.741474 5.595932 36,000 289 414 64
2023-01-20 16:00:44 GMT 50.740170 5.601883 35,975 289 414 64
2023-01-20 16:00:42 GMT 50.739258 5.606368 35,975 289 414 64
2023-01-20 16:00:40 GMT 50.737701 5.613494 35,975 289 414 0
2023-01-20 16:00:37 GMT 50.735748 5.622482 35,975 289 414 0
2023-01-20 16:00:34 GMT 50.733791 5.631638 35,975 289 415 0
2023-01-20 16:00:32 GMT 50.732483 5.637768 35,975 289 415 -64
2023-01-20 16:00:29 GMT 50.730907 5.645065 36,000 289 414 -64
2023-01-20 16:00:26 GMT 50.729324 5.652317 36,000 289 414 -64
2023-01-20 16:00:24 GMT 50.728020 5.658493 36,000 289 414 -64
2023-01-20 16:00:22 GMT 50.726719 5.664444 36,000 289 414 -64
2023-01-20 16:00:19 GMT 50.724289 5.675775 35,975 289 413 0
2023-01-20 16:00:16 GMT 50.721455 5.688705 36,000 289 413 64
2023-01-20 16:00:14 GMT 50.721455 5.688705 36,000 289 413 64
2023-01-20 16:00:12 GMT 50.720535 5.693145 35,975 289 414 64
2023-01-20 16:00:10 GMT 50.719345 5.698564 35,975 289 414 0
2023-01-20 16:00:07 GMT 50.716942 5.709839 35,975 289 414 64
2023-01-20 16:00:04 GMT 50.715363 5.717122 35,975 289 414 0
2023-01-20 16:00:02 GMT 50.714752 5.720139 35,975 289 414 0
2023-01-20 16:00:00 GMT 50.713165 5.727440 35,975 289 415 -64
2023-01-20 15:59:57 GMT 50.711075 5.737305 35,975 289 415 -64
2023-01-20 15:59:54 GMT 50.707539 5.753937 36,000 289 415 -64
2023-01-20 15:59:51 GMT 50.705978 5.761216 36,000 289 415 -64
2023-01-20 15:59:48 GMT 50.705978 5.761216 36,000 289 415 -64
2023-01-20 15:59:45 GMT 50.704044 5.770264 36,000 289 415 -64
2023-01-20 15:59:42 GMT 50.701675 5.781629 36,000 289 415 -64
2023-01-20 15:59:39 GMT 50.700119 5.789053 36,000 289 415 -64
2023-01-20 15:59:36 GMT 50.698273 5.797806 36,000 289 415 -64
2023-01-20 15:59:33 GMT 50.696735 5.804977 36,000 289 415 -64
2023-01-20 15:59:31 GMT 50.695541 5.810506 36,025 289 415 0
2023-01-20 15:59:28 GMT 50.693340 5.820923 36,025 289 415 -64
2023-01-20 15:59:25 GMT 50.691849 5.827789 36,025 289 415 -64
2023-01-20 15:59:22 GMT 50.690128 5.835800 36,025 289 415 0
2023-01-20 15:59:20 GMT 50.687210 5.849403 36,025 289 415 0
2023-01-20 15:59:17 GMT 50.687210 5.849403 36,025 289 415 0
2023-01-20 15:59:14 GMT 50.684170 5.863571 36,025 289 415 0
2023-01-20 15:59:11 GMT 50.683456 5.866848 36,025 289 415 0
2023-01-20 15:59:09 GMT 50.680023 5.882416 36,025 290 415 -64
2023-01-20 15:59:06 GMT 50.680023 5.882416 36,025 290 415 -64
2023-01-20 15:59:03 GMT 50.678192 5.890825 36,025 290 415 0
2023-01-20 15:59:01 GMT 50.676952 5.896378 36,025 290 415 0
2023-01-20 15:58:59 GMT 50.675217 5.904186 36,025 290 415 0
2023-01-20 15:58:56 GMT 50.673321 5.912628 36,025 290 415 0
2023-01-20 15:58:53 GMT 50.671505 5.920563 36,025 290 414 64
2023-01-20 15:58:50 GMT 50.669586 5.928931 36,025 291 415 64
2023-01-20 15:58:47 GMT 50.667458 5.938110 36,025 291 415 64
2023-01-20 15:58:45 GMT 50.666199 5.943529 36,025 291 415 64
2023-01-20 15:58:42 GMT 50.664322 5.951626 36,000 291 415 64
2023-01-20 15:58:40 GMT 50.663086 5.956975 36,000 291 416 0
2023-01-20 15:58:38 GMT 50.660053 5.969882 36,000 291 416 0
2023-01-20 15:58:35 GMT 50.660053 5.969882 36,025 291 416 -64
2023-01-20 15:58:33 GMT 50.658463 5.976852 36,000 291 416 -64
2023-01-20 15:58:31 GMT 50.657364 5.981405 36,025 291 416 -64
2023-01-20 15:58:28 GMT 50.653488 5.998016 36,025 291 416 0
2023-01-20 15:58:25 GMT 50.653488 5.998016 36,025 291 416 0
2023-01-20 15:58:22 GMT 50.651138 6.008076 36,025 291 416 0
2023-01-20 15:58:20 GMT 50.650085 6.012629 36,025 291 416 0
2023-01-20 15:58:17 GMT 50.648026 6.021375 36,025 291 416 0
2023-01-20 15:58:15 GMT 50.646561 6.027663 36,025 291 416 64
2023-01-20 15:58:12 GMT 50.642597 6.044559 36,025 291 416 64
2023-01-20 15:58:10 GMT 50.642597 6.044559 36,025 291 416 64
2023-01-20 15:58:07 GMT 50.639198 6.058960 36,000 291 416 64
2023-01-20 15:58:04 GMT 50.639198 6.058960 36,000 291 416 64
2023-01-20 15:58:02 GMT 50.638321 6.062791 36,000 291 416 64
2023-01-20 15:58:00 GMT 50.636993 6.068501 36,000 291 416 0
2023-01-20 15:57:57 GMT 50.633926 6.081583 36,000 291 416 0
2023-01-20 15:57:54 GMT 50.632587 6.087391 36,000 291 417 0
2023-01-20 15:57:52 GMT 50.631287 6.093107 36,000 291 417 64
2023-01-20 15:57:49 GMT 50.628677 6.104167 36,000 291 417 0
2023-01-20 15:57:46 GMT 50.626740 6.112518 36,000 291 417 0
2023-01-20 15:57:43 GMT 50.625412 6.118228 36,000 291 417 0
2023-01-20 15:57:41 GMT 50.624176 6.123649 36,000 291 417 0
2023-01-20 15:57:38 GMT 50.621384 6.135575 36,000 291 417 0
2023-01-20 15:57:35 GMT 50.620010 6.141574 36,000 291 417 -64
2023-01-20 15:57:33 GMT 50.618454 6.148079 36,000 291 416 -64
2023-01-20 15:57:31 GMT 50.617039 6.154200 36,000 291 416 0
2023-01-20 15:57:28 GMT 50.615387 6.161451 36,000 291 416 0
2023-01-20 15:57:25 GMT 50.613037 6.171496 36,000 291 416 0
2023-01-20 15:57:22 GMT 50.609665 6.185809 36,000 291 416 0
2023-01-20 15:57:20 GMT 50.609665 6.185809 36,000 291 416 0
2023-01-20 15:57:15 GMT 50.606613 6.199036 36,000 291 416 0
2023-01-20 15:57:12 GMT 50.604492 6.207926 36,000 291 416 0
2023-01-20 15:57:09 GMT 50.603073 6.214030 36,000 291 416 64
2023-01-20 15:57:06 GMT 50.600468 6.225091 36,000 291 416 64
2023-01-20 15:57:03 GMT 50.599026 6.231327 36,000 291 416 64
2023-01-20 15:56:59 GMT 50.594421 6.251004 35,975 291 415 64
2023-01-20 15:56:56 GMT 50.593140 6.256352 35,975 291 415 64
2023-01-20 15:56:52 GMT 50.591434 6.263617 35,975 291 415 0
2023-01-20 15:56:49 GMT 50.589020 6.273916 35,975 291 416 -64
2023-01-20 15:56:46 GMT 50.587711 6.279429 35,975 291 415 0
2023-01-20 15:56:44 GMT 50.586456 6.284686 35,975 291 415 0
2023-01-20 15:56:41 GMT 50.582336 6.302249 35,975 291 415 64
2023-01-20 15:56:38 GMT 50.582336 6.302249 35,975 291 415 64
2023-01-20 15:56:35 GMT 50.580414 6.310417 35,975 291 415 64
2023-01-20 15:56:32 GMT 50.577888 6.320999 35,975 291 416 0
2023-01-20 15:56:29 GMT 50.574188 6.336726 35,975 291 416 -64
2023-01-20 15:56:26 GMT 50.574188 6.336726 35,975 291 415 -64
2023-01-20 15:56:24 GMT 50.572906 6.342229 35,975 291 415 -64
2023-01-20 15:56:21 GMT 50.571121 6.349664 35,975 291 415 -64
2023-01-20 15:56:19 GMT 50.568996 6.358560 35,975 291 416 -64
2023-01-20 15:56:16 GMT 50.567551 6.364626 35,975 291 416 -64
2023-01-20 15:56:14 GMT 50.565414 6.373555 36,000 291 416 -64
2023-01-20 15:56:11 GMT 50.563797 6.380455 36,000 291 416 -64
2023-01-20 15:56:08 GMT 50.561970 6.388253 36,000 291 416 -64
2023-01-20 15:56:05 GMT 50.558197 6.404064 36,000 291 416 -64
2023-01-20 15:56:02 GMT 50.558197 6.404064 36,000 291 416 -64
2023-01-20 15:56:00 GMT 50.556522 6.411116 36,000 291 416 -64
2023-01-20 15:55:57 GMT 50.554893 6.418168 36,000 291 415 -64
2023-01-20 15:55:54 GMT 50.552937 6.426334 36,000 291 415 0
2023-01-20 15:55:51 GMT 50.549240 6.442036 36,025 291 415 0
2023-01-20 15:55:49 GMT 50.549240 6.442036 36,025 291 415 0
2023-01-20 15:55:45 GMT 50.546886 6.452092 36,025 291 415 0
2023-01-20 15:55:42 GMT 50.544975 6.460258 36,025 291 416 0
2023-01-20 15:55:40 GMT 50.543839 6.464876 36,025 291 415 0
2023-01-20 15:55:38 GMT 50.542236 6.471670 36,025 291 415 0
2023-01-20 15:55:35 GMT 50.540314 6.479838 36,025 291 415 0
2023-01-20 15:55:32 GMT 50.537979 6.489740 36,000 291 415 0
2023-01-20 15:55:28 GMT 50.535851 6.498636 36,000 291 416 0
2023-01-20 15:55:25 GMT 50.533447 6.508604 36,000 291 416 0
2023-01-20 15:55:23 GMT 50.531982 6.514893 36,000 291 416 0
2023-01-20 15:55:21 GMT 50.530838 6.519663 36,000 291 416 0
2023-01-20 15:55:19 GMT 50.529381 6.525730 36,025 291 416 0
2023-01-20 15:55:16 GMT 50.527359 6.534335 36,025 291 416 0
2023-01-20 15:55:13 GMT 50.525299 6.542864 36,025 291 416 -64
2023-01-20 15:55:11 GMT 50.523285 6.551321 36,025 291 416 -64
2023-01-20 15:55:08 GMT 50.519001 6.569230 36,025 291 416 0
2023-01-20 15:55:04 GMT 50.519001 6.569230 36,025 291 416 0
2023-01-20 15:55:01 GMT 50.517197 6.576763 36,025 291 416 0
2023-01-20 15:54:58 GMT 50.513077 6.594038 36,025 291 416 -64
2023-01-20 15:54:55 GMT 50.513077 6.594038 36,025 291 417 -64
2023-01-20 15:54:53 GMT 50.511692 6.599814 36,025 291 417 -64
2023-01-20 15:54:50 GMT 50.509094 6.610662 36,025 291 417 0
2023-01-20 15:54:47 GMT 50.505688 6.624979 36,025 291 416 0
2023-01-20 15:54:44 GMT 50.505688 6.624979 36,025 291 416 0
2023-01-20 15:54:41 GMT 50.503174 6.635371 36,025 291 416 0
2023-01-20 15:54:37 GMT 50.500992 6.644632 36,025 291 417 0
2023-01-20 15:54:34 GMT 50.498611 6.654374 36,025 291 417 0
2023-01-20 15:54:31 GMT 50.496468 6.663356 36,025 291 417 0
2023-01-20 15:54:28 GMT 50.494766 6.670291 36,025 291 417 64
2023-01-20 15:54:25 GMT 50.492558 6.679539 36,025 291 417 0
2023-01-20 15:54:22 GMT 50.490646 6.687566 36,025 291 417 0
2023-01-20 15:54:20 GMT 50.488907 6.694938 36,025 291 417 64
2023-01-20 15:54:17 GMT 50.486847 6.703395 36,025 291 417 64
2023-01-20 15:54:14 GMT 50.485390 6.709529 36,025 291 417 64
2023-01-20 15:54:11 GMT 50.482590 6.721248 36,025 291 417 64
2023-01-20 15:54:07 GMT 50.480759 6.728837 36,025 291 417 64
2023-01-20 15:54:04 GMT 50.476963 6.744863 36,025 291 417 0
2023-01-20 15:54:01 GMT 50.476963 6.744863 36,000 291 418 64
2023-01-20 15:53:59 GMT 50.475494 6.750882 36,025 291 418 64
2023-01-20 15:53:56 GMT 50.471378 6.768024 36,000 291 418 64
2023-01-20 15:53:53 GMT 50.471378 6.768024 36,000 291 417 128
2023-01-20 15:53:50 GMT 50.469360 6.776324 36,000 291 417 64
2023-01-20 15:53:47 GMT 50.467190 6.785245 36,000 291 417 0
2023-01-20 15:53:44 GMT 50.463181 6.801766 36,000 291 417 0
2023-01-20 15:53:41 GMT 50.463181 6.801766 36,000 291 417 0
2023-01-20 15:53:39 GMT 50.461761 6.807693 36,000 291 417 0
2023-01-20 15:53:36 GMT 50.459702 6.816149 36,000 291 417 64
2023-01-20 15:53:34 GMT 50.458649 6.820414 36,000 291 417 64
2023-01-20 15:53:32 GMT 50.456573 6.828968 36,000 291 417 0
2023-01-20 15:53:29 GMT 50.454247 6.838544 36,000 291 417 64
2023-01-20 15:53:26 GMT 50.452927 6.844049 36,000 291 417 64
2023-01-20 15:53:24 GMT 50.450821 6.852505 36,000 291 417 0
2023-01-20 15:53:21 GMT 50.449451 6.858290 35,975 291 417 0
2023-01-20 15:53:19 GMT 50.447636 6.865639 36,000 291 417 0
2023-01-20 15:53:16 GMT 50.445354 6.874918 36,000 291 417 0
2023-01-20 15:53:13 GMT 50.444183 6.879899 36,000 291 417 0
2023-01-20 15:53:11 GMT 50.442078 6.888355 36,000 291 416 0
2023-01-20 15:53:08 GMT 50.439606 6.898474 35,975 291 417 0
2023-01-20 15:53:05 GMT 50.438606 6.902532 36,000 291 416 0
2023-01-20 15:53:03 GMT 50.436836 6.909881 35,975 291 416 0
2023-01-20 15:53:01 GMT 50.434555 6.919160 35,975 291 416 0
2023-01-20 15:52:56 GMT 50.432133 6.929033 35,975 291 416 0
2023-01-20 15:52:53 GMT 50.427898 6.946477 36,000 291 416 -64
2023-01-20 15:52:50 GMT 50.425873 6.954779 36,000 291 417 0
2023-01-20 15:52:47 GMT 50.425873 6.954779 36,000 291 417 -64
2023-01-20 15:52:44 GMT 50.424088 6.962079 36,000 291 417 -64
2023-01-20 15:52:42 GMT 50.422359 6.969266 36,000 291 417 -64
2023-01-20 15:52:40 GMT 50.418400 6.985597 36,000 291 415 0
2023-01-20 15:52:36 GMT 50.416946 6.991641 36,000 291 416 0
2023-01-20 15:52:34 GMT 50.414864 7.000221 36,000 291 416 0
2023-01-20 15:52:31 GMT 50.414864 7.000221 36,000 291 416 0
2023-01-20 15:52:29 GMT 50.413605 7.005374 36,000 291 416 0
2023-01-20 15:52:26 GMT 50.411636 7.013542 36,000 291 415 0
2023-01-20 15:52:24 GMT 50.410347 7.019076 36,000 291 415 0
2023-01-20 15:52:22 GMT 50.407833 7.029468 36,000 291 415 64
2023-01-20 15:52:20 GMT 50.406189 7.036382 36,000 291 415 64
2023-01-20 15:52:18 GMT 50.406189 7.036382 36,000 291 415 64
2023-01-20 15:52:15 GMT 50.404575 7.042979 36,000 291 415 64
2023-01-20 15:52:13 GMT 50.402664 7.050982 35,975 291 415 64
2023-01-20 15:52:10 GMT 50.400925 7.058282 35,975 291 415 0
2023-01-20 15:52:08 GMT 50.399269 7.065174 35,975 291 415 64
2023-01-20 15:52:05 GMT 50.397812 7.071220 35,975 291 415 64
2023-01-20 15:52:03 GMT 50.394241 7.086109 35,975 291 415 64
2023-01-20 15:52:00 GMT 50.394241 7.086109 35,975 291 415 0
2023-01-20 15:51:58 GMT 50.392796 7.092194 35,975 291 415 0
2023-01-20 15:51:56 GMT 50.389771 7.104814 35,975 291 415 0
2023-01-20 15:51:54 GMT 50.389771 7.104814 35,975 291 415 0
2023-01-20 15:51:52 GMT 50.388657 7.109455 35,975 291 415 0
2023-01-20 15:51:49 GMT 50.386791 7.117211 35,975 291 415 0
2023-01-20 15:51:46 GMT 50.384445 7.126874 35,975 291 415 0
2023-01-20 15:51:44 GMT 50.383163 7.132223 35,975 291 415 0
2023-01-20 15:51:41 GMT 50.381161 7.140519 35,975 291 415 0
2023-01-20 15:51:39 GMT 50.379730 7.146534 35,975 291 415 0
2023-01-20 15:51:36 GMT 50.377075 7.157520 35,975 291 416 0
2023-01-20 15:51:32 GMT 50.372910 7.174578 35,975 292 415 0
2023-01-20 15:51:28 GMT 50.370529 7.184119 35,975 292 415 0
2023-01-20 15:51:25 GMT 50.370529 7.184119 35,975 292 415 -64
2023-01-20 15:51:23 GMT 50.369110 7.189974 35,975 292 414 -64
2023-01-20 15:51:20 GMT 50.366730 7.199442 36,000 292 415 -64
2023-01-20 15:51:18 GMT 50.365036 7.206092 35,975 293 414 -128
2023-01-20 15:51:15 GMT 50.363190 7.213193 35,975 292 415 -64
2023-01-20 15:51:13 GMT 50.361374 7.220258 36,000 293 415 64
2023-01-20 15:51:10 GMT 50.359406 7.227775 36,000 293 414 -128
2023-01-20 15:51:08 GMT 50.358078 7.232762 36,000 293 414 -128
2023-01-20 15:51:05 GMT 50.355835 7.241178 36,000 293 414 -128
2023-01-20 15:51:03 GMT 50.354736 7.245483 36,000 293 414 -128
2023-01-20 15:51:00 GMT 50.350983 7.259505 36,025 293 413 0
2023-01-20 15:50:55 GMT 50.348328 7.269480 36,025 293 415 0
2023-01-20 15:50:52 GMT 50.346619 7.275918 36,025 293 415 0
2023-01-20 15:50:50 GMT 50.344570 7.283639 36,025 293 414 0
2023-01-20 15:50:48 GMT 50.342941 7.289726 36,025 293 414 0
2023-01-20 15:50:45 GMT 50.341461 7.295428 36,025 293 414 0
2023-01-20 15:50:43 GMT 50.339218 7.303668 36,025 293 415 0
2023-01-20 15:50:40 GMT 50.337021 7.311980 36,025 293 415 0
2023-01-20 15:50:37 GMT 50.335445 7.317934 36,025 293 415 64
2023-01-20 15:50:34 GMT 50.332809 7.327736 36,025 293 415 0
2023-01-20 15:50:32 GMT 50.331444 7.332854 36,025 293 415 0
2023-01-20 15:50:29 GMT 50.327316 7.348119 36,025 293 415 64
2023-01-20 15:50:27 GMT 50.327316 7.348119 36,025 293 415 64
2023-01-20 15:50:24 GMT 50.324295 7.359467 36,025 293 415 64
2023-01-20 15:50:22 GMT 50.324295 7.359467 36,025 293 415 64
2023-01-20 15:50:19 GMT 50.322269 7.367075 36,000 293 415 0
2023-01-20 15:50:17 GMT 50.318436 7.381295 36,000 293 416 0
2023-01-20 15:50:14 GMT 50.316193 7.389607 36,000 293 416 0
2023-01-20 15:50:12 GMT 50.314087 7.397340 36,000 293 416 0
2023-01-20 15:50:09 GMT 50.314087 7.397340 36,000 293 416 0
2023-01-20 15:50:06 GMT 50.312714 7.402617 36,000 293 416 0
2023-01-20 15:50:04 GMT 50.311237 7.408051 36,000 293 416 0
2023-01-20 15:50:02 GMT 50.307049 7.423566 36,025 293 417 -64
2023-01-20 15:49:59 GMT 50.307049 7.423566 36,025 293 417 -64
2023-01-20 15:49:57 GMT 50.305847 7.428131 36,000 293 417 64
2023-01-20 15:49:55 GMT 50.304337 7.433697 36,000 293 417 0
2023-01-20 15:49:53 GMT 50.300354 7.448658 36,000 293 417 0
2023-01-20 15:49:50 GMT 50.300354 7.448658 36,000 293 417 0
2023-01-20 15:49:48 GMT 50.299274 7.452665 36,025 293 417 0
2023-01-20 15:49:46 GMT 50.294998 7.468607 36,000 293 417 64
2023-01-20 15:49:43 GMT 50.292618 7.477384 36,000 293 417 64
2023-01-20 15:49:40 GMT 50.292618 7.477384 36,000 293 417 0
2023-01-20 15:49:37 GMT 50.290421 7.485520 36,000 293 417 0
2023-01-20 15:49:34 GMT 50.287079 7.498024 36,000 293 417 0
2023-01-20 15:49:32 GMT 50.284889 7.506186 36,000 293 418 0
2023-01-20 15:49:29 GMT 50.284889 7.506186 36,000 293 418 0
2023-01-20 15:49:27 GMT 50.283417 7.511613 36,000 293 418 0
2023-01-20 15:49:24 GMT 50.281219 7.519997 36,000 293 418 -64
2023-01-20 15:49:22 GMT 50.279251 7.527225 36,000 293 418 -64
2023-01-20 15:49:19 GMT 50.276974 7.535730 36,000 293 418 0
2023-01-20 15:49:16 GMT 50.273346 7.549198 36,000 293 417 64
2023-01-20 15:49:13 GMT 50.273346 7.549198 36,000 293 417 0
2023-01-20 15:49:11 GMT 50.270782 7.558742 36,000 293 418 -64
2023-01-20 15:49:08 GMT 50.269669 7.562899 36,000 293 418 0
2023-01-20 15:49:05 GMT 50.266968 7.572921 36,000 293 418 0
2023-01-20 15:49:02 GMT 50.265060 7.579988 36,000 293 418 64
2023-01-20 15:49:00 GMT 50.263428 7.585985 36,000 293 418 64
2023-01-20 15:48:57 GMT 50.260162 7.598058 36,000 293 418 64
2023-01-20 15:48:54 GMT 50.256680 7.610927 36,000 293 418 0
2023-01-20 15:48:52 GMT 50.256680 7.610927 36,000 293 418 0
2023-01-20 15:48:49 GMT 50.253281 7.623769 36,000 293 418 0
2023-01-20 15:48:47 GMT 50.253281 7.623769 36,000 293 418 0
2023-01-20 15:48:44 GMT 50.251144 7.631667 36,000 293 418 0
2023-01-20 15:48:42 GMT 50.249741 7.636760 36,000 293 418 0
2023-01-20 15:48:39 GMT 50.247757 7.644171 36,000 293 418 -64
2023-01-20 15:48:37 GMT 50.245461 7.652646 36,000 293 418 -64
2023-01-20 15:48:34 GMT 50.243546 7.659711 36,000 293 418 -64
2023-01-20 15:48:31 GMT 50.241364 7.667937 36,000 293 419 0
2023-01-20 15:48:28 GMT 50.239315 7.675361 36,000 293 419 0
2023-01-20 15:48:26 GMT 50.237080 7.683749 36,000 293 419 0
2023-01-20 15:48:23 GMT 50.236103 7.687312 36,000 293 419 0
2023-01-20 15:48:21 GMT 50.231495 7.704237 36,000 293 419 0
2023-01-20 15:48:18 GMT 50.231495 7.704237 36,000 293 419 -64
2023-01-20 15:48:16 GMT 50.229492 7.711607 36,000 293 419 64
2023-01-20 15:48:13 GMT 50.228420 7.715669 36,000 293 419 64
2023-01-20 15:48:11 GMT 50.223721 7.732816 36,000 293 419 64
2023-01-20 15:48:07 GMT 50.222031 7.739073 36,000 293 419 64
2023-01-20 15:48:05 GMT 50.222031 7.739073 36,000 293 419 0
2023-01-20 15:48:02 GMT 50.219810 7.747291 36,000 293 419 0
2023-01-20 15:48:00 GMT 50.218048 7.753818 36,000 293 419 -64
2023-01-20 15:47:57 GMT 50.215900 7.761692 36,000 294 419 64
2023-01-20 15:47:54 GMT 50.212872 7.772827 36,000 293 419 -64
2023-01-20 15:47:51 GMT 50.211384 7.778320 36,000 293 419 -64
2023-01-20 15:47:47 GMT 50.205425 7.800293 36,000 293 419 -64
2023-01-20 15:47:44 GMT 50.205425 7.800293 36,000 293 419 -64
2023-01-20 15:47:41 GMT 50.203377 7.807790 36,000 293 419 0
2023-01-20 15:47:37 GMT 50.201157 7.815977 36,000 294 419 64
2023-01-20 15:47:35 GMT 50.197815 7.828192 36,000 294 418 64
2023-01-20 15:47:33 GMT 50.197815 7.828192 36,000 294 419 0
2023-01-20 15:47:31 GMT 50.195526 7.836504 36,000 294 419 0
2023-01-20 15:47:28 GMT 50.193649 7.843443 36,000 294 419 -64
2023-01-20 15:47:26 GMT 50.192532 7.847430 36,000 294 419 0
2023-01-20 15:47:24 GMT 50.189457 7.858862 36,000 294 419 64
2023-01-20 15:47:22 GMT 50.189457 7.858862 36,000 294 419 64
2023-01-20 15:47:20 GMT 50.188015 7.864132 36,000 294 419 0
2023-01-20 15:47:17 GMT 50.185776 7.872282 36,000 294 419 -64
2023-01-20 15:47:15 GMT 50.184196 7.878014 36,000 294 419 0
2023-01-20 15:47:12 GMT 50.180332 7.892118 36,000 294 419 -64
2023-01-20 15:47:07 GMT 50.177719 7.901772 36,000 294 419 -64
2023-01-20 15:47:05 GMT 50.176701 7.905480 36,000 294 419 64
2023-01-20 15:47:02 GMT 50.174057 7.915071 36,000 294 419 0
2023-01-20 15:47:00 GMT 50.172180 7.922010 36,000 294 419 0
2023-01-20 15:46:57 GMT 50.170166 7.929238 36,000 294 419 -64
2023-01-20 15:46:55 GMT 50.166321 7.943332 36,000 294 419 -64
2023-01-20 15:46:52 GMT 50.166321 7.943332 36,000 294 419 0
2023-01-20 15:46:50 GMT 50.165668 7.945713 36,000 294 419 0
2023-01-20 15:46:48 GMT 50.163666 7.952914 36,000 294 419 -64
2023-01-20 15:46:45 GMT 50.160549 7.964271 36,000 294 419 -64
2023-01-20 15:46:42 GMT 50.158585 7.971376 36,025 294 419 -64
2023-01-20 15:46:40 GMT 50.157009 7.977113 36,025 294 419 -128
2023-01-20 15:46:37 GMT 50.155800 7.981567 36,025 294 419 -128
2023-01-20 15:46:35 GMT 50.154079 7.987951 36,025 294 419 -64
2023-01-20 15:46:33 GMT 50.151936 7.995671 36,025 294 420 0
2023-01-20 15:46:30 GMT 50.147560 8.011483 36,025 294 420 0
2023-01-20 15:46:27 GMT 50.147560 8.011483 36,025 294 420 0
2023-01-20 15:46:25 GMT 50.145885 8.017644 36,025 294 420 0
2023-01-20 15:46:22 GMT 50.144073 8.024139 36,025 294 420 0
2023-01-20 15:46:20 GMT 50.142441 8.030115 36,025 294 420 0
2023-01-20 15:46:18 GMT 50.140869 8.035776 36,025 294 421 0
2023-01-20 15:46:15 GMT 50.137527 8.047991 36,025 294 421 0
2023-01-20 15:46:12 GMT 50.134048 8.060495 36,025 294 421 -64
2023-01-20 15:46:10 GMT 50.134048 8.060495 36,025 294 421 0
2023-01-20 15:46:07 GMT 50.131989 8.068012 36,025 294 420 -64
2023-01-20 15:46:04 GMT 50.129883 8.075819 36,025 294 420 64
2023-01-20 15:46:01 GMT 50.127274 8.085215 36,000 294 422 64
2023-01-20 15:45:58 GMT 50.125351 8.092153 36,025 294 421 64
2023-01-20 15:45:55 GMT 50.121140 8.107476 36,025 294 421 64
2023-01-20 15:45:52 GMT 50.119675 8.112884 36,025 294 421 0
2023-01-20 15:45:50 GMT 50.117111 8.122221 36,025 294 422 0
2023-01-20 15:45:47 GMT 50.117111 8.122221 36,025 294 422 0
2023-01-20 15:45:45 GMT 50.115162 8.129289 36,025 294 422 64
2023-01-20 15:45:42 GMT 50.113625 8.134856 36,025 294 422 64
2023-01-20 15:45:40 GMT 50.111622 8.142131 36,025 294 422 64
2023-01-20 15:45:37 GMT 50.107864 8.155614 36,000 294 422 0
2023-01-20 15:45:35 GMT 50.107864 8.155614 36,000 294 422 0
2023-01-20 15:45:32 GMT 50.103943 8.169968 36,025 294 422 0
2023-01-20 15:45:30 GMT 50.103943 8.169968 36,025 294 421 64
2023-01-20 15:45:27 GMT 50.101959 8.177081 36,025 294 422 0
2023-01-20 15:45:24 GMT 50.098709 8.188717 36,025 294 422 0
2023-01-20 15:45:21 GMT 50.097198 8.194283 36,025 294 422 64
2023-01-20 15:45:19 GMT 50.095551 8.200137 36,025 294 421 0
2023-01-20 15:45:17 GMT 50.094177 8.205125 36,025 294 421 0
2023-01-20 15:45:14 GMT 50.091743 8.213913 36,025 294 421 0
2023-01-20 15:45:11 GMT 50.088718 8.224751 36,025 294 422 0
2023-01-20 15:45:08 GMT 50.086811 8.231729 36,025 294 422 0
2023-01-20 15:45:05 GMT 50.084839 8.238806 36,025 294 422 0
2023-01-20 15:45:02 GMT 50.082047 8.248853 36,000 294 421 64
2023-01-20 15:45:00 GMT 50.080990 8.252588 36,000 294 421 64
2023-01-20 15:44:58 GMT 50.079025 8.259695 36,000 294 421 64
2023-01-20 15:44:54 GMT 50.074173 8.277186 36,000 294 421 64
2023-01-20 15:44:51 GMT 50.073357 8.280054 36,000 294 421 64
2023-01-20 15:44:49 GMT 50.072472 8.283098 36,000 294 421 128
2023-01-20 15:44:47 GMT 50.070469 8.290372 36,000 294 421 128
2023-01-20 15:44:44 GMT 50.068375 8.297870 36,000 294 421 64
2023-01-20 15:44:41 GMT 50.066048 8.306184 36,000 294 421 64
2023-01-20 15:44:39 GMT 50.062683 8.318241 35,975 294 422 0
2023-01-20 15:44:37 GMT 50.061493 8.322433 35,975 294 422 64
2023-01-20 15:44:35 GMT 50.059902 8.328082 35,975 294 422 64
2023-01-20 15:44:33 GMT 50.059902 8.328082 35,975 294 422 64
2023-01-20 15:44:30 GMT 50.057465 8.336888 35,975 294 422 64
2023-01-20 15:44:28 GMT 50.056038 8.342038 35,975 294 422 64
2023-01-20 15:44:25 GMT 50.053116 8.352428 35,975 294 422 64
2023-01-20 15:44:22 GMT 50.051384 8.358666 35,975 294 422 0
2023-01-20 15:44:19 GMT 50.048309 8.369703 35,975 294 422 0
2023-01-20 15:44:16 GMT 50.046707 8.375485 35,975 294 422 0
2023-01-20 15:44:13 GMT 50.042305 8.391179 35,975 294 421 0
2023-01-20 15:44:10 GMT 50.042305 8.391179 35,975 294 421 -64
2023-01-20 15:44:08 GMT 50.040436 8.398036 35,975 294 421 0
2023-01-20 15:44:06 GMT 50.038971 8.403312 35,975 294 421 -64
2023-01-20 15:44:04 GMT 50.037506 8.408589 35,975 294 421 0
2023-01-20 15:44:02 GMT 50.034164 8.420515 35,975 294 420 -64
2023-01-20 15:44:00 GMT 50.034164 8.420515 35,975 294 421 0
2023-01-20 15:43:58 GMT 50.032623 8.425920 35,975 294 421 -64
2023-01-20 15:43:55 GMT 50.030018 8.435347 35,975 294 421 -64
2023-01-20 15:43:53 GMT 50.026569 8.447521 35,975 294 421 -64
2023-01-20 15:43:50 GMT 50.026569 8.447521 36,000 294 421 -64
2023-01-20 15:43:48 GMT 50.025269 8.452272 36,000 294 420 -64
2023-01-20 15:43:46 GMT 50.023403 8.458879 36,000 294 420 0
2023-01-20 15:43:43 GMT 50.018646 8.475880 35,975 294 420 0
2023-01-20 15:43:40 GMT 50.018646 8.475880 35,975 294 420 64
2023-01-20 15:43:38 GMT 50.013931 8.492721 35,975 294 420 64
2023-01-20 15:43:35 GMT 50.012604 8.497257 35,975 294 420 0
2023-01-20 15:43:32 GMT 50.012604 8.497257 35,975 294 420 0
2023-01-20 15:43:30 GMT 50.008511 8.511955 36,000 294 420 0
2023-01-20 15:43:27 GMT 50.008511 8.511955 35,975 294 420 0
2023-01-20 15:43:24 GMT 50.006088 8.520491 36,000 294 420 0
2023-01-20 15:43:22 GMT 50.002876 8.531849 36,000 294 420 0
2023-01-20 15:43:20 GMT 50.002876 8.531849 36,000 294 421 -64
2023-01-20 15:43:18 GMT 50.002037 8.534818 36,000 294 421 -64
2023-01-20 15:43:16 GMT 50.000381 8.540786 35,975 294 421 0
2023-01-20 15:43:13 GMT 49.997196 8.551966 35,975 294 421 0
2023-01-20 15:43:10 GMT 49.994888 8.560084 35,975 294 421 0
2023-01-20 15:43:08 GMT 49.993847 8.563843 36,000 294 421 -64
2023-01-20 15:43:05 GMT 49.991749 8.571266 36,000 294 421 -64
2023-01-20 15:43:03 GMT 49.990219 8.576708 36,000 294 421 -64
2023-01-20 15:43:00 GMT 49.985550 8.593260 36,000 294 421 -64
2023-01-20 15:42:58 GMT 49.985550 8.593260 36,000 294 421 -64
2023-01-20 15:42:55 GMT 49.983215 8.601572 36,000 294 421 -64
2023-01-20 15:42:52 GMT 49.981693 8.606972 36,000 294 421 -64
2023-01-20 15:42:50 GMT 49.979694 8.614098 36,000 294 421 0
2023-01-20 15:42:48 GMT 49.978203 8.619368 36,000 294 421 0
2023-01-20 15:42:46 GMT 49.976669 8.624774 36,000 294 421 0
2023-01-20 15:42:44 GMT 49.975525 8.628893 36,000 294 421 -64
2023-01-20 15:42:42 GMT 49.973648 8.635543 36,000 294 420 -64
2023-01-20 15:42:39 GMT 49.971592 8.642826 36,000 294 420 -64
2023-01-20 15:42:37 GMT 49.970009 8.648393 36,000 294 420 0
2023-01-20 15:42:35 GMT 49.968384 8.654335 36,000 294 420 0
2023-01-20 15:42:32 GMT 49.963348 8.672333 36,000 294 420 64
2023-01-20 15:42:29 GMT 49.963348 8.672333 36,000 294 420 64
2023-01-20 15:42:26 GMT 49.959023 8.687662 36,000 294 420 64
2023-01-20 15:42:23 GMT 49.959023 8.687662 36,000 294 420 64
2023-01-20 15:42:21 GMT 49.957813 8.692041 36,000 294 420 64
2023-01-20 15:42:19 GMT 49.955566 8.699943 36,000 294 420 64
2023-01-20 15:42:17 GMT 49.954136 8.705032 36,000 294 421 64
2023-01-20 15:42:14 GMT 49.950989 8.716278 35,975 294 421 0
2023-01-20 15:42:10 GMT 49.946968 8.730493 36,000 294 422 0
2023-01-20 15:42:08 GMT 49.944546 8.739104 35,975 294 422 0
2023-01-20 15:42:05 GMT 49.944546 8.739104 35,975 294 422 0
2023-01-20 15:42:03 GMT 49.943291 8.743484 35,975 294 423 -64
2023-01-20 15:42:01 GMT 49.942123 8.747641 35,975 294 422 0
2023-01-20 15:41:58 GMT 49.939087 8.758272 35,975 294 422 -64
2023-01-20 15:41:56 GMT 49.937576 8.763548 36,000 294 423 -64
2023-01-20 15:41:54 GMT 49.935928 8.769330 36,000 294 423 0
2023-01-20 15:41:52 GMT 49.934189 8.775402 36,000 294 422 -64
2023-01-20 15:41:49 GMT 49.932255 8.782233 36,000 294 422 -64
2023-01-20 15:41:47 GMT 49.928112 8.796857 36,000 294 422 0
2023-01-20 15:41:44 GMT 49.928112 8.796857 36,000 294 422 64
2023-01-20 15:41:42 GMT 49.924110 8.810961 36,000 294 423 64
2023-01-20 15:41:39 GMT 49.924110 8.810961 36,000 294 423 0
2023-01-20 15:41:37 GMT 49.922562 8.816384 36,000 294 423 0
2023-01-20 15:41:35 GMT 49.921410 8.820388 36,000 294 423 64
2023-01-20 15:41:31 GMT 49.918076 8.832140 36,000 294 423 0
2023-01-20 15:41:29 GMT 49.916428 8.837833 36,000 294 423 0
2023-01-20 15:41:27 GMT 49.912399 8.852089 36,000 294 423 64
2023-01-20 15:41:24 GMT 49.912399 8.852089 36,000 294 424 -128
2023-01-20 15:41:21 GMT 49.907352 8.869678 36,000 294 424 -64
2023-01-20 15:41:18 GMT 49.907352 8.869678 36,000 294 423 -64
2023-01-20 15:41:15 GMT 49.905720 8.875468 36,000 294 423 -64
2023-01-20 15:41:12 GMT 49.903381 8.883603 36,000 294 424 0
2023-01-20 15:41:09 GMT 49.900787 8.892616 36,000 294 423 -64
2023-01-20 15:41:07 GMT 49.899124 8.898564 36,000 294 423 0
2023-01-20 15:41:04 GMT 49.896744 8.906876 36,000 294 423 0
2023-01-20 15:41:02 GMT 49.895233 8.912153 36,000 294 423 0
2023-01-20 15:41:00 GMT 49.893356 8.918802 36,000 294 423 0
2023-01-20 15:40:58 GMT 49.892075 8.923211 36,000 294 423 0
2023-01-20 15:40:55 GMT 49.889660 8.931662 36,000 294 424 0
2023-01-20 15:40:53 GMT 49.888138 8.937089 36,000 294 424 0
2023-01-20 15:40:51 GMT 49.886589 8.942426 36,000 294 424 64
2023-01-20 15:40:49 GMT 49.884567 8.949521 36,000 294 424 0
2023-01-20 15:40:47 GMT 49.883286 8.953930 36,000 294 424 0
2023-01-20 15:40:45 GMT 49.879349 8.967807 36,000 294 424 0
2023-01-20 15:40:42 GMT 49.879349 8.967807 36,000 294 424 0
2023-01-20 15:40:39 GMT 49.877060 8.975830 36,000 294 424 64
2023-01-20 15:40:37 GMT 49.874718 8.983996 36,000 294 424 0
2023-01-20 15:40:34 GMT 49.872810 8.990676 36,000 294 424 0
2023-01-20 15:40:32 GMT 49.871109 8.996646 36,000 294 424 0
2023-01-20 15:40:29 GMT 49.869141 9.003513 36,000 294 424 0
2023-01-20 15:40:27 GMT 49.867081 9.010741 36,000 294 424 0
2023-01-20 15:40:24 GMT 49.865662 9.015728 36,000 294 424 0
2023-01-20 15:40:22 GMT 49.863098 9.024618 36,000 294 424 0
2023-01-20 15:40:19 GMT 49.861076 9.031653 36,000 294 424 0
2023-01-20 15:40:17 GMT 49.858246 9.041531 36,025 294 424 0
2023-01-20 15:40:15 GMT 49.858246 9.041531 36,025 294 424 0
2023-01-20 15:40:12 GMT 49.855087 9.052590 36,025 294 424 0
2023-01-20 15:40:10 GMT 49.853897 9.056710 36,025 295 424 0
2023-01-20 15:40:08 GMT 49.852093 9.062978 36,025 295 424 0
2023-01-20 15:40:06 GMT 49.851208 9.066022 36,025 295 424 0
2023-01-20 15:40:04 GMT 49.847900 9.077526 36,025 295 424 0
2023-01-20 15:40:02 GMT 49.847900 9.077526 36,025 295 425 0
2023-01-20 15:39:59 GMT 49.845474 9.085838 36,025 295 426 0
2023-01-20 15:39:57 GMT 49.840530 9.102968 36,000 295 425 -64
2023-01-20 15:39:54 GMT 49.840530 9.102968 36,000 295 425 -64
2023-01-20 15:39:51 GMT 49.838966 9.108408 36,025 295 425 -64
2023-01-20 15:39:48 GMT 49.836220 9.117836 36,025 295 425 0
2023-01-20 15:39:46 GMT 49.835083 9.121833 36,025 295 426 -64
2023-01-20 15:39:43 GMT 49.832123 9.131940 36,000 295 426 -64
2023-01-20 15:39:41 GMT 49.830505 9.137662 36,025 295 426 -64
2023-01-20 15:39:38 GMT 49.827885 9.146712 36,025 295 426 0
2023-01-20 15:39:36 GMT 49.826675 9.150869 36,025 295 425 0
2023-01-20 15:39:33 GMT 49.823730 9.160935 36,025 295 426 -128
2023-01-20 15:39:30 GMT 49.820156 9.173287 36,025 295 426 -64
2023-01-20 15:39:28 GMT 49.820156 9.173287 36,025 295 426 -64
2023-01-20 15:39:25 GMT 49.817505 9.182330 36,025 295 426 -64
2023-01-20 15:39:22 GMT 49.815552 9.189098 36,025 295 426 -64
2023-01-20 15:39:19 GMT 49.812710 9.198823 36,025 295 426 0
2023-01-20 15:39:17 GMT 49.809769 9.208928 36,025 295 426 0
2023-01-20 15:39:15 GMT 49.809769 9.208928 36,025 295 426 -64
2023-01-20 15:39:12 GMT 49.807297 9.217529 36,025 295 426 -64
2023-01-20 15:39:10 GMT 49.805866 9.222354 36,050 295 426 0
2023-01-20 15:39:07 GMT 49.803360 9.231118 36,025 295 426 0
2023-01-20 15:39:05 GMT 49.801712 9.236683 36,025 295 426 0
2023-01-20 15:39:01 GMT 49.798370 9.248320 36,025 295 426 0
2023-01-20 15:38:58 GMT 49.796265 9.255548 36,050 295 426 -64
2023-01-20 15:38:55 GMT 49.793484 9.265112 36,025 295 426 64
2023-01-20 15:38:52 GMT 49.791138 9.273328 36,025 295 426 64
2023-01-20 15:38:49 GMT 49.787521 9.285760 36,025 295 426 -64
2023-01-20 15:38:47 GMT 49.787521 9.285760 36,025 295 427 0
2023-01-20 15:38:45 GMT 49.785152 9.293988 36,025 295 427 64
2023-01-20 15:38:42 GMT 49.783493 9.299710 36,025 295 427 64
2023-01-20 15:38:40 GMT 49.781845 9.305346 36,025 295 427 64
2023-01-20 15:38:38 GMT 49.778595 9.316623 36,025 295 427 0
2023-01-20 15:38:36 GMT 49.775757 9.326381 36,025 295 427 -64
2023-01-20 15:38:33 GMT 49.775757 9.326381 36,025 295 427 0
2023-01-20 15:38:30 GMT 49.773373 9.334593 36,000 295 427 128
2023-01-20 15:38:27 GMT 49.771088 9.342499 36,025 295 427 128
2023-01-20 15:38:25 GMT 49.769852 9.346619 36,025 295 427 0
2023-01-20 15:38:22 GMT 49.767323 9.355378 36,025 295 427 0
2023-01-20 15:38:19 GMT 49.763306 9.369170 36,025 295 427 128
2023-01-20 15:38:17 GMT 49.763306 9.369170 36,025 295 427 64
2023-01-20 15:38:15 GMT 49.761200 9.376397 36,025 295 427 0
2023-01-20 15:38:12 GMT 49.759140 9.383625 36,025 295 427 -64
2023-01-20 15:38:10 GMT 49.756660 9.392123 36,025 295 427 64
2023-01-20 15:38:07 GMT 49.755077 9.397690 36,025 295 427 64
2023-01-20 15:38:05 GMT 49.751083 9.411452 36,000 295 427 0
2023-01-20 15:38:02 GMT 49.751083 9.411452 36,000 295 427 0
2023-01-20 15:38:00 GMT 49.748795 9.419259 36,000 295 426 0
2023-01-20 15:37:57 GMT 49.746689 9.426486 36,000 295 427 0
2023-01-20 15:37:54 GMT 49.743813 9.436365 36,000 295 426 0
2023-01-20 15:37:51 GMT 49.742138 9.442155 36,000 295 426 64
2023-01-20 15:37:48 GMT 49.739624 9.450766 36,000 295 426 64
2023-01-20 15:37:45 GMT 49.736691 9.460787 36,000 295 426 64
2023-01-20 15:37:41 GMT 49.731567 9.478232 36,000 295 427 64
2023-01-20 15:37:38 GMT 49.731567 9.478232 36,000 295 426 0
2023-01-20 15:37:35 GMT 49.725723 9.498042 36,000 295 427 -64
2023-01-20 15:37:31 GMT 49.725723 9.498042 36,000 295 427 -64
2023-01-20 15:37:28 GMT 49.723022 9.507149 36,000 295 426 0
2023-01-20 15:37:25 GMT 49.720955 9.514234 36,000 295 426 0
2023-01-20 15:37:22 GMT 49.718441 9.522845 36,000 295 426 0
2023-01-20 15:37:20 GMT 49.716068 9.530788 36,000 295 426 0
2023-01-20 15:37:17 GMT 49.714531 9.536059 36,000 295 426 0
2023-01-20 15:37:14 GMT 49.712173 9.543939 36,000 295 426 0
2023-01-20 15:37:11 GMT 49.709690 9.552390 35,975 295 426 64
2023-01-20 15:37:08 GMT 49.707642 9.559406 36,000 295 426 64
2023-01-20 15:37:05 GMT 49.704662 9.569463 35,975 295 426 0
2023-01-20 15:37:02 GMT 49.702011 9.578488 36,000 295 423 128
2023-01-20 15:36:59 GMT 49.699448 9.587130 36,000 295 426 64
2023-01-20 15:36:56 GMT 49.697479 9.593883 36,000 295 425 0
2023-01-20 15:36:54 GMT 49.696198 9.598365 36,000 295 425 -64
2023-01-20 15:36:51 GMT 49.693535 9.607321 36,000 295 425 -64
2023-01-20 15:36:48 GMT 49.690750 9.616868 36,000 295 425 0
2023-01-20 15:36:45 GMT 49.688324 9.625108 36,000 295 425 0
2023-01-20 15:36:42 GMT 49.685486 9.634793 36,000 295 424 64
2023-01-20 15:36:39 GMT 49.681458 9.648526 36,000 295 424 64
2023-01-20 15:36:35 GMT 49.680222 9.652646 36,000 295 424 128
2023-01-20 15:36:32 GMT 49.677795 9.660885 36,000 295 424 128
2023-01-20 15:36:29 GMT 49.672852 9.677726 35,975 295 424 0
2023-01-20 15:36:26 GMT 49.672852 9.677726 36,000 295 424 0
2023-01-20 15:36:23 GMT 49.670959 9.684151 35,975 295 424 0
2023-01-20 15:36:20 GMT 49.668182 9.693628 36,000 295 424 0
2023-01-20 15:36:17 GMT 49.665745 9.701744 35,975 295 424 0
2023-01-20 15:36:15 GMT 49.663605 9.709023 35,975 295 423 0
2023-01-20 15:36:12 GMT 49.661499 9.716251 35,975 295 424 0
2023-01-20 15:36:09 GMT 49.659576 9.722828 35,975 295 424 0
2023-01-20 15:36:06 GMT 49.656712 9.732551 35,975 295 423 0
2023-01-20 15:36:03 GMT 49.654221 9.740970 35,975 295 423 -64
2023-01-20 15:36:00 GMT 49.651360 9.750663 36,000 295 424 0
2023-01-20 15:35:57 GMT 49.649231 9.757955 36,000 295 423 -64
2023-01-20 15:35:54 GMT 49.647675 9.763160 36,000 295 423 -64
2023-01-20 15:35:51 GMT 49.644657 9.773452 36,000 295 423 -64
2023-01-20 15:35:49 GMT 49.642090 9.782096 35,975 295 423 64
2023-01-20 15:35:46 GMT 49.640396 9.787806 35,975 295 423 64
2023-01-20 15:35:44 GMT 49.638748 9.793300 35,975 295 423 0
2023-01-20 15:35:41 GMT 49.636787 9.800027 35,975 295 423 0
2023-01-20 15:35:39 GMT 49.632889 9.812959 35,975 295 423 0
2023-01-20 15:35:36 GMT 49.630646 9.820621 35,975 295 423 0
2023-01-20 15:35:34 GMT 49.630646 9.820621 35,975 295 422 0
2023-01-20 15:35:31 GMT 49.628223 9.828681 35,975 295 422 0
2023-01-20 15:35:29 GMT 49.626499 9.834471 35,975 295 422 0
2023-01-20 15:35:26 GMT 49.623962 9.843027 35,975 295 422 0
2023-01-20 15:35:24 GMT 49.623196 9.845606 35,975 295 422 0
2023-01-20 15:35:21 GMT 49.620125 9.855998 35,975 295 422 0
2023-01-20 15:35:19 GMT 49.619190 9.859042 35,975 295 422 0
2023-01-20 15:35:16 GMT 49.615906 9.870059 35,975 295 422 64
2023-01-20 15:35:13 GMT 49.611191 9.885888 35,975 295 422 0
2023-01-20 15:35:10 GMT 49.611191 9.885888 35,975 295 422 0
2023-01-20 15:35:06 GMT 49.608067 9.896455 35,975 295 422 64
2023-01-20 15:35:03 GMT 49.604809 9.907367 35,975 295 422 0
2023-01-20 15:35:00 GMT 49.603504 9.911672 35,975 295 422 0
2023-01-20 15:34:58 GMT 49.601410 9.918798 35,975 295 422 0
2023-01-20 15:34:55 GMT 49.599335 9.925786 35,975 295 423 0
2023-01-20 15:34:52 GMT 49.596680 9.934821 35,975 295 422 -64
2023-01-20 15:34:49 GMT 49.592098 9.950199 35,975 295 422 0
2023-01-20 15:34:46 GMT 49.592098 9.950199 35,975 295 422 0
2023-01-20 15:34:43 GMT 49.589447 9.959034 35,975 295 422 0
2023-01-20 15:34:40 GMT 49.587341 9.966190 35,975 295 422 0
2023-01-20 15:34:38 GMT 49.584602 9.975289 35,975 295 422 -64
2023-01-20 15:34:35 GMT 49.583038 9.980645 35,975 295 422 0
2023-01-20 15:34:31 GMT 49.579376 9.992933 36,000 295 423 0
2023-01-20 15:34:28 GMT 49.577293 9.999860 36,000 295 422 0
2023-01-20 15:34:25 GMT 49.575348 10.006521 36,000 295 422 0
2023-01-20 15:34:23 GMT 49.572784 10.015050 36,000 295 422 0
2023-01-20 15:34:20 GMT 49.570732 10.021981 36,000 295 422 -64
2023-01-20 15:34:18 GMT 49.569122 10.027265 36,000 295 422 -64
2023-01-20 15:34:15 GMT 49.567146 10.034006 36,000 295 422 -64
2023-01-20 15:34:13 GMT 49.562759 10.048587 36,025 295 423 -64
2023-01-20 15:34:10 GMT 49.561066 10.054297 36,000 295 422 0
2023-01-20 15:34:08 GMT 49.561066 10.054297 36,000 295 422 -64
2023-01-20 15:34:05 GMT 49.557278 10.066965 36,025 295 423 -64
2023-01-20 15:34:03 GMT 49.554157 10.077358 36,025 295 423 -64
2023-01-20 15:34:00 GMT 49.554157 10.077358 36,000 295 423 -64
2023-01-20 15:33:58 GMT 49.552368 10.083209 36,000 295 423 -128
2023-01-20 15:33:55 GMT 49.550674 10.088919 36,025 295 426 0
2023-01-20 15:33:53 GMT 49.549438 10.093038 36,025 295 423 -64
2023-01-20 15:33:50 GMT 49.546104 10.104081 36,025 295 423 -64
2023-01-20 15:33:47 GMT 49.543991 10.111036 36,025 295 423 -64
2023-01-20 15:33:44 GMT 49.540939 10.121229 36,025 295 423 -64
2023-01-20 15:33:41 GMT 49.538795 10.128355 36,025 295 423 -64
2023-01-20 15:33:38 GMT 49.536301 10.136695 36,025 295 424 -64
2023-01-20 15:33:35 GMT 49.534187 10.143647 36,025 295 424 64
2023-01-20 15:33:33 GMT 49.532181 10.150283 36,025 295 424 64
2023-01-20 15:33:30 GMT 49.529984 10.157655 36,025 295 424 64
2023-01-20 15:33:28 GMT 49.528275 10.163244 36,025 295 424 0
2023-01-20 15:33:25 GMT 49.525993 10.170890 36,025 295 424 0
2023-01-20 15:33:22 GMT 49.520966 10.187592 36,025 295 425 0
2023-01-20 15:33:19 GMT 49.518448 10.195963 36,025 295 425 0
2023-01-20 15:33:16 GMT 49.516079 10.203701 36,025 295 425 0
2023-01-20 15:33:14 GMT 49.516079 10.203701 36,975 296 428 -64
2023-01-20 15:33:11 GMT 49.511562 10.218770 36,025 295 425 64
2023-01-20 15:33:08 GMT 49.511562 10.218770 36,000 295 427 -64
2023-01-20 15:33:05 GMT 49.509422 10.225896 36,025 295 425 64
2023-01-20 15:33:03 GMT 49.507782 10.231235 36,025 295 426 64
2023-01-20 15:33:00 GMT 49.504673 10.241559 36,000 295 426 64
2023-01-20 15:32:57 GMT 49.503067 10.246847 36,000 295 426 64
2023-01-20 15:32:54 GMT 49.500092 10.256749 36,000 295 426 64
2023-01-20 15:32:51 GMT 49.498032 10.263616 36,000 295 426 0
2023-01-20 15:32:48 GMT 49.492336 10.282387 36,000 295 427 -64
2023-01-20 15:32:45 GMT 49.492336 10.282387 36,000 295 427 -64
2023-01-20 15:32:42 GMT 49.489700 10.291081 36,000 295 427 64
2023-01-20 15:32:39 GMT 49.487640 10.297948 36,000 295 426 0
2023-01-20 15:32:37 GMT 49.486240 10.302503 36,000 295 427 -64
2023-01-20 15:32:34 GMT 49.483494 10.311485 36,000 295 427 -64
2023-01-20 15:32:32 GMT 49.481461 10.318258 36,025 295 427 -64
2023-01-20 15:32:30 GMT 49.479904 10.323462 36,025 295 427 -64
2023-01-20 15:32:27 GMT 49.476089 10.335982 36,025 296 428 -64
2023-01-20 15:32:25 GMT 49.476089 10.335982 36,025 296 428 0
2023-01-20 15:32:23 GMT 49.474415 10.341475 36,025 296 428 0
2023-01-20 15:32:20 GMT 49.471573 10.350928 36,025 296 428 0
2023-01-20 15:32:18 GMT 49.470291 10.355048 36,025 296 428 0
2023-01-20 15:32:15 GMT 49.467339 10.364784 36,025 296 428 -64
2023-01-20 15:32:12 GMT 49.465244 10.371688 36,025 296 428 -64
2023-01-20 15:32:08 GMT 49.461521 10.384010 36,025 296 427 0
2023-01-20 15:32:05 GMT 49.459030 10.392127 36,025 296 427 0
2023-01-20 15:32:03 GMT 49.457424 10.397446 36,025 296 427 64
2023-01-20 15:32:00 GMT 49.455376 10.404053 36,025 296 427 64
2023-01-20 15:31:58 GMT 49.453583 10.409907 36,025 296 427 64
2023-01-20 15:31:55 GMT 49.450470 10.420099 36,025 296 427 64
2023-01-20 15:31:50 GMT 49.447128 10.431085 36,025 296 427 64
2023-01-20 15:31:47 GMT 49.441269 10.450448 36,000 296 428 64
2023-01-20 15:31:44 GMT 49.441269 10.450448 36,000 295 427 64
2023-01-20 15:31:41 GMT 49.438755 10.458687 36,000 296 428 0
2023-01-20 15:31:38 GMT 49.435917 10.467966 36,000 296 428 64
2023-01-20 15:31:34 GMT 49.430969 10.484354 36,000 296 428 64
2023-01-20 15:31:31 GMT 49.430969 10.484354 36,000 296 428 64
2023-01-20 15:31:28 GMT 49.428421 10.492760 36,000 296 428 64
2023-01-20 15:31:26 GMT 49.423626 10.508423 36,000 296 428 64
2023-01-20 15:31:23 GMT 49.423626 10.508423 36,000 296 428 0
2023-01-20 15:31:20 GMT 49.421951 10.514057 36,000 296 428 0
2023-01-20 15:31:17 GMT 49.419525 10.522015 36,000 296 428 0
2023-01-20 15:31:14 GMT 49.416691 10.531263 36,000 296 428 0
2023-01-20 15:31:12 GMT 49.414967 10.537045 36,000 296 428 0
2023-01-20 15:31:09 GMT 49.412292 10.545678 36,000 296 428 0
2023-01-20 15:31:07 GMT 49.411057 10.549762 36,000 296 428 0
2023-01-20 15:31:04 GMT 49.408684 10.557572 35,975 296 428 0
2023-01-20 15:31:02 GMT 49.406616 10.564340 36,000 296 428 0
2023-01-20 15:30:59 GMT 49.404007 10.572862 36,000 296 428 0
2023-01-20 15:30:53 GMT 49.398254 10.591615 35,975 296 427 64
2023-01-20 15:30:50 GMT 49.394157 10.604987 35,975 296 427 0
2023-01-20 15:30:47 GMT 49.394157 10.604987 35,975 296 427 0
2023-01-20 15:30:44 GMT 49.391644 10.613227 35,975 296 427 0
2023-01-20 15:30:42 GMT 49.389816 10.619131 35,975 296 427 0
2023-01-20 15:30:39 GMT 49.386848 10.628839 35,975 296 427 0
2023-01-20 15:30:36 GMT 49.384552 10.636385 35,975 296 427 0
2023-01-20 15:30:33 GMT 49.381870 10.645029 35,975 296 427 0
2023-01-20 15:30:30 GMT 49.380287 10.650233 35,975 296 427 0
2023-01-20 15:30:27 GMT 49.376610 10.662231 35,975 296 427 0
2023-01-20 15:30:24 GMT 49.374435 10.669274 35,975 296 427 0
2023-01-20 15:30:22 GMT 49.370407 10.682373 35,975 296 427 64
2023-01-20 15:30:19 GMT 49.370407 10.682373 35,975 296 427 0
2023-01-20 15:30:17 GMT 49.369114 10.686662 35,975 296 427 64
2023-01-20 15:30:14 GMT 49.366508 10.695118 35,975 296 427 0
2023-01-20 15:30:12 GMT 49.364086 10.703069 35,975 296 427 0
2023-01-20 15:30:09 GMT 49.361992 10.709935 35,975 296 427 0
2023-01-20 15:30:06 GMT 49.357269 10.725332 35,975 296 427 0
2023-01-20 15:30:03 GMT 49.357269 10.725332 35,975 296 427 0
2023-01-20 15:30:01 GMT 49.355713 10.730544 35,975 296 427 0
2023-01-20 15:29:58 GMT 49.353287 10.738502 35,975 296 427 0
2023-01-20 15:29:56 GMT 49.351147 10.745496 35,975 296 427 0
2023-01-20 15:29:52 GMT 49.347885 10.755967 35,975 296 426 0
2023-01-20 15:29:49 GMT 49.344769 10.766240 35,975 296 426 64
2023-01-20 15:29:46 GMT 49.342999 10.771950 35,975 296 426 0
2023-01-20 15:29:43 GMT 49.340652 10.779419 35,975 296 426 0
2023-01-20 15:29:41 GMT 49.338501 10.786532 35,975 296 426 0
2023-01-20 15:29:38 GMT 49.336304 10.793645 35,975 296 426 0
2023-01-20 15:29:36 GMT 49.334572 10.799199 35,975 296 426 0
2023-01-20 15:29:33 GMT 49.332058 10.807367 35,975 296 427 0
2023-01-20 15:29:31 GMT 49.330215 10.813223 35,975 296 426 0
2023-01-20 15:29:28 GMT 49.327824 10.821027 35,975 296 427 0
2023-01-20 15:29:26 GMT 49.325447 10.828689 35,975 296 427 0
2023-01-20 15:29:23 GMT 49.323261 10.835772 35,975 296 427 -64
2023-01-20 15:29:20 GMT 49.321106 10.842731 35,975 296 427 -64
2023-01-20 15:29:17 GMT 49.318909 10.849774 35,975 296 427 -64
2023-01-20 15:29:14 GMT 49.315475 10.860971 35,975 296 427 -64
2023-01-20 15:29:11 GMT 49.312408 10.870831 35,975 296 427 0
2023-01-20 15:29:08 GMT 49.310879 10.875814 35,975 296 427 0
2023-01-20 15:29:05 GMT 49.307991 10.885066 35,975 296 427 0
2023-01-20 15:29:02 GMT 49.305710 10.892438 35,975 296 427 -64
2023-01-20 15:28:59 GMT 49.300735 10.908367 35,975 296 427 -64
2023-01-20 15:28:56 GMT 49.300735 10.908367 36,000 296 427 -128
2023-01-20 15:28:53 GMT 49.298214 10.916435 36,000 296 427 -128
2023-01-20 15:28:51 GMT 49.296539 10.921856 35,975 296 427 -128
2023-01-20 15:28:49 GMT 49.292267 10.935622 36,000 296 427 -64
2023-01-20 15:28:46 GMT 49.292267 10.935622 36,000 296 427 -64
2023-01-20 15:28:43 GMT 49.287369 10.951345 36,000 296 428 -128
2023-01-20 15:28:40 GMT 49.285275 10.958140 36,000 296 428 -128
2023-01-20 15:28:38 GMT 49.285275 10.958140 36,025 296 428 -128
2023-01-20 15:28:36 GMT 49.283524 10.963722 36,025 296 428 -128
2023-01-20 15:28:33 GMT 49.280869 10.972173 36,025 296 428 -128
2023-01-20 15:28:31 GMT 49.279549 10.976426 36,025 296 428 -128
2023-01-20 15:28:28 GMT 49.276848 10.985172 36,025 296 428 -128
2023-01-20 15:28:26 GMT 49.274521 10.992544 36,025 296 428 -128
2023-01-20 15:28:23 GMT 49.272446 10.999216 36,050 296 428 -128
2023-01-20 15:28:21 GMT 49.271076 11.003675 36,050 296 428 -128
2023-01-20 15:28:18 GMT 49.265762 11.020766 36,050 296 428 -64
2023-01-20 15:28:15 GMT 49.265762 11.020766 36,050 296 428 -64
2023-01-20 15:28:12 GMT 49.260727 11.036893 36,050 296 429 -64
2023-01-20 15:28:10 GMT 49.260727 11.036893 36,050 296 429 0
2023-01-20 15:28:07 GMT 49.258926 11.042778 36,050 296 429 0
2023-01-20 15:28:04 GMT 49.256084 11.051812 36,050 296 429 0
2023-01-20 15:28:01 GMT 49.253494 11.060204 36,050 296 429 64
2023-01-20 15:27:58 GMT 49.251335 11.067135 36,050 296 429 64
2023-01-20 15:27:55 GMT 49.245331 11.086362 36,050 296 429 64
2023-01-20 15:27:52 GMT 49.245331 11.086362 36,050 296 430 0
2023-01-20 15:27:49 GMT 49.243652 11.091684 36,050 296 430 0
2023-01-20 15:27:47 GMT 49.241982 11.096986 36,050 296 431 64
2023-01-20 15:27:44 GMT 49.236717 11.113755 36,050 296 431 -64
2023-01-20 15:27:41 GMT 49.236717 11.113755 36,050 296 431 -64
2023-01-20 15:27:38 GMT 49.234039 11.122390 36,050 296 432 -64
2023-01-20 15:27:35 GMT 49.230927 11.132249 36,050 296 432 0
2023-01-20 15:27:32 GMT 49.229408 11.137101 36,050 296 432 0
2023-01-20 15:27:30 GMT 49.227539 11.143024 36,050 296 433 0
2023-01-20 15:27:27 GMT 49.221870 11.161025 36,050 296 433 0
2023-01-20 15:27:24 GMT 49.221870 11.161025 36,050 296 433 0
2023-01-20 15:27:21 GMT 49.219757 11.167814 36,050 296 434 64
2023-01-20 15:27:19 GMT 49.217697 11.174434 36,050 296 434 0
2023-01-20 15:27:16 GMT 49.215538 11.181191 36,050 296 434 64
2023-01-20 15:27:14 GMT 49.213760 11.186829 36,050 296 434 128
2023-01-20 15:27:11 GMT 49.210182 11.198321 36,025 296 434 128
2023-01-20 15:27:08 GMT 49.208553 11.203597 36,025 296 436 64
2023-01-20 15:27:05 GMT 49.205292 11.213942 36,025 296 435 128
2023-01-20 15:27:02 GMT 49.202271 11.223474 36,025 296 436 64
2023-01-20 15:26:59 GMT 49.199707 11.231689 36,025 296 436 64
2023-01-20 15:26:56 GMT 49.197151 11.239809 36,025 296 436 64
2023-01-20 15:26:53 GMT 49.194397 11.248521 36,000 296 436 64
2023-01-20 15:26:50 GMT 49.191841 11.256722 36,000 296 436 64
2023-01-20 15:26:47 GMT 49.187653 11.270021 36,000 296 436 0
2023-01-20 15:26:44 GMT 49.187653 11.270021 36,000 296 436 0
2023-01-20 15:26:41 GMT 49.183651 11.282742 36,000 296 435 0
2023-01-20 15:26:39 GMT 49.183651 11.282742 36,000 296 435 0
2023-01-20 15:26:37 GMT 49.181042 11.291054 36,000 296 435 0
2023-01-20 15:26:35 GMT 49.179428 11.296128 36,000 296 435 64
2023-01-20 15:26:32 GMT 49.176910 11.304157 36,000 296 435 64
2023-01-20 15:26:29 GMT 49.172523 11.318159 36,000 296 435 64
2023-01-20 15:26:27 GMT 49.172523 11.318159 36,000 296 434 64
2023-01-20 15:26:25 GMT 49.171097 11.322679 36,000 296 435 0
2023-01-20 15:26:22 GMT 49.168007 11.332470 36,000 296 435 0
2023-01-20 15:26:20 GMT 49.165604 11.340074 36,000 296 435 64
2023-01-20 15:26:17 GMT 49.161209 11.354081 36,000 296 434 -64
2023-01-20 15:26:14 GMT 49.161209 11.354081 36,000 296 434 -64
2023-01-20 15:26:11 GMT 49.158371 11.363188 36,000 296 434 -64
2023-01-20 15:26:09 GMT 49.154785 11.374464 36,000 296 434 0
2023-01-20 15:26:07 GMT 49.154785 11.374464 36,000 296 434 0
2023-01-20 15:26:04 GMT 49.152237 11.382611 36,000 296 434 0
2023-01-20 15:26:01 GMT 49.150181 11.389064 36,000 296 434 0
2023-01-20 15:25:58 GMT 49.147385 11.397882 36,000 296 434 64
2023-01-20 15:25:55 GMT 49.144405 11.407278 36,000 296 434 64
2023-01-20 15:25:52 GMT 49.141754 11.415640 36,000 296 433 64
2023-01-20 15:25:50 GMT 49.137268 11.429655 35,975 296 433 64
2023-01-20 15:25:47 GMT 49.137268 11.429655 35,975 296 433 64
2023-01-20 15:25:44 GMT 49.135620 11.434866 35,975 296 433 64
2023-01-20 15:25:41 GMT 49.129555 11.453970 35,975 296 433 0
2023-01-20 15:25:38 GMT 49.129555 11.453970 35,975 296 433 0
2023-01-20 15:25:35 GMT 49.127460 11.460547 35,975 296 434 -64
2023-01-20 15:25:32 GMT 49.124725 11.469234 36,000 296 432 -64
2023-01-20 15:25:29 GMT 49.121876 11.478183 36,000 296 432 -64
2023-01-20 15:25:26 GMT 49.117767 11.491206 36,000 296 432 0
2023-01-20 15:25:24 GMT 49.117767 11.491206 35,975 297 434 0
2023-01-20 15:25:21 GMT 49.115067 11.499657 37,000 296 432 0
2023-01-20 15:25:18 GMT 49.112427 11.508034 36,000 296 432 0
2023-01-20 15:25:15 GMT 49.109665 11.516700 36,000 296 432 -64
2023-01-20 15:25:12 GMT 49.107239 11.524377 36,000 296 432 0
2023-01-20 15:25:09 GMT 49.104813 11.531982 36,000 296 432 0
2023-01-20 15:25:06 GMT 49.102509 11.539258 36,000 296 432 64
2023-01-20 15:25:04 GMT 49.100189 11.546490 36,000 296 432 64
2023-01-20 15:25:01 GMT 49.096802 11.557195 36,000 296 432 0
2023-01-20 15:24:58 GMT 49.095387 11.561665 36,000 296 432 0
2023-01-20 15:24:56 GMT 49.093105 11.568820 35,975 296 432 0
2023-01-20 15:24:53 GMT 49.090530 11.576843 35,975 296 431 0
2023-01-20 15:24:50 GMT 49.087234 11.587196 35,975 296 431 0
2023-01-20 15:24:47 GMT 49.084991 11.594309 35,975 296 431 64
2023-01-20 15:24:44 GMT 49.082680 11.601562 35,975 296 431 64
2023-01-20 15:24:40 GMT 49.079315 11.612056 36,000 297 431 -64
2023-01-20 15:24:37 GMT 49.074020 11.628522 35,975 296 431 0
2023-01-20 15:24:34 GMT 49.074020 11.628522 35,975 296 431 0
2023-01-20 15:24:32 GMT 49.071831 11.635317 35,975 296 431 -64
2023-01-20 15:24:29 GMT 49.067276 11.649663 35,975 296 431 -64
2023-01-20 15:24:26 GMT 49.063797 11.660508 35,975 297 430 -64
2023-01-20 15:24:23 GMT 49.061638 11.667191 35,975 297 430 -64
2023-01-20 15:24:20 GMT 49.061638 11.667191 36,000 297 430 -64
2023-01-20 15:24:17 GMT 49.058899 11.675791 36,000 296 429 -64
2023-01-20 15:24:14 GMT 49.053349 11.693067 36,000 297 430 -64
2023-01-20 15:24:10 GMT 49.053349 11.693067 36,000 297 430 0
2023-01-20 15:24:07 GMT 49.051025 11.700299 36,000 297 430 -64
2023-01-20 15:24:04 GMT 49.047951 11.709980 36,000 297 430 0
2023-01-20 15:24:01 GMT 49.045532 11.717412 36,000 297 430 0
2023-01-20 15:23:58 GMT 49.042549 11.726821 36,000 296 430 0
2023-01-20 15:23:56 GMT 49.040733 11.732531 37,000 297 430 0
2023-01-20 15:23:53 GMT 49.037796 11.741638 36,000 297 430 0
2023-01-20 15:23:50 GMT 49.035553 11.748681 36,000 297 430 0
2023-01-20 15:23:47 GMT 49.033035 11.756568 36,000 297 430 0
2023-01-20 15:23:44 GMT 49.030426 11.764738 36,000 297 430 0
2023-01-20 15:23:41 GMT 49.027233 11.774669 36,000 297 430 64
2023-01-20 15:23:38 GMT 49.025139 11.781175 36,000 297 430 64
2023-01-20 15:23:36 GMT 49.021275 11.793100 35,975 296 429 0
2023-01-20 15:23:33 GMT 49.018204 11.802641 35,975 296 431 0
2023-01-20 15:23:30 GMT 49.018204 11.802641 35,975 296 431 0
2023-01-20 15:23:27 GMT 49.016098 11.809317 36,000 297 432 0
2023-01-20 15:23:24 GMT 49.013313 11.817892 36,000 297 432 -64
2023-01-20 15:23:21 GMT 49.010559 11.826430 36,000 297 431 -64
2023-01-20 15:23:18 GMT 49.007729 11.835311 36,000 297 431 -64
2023-01-20 15:23:15 GMT 49.004936 11.843985 36,000 297 431 -64
2023-01-20 15:23:12 GMT 49.002281 11.852152 36,000 297 431 -64
2023-01-20 15:23:09 GMT 48.997719 11.866246 36,000 297 431 0
2023-01-20 15:23:06 GMT 48.997719 11.866246 36,000 297 431 0
2023-01-20 15:23:03 GMT 48.994415 11.876582 36,000 297 431 0
2023-01-20 15:23:00 GMT 48.992340 11.882982 36,000 297 431 0
2023-01-20 15:22:57 GMT 48.987385 11.898338 36,000 297 431 64
2023-01-20 15:22:54 GMT 48.987385 11.898338 36,000 297 431 0
2023-01-20 15:22:51 GMT 48.984283 11.907912 36,000 297 431 0
2023-01-20 15:22:48 GMT 48.979240 11.923563 36,000 297 431 64
2023-01-20 15:22:45 GMT 48.979240 11.923563 36,000 297 432 64
2023-01-20 15:22:43 GMT 48.977188 11.929955 36,000 297 432 64
2023-01-20 15:22:40 GMT 48.974583 11.937947 36,000 297 432 0
2023-01-20 15:22:37 GMT 48.971832 11.946575 35,975 297 432 0
2023-01-20 15:22:34 GMT 48.968307 11.957421 35,975 297 432 0
2023-01-20 15:22:31 GMT 48.965786 11.965196 35,975 297 432 0
2023-01-20 15:22:28 GMT 48.964096 11.970450 35,975 297 432 0
2023-01-20 15:22:25 GMT 48.960846 11.980520 35,975 297 432 0
2023-01-20 15:22:19 GMT 48.954987 11.998660 35,975 297 432 -64
2023-01-20 15:22:15 GMT 48.952377 12.006648 35,975 297 432 0
2023-01-20 15:22:12 GMT 48.949310 12.016156 35,975 297 432 0
2023-01-20 15:22:09 GMT 48.947445 12.022006 36,000 297 432 0
2023-01-20 15:22:06 GMT 48.942307 12.037987 36,000 297 432 -64
2023-01-20 15:22:04 GMT 48.942307 12.037987 36,000 297 432 -64
2023-01-20 15:22:01 GMT 48.940430 12.043692 36,000 297 432 -64
2023-01-20 15:21:58 GMT 48.937389 12.053086 36,000 297 432 -64
2023-01-20 15:21:55 GMT 48.932549 12.067975 36,000 297 432 0
2023-01-20 15:21:52 GMT 48.932549 12.067975 36,000 297 432 -64
2023-01-20 15:21:49 GMT 48.929535 12.077425 36,000 297 432 0
2023-01-20 15:21:46 GMT 48.927429 12.083905 36,000 297 432 -64
2023-01-20 15:21:43 GMT 48.923843 12.094935 36,000 297 434 0
2023-01-20 15:21:40 GMT 48.921158 12.103201 36,000 297 432 0
2023-01-20 15:21:37 GMT 48.916767 12.116691 36,000 297 432 -64
2023-01-20 15:21:34 GMT 48.916767 12.116691 36,000 297 432 0
2023-01-20 15:21:32 GMT 48.914112 12.124786 36,000 297 432 0
2023-01-20 15:21:29 GMT 48.911957 12.131512 36,000 297 432 0
2023-01-20 15:21:26 GMT 48.907196 12.146160 36,025 297 433 0
2023-01-20 15:21:24 GMT 48.907196 12.146160 36,000 297 432 -64
2023-01-20 15:21:21 GMT 48.904541 12.154330 36,000 297 432 0
2023-01-20 15:21:18 GMT 48.899075 12.171045 36,025 297 432 0
2023-01-20 15:21:15 GMT 48.899075 12.171045 36,025 297 432 0
2023-01-20 15:21:12 GMT 48.896378 12.179357 36,025 297 432 0
2023-01-20 15:21:08 GMT 48.892883 12.190054 36,025 297 432 0
2023-01-20 15:21:05 GMT 48.888748 12.202712 36,025 297 432 0
2023-01-20 15:21:02 GMT 48.888748 12.202712 36,025 297 433 0
2023-01-20 15:20:59 GMT 48.885574 12.212388 36,025 297 433 0
2023-01-20 15:20:56 GMT 48.882130 12.223013 36,025 297 434 0
2023-01-20 15:20:52 GMT 48.879616 12.230602 36,025 297 434 0
2023-01-20 15:20:49 GMT 48.876801 12.239192 36,025 297 434 0
2023-01-20 15:20:46 GMT 48.873657 12.248816 36,025 297 434 0
2023-01-20 15:20:44 GMT 48.869064 12.262855 36,025 297 434 64
2023-01-20 15:20:41 GMT 48.869064 12.262855 36,025 297 434 0
2023-01-20 15:20:38 GMT 48.866730 12.269897 36,000 297 434 0
2023-01-20 15:20:36 GMT 48.864578 12.276447 36,000 297 434 0
2023-01-20 15:20:33 GMT 48.862793 12.281940 36,000 297 434 0
2023-01-20 15:20:31 GMT 48.860641 12.288419 36,000 297 433 0
2023-01-20 15:20:28 GMT 48.857365 12.298399 36,000 297 435 0
2023-01-20 15:20:25 GMT 48.855103 12.305321 36,025 297 435 0
2023-01-20 15:20:22 GMT 48.851639 12.315818 36,000 297 435 0
2023-01-20 15:20:19 GMT 48.849976 12.320885 36,000 297 435 0
2023-01-20 15:20:16 GMT 48.847076 12.329768 36,025 297 435 0
2023-01-20 15:20:13 GMT 48.844471 12.337646 36,000 297 435 0
2023-01-20 15:20:10 GMT 48.841442 12.346826 36,000 297 436 0
2023-01-20 15:20:07 GMT 48.836090 12.363016 36,000 297 436 0
2023-01-20 15:20:04 GMT 48.836090 12.363016 36,000 297 436 0
2023-01-20 15:20:01 GMT 48.833855 12.369810 36,000 297 436 0
2023-01-20 15:19:57 GMT 48.828083 12.387302 36,000 297 436 0
2023-01-20 15:19:54 GMT 48.824360 12.398650 36,000 297 436 0
2023-01-20 15:19:51 GMT 48.824360 12.398650 36,000 297 436 64
2023-01-20 15:19:47 GMT 48.821613 12.406889 36,000 297 436 64
2023-01-20 15:19:44 GMT 48.815559 12.425176 36,000 297 436 0
2023-01-20 15:19:41 GMT 48.815559 12.425176 36,000 297 436 0
2023-01-20 15:19:38 GMT 48.812393 12.434904 36,000 297 435 0
2023-01-20 15:19:34 GMT 48.809742 12.442956 36,000 297 436 0
2023-01-20 15:19:31 GMT 48.803925 12.460664 36,000 297 436 0
2023-01-20 15:19:28 GMT 48.803925 12.460664 36,000 297 436 0
2023-01-20 15:19:25 GMT 48.801224 12.468832 36,000 297 436 0
2023-01-20 15:19:23 GMT 48.798935 12.475821 36,000 297 436 0
2023-01-20 15:19:20 GMT 48.796234 12.483990 36,000 297 436 0
2023-01-20 15:19:17 GMT 48.794449 12.489483 36,000 297 436 0
2023-01-20 15:19:15 GMT 48.791775 12.497526 36,000 297 436 0
2023-01-20 15:19:12 GMT 48.789631 12.504104 36,000 297 436 0
2023-01-20 15:19:08 GMT 48.785534 12.516680 36,000 297 436 -64
2023-01-20 15:19:05 GMT 48.783161 12.523764 36,000 297 436 -64
2023-01-20 15:19:01 GMT 48.776875 12.542917 36,000 297 436 0
2023-01-20 15:18:58 GMT 48.776875 12.542917 36,000 297 436 0
2023-01-20 15:18:55 GMT 48.773617 12.552675 36,000 297 436 0
2023-01-20 15:18:51 GMT 48.771381 12.559541 36,000 297 436 0
2023-01-20 15:18:48 GMT 48.768215 12.569082 36,000 297 436 0
2023-01-20 15:18:45 GMT 48.764832 12.579275 36,000 297 436 0
2023-01-20 15:18:42 GMT 48.762039 12.587726 36,000 297 436 0
2023-01-20 15:18:38 GMT 48.758331 12.598924 36,000 297 437 -64
2023-01-20 15:18:35 GMT 48.756115 12.605655 36,000 297 437 -64
2023-01-20 15:18:32 GMT 48.753204 12.614488 36,000 297 436 -64
2023-01-20 15:18:29 GMT 48.746933 12.633291 36,000 297 436 0
2023-01-20 15:18:25 GMT 48.746933 12.633291 36,000 297 436 0
2023-01-20 15:18:22 GMT 48.744232 12.641461 36,000 297 436 0
2023-01-20 15:18:18 GMT 48.737911 12.660370 36,000 297 436 0
2023-01-20 15:18:15 GMT 48.734375 12.670995 36,000 297 436 0
2023-01-20 15:18:12 GMT 48.734375 12.670995 36,000 297 436 0
2023-01-20 15:18:09 GMT 48.732327 12.676994 36,000 297 436 0
2023-01-20 15:18:06 GMT 48.730511 12.682415 36,000 297 436 0
2023-01-20 15:18:04 GMT 48.728302 12.689139 36,000 297 437 0
2023-01-20 15:18:01 GMT 48.725342 12.697955 36,000 297 437 0
2023-01-20 15:17:58 GMT 48.722076 12.707660 36,000 297 437 0
2023-01-20 15:17:54 GMT 48.719421 12.715548 36,000 297 438 -64
2023-01-20 15:17:51 GMT 48.716080 12.725619 36,025 297 437 -64
2023-01-20 15:17:47 GMT 48.712635 12.735829 36,025 297 437 0
2023-01-20 15:17:44 GMT 48.708893 12.747169 36,025 297 438 0
2023-01-20 15:17:41 GMT 48.707062 12.752592 36,025 297 438 0
2023-01-20 15:17:38 GMT 48.703602 12.762788 36,025 297 438 0
2023-01-20 15:17:35 GMT 48.698914 12.776888 36,025 297 438 -64
2023-01-20 15:17:32 GMT 48.698914 12.776888 36,025 297 438 -64
2023-01-20 15:17:29 GMT 48.693558 12.792945 36,025 297 438 0
2023-01-20 15:17:26 GMT 48.693558 12.792945 36,025 297 438 0
2023-01-20 15:17:23 GMT 48.690754 12.801241 36,025 297 438 0
2023-01-20 15:17:21 GMT 48.688980 12.806608 36,025 297 438 0
2023-01-20 15:17:18 GMT 48.686192 12.814901 36,025 298 437 0
2023-01-20 15:17:15 GMT 48.679813 12.833983 36,025 297 438 0
2023-01-20 15:17:12 GMT 48.679813 12.833983 36,025 297 438 0
2023-01-20 15:17:09 GMT 48.678406 12.838229 36,025 297 438 0
2023-01-20 15:17:06 GMT 48.675293 12.847525 36,025 297 439 0
2023-01-20 15:17:03 GMT 48.672272 12.856539 36,025 297 439 0
2023-01-20 15:16:59 GMT 48.669342 12.865272 36,025 297 439 0
2023-01-20 15:16:56 GMT 48.665943 12.875326 36,025 297 439 0
2023-01-20 15:16:53 GMT 48.662292 12.886259 36,025 297 439 0
2023-01-20 15:16:50 GMT 48.656799 12.902668 36,025 297 438 0
2023-01-20 15:16:46 GMT 48.656799 12.902668 36,025 297 439 0
2023-01-20 15:16:43 GMT 48.653095 12.913706 36,025 297 439 0
2023-01-20 15:16:40 GMT 48.651695 12.917826 36,025 297 439 0
2023-01-20 15:16:37 GMT 48.648285 12.928021 36,025 297 438 0
2023-01-20 15:16:34 GMT 48.644993 12.937702 36,025 297 439 0
2023-01-20 15:16:31 GMT 48.642563 12.944993 36,025 297 439 0
2023-01-20 15:16:27 GMT 48.639359 12.954501 36,025 297 439 0
2023-01-20 15:16:24 GMT 48.635963 12.964518 36,025 297 439 64
2023-01-20 15:16:21 GMT 48.634094 12.970065 36,000 297 439 64
2023-01-20 15:16:18 GMT 48.630562 12.980636 36,000 297 439 64
2023-01-20 15:16:15 GMT 48.626450 12.992742 36,000 297 439 64
2023-01-20 15:16:12 GMT 48.626450 12.992742 36,000 297 439 64
2023-01-20 15:16:10 GMT 48.623978 13.000136 36,000 297 439 64
2023-01-20 15:16:07 GMT 48.620880 13.009330 36,000 297 439 0
2023-01-20 15:16:04 GMT 48.618225 13.017209 36,000 297 439 0
2023-01-20 15:16:01 GMT 48.615417 13.025560 36,000 297 439 0
2023-01-20 15:15:58 GMT 48.610382 13.040560 36,000 297 439 0
2023-01-20 15:15:55 GMT 48.610382 13.040560 36,000 297 439 0
2023-01-20 15:15:52 GMT 48.607407 13.049293 36,000 297 439 0
2023-01-20 15:15:49 GMT 48.604542 13.057901 36,000 297 439 0
2023-01-20 15:15:46 GMT 48.598984 13.074435 36,000 297 438 -64
2023-01-20 15:15:43 GMT 48.597015 13.080139 36,025 297 439 -64
2023-01-20 15:15:41 GMT 48.597015 13.080139 36,025 297 439 -64
2023-01-20 15:15:38 GMT 48.590698 13.099013 36,025 297 439 -64
2023-01-20 15:15:35 GMT 48.590698 13.099013 36,025 297 438 0
2023-01-20 15:15:32 GMT 48.588898 13.104304 36,025 297 438 0
2023-01-20 15:15:30 GMT 48.586895 13.110303 36,025 297 438 0
2023-01-20 15:15:27 GMT 48.584930 13.116197 36,025 297 438 0
2023-01-20 15:15:24 GMT 48.581219 13.127217 36,025 297 438 64
2023-01-20 15:15:21 GMT 48.578983 13.133722 36,025 297 438 64
2023-01-20 15:15:18 GMT 48.576187 13.142043 36,000 298 439 64
2023-01-20 15:15:15 GMT 48.573532 13.149931 36,000 298 439 64
2023-01-20 15:15:13 GMT 48.571163 13.156851 36,000 298 439 64
2023-01-20 15:15:10 GMT 48.565529 13.173402 36,000 298 439 64
2023-01-20 15:15:07 GMT 48.565529 13.173402 36,000 298 438 64
2023-01-20 15:15:04 GMT 48.563278 13.180072 36,000 298 437 64
2023-01-20 15:15:01 GMT 48.559158 13.192045 36,000 298 438 64
2023-01-20 15:14:58 GMT 48.554626 13.205285 36,000 298 439 64
2023-01-20 15:14:55 GMT 48.554626 13.205285 35,975 298 439 64
2023-01-20 15:14:53 GMT 48.552658 13.210989 35,975 298 439 64
2023-01-20 15:14:50 GMT 48.549774 13.219440 35,975 298 439 64
2023-01-20 15:14:47 GMT 48.547256 13.226694 35,975 298 438 0
2023-01-20 15:14:44 GMT 48.543640 13.237258 35,975 298 439 0
2023-01-20 15:14:41 GMT 48.541836 13.242573 35,975 298 438 0
2023-01-20 15:14:38 GMT 48.539040 13.250668 35,975 298 438 0
2023-01-20 15:14:35 GMT 48.532429 13.269967 35,975 298 438 0
2023-01-20 15:14:32 GMT 48.532429 13.269967 35,975 298 438 0
2023-01-20 15:14:29 GMT 48.529869 13.277556 35,975 298 438 0
2023-01-20 15:14:26 GMT 48.527451 13.284567 35,975 298 438 0
2023-01-20 15:14:23 GMT 48.524143 13.294324 35,975 298 437 0
2023-01-20 15:14:20 GMT 48.521725 13.301335 35,975 298 437 0
2023-01-20 15:14:17 GMT 48.519535 13.307840 35,975 298 437 0
2023-01-20 15:14:14 GMT 48.516632 13.316345 35,975 298 437 0
2023-01-20 15:14:11 GMT 48.513065 13.326777 35,975 298 437 0
2023-01-20 15:14:08 GMT 48.510361 13.334726 35,975 298 437 0
2023-01-20 15:14:05 GMT 48.505524 13.348967 35,975 298 437 0
2023-01-20 15:14:02 GMT 48.505524 13.348967 35,975 298 437 0
2023-01-20 15:13:59 GMT 48.503265 13.355572 35,975 298 437 0
2023-01-20 15:13:56 GMT 48.499241 13.367326 35,975 298 437 0
2023-01-20 15:13:53 GMT 48.497375 13.372674 35,975 298 436 0
2023-01-20 15:13:49 GMT 48.493607 13.383733 35,975 298 436 0
2023-01-20 15:13:46 GMT 48.490631 13.392545 35,975 298 436 0
2023-01-20 15:13:43 GMT 48.485645 13.407296 35,975 298 436 0
2023-01-20 15:13:40 GMT 48.485645 13.407296 35,975 298 436 0
2023-01-20 15:13:36 GMT 48.480927 13.421138 35,975 297 436 0
2023-01-20 15:13:33 GMT 48.475124 13.438303 35,975 297 436 0
2023-01-20 15:13:30 GMT 48.475124 13.438303 35,975 297 436 0
2023-01-20 15:13:27 GMT 48.473217 13.444013 35,975 297 436 0
2023-01-20 15:13:24 GMT 48.467537 13.460782 35,975 297 436 0
2023-01-20 15:13:21 GMT 48.467537 13.460782 35,975 297 436 0
2023-01-20 15:13:17 GMT 48.464184 13.470756 35,975 297 435 0
2023-01-20 15:13:14 GMT 48.462067 13.477126 35,975 297 435 0
2023-01-20 15:13:12 GMT 48.459854 13.483694 35,975 297 436 0
2023-01-20 15:13:09 GMT 48.456528 13.493605 36,000 297 436 0
2023-01-20 15:13:06 GMT 48.454285 13.500366 35,975 297 436 0
2023-01-20 15:13:03 GMT 48.452175 13.506751 35,975 297 436 0
2023-01-20 15:13:01 GMT 48.450268 13.512389 36,000 297 436 0
2023-01-20 15:12:58 GMT 48.447102 13.521857 36,000 297 435 0
2023-01-20 15:12:55 GMT 48.443935 13.531325 36,000 297 435 0
2023-01-20 15:12:52 GMT 48.442120 13.536746 36,000 297 436 0
2023-01-20 15:12:49 GMT 48.438580 13.547299 36,000 298 436 0
2023-01-20 15:12:47 GMT 48.436432 13.553608 36,000 297 436 0
2023-01-20 15:12:43 GMT 48.433090 13.563608 36,000 299 436 0
2023-01-20 15:12:40 GMT 48.431259 13.569031 36,000 297 436 0
2023-01-20 15:12:38 GMT 48.428513 13.577130 36,000 297 436 0
2023-01-20 15:12:34 GMT 48.425266 13.586691 36,000 298 436 0
2023-01-20 15:12:32 GMT 48.423752 13.591144 36,000 298 436 0
2023-01-20 15:12:29 GMT 48.420502 13.600511 36,000 298 436 0
2023-01-20 15:12:26 GMT 48.417168 13.610037 36,000 298 436 0
2023-01-20 15:12:23 GMT 48.415329 13.615300 36,000 298 436 0
2023-01-20 15:12:21 GMT 48.412216 13.624103 36,000 299 436 0
2023-01-20 15:12:18 GMT 48.410278 13.629624 36,000 300 437 0
2023-01-20 15:12:15 GMT 48.404297 13.645935 36,000 299 437 0
2023-01-20 15:12:12 GMT 48.404297 13.645935 36,000 300 436 0
2023-01-20 15:12:09 GMT 48.398174 13.662150 36,000 300 437 0
2023-01-20 15:12:06 GMT 48.398174 13.662150 36,000 300 437 0
2023-01-20 15:12:03 GMT 48.396080 13.667715 36,000 300 437 0
2023-01-20 15:12:01 GMT 48.393238 13.675015 36,000 300 437 0
2023-01-20 15:11:58 GMT 48.390747 13.681500 36,000 300 438 0
2023-01-20 15:11:55 GMT 48.387608 13.689760 36,000 300 438 0
2023-01-20 15:11:52 GMT 48.384018 13.699106 36,000 300 438 64
2023-01-20 15:11:49 GMT 48.382187 13.703895 36,000 300 438 64
2023-01-20 15:11:47 GMT 48.380157 13.709275 36,000 300 438 64
2023-01-20 15:11:44 GMT 48.376053 13.719952 36,000 300 438 64
2023-01-20 15:11:41 GMT 48.373032 13.727840 36,000 300 438 64
2023-01-20 15:11:38 GMT 48.370193 13.735164 36,000 300 438 64
2023-01-20 15:11:35 GMT 48.366798 13.743969 36,000 300 438 0
2023-01-20 15:11:32 GMT 48.362236 13.755822 36,000 301 439 0
2023-01-20 15:11:30 GMT 48.362236 13.755822 36,000 301 439 0
2023-01-20 15:11:28 GMT 48.360607 13.760015 36,000 301 439 0
2023-01-20 15:11:25 GMT 48.357422 13.768334 36,000 301 439 0
2023-01-20 15:11:22 GMT 48.353622 13.778229 36,000 301 439 0
2023-01-20 15:11:19 GMT 48.350922 13.785166 36,000 301 439 0
2023-01-20 15:11:16 GMT 48.347431 13.794275 36,000 301 439 0
2023-01-20 15:11:13 GMT 48.345196 13.800057 36,000 301 439 0
2023-01-20 15:11:11 GMT 48.339890 13.813717 36,000 301 439 0
2023-01-20 15:11:08 GMT 48.339890 13.813717 36,000 301 439 0
2023-01-20 15:11:05 GMT 48.336960 13.821307 36,000 301 439 0
2023-01-20 15:11:02 GMT 48.333939 13.829111 36,000 301 439 0
2023-01-20 15:10:59 GMT 48.331329 13.835942 36,000 301 439 0
2023-01-20 15:10:56 GMT 48.322678 13.858337 36,000 301 439 0
2023-01-20 15:10:52 GMT 48.322678 13.858337 36,000 301 439 0
2023-01-20 15:10:49 GMT 48.319546 13.866336 36,000 301 439 0
2023-01-20 15:10:46 GMT 48.317596 13.871507 36,000 301 439 0
2023-01-20 15:10:43 GMT 48.313541 13.881876 36,000 301 439 0
2023-01-20 15:10:39 GMT 48.309631 13.892001 36,000 301 440 0
2023-01-20 15:10:36 GMT 48.307526 13.897564 36,000 301 440 0
2023-01-20 15:10:33 GMT 48.304367 13.905734 36,000 301 440 0
2023-01-20 15:10:31 GMT 48.301620 13.912846 36,000 301 440 0
2023-01-20 15:10:28 GMT 48.298923 13.919822 36,000 301 440 0
2023-01-20 15:10:25 GMT 48.296272 13.926689 36,000 301 440 0
2023-01-20 15:10:22 GMT 48.292591 13.936157 36,000 301 440 0
2023-01-20 15:10:19 GMT 48.289993 13.942918 36,000 301 440 -64
2023-01-20 15:10:16 GMT 48.287285 13.949890 36,000 301 440 -64
2023-01-20 15:10:13 GMT 48.283840 13.958853 36,000 301 440 -64
2023-01-20 15:10:10 GMT 48.279839 13.969116 36,000 301 440 -64
2023-01-20 15:10:06 GMT 48.276718 13.977215 36,000 301 440 -64
2023-01-20 15:10:03 GMT 48.269920 13.994775 36,000 301 440 -64
2023-01-20 15:10:00 GMT 48.267838 14.000174 36,000 301 440 -64
2023-01-20 15:09:57 GMT 48.267838 14.000174 36,025 301 440 -64
2023-01-20 15:09:54 GMT 48.264336 14.009303 36,025 301 440 -64
2023-01-20 15:09:51 GMT 48.261795 14.015738 36,025 301 440 0
2023-01-20 15:09:48 GMT 48.257679 14.026433 36,025 301 443 0
2023-01-20 15:09:45 GMT 48.256119 14.030527 36,025 301 440 64
2023-01-20 15:09:42 GMT 48.251629 14.041973 36,025 301 440 64
2023-01-20 15:09:39 GMT 48.249115 14.048415 36,000 301 440 64
2023-01-20 15:09:36 GMT 48.246506 14.055128 36,025 301 441 64
2023-01-20 15:09:32 GMT 48.241333 14.068486 36,000 301 441 0
2023-01-20 15:09:29 GMT 48.238407 14.076016 36,000 301 441 0
2023-01-20 15:09:25 GMT 48.231400 14.094121 36,000 301 442 0
2023-01-20 15:09:22 GMT 48.228104 14.102572 36,025 301 442 0
2023-01-20 15:09:18 GMT 48.228104 14.102572 36,025 301 443 0
2023-01-20 15:09:15 GMT 48.224899 14.110741 36,025 301 442 0
2023-01-20 15:09:11 GMT 48.220436 14.122202 36,000 301 443 0
2023-01-20 15:09:08 GMT 48.217319 14.130153 36,000 301 443 0
2023-01-20 15:09:05 GMT 48.212990 14.141284 36,000 301 443 0
2023-01-20 15:09:01 GMT 48.210800 14.146940 36,000 301 443 0
2023-01-20 15:08:58 GMT 48.206772 14.157292 36,000 301 443 0
2023-01-20 15:08:54 GMT 48.203724 14.165063 36,000 301 443 0
2023-01-20 15:08:51 GMT 48.199490 14.175905 36,000 301 443 0
2023-01-20 15:08:48 GMT 48.196426 14.183702 36,000 301 443 0
2023-01-20 15:08:45 GMT 48.193298 14.191806 36,025 301 443 0
2023-01-20 15:08:42 GMT 48.189667 14.201058 36,000 301 443 0
2023-01-20 15:08:38 GMT 48.186035 14.210309 36,025 301 443 0
2023-01-20 15:08:35 GMT 48.183056 14.217971 36,000 301 443 0
2023-01-20 15:08:32 GMT 48.179489 14.227084 36,000 301 443 0
2023-01-20 15:08:29 GMT 48.176926 14.233704 36,000 301 444 0
2023-01-20 15:08:26 GMT 48.173721 14.241943 36,000 301 444 0
2023-01-20 15:08:23 GMT 48.171021 14.248775 36,000 301 444 0
2023-01-20 15:08:20 GMT 48.167633 14.257578 36,000 301 444 0
2023-01-20 15:08:17 GMT 48.164852 14.264591 36,000 301 444 0
2023-01-20 15:08:14 GMT 48.160675 14.275254 36,000 301 444 0
2023-01-20 15:08:10 GMT 48.157516 14.283463 36,000 301 444 0
2023-01-20 15:08:07 GMT 48.154331 14.291593 36,000 301 444 0
2023-01-20 15:08:03 GMT 48.149490 14.304058 36,000 301 445 0
2023-01-20 15:08:00 GMT 48.147766 14.308388 36,000 301 445 0
2023-01-20 15:07:57 GMT 48.144058 14.317932 36,000 301 445 0
2023-01-20 15:07:53 GMT 48.140396 14.327202 36,000 301 444 0
2023-01-20 15:07:50 GMT 48.137192 14.335373 36,000 301 444 64
2023-01-20 15:07:47 GMT 48.133385 14.345046 36,000 301 444 64
2023-01-20 15:07:44 GMT 48.130497 14.352440 36,000 301 444 64
2023-01-20 15:07:41 GMT 48.126308 14.363004 36,000 301 444 64
2023-01-20 15:07:38 GMT 48.123047 14.371353 36,000 301 444 64
2023-01-20 15:07:35 GMT 48.120491 14.377794 36,000 301 444 0
2023-01-20 15:07:32 GMT 48.114990 14.391678 36,000 301 445 0
2023-01-20 15:07:29 GMT 48.114990 14.391678 36,000 301 444 0
2023-01-20 15:07:27 GMT 48.112701 14.397446 36,000 301 444 0
2023-01-20 15:07:24 GMT 48.108994 14.406715 36,000 301 444 0
2023-01-20 15:07:21 GMT 48.106613 14.412758 36,000 301 444 0
2023-01-20 15:07:19 GMT 48.103546 14.420380 36,000 301 444 0
2023-01-20 15:07:16 GMT 48.102055 14.424204 36,000 301 444 0
2023-01-20 15:07:13 GMT 48.098377 14.433429 36,000 301 444 0
2023-01-20 15:07:10 GMT 48.095024 14.441880 36,000 301 444 0
2023-01-20 15:07:07 GMT 48.091766 14.450050 36,000 301 444 0
2023-01-20 15:07:04 GMT 48.087845 14.459930 36,000 301 443 0
2023-01-20 15:07:01 GMT 48.085716 14.465262 36,000 301 443 0
2023-01-20 15:06:59 GMT 48.083107 14.471882 36,000 301 443 0
2023-01-20 15:06:56 GMT 48.080269 14.478995 36,000 301 443 0
2023-01-20 15:06:53 GMT 48.076405 14.488713 36,000 301 443 0
2023-01-20 15:06:50 GMT 48.070312 14.504150 36,000 301 443 0
2023-01-20 15:06:47 GMT 48.070312 14.504150 36,000 301 443 0
2023-01-20 15:06:43 GMT 48.066971 14.512596 36,000 301 443 0
2023-01-20 15:06:40 GMT 48.063950 14.520218 36,000 301 443 0
2023-01-20 15:06:37 GMT 48.056622 14.538785 36,000 301 443 0
2023-01-20 15:06:34 GMT 48.056622 14.538785 36,000 301 443 0
2023-01-20 15:06:31 GMT 48.050896 14.553293 36,000 301 443 -64
2023-01-20 15:06:28 GMT 48.050896 14.553293 36,000 301 443 -64
2023-01-20 15:06:25 GMT 48.047310 14.562237 36,000 301 443 -64
2023-01-20 15:06:21 GMT 48.043259 14.572519 36,000 301 443 0
2023-01-20 15:06:19 GMT 48.041656 14.576591 36,000 301 443 0
2023-01-20 15:06:16 GMT 48.037903 14.586067 36,000 301 443 0
2023-01-20 15:06:13 GMT 48.035671 14.591675 36,000 301 443 0
2023-01-20 15:06:10 GMT 48.032089 14.600761 36,000 301 443 0
2023-01-20 15:06:08 GMT 48.029434 14.607520 36,000 301 443 0
2023-01-20 15:06:05 GMT 48.027374 14.612640 36,000 301 443 0
2023-01-20 15:06:02 GMT 48.023663 14.621958 36,000 301 443 0
2023-01-20 15:05:59 GMT 48.020508 14.629944 36,000 301 443 0
2023-01-20 15:05:55 GMT 48.013279 14.648156 36,000 301 443 0
2023-01-20 15:05:52 GMT 48.013279 14.648156 36,000 301 442 0
2023-01-20 15:05:49 GMT 48.006950 14.664072 36,000 301 443 0
2023-01-20 15:05:46 GMT 48.006950 14.664072 36,000 301 443 0
2023-01-20 15:05:43 GMT 48.003159 14.673615 36,000 301 444 0
2023-01-20 15:05:39 GMT 48.000992 14.679002 36,000 301 444 0
2023-01-20 15:05:37 GMT 47.997963 14.686608 36,000 301 444 0
2023-01-20 15:05:33 GMT 47.992844 14.699496 36,000 301 444 -64
2023-01-20 15:05:30 GMT 47.990517 14.705341 36,000 301 444 0
2023-01-20 15:05:28 GMT 47.988979 14.709285 36,000 301 443 0
2023-01-20 15:05:25 GMT 47.984940 14.719414 36,000 301 443 0
2023-01-20 15:05:22 GMT 47.981857 14.727173 36,000 301 443 0
2023-01-20 15:05:19 GMT 47.977482 14.738159 36,000 301 443 0
2023-01-20 15:05:16 GMT 47.973476 14.748160 36,000 301 443 0
2023-01-20 15:05:10 GMT 47.969521 14.758160 36,000 301 443 0
2023-01-20 15:05:08 GMT 47.967426 14.763371 36,000 301 443 0
2023-01-20 15:05:05 GMT 47.964725 14.770203 36,000 301 443 0
2023-01-20 15:05:01 GMT 47.959305 14.783752 36,000 301 443 0
2023-01-20 15:04:58 GMT 47.956604 14.790550 36,000 301 444 0
2023-01-20 15:04:55 GMT 47.950012 14.807098 36,000 301 444 0
2023-01-20 15:04:52 GMT 47.950012 14.807098 36,000 301 444 0
2023-01-20 15:04:49 GMT 47.947872 14.812458 36,000 301 444 0
2023-01-20 15:04:47 GMT 47.945618 14.818085 36,000 301 444 0
2023-01-20 15:04:44 GMT 47.942368 14.826256 36,000 301 444 0
2023-01-20 15:04:40 GMT 47.937679 14.837881 36,000 301 444 0
2023-01-20 15:04:37 GMT 47.934513 14.845769 36,000 301 444 0
2023-01-20 15:04:34 GMT 47.931427 14.853516 36,000 301 444 0
2023-01-20 15:04:31 GMT 47.928772 14.860039 36,000 301 444 0
2023-01-20 15:04:28 GMT 47.924549 14.870629 36,000 301 444 0
2023-01-20 15:04:25 GMT 47.919804 14.882460 36,025 301 444 0
2023-01-20 15:04:19 GMT 47.915150 14.893940 36,000 301 444 0
2023-01-20 15:04:16 GMT 47.912979 14.899315 36,025 301 444 0
2023-01-20 15:04:13 GMT 47.909958 14.906868 36,000 301 444 0
2023-01-20 15:04:10 GMT 47.906662 14.914970 36,000 301 444 0
2023-01-20 15:04:07 GMT 47.900299 14.930842 36,025 301 444 0
2023-01-20 15:04:04 GMT 47.900299 14.930842 36,000 301 444 0
2023-01-20 15:04:01 GMT 47.894348 14.945595 36,025 301 444 0
2023-01-20 15:03:58 GMT 47.891129 14.953590 36,025 301 444 -64
2023-01-20 15:03:55 GMT 47.891129 14.953590 36,025 301 444 0
2023-01-20 15:03:52 GMT 47.887447 14.962745 36,025 301 444 0
2023-01-20 15:03:49 GMT 47.884872 14.969147 36,025 301 444 0
2023-01-20 15:03:47 GMT 47.881943 14.976425 36,025 301 444 0
2023-01-20 15:03:44 GMT 47.879768 14.981830 36,025 301 444 0
2023-01-20 15:03:41 GMT 47.875900 14.991325 36,025 302 444 0
2023-01-20 15:03:38 GMT 47.869492 15.007324 36,025 301 444 0
2023-01-20 15:03:35 GMT 47.869492 15.007324 36,025 301 444 0
2023-01-20 15:03:31 GMT 47.865692 15.016663 36,025 301 444 0
2023-01-20 15:03:28 GMT 47.859055 15.033142 36,025 301 444 0
2023-01-20 15:03:25 GMT 47.859055 15.033142 36,025 301 444 0
2023-01-20 15:03:22 GMT 47.855095 15.042959 36,025 302 444 0
2023-01-20 15:03:19 GMT 47.848480 15.059303 36,025 302 444 0
2023-01-20 15:03:15 GMT 47.848480 15.059303 36,025 302 443 0
2023-01-20 15:03:12 GMT 47.845367 15.066974 36,025 302 443 0
2023-01-20 15:03:08 GMT 47.841503 15.076482 36,025 302 443 0
2023-01-20 15:03:05 GMT 47.837452 15.086553 36,025 302 443 0
2023-01-20 15:03:01 GMT 47.833450 15.096482 36,025 302 443 0
2023-01-20 15:02:58 GMT 47.829575 15.105995 36,025 301 444 0
2023-01-20 15:02:55 GMT 47.826920 15.112518 36,025 301 444 0
2023-01-20 15:02:52 GMT 47.824139 15.119441 36,025 301 444 0
2023-01-20 15:02:49 GMT 47.820831 15.127625 36,025 301 443 64
2023-01-20 15:02:44 GMT 47.814827 15.142681 36,025 301 443 0
2023-01-20 15:02:41 GMT 47.812683 15.148018 36,025 301 442 0
2023-01-20 15:02:37 GMT 47.808216 15.159161 36,025 301 443 0
2023-01-20 15:02:33 GMT 47.804123 15.169510 36,025 301 443 0
2023-01-20 15:02:30 GMT 47.800629 15.178246 36,000 301 443 0
2023-01-20 15:02:26 GMT 47.796394 15.189021 36,000 301 443 64
2023-01-20 15:02:23 GMT 47.793835 15.195571 36,000 301 443 0
2023-01-20 15:02:20 GMT 47.790665 15.203568 36,000 301 443 0
2023-01-20 15:02:16 GMT 47.787548 15.211557 36,000 301 442 0
2023-01-20 15:02:13 GMT 47.780983 15.228389 36,000 300 442 0
2023-01-20 15:02:10 GMT 47.780983 15.228389 36,000 300 442 0
2023-01-20 15:02:07 GMT 47.774002 15.246346 36,000 300 442 0
2023-01-20 15:02:04 GMT 47.774002 15.246346 36,000 300 442 0
2023-01-20 15:02:00 GMT 47.770184 15.256207 36,000 300 442 0
2023-01-20 15:01:57 GMT 47.767437 15.263249 36,000 300 442 0
2023-01-20 15:01:54 GMT 47.763885 15.272301 36,000 301 441 0
2023-01-20 15:01:51 GMT 47.760361 15.281349 36,000 301 442 64
2023-01-20 15:01:48 GMT 47.758347 15.286446 36,000 301 441 64
2023-01-20 15:01:46 GMT 47.756264 15.291772 36,000 301 441 64
2023-01-20 15:01:43 GMT 47.750610 15.306015 36,000 301 441 0
2023-01-20 15:01:40 GMT 47.747131 15.314598 36,000 301 441 0
2023-01-20 15:01:37 GMT 47.747131 15.314598 36,000 302 442 0
2023-01-20 15:01:34 GMT 47.742626 15.325576 35,975 302 441 0
2023-01-20 15:01:31 GMT 47.740540 15.330528 36,000 303 441 0
2023-01-20 15:01:28 GMT 47.736107 15.340928 36,000 303 441 64
2023-01-20 15:01:25 GMT 47.733765 15.346390 36,000 303 441 64
2023-01-20 15:01:22 GMT 47.729233 15.356483 35,975 305 441 0
2023-01-20 15:01:19 GMT 47.727036 15.361221 35,975 306 441 0
2023-01-20 15:01:16 GMT 47.723633 15.368535 35,975 306 441 0
2023-01-20 15:01:12 GMT 47.718697 15.378958 35,975 306 441 0
2023-01-20 15:01:08 GMT 47.711838 15.393356 35,975 306 441 0
2023-01-20 15:01:06 GMT 47.708363 15.400649 35,975 306 441 0
2023-01-20 15:01:03 GMT 47.708363 15.400649 35,975 306 441 0
2023-01-20 15:01:00 GMT 47.704731 15.408325 35,975 306 441 0
2023-01-20 15:00:57 GMT 47.701332 15.415438 35,975 306 441 0
2023-01-20 15:00:55 GMT 47.699020 15.420273 35,975 306 440 0
2023-01-20 15:00:52 GMT 47.695770 15.427139 35,975 306 440 0
2023-01-20 15:00:49 GMT 47.691463 15.436143 35,975 306 440 0
2023-01-20 15:00:46 GMT 47.687275 15.445017 35,975 306 440 0
2023-01-20 15:00:43 GMT 47.684341 15.451144 35,975 306 439 0
2023-01-20 15:00:39 GMT 47.680573 15.459031 35,975 306 439 0
2023-01-20 15:00:36 GMT 47.676178 15.468269 35,975 306 440 0
2023-01-20 15:00:32 GMT 47.672005 15.476919 35,975 306 439 0
2023-01-20 15:00:29 GMT 47.667572 15.486122 35,975 306 439 0
2023-01-20 15:00:25 GMT 47.664047 15.493469 35,975 306 438 0
2023-01-20 15:00:21 GMT 47.658279 15.505486 35,950 306 439 0
2023-01-20 15:00:18 GMT 47.655758 15.510723 35,950 306 439 0
2023-01-20 15:00:15 GMT 47.652359 15.517836 35,950 306 439 0
2023-01-20 15:00:11 GMT 47.642853 15.537483 35,950 306 438 0
2023-01-20 15:00:08 GMT 47.642853 15.537483 35,950 306 439 0
2023-01-20 15:00:03 GMT 47.636490 15.550667 35,975 306 438 0
2023-01-20 15:00:00 GMT 47.634750 15.554306 35,950 306 438 0
2023-01-20 14:59:57 GMT 47.631180 15.561584 35,950 306 438 0
2023-01-20 14:59:55 GMT 47.627689 15.568754 35,950 306 438 0
2023-01-20 14:59:52 GMT 47.623993 15.576416 35,950 306 438 0
2023-01-20 14:59:49 GMT 47.620789 15.583008 35,950 306 438 0
2023-01-20 14:59:46 GMT 47.617264 15.590286 35,950 306 438 0
2023-01-20 14:59:43 GMT 47.615166 15.594529 35,950 306 438 0
2023-01-20 14:59:40 GMT 47.607391 15.610586 35,950 306 437 0
2023-01-20 14:59:37 GMT 47.607391 15.610586 35,950 306 437 0
2023-01-20 14:59:34 GMT 47.598724 15.628464 35,950 306 437 -64
2023-01-20 14:59:31 GMT 47.598724 15.628464 35,975 306 438 -64
2023-01-20 14:59:28 GMT 47.590912 15.644672 35,975 306 438 -64
2023-01-20 14:59:24 GMT 47.590912 15.644672 35,975 306 437 -64
2023-01-20 14:59:21 GMT 47.588352 15.650024 35,975 306 437 -64
2023-01-20 14:59:18 GMT 47.584209 15.658546 35,975 306 437 -64
2023-01-20 14:59:14 GMT 47.576614 15.674194 35,975 306 437 -64
2023-01-20 14:59:11 GMT 47.576614 15.674194 35,975 306 437 -64
2023-01-20 14:59:08 GMT 47.573872 15.679885 35,975 306 437 -64
2023-01-20 14:59:05 GMT 47.568798 15.690308 35,975 306 437 -64
2023-01-20 14:59:02 GMT 47.565308 15.697472 35,975 306 437 -64
2023-01-20 14:58:59 GMT 47.562561 15.703195 35,975 306 437 -64
2023-01-20 14:58:56 GMT 47.559082 15.710381 36,000 306 438 -64
2023-01-20 14:58:53 GMT 47.550247 15.728645 36,000 306 438 -64
2023-01-20 14:58:50 GMT 47.550247 15.728645 36,000 306 438 -64
2023-01-20 14:58:47 GMT 47.548599 15.732010 36,000 306 438 -64
2023-01-20 14:58:44 GMT 47.544640 15.740169 36,025 306 438 -64
2023-01-20 14:58:39 GMT 47.535561 15.758902 36,025 306 438 -64
2023-01-20 14:58:36 GMT 47.535561 15.758902 36,025 306 438 -64
2023-01-20 14:58:33 GMT 47.532490 15.765240 36,025 306 439 -64
2023-01-20 14:58:30 GMT 47.528641 15.773140 36,025 306 439 -64
2023-01-20 14:58:27 GMT 47.524342 15.782072 36,025 306 439 -64
2023-01-20 14:58:24 GMT 47.517498 15.796157 36,025 306 439 -64
2023-01-20 14:58:21 GMT 47.515125 15.801016 36,025 306 439 -64
2023-01-20 14:58:19 GMT 47.512146 15.807143 36,025 306 439 -64
2023-01-20 14:58:16 GMT 47.512146 15.807143 36,025 306 440 0
2023-01-20 14:58:13 GMT 47.505707 15.820381 36,050 306 440 0
2023-01-20 14:58:08 GMT 47.500946 15.830132 36,050 306 440 0
2023-01-20 14:58:05 GMT 47.498646 15.834891 36,050 306 440 0
2023-01-20 14:58:01 GMT 47.493851 15.844826 36,050 306 440 0
2023-01-20 14:57:59 GMT 47.490143 15.852379 36,050 306 441 0
2023-01-20 14:57:56 GMT 47.487900 15.857048 36,050 306 441 -64
2023-01-20 14:57:53 GMT 47.484467 15.864120 36,050 306 442 0
2023-01-20 14:57:49 GMT 47.479137 15.875033 36,050 306 442 0
2023-01-20 14:57:46 GMT 47.476135 15.881218 36,050 306 442 0
2023-01-20 14:57:43 GMT 47.472389 15.888977 36,050 306 442 0
2023-01-20 14:57:39 GMT 47.462906 15.908409 36,050 306 442 0
2023-01-20 14:57:36 GMT 47.462906 15.908409 36,050 306 442 0
2023-01-20 14:57:32 GMT 47.453110 15.928528 36,050 306 442 0
2023-01-20 14:57:27 GMT 47.453110 15.928528 36,050 306 443 64
2023-01-20 14:57:24 GMT 47.449036 15.936905 36,050 306 443 64
2023-01-20 14:57:21 GMT 47.446831 15.941444 36,050 306 443 64
2023-01-20 14:57:19 GMT 47.443085 15.949127 36,050 306 444 64
2023-01-20 14:57:16 GMT 47.438873 15.957710 36,025 306 444 64
2023-01-20 14:57:13 GMT 47.436218 15.963135 36,025 306 444 64
2023-01-20 14:57:07 GMT 47.429562 15.976727 36,025 306 444 64
2023-01-20 14:57:04 GMT 47.422440 15.991164 36,025 306 445 64
2023-01-20 14:57:01 GMT 47.422440 15.991164 36,025 306 445 64
2023-01-20 14:56:58 GMT 47.418915 15.998428 36,025 306 445 0
2023-01-20 14:56:54 GMT 47.414387 16.007643 36,025 306 445 0
2023-01-20 14:56:51 GMT 47.410446 16.015594 36,025 306 445 64
2023-01-20 14:56:48 GMT 47.406284 16.024054 36,025 306 445 64
2023-01-20 14:56:45 GMT 47.401817 16.033136 36,025 306 445 64
2023-01-20 14:56:42 GMT 47.398865 16.039146 36,000 306 445 64
2023-01-20 14:56:39 GMT 47.395576 16.045956 36,025 306 445 64
2023-01-20 14:56:36 GMT 47.392136 16.052948 36,025 306 445 0
2023-01-20 14:56:33 GMT 47.388977 16.059334 36,000 306 445 0
2023-01-20 14:56:30 GMT 47.380280 16.076981 36,000 306 445 0
2023-01-20 14:56:27 GMT 47.380280 16.076981 36,000 306 445 64
2023-01-20 14:56:24 GMT 47.376434 16.084808 36,000 306 445 64
2023-01-20 14:56:21 GMT 47.373837 16.090111 36,000 306 445 64
2023-01-20 14:56:17 GMT 47.368439 16.101168 36,000 306 445 64
2023-01-20 14:56:14 GMT 47.366455 16.105202 36,000 306 445 64
2023-01-20 14:56:11 GMT 47.362564 16.113029 36,000 306 445 64
2023-01-20 14:56:09 GMT 47.359638 16.119057 36,000 306 445 64
2023-01-20 14:56:06 GMT 47.356010 16.126451 36,000 306 445 0
2023-01-20 14:56:03 GMT 47.352379 16.133776 36,000 306 445 0
2023-01-20 14:56:00 GMT 47.348831 16.140976 36,000 306 445 0
2023-01-20 14:55:57 GMT 47.344620 16.149628 36,000 306 445 0
2023-01-20 14:55:54 GMT 47.340927 16.157085 36,000 306 445 0
2023-01-20 14:55:51 GMT 47.338440 16.162125 36,000 306 444 -64
2023-01-20 14:55:48 GMT 47.334366 16.170433 36,000 306 444 -64
2023-01-20 14:55:45 GMT 47.330219 16.178846 36,000 306 444 -64
2023-01-20 14:55:41 GMT 47.321140 16.197227 36,000 306 444 0
2023-01-20 14:55:38 GMT 47.321140 16.197227 36,000 306 444 0
2023-01-20 14:55:35 GMT 47.318626 16.202370 36,000 306 444 0
2023-01-20 14:55:32 GMT 47.314224 16.211288 36,000 306 444 0
2023-01-20 14:55:29 GMT 47.310574 16.218708 36,000 306 444 0
2023-01-20 14:55:26 GMT 47.307724 16.224472 36,000 306 444 0
2023-01-20 14:55:23 GMT 47.304054 16.231949 36,000 306 444 0
2023-01-20 14:55:20 GMT 47.300331 16.239483 36,000 307 443 0
2023-01-20 14:55:17 GMT 47.297215 16.245821 36,000 307 443 0
2023-01-20 14:55:14 GMT 47.293209 16.253851 36,000 307 443 0
2023-01-20 14:55:11 GMT 47.288361 16.263748 36,000 307 443 0
2023-01-20 14:55:08 GMT 47.282269 16.276104 36,000 307 443 0
2023-01-20 14:55:05 GMT 47.282269 16.276104 36,000 307 443 -64
2023-01-20 14:55:01 GMT 47.277969 16.284691 36,025 307 443 -64
2023-01-20 14:54:58 GMT 47.273609 16.293499 36,025 307 443 0
2023-01-20 14:54:55 GMT 47.265427 16.310028 36,025 307 443 0
2023-01-20 14:54:52 GMT 47.265427 16.310028 36,025 307 443 0
2023-01-20 14:54:49 GMT 47.262909 16.315178 36,025 307 443 0
2023-01-20 14:54:46 GMT 47.260345 16.320259 36,025 307 443 0
2023-01-20 14:54:43 GMT 47.255733 16.329626 36,025 307 443 0
2023-01-20 14:54:40 GMT 47.252151 16.336739 36,000 307 443 64
2023-01-20 14:54:36 GMT 47.247116 16.346970 36,000 307 443 64
2023-01-20 14:54:33 GMT 47.242996 16.355278 36,000 307 443 64
2023-01-20 14:54:30 GMT 47.240139 16.360968 36,000 307 443 64
2023-01-20 14:54:27 GMT 47.236130 16.369080 36,000 307 443 64
2023-01-20 14:54:23 GMT 47.230644 16.380121 36,000 307 443 64
2023-01-20 14:54:20 GMT 47.224358 16.392799 36,000 307 443 64
2023-01-20 14:54:17 GMT 47.220474 16.400665 36,000 307 443 64
2023-01-20 14:54:14 GMT 47.217377 16.406883 35,975 307 443 64
2023-01-20 14:54:11 GMT 47.213699 16.414261 35,975 307 443 64
2023-01-20 14:54:08 GMT 47.213699 16.414261 35,975 307 443 64
2023-01-20 14:54:05 GMT 47.210392 16.420969 35,975 307 443 64
2023-01-20 14:54:02 GMT 47.205460 16.430899 35,975 307 443 64
2023-01-20 14:53:59 GMT 47.203125 16.435616 35,975 307 443 64
2023-01-20 14:53:56 GMT 47.198383 16.445194 35,975 307 443 64
2023-01-20 14:53:53 GMT 47.195755 16.450378 35,975 307 442 64
2023-01-20 14:53:50 GMT 47.192276 16.457451 35,975 307 442 0
2023-01-20 14:53:47 GMT 47.187469 16.467133 35,975 307 442 0
2023-01-20 14:53:44 GMT 47.181335 16.479492 35,975 307 442 0
2023-01-20 14:53:41 GMT 47.181335 16.479492 35,975 307 442 0
2023-01-20 14:53:39 GMT 47.179047 16.484093 35,975 307 442 0
2023-01-20 14:53:36 GMT 47.175522 16.491096 35,975 307 441 0
2023-01-20 14:53:33 GMT 47.170685 16.500832 35,975 307 441 0
2023-01-20 14:53:29 GMT 47.166447 16.509352 35,975 307 440 0
2023-01-20 14:53:26 GMT 47.158585 16.525154 35,975 307 440 0
2023-01-20 14:53:22 GMT 47.158585 16.525154 35,975 307 440 0
2023-01-20 14:53:19 GMT 47.153778 16.534767 35,975 307 440 0
2023-01-20 14:53:15 GMT 47.150017 16.542381 35,975 307 440 0
2023-01-20 14:53:11 GMT 47.144531 16.553307 35,975 307 440 0
2023-01-20 14:53:08 GMT 47.142056 16.558228 35,975 307 440 0
2023-01-20 14:53:05 GMT 47.133305 16.575834 35,975 307 440 0
2023-01-20 14:53:02 GMT 47.130791 16.580833 35,975 307 440 0
2023-01-20 14:52:59 GMT 47.130791 16.580833 35,975 307 440 0
2023-01-20 14:52:56 GMT 47.126999 16.588394 35,975 307 440 0
2023-01-20 14:52:53 GMT 47.124180 16.594074 35,975 307 440 0
2023-01-20 14:52:50 GMT 47.120316 16.601749 35,975 307 440 0
2023-01-20 14:52:48 GMT 47.116791 16.608856 35,975 307 440 0
2023-01-20 14:52:45 GMT 47.113239 16.615976 35,975 307 440 0
2023-01-20 14:52:42 GMT 47.110958 16.620483 35,975 307 440 0
2023-01-20 14:52:39 GMT 47.102371 16.637695 35,975 307 440 0
2023-01-20 14:52:36 GMT 47.102371 16.637695 35,975 307 440 0
2023-01-20 14:52:32 GMT 47.093315 16.655766 35,975 307 439 0
2023-01-20 14:52:28 GMT 47.093315 16.655766 35,975 307 440 0
2023-01-20 14:52:25 GMT 47.089218 16.663937 35,975 307 439 0
2023-01-20 14:52:21 GMT 47.084244 16.673882 35,975 307 439 0
2023-01-20 14:52:18 GMT 47.081165 16.679993 35,975 307 439 0
2023-01-20 14:52:15 GMT 47.076324 16.689674 35,975 307 439 0
2023-01-20 14:52:12 GMT 47.075020 16.692247 35,975 307 439 0
2023-01-20 14:52:09 GMT 47.069458 16.703339 35,975 307 439 0
2023-01-20 14:52:06 GMT 47.066128 16.709923 35,975 307 439 0
2023-01-20 14:52:03 GMT 47.063614 16.714994 35,975 307 439 0
2023-01-20 14:52:00 GMT 47.057419 16.727303 35,975 307 439 -64
2023-01-20 14:51:54 GMT 47.052338 16.737396 35,975 307 439 0
2023-01-20 14:51:51 GMT 47.048813 16.744432 35,975 307 439 0
2023-01-20 14:51:48 GMT 47.045319 16.751333 35,975 307 439 -64
2023-01-20 14:51:45 GMT 47.040298 16.761292 35,975 307 439 0
2023-01-20 14:51:42 GMT 47.037964 16.765982 35,975 307 439 0
2023-01-20 14:51:38 GMT 47.028259 16.785187 35,975 307 439 0
2023-01-20 14:51:35 GMT 47.028259 16.785187 35,975 307 440 0
2023-01-20 14:51:32 GMT 47.025906 16.789856 35,975 307 440 0
2023-01-20 14:51:28 GMT 47.017574 16.806335 35,975 307 440 0
2023-01-20 14:51:25 GMT 47.017574 16.806335 35,975 307 440 0
2023-01-20 14:51:22 GMT 47.014641 16.812111 35,975 307 440 0
2023-01-20 14:51:19 GMT 47.010174 16.820913 35,975 307 440 0
2023-01-20 14:51:17 GMT 47.007751 16.825703 35,975 307 440 0
2023-01-20 14:51:14 GMT 47.004631 16.831900 35,975 307 441 -64
2023-01-20 14:51:11 GMT 47.000999 16.839083 36,000 307 441 -64
2023-01-20 14:51:08 GMT 46.996719 16.847534 36,000 307 441 -64
2023-01-20 14:51:05 GMT 46.992920 16.855019 36,000 307 441 -64
2023-01-20 14:51:01 GMT 46.988617 16.863522 36,000 307 441 0
2023-01-20 14:50:58 GMT 46.985825 16.869083 36,000 307 441 0
2023-01-20 14:50:55 GMT 46.981155 16.878296 36,000 307 441 0
2023-01-20 14:50:52 GMT 46.977261 16.885916 36,000 307 441 0
2023-01-20 14:50:49 GMT 46.974281 16.891832 36,000 307 441 0
2023-01-20 14:50:44 GMT 46.967342 16.905495 36,000 307 442 0
2023-01-20 14:50:41 GMT 46.964264 16.911598 36,000 307 442 0
2023-01-20 14:50:37 GMT 46.959572 16.920847 36,000 307 442 64
2023-01-20 14:50:34 GMT 46.955978 16.927940 36,000 307 442 64
2023-01-20 14:50:31 GMT 46.950897 16.938034 36,000 307 443 0
2023-01-20 14:50:26 GMT 46.946209 16.947256 36,000 307 443 0
2023-01-20 14:50:23 GMT 46.942566 16.954376 36,000 307 443 -64
2023-01-20 14:50:19 GMT 46.937439 16.964470 36,000 307 444 -64
2023-01-20 14:50:15 GMT 46.932816 16.973602 36,025 307 444 -64
2023-01-20 14:50:12 GMT 46.928192 16.982752 36,000 307 443 -64
2023-01-20 14:50:09 GMT 46.925720 16.987541 36,025 307 444 -128
2023-01-20 14:50:05 GMT 46.920189 16.998526 36,025 307 444 -64
2023-01-20 14:50:02 GMT 46.916931 17.004913 36,025 307 444 -64
2023-01-20 14:49:58 GMT 46.911667 17.015213 36,025 307 444 -64
2023-01-20 14:49:55 GMT 46.908463 17.021461 36,025 307 449 0
2023-01-20 14:49:52 GMT 46.904205 17.029907 36,050 307 444 -64
2023-01-20 14:49:49 GMT 46.899612 17.038950 36,050 307 444 -64
2023-01-20 14:49:44 GMT 46.893978 17.050007 36,050 307 445 0
2023-01-20 14:49:40 GMT 46.884762 17.068106 36,050 307 446 0
2023-01-20 14:49:36 GMT 46.880104 17.077261 36,050 307 446 -64
2023-01-20 14:49:32 GMT 46.875000 17.087311 36,050 307 446 0
2023-01-20 14:49:29 GMT 46.875000 17.087311 36,050 307 446 0
2023-01-20 14:49:26 GMT 46.873032 17.091156 36,050 307 446 0
2023-01-20 14:49:23 GMT 46.868225 17.100563 36,050 307 446 0
2023-01-20 14:49:20 GMT 46.865208 17.106537 36,050 307 446 0
2023-01-20 14:49:17 GMT 46.862137 17.112579 36,050 307 447 0
2023-01-20 14:49:14 GMT 46.857342 17.121986 36,050 307 448 0
2023-01-20 14:49:11 GMT 46.850235 17.135925 36,050 307 448 64
2023-01-20 14:49:08 GMT 46.850235 17.135925 36,050 307 448 64
2023-01-20 14:49:04 GMT 46.844101 17.148050 36,050 307 448 64
2023-01-20 14:49:00 GMT 46.840302 17.155495 36,050 307 449 64
2023-01-20 14:48:57 GMT 46.836548 17.162855 36,025 307 449 64
2023-01-20 14:48:54 GMT 46.832840 17.170156 36,025 307 449 64
2023-01-20 14:48:51 GMT 46.829178 17.177330 36,025 307 449 64
2023-01-20 14:48:47 GMT 46.824554 17.186436 36,025 307 449 64
2023-01-20 14:48:43 GMT 46.814255 17.206600 36,025 307 449 0
2023-01-20 14:48:40 GMT 46.814255 17.206600 36,025 307 449 0
2023-01-20 14:48:37 GMT 46.811859 17.211319 36,025 307 449 64
2023-01-20 14:48:34 GMT 46.808441 17.217987 36,025 307 449 64
2023-01-20 14:48:30 GMT 46.804230 17.226229 36,025 307 450 64
2023-01-20 14:48:27 GMT 46.798824 17.236794 36,025 307 450 0
2023-01-20 14:48:23 GMT 46.794159 17.245922 36,025 307 450 0
2023-01-20 14:48:20 GMT 46.791046 17.251951 36,025 307 450 0
2023-01-20 14:48:16 GMT 46.785736 17.262402 36,025 307 450 0
2023-01-20 14:48:12 GMT 46.780670 17.272224 36,025 307 450 0
2023-01-20 14:48:09 GMT 46.778137 17.277206 36,025 307 450 0
2023-01-20 14:48:05 GMT 46.772186 17.288795 36,025 307 450 0
2023-01-20 14:48:02 GMT 46.769302 17.294422 36,025 307 450 0
2023-01-20 14:47:59 GMT 46.764862 17.303131 36,025 307 449 0
2023-01-20 14:47:55 GMT 46.755890 17.320616 36,025 307 449 0
2023-01-20 14:47:52 GMT 46.755890 17.320616 36,025 307 449 0
2023-01-20 14:47:49 GMT 46.751854 17.328461 36,025 307 449 -64
2023-01-20 14:47:45 GMT 46.747330 17.337297 36,025 307 449 -64
2023-01-20 14:47:42 GMT 46.742844 17.346004 36,025 307 449 0
2023-01-20 14:47:39 GMT 46.740097 17.351297 36,025 307 449 0
2023-01-20 14:47:36 GMT 46.733185 17.364716 36,025 307 450 0
2023-01-20 14:47:33 GMT 46.733185 17.364716 36,025 307 450 0
2023-01-20 14:47:30 GMT 46.728287 17.374275 36,025 307 449 0
2023-01-20 14:47:27 GMT 46.725178 17.380302 36,025 307 449 0
2023-01-20 14:47:24 GMT 46.717731 17.394653 36,025 307 449 0
2023-01-20 14:47:21 GMT 46.713310 17.403236 36,025 307 449 0
2023-01-20 14:47:17 GMT 46.713310 17.403236 35,975 307 449 64
2023-01-20 14:47:14 GMT 46.705399 17.418690 36,025 307 449 0
2023-01-20 14:47:11 GMT 46.705399 17.418690 36,025 307 448 64
2023-01-20 14:47:08 GMT 46.702286 17.424719 36,025 307 448 64
2023-01-20 14:47:05 GMT 46.696735 17.435440 36,025 307 448 64
2023-01-20 14:47:02 GMT 46.692810 17.443073 36,025 307 448 64
2023-01-20 14:46:59 GMT 46.690201 17.448097 36,025 307 448 0
2023-01-20 14:46:56 GMT 46.687363 17.453657 36,025 307 448 0
2023-01-20 14:46:53 GMT 46.679699 17.468468 35,975 307 448 0
2023-01-20 14:46:50 GMT 46.679699 17.468468 36,025 307 448 0
2023-01-20 14:46:47 GMT 46.675278 17.477037 36,025 307 448 0
2023-01-20 14:46:42 GMT 46.669128 17.488998 36,000 307 448 64
2023-01-20 14:46:39 GMT 46.664978 17.497066 36,000 307 448 64
2023-01-20 14:46:36 GMT 46.662231 17.502359 36,000 307 448 64
2023-01-20 14:46:31 GMT 46.656002 17.514542 36,000 307 448 64
2023-01-20 14:46:27 GMT 46.648926 17.528206 36,000 307 448 64
2023-01-20 14:46:24 GMT 46.646461 17.533012 36,000 307 447 64
2023-01-20 14:46:21 GMT 46.643620 17.538574 36,000 307 447 64
2023-01-20 14:46:18 GMT 46.638638 17.548187 36,000 307 447 64
2023-01-20 14:46:14 GMT 46.634628 17.555950 35,975 307 446 64
2023-01-20 14:46:11 GMT 46.629822 17.565331 35,975 307 446 64
2023-01-20 14:46:06 GMT 46.624466 17.575579 35,975 307 446 64
2023-01-20 14:46:02 GMT 46.618713 17.586708 35,975 307 445 64
2023-01-20 14:45:59 GMT 46.615131 17.593643 35,950 307 445 64
2023-01-20 14:45:56 GMT 46.612755 17.598175 35,950 308 446 64
2023-01-20 14:45:53 GMT 46.609222 17.604988 35,950 308 445 0
2023-01-20 14:45:50 GMT 46.604279 17.614500 35,950 308 445 0
2023-01-20 14:45:44 GMT 46.596451 17.629505 35,950 308 445 0
2023-01-20 14:45:39 GMT 46.591061 17.639854 35,950 308 443 0
2023-01-20 14:45:35 GMT 46.586151 17.649200 35,950 308 443 0
2023-01-20 14:45:32 GMT 46.581436 17.658178 35,950 308 443 64
2023-01-20 14:45:29 GMT 46.578186 17.664341 35,950 308 443 0
2023-01-20 14:45:26 GMT 46.575714 17.669029 35,950 308 443 0
2023-01-20 14:45:21 GMT 46.568951 17.681946 35,950 308 442 0
2023-01-20 14:45:18 GMT 46.565365 17.688744 35,950 308 441 0
2023-01-20 14:45:15 GMT 46.561035 17.697052 35,950 308 439 0
2023-01-20 14:45:12 GMT 46.558475 17.701996 35,950 308 441 -64
2023-01-20 14:45:08 GMT 46.552937 17.712570 35,950 308 441 -64
2023-01-20 14:45:05 GMT 46.547398 17.723213 35,950 308 441 -64
2023-01-20 14:45:01 GMT 46.543808 17.730192 35,950 307 440 -64
2023-01-20 14:44:58 GMT 46.535843 17.745466 35,950 307 440 0
2023-01-20 14:44:54 GMT 46.535843 17.745466 35,950 307 440 0
2023-01-20 14:44:50 GMT 46.530125 17.756447 35,950 307 440 0
2023-01-20 14:44:46 GMT 46.524773 17.766747 35,975 308 439 0
2023-01-20 14:44:42 GMT 46.521652 17.772797 35,975 308 439 0
2023-01-20 14:44:39 GMT 46.515976 17.783583 35,950 308 439 0
2023-01-20 14:44:35 GMT 46.508148 17.798588 35,975 308 439 -64
2023-01-20 14:44:31 GMT 46.508148 17.798588 35,975 308 439 0
2023-01-20 14:44:28 GMT 46.503822 17.806984 35,975 308 439 0
2023-01-20 14:44:24 GMT 46.497620 17.818819 35,975 308 440 -64
2023-01-20 14:44:21 GMT 46.495285 17.823240 35,975 308 440 -64
2023-01-20 14:44:18 GMT 46.490616 17.832216 35,975 308 440 -64
2023-01-20 14:44:15 GMT 46.487484 17.838158 35,975 308 440 -64
2023-01-20 14:44:11 GMT 46.482826 17.847084 35,975 308 440 -64
2023-01-20 14:44:08 GMT 46.477844 17.856602 36,000 308 440 -64
2023-01-20 14:44:03 GMT 46.472809 17.866180 36,000 308 440 -64
2023-01-20 14:43:59 GMT 46.468735 17.873953 36,000 308 440 -64
2023-01-20 14:43:55 GMT 46.462440 17.886017 36,000 308 441 -64
2023-01-20 14:43:51 GMT 46.457062 17.896193 36,000 308 441 -64
2023-01-20 14:43:47 GMT 46.449963 17.909706 36,000 308 441 0
2023-01-20 14:43:44 GMT 46.449963 17.909706 36,000 308 441 0
2023-01-20 14:43:40 GMT 46.443680 17.921654 36,025 308 441 -64
2023-01-20 14:43:37 GMT 46.441116 17.926598 36,025 308 441 -64
2023-01-20 14:43:34 GMT 46.437195 17.933975 36,025 308 441 -64
2023-01-20 14:43:31 GMT 46.433853 17.940338 36,025 308 441 -64
2023-01-20 14:43:28 GMT 46.430054 17.947575 36,025 308 442 -64
2023-01-20 14:43:25 GMT 46.426918 17.953583 36,025 308 442 -64
2023-01-20 14:43:22 GMT 46.421566 17.963676 36,025 308 442 -64
2023-01-20 14:43:19 GMT 46.419098 17.968414 36,025 308 442 -64
2023-01-20 14:43:16 GMT 46.413712 17.978657 36,025 308 442 -64
2023-01-20 14:43:12 GMT 46.409866 17.985958 36,025 308 442 0
2023-01-20 14:43:09 GMT 46.406109 17.993134 36,025 308 443 0
2023-01-20 14:43:06 GMT 46.403229 17.998688 36,025 308 443 0
2023-01-20 14:43:03 GMT 46.399384 18.005989 36,025 308 443 0
2023-01-20 14:43:00 GMT 46.395676 18.013023 36,025 308 443 0
2023-01-20 14:42:57 GMT 46.391922 18.020124 36,025 308 443 0
2023-01-20 14:42:54 GMT 46.387676 18.028221 36,025 308 444 -64
2023-01-20 14:42:51 GMT 46.384090 18.035088 36,025 308 444 0
2023-01-20 14:42:48 GMT 46.380974 18.040993 36,025 308 444 0
2023-01-20 14:42:45 GMT 46.375854 18.050804 36,025 308 444 0
2023-01-20 14:42:42 GMT 46.373199 18.055893 36,050 308 444 0
2023-01-20 14:42:39 GMT 46.367661 18.066414 36,025 308 445 0
2023-01-20 14:42:35 GMT 46.363953 18.073515 36,050 308 445 0
2023-01-20 14:42:32 GMT 46.358906 18.083084 36,050 308 444 0
2023-01-20 14:42:29 GMT 46.352669 18.094894 36,050 308 445 0
2023-01-20 14:42:26 GMT 46.352669 18.094894 36,050 308 446 0
2023-01-20 14:42:22 GMT 46.344772 18.109957 36,025 308 446 0
2023-01-20 14:42:19 GMT 46.344772 18.109957 36,025 308 446 0
2023-01-20 14:42:16 GMT 46.340332 18.118309 36,025 308 446 0
2023-01-20 14:42:12 GMT 46.335213 18.127991 36,025 308 446 0
2023-01-20 14:42:09 GMT 46.332504 18.133137 36,025 308 447 64
2023-01-20 14:42:06 GMT 46.323853 18.149414 36,025 308 447 0
2023-01-20 14:42:02 GMT 46.323853 18.149414 36,025 308 447 64
2023-01-20 14:41:59 GMT 46.319477 18.157585 36,025 308 447 0
2023-01-20 14:41:56 GMT 46.315384 18.165291 36,025 308 447 0
2023-01-20 14:41:53 GMT 46.310623 18.174267 36,025 308 447 0
2023-01-20 14:41:48 GMT 46.304348 18.186012 36,025 308 448 0
2023-01-20 14:41:44 GMT 46.301086 18.192192 36,025 308 448 0
2023-01-20 14:41:41 GMT 46.295036 18.203522 36,025 308 448 0
2023-01-20 14:41:38 GMT 46.292084 18.209103 36,025 308 448 0
2023-01-20 14:41:35 GMT 46.289474 18.214127 36,025 308 448 0
2023-01-20 14:41:32 GMT 46.285122 18.222267 36,025 308 448 0
2023-01-20 14:41:29 GMT 46.281143 18.229734 36,025 308 448 0
2023-01-20 14:41:25 GMT 46.271763 18.247398 36,025 308 448 0
2023-01-20 14:41:22 GMT 46.271763 18.247398 36,025 308 448 0
2023-01-20 14:41:17 GMT 46.265987 18.258316 36,025 308 448 0
2023-01-20 14:41:14 GMT 46.262543 18.264702 36,025 308 448 0
2023-01-20 14:41:11 GMT 46.258713 18.271938 36,025 308 447 0
2023-01-20 14:41:07 GMT 46.252628 18.283379 36,025 308 447 0
2023-01-20 14:41:04 GMT 46.248642 18.290831 36,025 308 447 128
2023-01-20 14:41:00 GMT 46.240665 18.305901 36,025 308 447 64
2023-01-20 14:40:57 GMT 46.240665 18.305901 36,025 308 447 128
2023-01-20 14:40:54 GMT 46.238068 18.310726 36,025 308 447 128
2023-01-20 14:40:51 GMT 46.232983 18.320320 36,000 308 447 128
2023-01-20 14:40:48 GMT 46.229782 18.326334 36,000 308 447 64
2023-01-20 14:40:45 GMT 46.224884 18.335579 36,000 308 447 64
2023-01-20 14:40:42 GMT 46.220718 18.343349 36,000 308 447 64
2023-01-20 14:40:39 GMT 46.218643 18.347237 36,000 308 447 64
2023-01-20 14:40:35 GMT 46.212799 18.358221 35,975 308 447 64
2023-01-20 14:40:31 GMT 46.208633 18.366058 35,975 308 447 64
2023-01-20 14:40:28 GMT 46.199432 18.383274 35,975 308 447 64
2023-01-20 14:40:24 GMT 46.199432 18.383274 35,975 308 447 0
2023-01-20 14:40:21 GMT 46.195633 18.390375 35,975 308 447 0
2023-01-20 14:40:18 GMT 46.192436 18.396400 35,975 308 447 0
2023-01-20 14:40:15 GMT 46.187714 18.405249 35,975 308 447 0
2023-01-20 14:40:12 GMT 46.183731 18.412674 35,975 308 447 0
2023-01-20 14:40:09 GMT 46.176086 18.426886 35,975 308 447 0
2023-01-20 14:40:03 GMT 46.173569 18.431576 35,975 308 447 0
2023-01-20 14:39:59 GMT 46.168304 18.441490 35,975 308 445 0
2023-01-20 14:39:56 GMT 46.163433 18.450508 35,975 308 445 0
2023-01-20 14:39:52 GMT 46.158405 18.459915 35,975 308 445 0
2023-01-20 14:39:49 GMT 46.156403 18.463692 35,975 308 445 0
2023-01-20 14:39:46 GMT 46.152557 18.470831 35,975 308 445 0
2023-01-20 14:39:43 GMT 46.148491 18.478455 35,975 308 444 0
2023-01-20 14:39:40 GMT 46.144135 18.486507 35,975 308 444 0
2023-01-20 14:39:36 GMT 46.139511 18.495148 35,975 308 444 0
2023-01-20 14:39:32 GMT 46.134705 18.504059 35,975 308 444 0
2023-01-20 14:39:29 GMT 46.127289 18.517859 35,975 308 445 0
2023-01-20 14:39:26 GMT 46.127289 18.517859 35,975 308 445 0
2023-01-20 14:39:23 GMT 46.122841 18.526176 35,975 308 445 0
2023-01-20 14:39:19 GMT 46.118225 18.534739 35,975 308 444 0
2023-01-20 14:39:16 GMT 46.114136 18.542313 35,975 308 444 0
2023-01-20 14:39:13 GMT 46.110168 18.549679 35,975 308 444 0
2023-01-20 14:39:08 GMT 46.102386 18.564215 35,975 308 444 0
2023-01-20 14:39:05 GMT 46.100960 18.566895 35,975 308 444 0
2023-01-20 14:39:02 GMT 46.096680 18.574860 35,975 308 444 0
2023-01-20 14:38:59 GMT 46.092819 18.581966 35,975 308 444 0
2023-01-20 14:38:55 GMT 46.088486 18.590034 35,975 308 444 0
2023-01-20 14:38:52 GMT 46.083435 18.599520 35,975 308 444 0
2023-01-20 14:38:49 GMT 46.079132 18.607424 35,975 308 444 0
2023-01-20 14:38:45 GMT 46.075169 18.614822 35,975 308 444 0
2023-01-20 14:38:42 GMT 46.070934 18.622719 35,975 308 444 0
2023-01-20 14:38:38 GMT 46.064602 18.634392 35,975 308 444 0
2023-01-20 14:38:35 GMT 46.062740 18.637894 35,975 308 444 0
2023-01-20 14:38:32 GMT 46.058456 18.645859 35,975 308 444 64
2023-01-20 14:38:28 GMT 46.053200 18.655678 35,975 308 444 0
2023-01-20 14:38:25 GMT 46.049801 18.661995 35,975 308 444 0
2023-01-20 14:38:22 GMT 46.046028 18.668999 35,975 308 445 0
2023-01-20 14:38:18 GMT 46.041744 18.676964 35,975 308 445 0
2023-01-20 14:38:15 GMT 46.032063 18.694748 35,975 308 445 0
2023-01-20 14:38:12 GMT 46.032063 18.694748 35,975 308 445 0
2023-01-20 14:38:08 GMT 46.029190 18.700136 35,975 308 445 0
2023-01-20 14:38:04 GMT 46.023651 18.710386 35,975 308 445 0
2023-01-20 14:38:01 GMT 46.016602 18.723450 35,975 308 445 0
2023-01-20 14:37:58 GMT 46.016602 18.723450 35,975 308 445 -64
2023-01-20 14:37:54 GMT 46.010651 18.734436 35,975 308 445 -64
2023-01-20 14:37:51 GMT 46.006832 18.741577 35,975 308 445 -64
2023-01-20 14:37:48 GMT 46.001953 18.750513 35,975 308 445 -64
2023-01-20 14:37:44 GMT 45.996918 18.759892 35,975 308 445 -64
2023-01-20 14:37:41 GMT 45.994122 18.764992 35,975 308 445 -64
2023-01-20 14:37:36 GMT 45.988037 18.776171 36,000 308 445 0
2023-01-20 14:37:31 GMT 45.981789 18.787720 36,000 308 446 0
2023-01-20 14:37:28 GMT 45.977875 18.794930 36,000 308 446 0
2023-01-20 14:37:25 GMT 45.974197 18.801659 36,000 308 446 0
2023-01-20 14:37:22 GMT 45.971172 18.807289 36,000 308 446 0
2023-01-20 14:37:19 GMT 45.965492 18.817657 36,000 308 446 0
2023-01-20 14:37:15 GMT 45.961761 18.824671 36,000 308 446 -64
2023-01-20 14:37:11 GMT 45.956406 18.834452 36,000 308 446 -64
2023-01-20 14:37:08 GMT 45.952377 18.841955 36,000 308 446 -64
2023-01-20 14:37:05 GMT 45.949059 18.848145 36,000 308 446 -64
2023-01-20 14:37:01 GMT 45.943241 18.858856 36,000 308 446 -64
2023-01-20 14:36:58 GMT 45.939148 18.866472 36,000 308 446 -64
2023-01-20 14:36:54 GMT 45.935886 18.872452 36,025 308 446 -64
2023-01-20 14:36:50 GMT 45.930347 18.882751 36,025 308 447 0
2023-01-20 14:36:47 GMT 45.925873 18.891058 36,025 308 447 -64
2023-01-20 14:36:43 GMT 45.917770 18.906063 36,025 308 447 0
2023-01-20 14:36:40 GMT 45.917770 18.906063 36,025 308 447 0
2023-01-20 14:36:37 GMT 45.913914 18.913170 36,025 308 447 0
2023-01-20 14:36:34 GMT 45.910675 18.919127 36,025 308 448 0
2023-01-20 14:36:30 GMT 45.903904 18.931709 36,025 308 449 -64
2023-01-20 14:36:25 GMT 45.898224 18.942104 36,025 308 448 -64
2023-01-20 14:36:22 GMT 45.894966 18.948051 36,025 308 449 0
2023-01-20 14:36:18 GMT 45.889797 18.957664 36,025 308 449 -64
2023-01-20 14:36:14 GMT 45.884819 18.966866 36,025 308 449 -64
2023-01-20 14:36:10 GMT 45.879410 18.976805 36,050 308 449 0
2023-01-20 14:36:07 GMT 45.869038 18.995979 36,050 308 450 0
2023-01-20 14:36:02 GMT 45.869038 18.995979 36,050 309 450 0
2023-01-20 14:35:58 GMT 45.864166 19.004740 36,050 310 450 0
2023-01-20 14:35:54 GMT 45.858124 19.014990 36,050 313 452 0
2023-01-20 14:35:51 GMT 45.855118 19.019737 36,025 314 454 0
2023-01-20 14:35:48 GMT 45.850044 19.027359 36,050 316 454 0
2023-01-20 14:35:44 GMT 45.843887 19.036091 36,050 317 454 0
2023-01-20 14:35:41 GMT 45.839195 19.042397 36,050 319 456 0
2023-01-20 14:35:38 GMT 45.834686 19.048082 36,050 320 456 0
2023-01-20 14:35:33 GMT 45.827499 19.056992 36,050 320 456 64
2023-01-20 14:35:29 GMT 45.820129 19.066036 36,025 320 457 64
2023-01-20 14:35:26 GMT 45.814106 19.073364 36,025 320 457 64
2023-01-20 14:35:22 GMT 45.810013 19.078428 36,025 320 458 64
2023-01-20 14:35:19 GMT 45.803421 19.086468 36,025 320 458 64
2023-01-20 14:35:15 GMT 45.798111 19.092964 36,025 320 458 64
2023-01-20 14:35:11 GMT 45.791061 19.101606 36,025 320 458 64
2023-01-20 14:35:07 GMT 45.785431 19.108507 36,025 320 458 64
2023-01-20 14:35:02 GMT 45.777748 19.117859 36,025 320 458 64
2023-01-20 14:34:59 GMT 45.770920 19.126192 36,000 320 458 64
2023-01-20 14:34:56 GMT 45.767532 19.130280 36,000 320 458 64
2023-01-20 14:34:52 GMT 45.760895 19.138317 36,000 320 459 64
2023-01-20 14:34:49 GMT 45.755634 19.144707 36,000 320 459 0
2023-01-20 14:34:46 GMT 45.750793 19.150612 36,000 320 459 0
2023-01-20 14:34:43 GMT 45.746017 19.156338 36,000 320 459 0
2023-01-20 14:34:40 GMT 45.741253 19.162148 36,000 320 459 0
2023-01-20 14:34:36 GMT 45.733749 19.171276 36,000 320 458 0
2023-01-20 14:34:33 GMT 45.724228 19.182865 36,000 320 458 0
2023-01-20 14:34:29 GMT 45.724228 19.182865 36,000 320 458 0
2023-01-20 14:34:26 GMT 45.718460 19.189899 36,000 320 458 0
2023-01-20 14:34:23 GMT 45.713608 19.195795 36,000 320 458 0
2023-01-20 14:34:20 GMT 45.709038 19.201355 36,000 320 458 0
2023-01-20 14:34:17 GMT 45.705093 19.206179 36,000 320 458 0
2023-01-20 14:34:14 GMT 45.699417 19.213011 36,000 320 456 0
2023-01-20 14:34:11 GMT 45.695251 19.218102 36,000 320 458 0
2023-01-20 14:34:08 GMT 45.689392 19.225250 36,000 320 456 0
2023-01-20 14:34:05 GMT 45.682388 19.233711 36,000 320 456 0
2023-01-20 14:34:01 GMT 45.678177 19.238802 36,000 320 456 0
2023-01-20 14:33:58 GMT 45.672409 19.245836 36,000 320 456 0
2023-01-20 14:33:55 GMT 45.667419 19.251865 36,000 320 456 0
2023-01-20 14:33:51 GMT 45.662811 19.257385 36,000 320 456 0
2023-01-20 14:33:47 GMT 45.655594 19.266174 36,000 320 456 0
2023-01-20 14:33:43 GMT 45.649841 19.273102 36,000 320 456 0
2023-01-20 14:33:39 GMT 45.642700 19.281761 36,000 320 456 0
2023-01-20 14:33:35 GMT 45.636658 19.289045 36,000 320 456 0
2023-01-20 14:33:30 GMT 45.627136 19.300501 36,000 320 456 0
2023-01-20 14:33:27 GMT 45.622402 19.306274 36,000 320 456 0
2023-01-20 14:33:22 GMT 45.616444 19.313484 36,000 320 456 0
2023-01-20 14:33:19 GMT 45.606400 19.325621 36,000 320 456 0
2023-01-20 14:33:16 GMT 45.606400 19.325621 36,000 320 456 0
2023-01-20 14:33:13 GMT 45.601410 19.331650 36,000 320 456 0
2023-01-20 14:33:10 GMT 45.590374 19.344933 35,975 320 456 0
2023-01-20 14:33:06 GMT 45.590374 19.344933 36,000 320 456 0
2023-01-20 14:33:00 GMT 45.579987 19.357508 35,975 320 457 0
2023-01-20 14:32:57 GMT 45.574173 19.364542 35,975 320 457 0
2023-01-20 14:32:53 GMT 45.567516 19.372604 35,975 320 457 0
2023-01-20 14:32:49 GMT 45.563232 19.377739 36,000 320 457 -64
2023-01-20 14:32:46 GMT 45.557369 19.384827 36,000 320 456 -64
2023-01-20 14:32:41 GMT 45.550621 19.392998 36,000 320 456 -64
2023-01-20 14:32:38 GMT 45.544010 19.400986 36,000 320 456 0
2023-01-20 14:32:34 GMT 45.530323 19.417530 36,000 320 456 0
2023-01-20 14:32:29 GMT 45.530323 19.417530 36,000 320 456 0
2023-01-20 14:32:25 GMT 45.524223 19.424900 36,000 320 456 0
2023-01-20 14:32:22 GMT 45.519974 19.430040 36,000 320 456 0
2023-01-20 14:32:18 GMT 45.513470 19.437897 36,000 320 456 0
2023-01-20 14:32:15 GMT 45.507839 19.444662 36,000 320 456 0
2023-01-20 14:32:12 GMT 45.504044 19.449266 36,000 320 455 0
2023-01-20 14:32:07 GMT 45.495392 19.459663 36,000 320 456 0
2023-01-20 14:32:04 GMT 45.491127 19.464827 36,000 320 456 0
2023-01-20 14:32:01 GMT 45.484329 19.472933 36,000 320 456 0
2023-01-20 14:31:57 GMT 45.478558 19.479898 36,000 320 456 0
2023-01-20 14:31:52 GMT 45.469116 19.491184 36,000 320 456 0
2023-01-20 14:31:48 GMT 45.464127 19.497135 36,000 320 456 0
2023-01-20 14:31:44 GMT 45.457748 19.504820 36,000 320 456 0
2023-01-20 14:31:41 GMT 45.451721 19.512047 36,000 320 456 0
2023-01-20 14:31:37 GMT 45.447414 19.517212 36,000 320 456 0
2023-01-20 14:31:33 GMT 45.439919 19.526190 36,000 320 456 0
2023-01-20 14:31:30 GMT 45.433319 19.534149 36,000 320 456 64
2023-01-20 14:31:25 GMT 45.427505 19.541080 36,000 320 456 64
2023-01-20 14:31:22 GMT 45.422180 19.547491 36,000 320 456 64
2023-01-20 14:31:19 GMT 45.417435 19.553185 36,000 320 456 0
2023-01-20 14:31:14 GMT 45.409054 19.563234 36,000 320 456 0
2023-01-20 14:31:11 GMT 45.404480 19.568743 36,000 320 456 64
2023-01-20 14:31:08 GMT 45.399696 19.574421 36,000 320 456 64
2023-01-20 14:31:04 GMT 45.389008 19.587315 35,975 320 456 64
2023-01-20 14:31:01 GMT 45.389008 19.587315 35,975 320 456 64
2023-01-20 14:30:57 GMT 45.382938 19.594519 35,975 320 456 0
2023-01-20 14:30:54 GMT 45.370926 19.608894 35,975 320 456 0
2023-01-20 14:30:50 GMT 45.370926 19.608894 35,975 320 456 0
2023-01-20 14:30:46 GMT 45.363434 19.617899 35,975 320 456 0
2023-01-20 14:30:43 GMT 45.359894 19.622185 36,000 320 456 0
2023-01-20 14:30:40 GMT 45.347324 19.637259 36,000 320 456 -64
2023-01-20 14:30:36 GMT 45.347324 19.637259 36,000 320 456 0
2023-01-20 14:30:33 GMT 45.343872 19.641397 36,000 320 456 -64
2023-01-20 14:30:29 GMT 45.338017 19.648445 36,000 320 456 -64
2023-01-20 14:30:25 GMT 45.330288 19.657757 36,000 320 456 0
2023-01-20 14:30:20 GMT 45.321259 19.668543 36,000 320 456 0
2023-01-20 14:30:16 GMT 45.316498 19.674225 36,000 320 456 0
2023-01-20 14:30:13 GMT 45.310783 19.681068 36,000 320 456 0
2023-01-20 14:30:09 GMT 45.305012 19.688036 36,000 320 456 0
2023-01-20 14:30:06 GMT 45.300171 19.693796 36,000 320 456 0
2023-01-20 14:30:03 GMT 45.296307 19.698420 36,000 320 457 0
2023-01-20 14:29:59 GMT 45.288532 19.707664 36,000 320 457 0
2023-01-20 14:29:54 GMT 45.280060 19.717777 36,000 320 457 -64
2023-01-20 14:29:50 GMT 45.274471 19.724411 36,000 321 457 -64
2023-01-20 14:29:47 GMT 45.270237 19.729368 36,000 321 457 -64
2023-01-20 14:29:44 GMT 45.258087 19.743771 36,000 321 457 -64
2023-01-20 14:29:41 GMT 45.258087 19.743771 36,000 321 457 -64
2023-01-20 14:29:38 GMT 45.254688 19.747791 36,000 321 457 0
2023-01-20 14:29:32 GMT 45.238628 19.766748 36,000 321 457 64
2023-01-20 14:29:28 GMT 45.238628 19.766748 36,000 321 457 64
2023-01-20 14:29:24 GMT 45.231831 19.774788 36,000 321 457 64
2023-01-20 14:29:20 GMT 45.225361 19.782492 36,000 321 457 0
2023-01-20 14:29:16 GMT 45.218052 19.791065 36,000 321 457 0
2023-01-20 14:29:12 GMT 45.211861 19.798368 36,000 321 457 0
2023-01-20 14:29:09 GMT 45.208462 19.802387 36,000 321 457 0
2023-01-20 14:29:03 GMT 45.198593 19.814045 36,000 321 457 64
2023-01-20 14:29:00 GMT 45.192352 19.821413 36,000 321 457 0
2023-01-20 14:28:57 GMT 45.189102 19.825287 36,000 321 457 0
2023-01-20 14:28:54 GMT 45.182419 19.833134 36,000 321 457 0
2023-01-20 14:28:51 GMT 45.178482 19.837826 36,000 321 457 0
2023-01-20 14:28:47 GMT 45.173218 19.844055 36,000 321 457 0
2023-01-20 14:28:42 GMT 45.164291 19.854584 36,000 321 457 0
2023-01-20 14:28:38 GMT 45.156555 19.863684 36,000 321 457 0
2023-01-20 14:28:35 GMT 45.151386 19.869846 36,000 321 457 -64
2023-01-20 14:28:32 GMT 45.147903 19.873941 36,000 321 457 -64
2023-01-20 14:28:28 GMT 45.140587 19.882574 36,000 321 457 -64
2023-01-20 14:28:24 GMT 45.134350 19.890011 36,000 321 457 0
2023-01-20 14:28:21 GMT 45.128723 19.896566 36,000 321 457 -64
2023-01-20 14:28:16 GMT 45.121582 19.905003 36,000 321 457 -64
2023-01-20 14:28:13 GMT 45.116409 19.911150 36,000 321 457 -64
2023-01-20 14:28:09 GMT 45.109489 19.919285 36,000 321 457 -64
2023-01-20 14:28:03 GMT 45.101067 19.929266 36,025 321 457 0
2023-01-20 14:28:01 GMT 45.096909 19.934170 36,025 321 457 0
2023-01-20 14:27:57 GMT 45.091335 19.940788 36,000 321 457 0
2023-01-20 14:27:52 GMT 45.083515 19.949966 36,025 321 457 0
2023-01-20 14:27:50 GMT 45.079464 19.954721 36,000 321 457 0
2023-01-20 14:27:47 GMT 45.075230 19.959747 36,000 321 457 0
2023-01-20 14:27:44 GMT 45.069221 19.966780 36,000 321 457 0
2023-01-20 14:27:41 GMT 45.057819 19.980179 36,000 321 458 0
2023-01-20 14:27:37 GMT 45.057819 19.980179 36,025 321 457 0
2023-01-20 14:27:34 GMT 45.052929 19.985872 36,000 321 458 0
2023-01-20 14:27:31 GMT 45.048798 19.990801 36,025 321 458 0
2023-01-20 14:27:28 GMT 45.043060 19.997461 36,025 321 457 0
2023-01-20 14:27:23 GMT 45.036255 20.005514 36,025 321 457 0
2023-01-20 14:27:19 GMT 45.029327 20.013605 36,025 321 457 0
2023-01-20 14:27:13 GMT 45.014339 20.031225 36,025 321 458 0
2023-01-20 14:27:10 GMT 45.008797 20.037724 36,025 321 458 0
2023-01-20 14:27:07 GMT 45.008797 20.037724 36,025 321 459 0
2023-01-20 14:27:03 GMT 45.002468 20.045158 36,025 321 459 0
2023-01-20 14:27:00 GMT 44.998230 20.050116 36,025 321 459 -64
2023-01-20 14:26:57 GMT 44.993156 20.056078 36,025 321 459 0
2023-01-20 14:26:54 GMT 44.987686 20.062473 36,025 321 458 0
2023-01-20 14:26:51 GMT 44.981369 20.069929 36,025 321 458 0
2023-01-20 14:26:47 GMT 44.976864 20.075171 36,025 321 457 0
2023-01-20 14:26:44 GMT 44.971436 20.081635 36,025 321 458 0
2023-01-20 14:26:40 GMT 44.965393 20.088697 36,025 321 459 64
2023-01-20 14:26:37 GMT 44.959545 20.095535 36,025 321 459 64
2023-01-20 14:26:32 GMT 44.951118 20.105383 36,025 321 459 64
2023-01-20 14:26:29 GMT 44.948593 20.108381 36,025 321 459 64
2023-01-20 14:26:26 GMT 44.943439 20.114359 36,025 321 459 64
2023-01-20 14:26:23 GMT 44.935684 20.123487 36,000 321 459 64
2023-01-20 14:26:19 GMT 44.931709 20.128159 36,000 321 460 0
2023-01-20 14:26:14 GMT 44.922134 20.139313 36,000 321 460 0
2023-01-20 14:26:10 GMT 44.917324 20.144974 36,000 321 460 0
2023-01-20 14:26:07 GMT 44.911835 20.151344 36,000 321 460 0
2023-01-20 14:26:04 GMT 44.902615 20.162123 36,000 321 459 0
2023-01-20 14:25:58 GMT 44.895256 20.170765 36,000 321 459 0
2023-01-20 14:25:54 GMT 44.889450 20.177504 36,000 321 459 0
2023-01-20 14:25:50 GMT 44.882874 20.185234 36,000 321 458 0
2023-01-20 14:25:47 GMT 44.878918 20.189857 36,000 321 458 0
2023-01-20 14:25:42 GMT 44.872650 20.197187 36,000 321 459 0
2023-01-20 14:25:36 GMT 44.860886 20.210855 36,000 321 459 0
2023-01-20 14:25:32 GMT 44.855408 20.217255 36,000 321 458 64
2023-01-20 14:25:26 GMT 44.845261 20.228979 36,000 321 458 64
2023-01-20 14:25:23 GMT 44.840370 20.234739 36,000 321 458 0
2023-01-20 14:25:21 GMT 44.835949 20.239832 36,000 321 458 0
2023-01-20 14:25:16 GMT 44.829025 20.247934 36,000 321 457 0
2023-01-20 14:25:12 GMT 44.821701 20.256435 36,000 321 458 0
2023-01-20 14:25:07 GMT 44.812489 20.267229 36,000 321 457 64
2023-01-20 14:25:03 GMT 44.807461 20.273125 36,000 321 457 64
2023-01-20 14:25:00 GMT 44.803299 20.277950 35,975 321 458 0
2023-01-20 14:24:56 GMT 44.796112 20.286320 36,000 321 458 0
2023-01-20 14:24:52 GMT 44.788788 20.294823 36,000 321 458 -64
2023-01-20 14:24:46 GMT 44.779110 20.306084 36,000 321 458 -64
2023-01-20 14:24:42 GMT 44.774277 20.311628 36,000 321 456 -64
2023-01-20 14:24:36 GMT 44.762741 20.325100 36,000 321 456 0
2023-01-20 14:24:33 GMT 44.758987 20.329414 36,000 321 456 0
2023-01-20 14:24:31 GMT 44.755096 20.333927 36,000 321 456 0
2023-01-20 14:24:23 GMT 44.742615 20.348354 36,000 321 456 0
2023-01-20 14:24:21 GMT 44.738422 20.353245 36,000 321 456 0
2023-01-20 14:24:16 GMT 44.729691 20.363356 36,000 321 456 0
2023-01-20 14:24:13 GMT 44.726364 20.367180 36,000 321 456 0
2023-01-20 14:24:10 GMT 44.721405 20.372969 36,000 321 456 0
2023-01-20 14:24:05 GMT 44.712868 20.382854 36,000 321 456 0
2023-01-20 14:24:02 GMT 44.708084 20.388403 36,000 321 457 0
2023-01-20 14:24:00 GMT 44.704765 20.392300 36,000 321 456 0
2023-01-20 14:23:52 GMT 44.692757 20.406301 36,000 321 455 0
2023-01-20 14:23:49 GMT 44.686981 20.412991 36,000 321 456 0
2023-01-20 14:23:45 GMT 44.680370 20.420635 36,000 321 455 0
2023-01-20 14:23:42 GMT 44.675529 20.426264 36,000 321 455 0
2023-01-20 14:23:33 GMT 44.660400 20.443815 36,000 321 455 0
2023-01-20 14:23:28 GMT 44.650997 20.454735 36,000 321 455 0
2023-01-20 14:23:24 GMT 44.646515 20.459879 36,000 321 455 64
2023-01-20 14:23:21 GMT 44.635666 20.472500 36,000 321 455 0
2023-01-20 14:23:17 GMT 44.635666 20.472500 36,000 321 455 0
2023-01-20 14:23:13 GMT 44.628094 20.481262 36,000 321 456 0
2023-01-20 14:23:11 GMT 44.624130 20.485905 36,000 321 456 0
2023-01-20 14:23:03 GMT 44.611130 20.500946 36,000 321 456 0
2023-01-20 14:23:00 GMT 44.598724 20.515202 36,000 321 456 0
2023-01-20 14:22:55 GMT 44.598724 20.515202 36,000 321 456 0
2023-01-20 14:22:52 GMT 44.594578 20.519981 36,000 321 456 0
2023-01-20 14:22:49 GMT 44.588245 20.527285 36,000 321 456 0
2023-01-20 14:22:43 GMT 44.575024 20.542423 36,000 321 456 0
2023-01-20 14:22:37 GMT 44.570389 20.547770 36,000 321 456 0
2023-01-20 14:22:32 GMT 44.557159 20.562876 36,000 321 456 0
2023-01-20 14:22:30 GMT 44.557159 20.562876 36,000 321 456 0
2023-01-20 14:22:22 GMT 44.546265 20.575432 36,000 321 455 0
2023-01-20 14:22:20 GMT 44.543091 20.579067 36,000 321 455 0
2023-01-20 14:22:12 GMT 44.529648 20.594526 36,000 321 456 0
2023-01-20 14:22:02 GMT 44.512691 20.614037 36,000 321 455 0
2023-01-20 14:21:59 GMT 44.505707 20.622074 36,000 321 455 0
2023-01-20 14:21:54 GMT 44.499378 20.629377 36,000 321 455 -64
2023-01-20 14:21:51 GMT 44.494583 20.634874 36,000 321 455 -64
2023-01-20 14:21:47 GMT 44.487946 20.642591 36,000 321 454 -64
2023-01-20 14:21:42 GMT 44.480709 20.650881 36,000 321 454 0
2023-01-20 14:21:40 GMT 44.477371 20.654690 36,000 321 454 0
2023-01-20 14:21:35 GMT 44.470001 20.663206 36,000 321 454 0
2023-01-20 14:21:32 GMT 44.464275 20.669704 36,000 321 454 0
2023-01-20 14:21:29 GMT 44.458782 20.676003 36,000 321 454 0
2023-01-20 14:21:20 GMT 44.444118 20.692682 36,000 321 455 64
2023-01-20 14:21:12 GMT 44.431736 20.706818 36,000 321 454 0
2023-01-20 14:21:08 GMT 44.425034 20.714388 36,000 321 454 0
2023-01-20 14:21:02 GMT 44.415257 20.725574 36,000 321 454 0
2023-01-20 14:20:57 GMT 44.407379 20.734602 36,000 321 454 0
2023-01-20 14:20:52 GMT 44.398270 20.744999 36,000 321 455 64
2023-01-20 14:20:47 GMT 44.390678 20.753643 36,000 321 455 0
2023-01-20 14:20:42 GMT 44.382477 20.763048 36,000 321 455 0
2023-01-20 14:20:40 GMT 44.379364 20.766581 36,000 321 455 64
2023-01-20 14:20:34 GMT 44.369293 20.778090 36,000 321 455 0
2023-01-20 14:20:31 GMT 44.365307 20.782648 36,000 321 455 0
2023-01-20 14:20:26 GMT 44.356693 20.792564 36,000 321 455 64
2023-01-20 14:20:22 GMT 44.349201 20.801071 36,000 321 455 64
2023-01-20 14:20:15 GMT 44.330952 20.821905 36,000 321 455 0
2023-01-20 14:20:11 GMT 44.330952 20.821905 36,000 321 455 -64
2023-01-20 14:20:02 GMT 44.316471 20.838451 36,000 321 454 64
2023-01-20 14:19:58 GMT 44.312099 20.843409 36,000 321 454 0
2023-01-20 14:19:54 GMT 44.304790 20.851784 35,975 321 454 0
2023-01-20 14:19:51 GMT 44.300365 20.856741 35,975 321 454 0
2023-01-20 14:19:48 GMT 44.295273 20.862579 36,000 321 454 0
2023-01-20 14:19:44 GMT 44.288086 20.870687 35,975 321 454 0
2023-01-20 14:19:41 GMT 44.284119 20.875229 35,975 321 454 64
2023-01-20 14:19:34 GMT 44.271835 20.889194 35,975 321 453 0
2023-01-20 14:19:31 GMT 44.267735 20.893919 35,975 321 454 0
2023-01-20 14:19:24 GMT 44.255447 20.907833 35,975 321 453 0
2023-01-20 14:19:21 GMT 44.251556 20.912279 35,975 321 453 0
2023-01-20 14:19:11 GMT 44.235352 20.930721 35,975 321 453 0
2023-01-20 14:19:01 GMT 44.218140 20.950274 35,975 321 453 0
2023-01-20 14:18:51 GMT 44.202118 20.968519 35,975 321 453 -64
2023-01-20 14:18:41 GMT 44.185730 20.987080 36,000 321 452 0
2023-01-20 14:18:31 GMT 44.169228 21.005663 35,975 321 452 0
2023-01-20 14:18:21 GMT 44.153091 21.023935 35,975 322 452 0
2023-01-20 14:18:10 GMT 44.135147 21.044056 36,000 322 453 0
2023-01-20 14:18:00 GMT 44.120022 21.060923 36,000 322 454 0
2023-01-20 14:17:50 GMT 44.103470 21.079506 36,000 322 453 0
2023-01-20 14:17:41 GMT 44.087494 21.097391 36,000 321 454 0
2023-01-20 14:17:31 GMT 44.068726 21.118469 36,000 322 453 0
2023-01-20 14:17:19 GMT 44.035671 21.155483 36,000 321 454 0
2023-01-20 14:17:09 GMT 44.035671 21.155483 36,000 321 454 0
2023-01-20 14:17:00 GMT 44.021393 21.171486 36,000 322 455 0
2023-01-20 14:16:49 GMT 43.988525 21.208277 36,025 322 455 -64
2023-01-20 14:16:40 GMT 43.988525 21.208277 36,025 321 455 -64
2023-01-20 14:16:35 GMT 43.981155 21.216579 36,025 321 455 0
2023-01-20 14:16:30 GMT 43.969288 21.229902 36,025 321 456 0
2023-01-20 14:16:18 GMT 43.953087 21.248081 36,025 321 455 0
2023-01-20 14:16:10 GMT 43.938515 21.264496 36,025 321 456 64
2023-01-20 14:16:06 GMT 43.933441 21.270185 36,000 321 457 64
2023-01-20 14:15:59 GMT 43.920826 21.284309 36,000 321 457 0
2023-01-20 14:15:55 GMT 43.915890 21.289869 36,000 321 457 0
2023-01-20 14:15:49 GMT 43.905697 21.301249 36,000 322 457 0
2023-01-20 14:15:39 GMT 43.874176 21.336407 36,000 322 457 -64
2023-01-20 14:15:30 GMT 43.874176 21.336407 36,000 322 457 0
2023-01-20 14:15:28 GMT 43.871620 21.339243 36,025 322 458 0
2023-01-20 14:15:19 GMT 43.841175 21.373182 36,000 322 457 -64
2023-01-20 14:15:10 GMT 43.841175 21.373182 36,025 322 457 0
2023-01-20 14:15:04 GMT 43.830551 21.385015 36,000 322 457 0
2023-01-20 14:15:00 GMT 43.824142 21.392170 36,000 322 457 64
2023-01-20 14:14:58 GMT 43.821575 21.394958 36,000 322 457 0
2023-01-20 14:14:49 GMT 43.807098 21.411112 36,000 322 457 0
2023-01-20 14:14:46 GMT 43.801514 21.417389 36,000 322 457 0
2023-01-20 14:14:39 GMT 43.790665 21.429487 36,000 322 457 -64
2023-01-20 14:14:35 GMT 43.781982 21.439117 36,025 322 457 -64
2023-01-20 14:14:30 GMT 43.774372 21.447601 36,025 322 457 0
2023-01-20 14:14:28 GMT 43.772644 21.449528 36,025 322 457 0
2023-01-20 14:14:20 GMT 43.758316 21.465433 36,025 322 457 0
2023-01-20 14:14:17 GMT 43.754959 21.469181 36,025 322 457 0
2023-01-20 14:14:09 GMT 43.741013 21.484594 36,025 322 458 0
2023-01-20 14:14:06 GMT 43.735245 21.490982 36,025 322 457 64
2023-01-20 14:14:00 GMT 43.722244 21.505419 36,000 322 458 0
2023-01-20 14:13:58 GMT 43.718948 21.509060 36,000 322 458 0
2023-01-20 14:13:50 GMT 43.708878 21.520237 36,000 322 458 0
2023-01-20 14:13:46 GMT 43.702972 21.526815 36,025 322 458 0
2023-01-20 14:13:40 GMT 43.691940 21.539080 36,000 322 458 64
2023-01-20 14:13:38 GMT 43.689369 21.541901 36,000 322 458 64
2023-01-20 14:13:34 GMT 43.684021 21.547831 36,000 322 457 64
2023-01-20 14:13:28 GMT 43.672989 21.560030 36,000 322 457 0
2023-01-20 14:13:24 GMT 43.666790 21.566881 36,000 322 457 0
2023-01-20 14:13:18 GMT 43.656326 21.578426 36,000 322 456 -64
2023-01-20 14:13:15 GMT 43.652126 21.583035 36,000 322 456 -64
2023-01-20 14:13:09 GMT 43.642319 21.593884 36,000 322 456 -64
2023-01-20 14:13:05 GMT 43.635590 21.601294 36,025 322 455 0
2023-01-20 14:12:59 GMT 43.620892 21.617561 36,025 322 455 0
2023-01-20 14:12:55 GMT 43.619263 21.619328 36,025 322 455 0
2023-01-20 14:12:48 GMT 43.605946 21.634043 36,025 322 456 0
2023-01-20 14:12:40 GMT 43.593704 21.647474 36,025 322 454 0
2023-01-20 14:12:37 GMT 43.588623 21.653095 36,025 322 454 0
2023-01-20 14:12:33 GMT 43.583603 21.658630 36,025 322 454 0
2023-01-20 14:12:27 GMT 43.572941 21.670336 36,000 322 454 64
2023-01-20 14:12:25 GMT 43.569260 21.674429 36,000 322 454 64
2023-01-20 14:12:19 GMT 43.559875 21.684711 36,000 322 455 64
2023-01-20 14:12:16 GMT 43.555618 21.689440 36,000 322 455 0
2023-01-20 14:12:13 GMT 43.550537 21.694996 36,000 322 455 0
2023-01-20 14:12:09 GMT 43.542984 21.703300 36,000 322 455 0
2023-01-20 14:12:06 GMT 43.538261 21.708462 36,000 322 455 0
2023-01-20 14:12:01 GMT 43.530857 21.716570 36,025 322 454 0
2023-01-20 14:11:58 GMT 43.521828 21.726444 36,000 322 454 0
2023-01-20 14:11:54 GMT 43.519592 21.728849 36,000 322 454 0
2023-01-20 14:11:49 GMT 43.509350 21.740112 36,000 322 453 -64
2023-01-20 14:11:45 GMT 43.503845 21.746159 36,000 322 453 0
2023-01-20 14:11:42 GMT 43.498505 21.752014 36,000 322 453 0
2023-01-20 14:11:39 GMT 43.488682 21.762804 36,000 322 453 0
2023-01-20 14:11:32 GMT 43.483421 21.768559 36,025 322 453 0
2023-01-20 14:11:28 GMT 43.475739 21.776995 36,025 322 453 0
2023-01-20 14:11:26 GMT 43.473087 21.779873 36,025 322 453 0
2023-01-20 14:11:24 GMT 43.469688 21.783665 36,025 322 453 0
2023-01-20 14:11:18 GMT 43.459442 21.794830 36,025 322 453 0
2023-01-20 14:11:14 GMT 43.453487 21.801388 36,025 322 452 0
2023-01-20 14:11:12 GMT 43.449532 21.805702 36,025 322 452 0
2023-01-20 14:11:08 GMT 43.443054 21.812780 36,025 322 452 0
2023-01-20 14:11:06 GMT 43.439568 21.816559 36,025 322 452 0
2023-01-20 14:11:02 GMT 43.433258 21.823446 36,025 322 453 0
2023-01-20 14:10:59 GMT 43.427418 21.829834 36,025 322 452 0
2023-01-20 14:10:56 GMT 43.423279 21.834370 36,025 322 452 0
2023-01-20 14:10:53 GMT 43.418434 21.839643 36,025 322 452 0
2023-01-20 14:10:48 GMT 43.409588 21.849321 36,025 322 452 0
2023-01-20 14:10:43 GMT 43.402313 21.857237 36,025 322 452 0
2023-01-20 14:10:39 GMT 43.394669 21.865667 36,025 322 451 0
2023-01-20 14:10:35 GMT 43.389011 21.871883 36,025 322 451 64
2023-01-20 14:10:33 GMT 43.386200 21.874992 36,000 322 451 64
2023-01-20 14:10:29 GMT 43.378262 21.883654 36,000 322 451 64
2023-01-20 14:10:26 GMT 43.374863 21.887381 36,025 322 451 0
2023-01-20 14:10:23 GMT 43.369926 21.892744 36,000 322 451 0
2023-01-20 14:10:19 GMT 43.362671 21.900669 36,000 322 451 64
2023-01-20 14:10:15 GMT 43.352097 21.912231 36,000 322 450 0
2023-01-20 14:10:12 GMT 43.352097 21.912231 36,000 322 450 0
2023-01-20 14:10:09 GMT 43.346138 21.918707 36,000 322 450 0
2023-01-20 14:10:06 GMT 43.342300 21.922897 36,000 322 450 0
2023-01-20 14:09:59 GMT 43.329895 21.936377 36,000 322 449 0
2023-01-20 14:09:57 GMT 43.326725 21.939829 36,000 322 449 0
2023-01-20 14:09:52 GMT 43.319962 21.947233 36,000 322 449 0
2023-01-20 14:09:49 GMT 43.313461 21.954325 36,000 322 449 0
2023-01-20 14:09:45 GMT 43.306458 21.961926 36,000 322 449 0
2023-01-20 14:09:42 GMT 43.303207 21.965439 36,000 322 449 0
2023-01-20 14:09:36 GMT 43.291904 21.977757 36,000 322 449 0
2023-01-20 14:09:32 GMT 43.287277 21.982813 36,000 322 449 0
2023-01-20 14:09:28 GMT 43.280685 21.989986 36,000 322 449 0
2023-01-20 14:09:25 GMT 43.275742 21.995396 36,000 322 449 0
2023-01-20 14:09:22 GMT 43.270584 22.000973 36,000 322 449 0
2023-01-20 14:09:16 GMT 43.260269 22.012131 36,000 322 448 0
2023-01-20 14:09:12 GMT 43.253586 22.019348 36,000 322 448 0
2023-01-20 14:09:05 GMT 43.241814 22.032101 36,000 322 449 0
2023-01-20 14:09:01 GMT 43.237015 22.037296 36,000 322 449 0
2023-01-20 14:08:56 GMT 43.227264 22.047899 36,000 322 448 0
2023-01-20 14:08:54 GMT 43.225616 22.049623 36,000 322 448 0
2023-01-20 14:08:51 GMT 43.220821 22.054857 36,000 322 448 0
2023-01-20 14:08:48 GMT 43.215000 22.061201 36,000 322 448 0
2023-01-20 14:08:44 GMT 43.209366 22.067253 36,000 322 448 0
2023-01-20 14:08:41 GMT 43.204514 22.072556 36,000 322 448 0
2023-01-20 14:08:37 GMT 43.198196 22.079390 36,000 322 448 0
2023-01-20 14:08:35 GMT 43.194305 22.083670 36,000 322 447 0
2023-01-20 14:08:31 GMT 43.188263 22.090120 36,000 322 447 0
2023-01-20 14:08:27 GMT 43.182182 22.096710 36,000 322 447 0
2023-01-20 14:08:23 GMT 43.174484 22.105066 36,000 322 447 0
2023-01-20 14:08:21 GMT 43.171803 22.107958 36,000 322 447 0
2023-01-20 14:08:18 GMT 43.166016 22.114201 36,000 322 447 0
2023-01-20 14:08:15 GMT 43.154800 22.126272 36,000 322 447 0
2023-01-20 14:08:11 GMT 43.154800 22.126272 36,000 322 447 64
2023-01-20 14:08:08 GMT 43.150269 22.131191 36,000 322 447 64
2023-01-20 14:08:05 GMT 43.144196 22.137777 36,000 322 447 0
2023-01-20 14:08:03 GMT 43.141663 22.140453 36,000 322 447 0
2023-01-20 14:08:01 GMT 43.138412 22.143967 36,000 322 447 0
2023-01-20 14:07:58 GMT 43.133629 22.149157 36,000 322 447 0
2023-01-20 14:07:56 GMT 43.128414 22.154781 35,975 322 447 0
2023-01-20 14:07:53 GMT 43.122269 22.161451 35,975 322 447 0
2023-01-20 14:07:51 GMT 43.122269 22.161451 35,975 322 447 0
2023-01-20 14:07:48 GMT 43.117493 22.166641 36,000 322 447 0
2023-01-20 14:07:45 GMT 43.112354 22.172176 36,000 322 447 0
2023-01-20 14:07:43 GMT 43.105743 22.179369 36,000 322 447 0
2023-01-20 14:07:41 GMT 43.105743 22.179369 36,000 322 447 0
2023-01-20 14:07:38 GMT 43.101181 22.184275 36,000 322 447 0
2023-01-20 14:07:35 GMT 43.095566 22.190338 36,000 322 447 0
2023-01-20 14:07:31 GMT 43.089569 22.196791 36,000 322 447 0
2023-01-20 14:07:28 GMT 43.084934 22.201799 36,000 322 447 0
2023-01-20 14:07:24 GMT 43.078743 22.208405 36,000 322 447 0
2023-01-20 14:07:18 GMT 43.068100 22.219849 36,000 322 447 0
2023-01-20 14:07:15 GMT 43.062927 22.225470 36,000 322 447 0
2023-01-20 14:07:12 GMT 43.058716 22.230005 35,975 322 447 -64
2023-01-20 14:07:08 GMT 43.051788 22.237440 36,000 322 447 -64
2023-01-20 14:07:04 GMT 43.039856 22.250254 36,000 322 447 0
2023-01-20 14:06:58 GMT 43.035683 22.254704 36,000 322 447 -64
2023-01-20 14:06:53 GMT 43.023670 22.267588 36,000 322 446 -64
2023-01-20 14:06:48 GMT 43.019714 22.271841 36,000 322 447 -64
2023-01-20 14:06:44 GMT 43.013103 22.278900 36,000 322 446 -64
2023-01-20 14:06:40 GMT 43.008263 22.284132 36,000 322 446 -64
2023-01-20 14:06:38 GMT 43.003326 22.289408 36,000 322 446 -64
2023-01-20 14:06:34 GMT 42.997555 22.295576 36,000 322 446 -64
2023-01-20 14:06:32 GMT 42.994621 22.298716 36,000 322 446 0
2023-01-20 14:06:30 GMT 42.990509 22.303204 36,000 322 446 0
2023-01-20 14:06:27 GMT 42.986618 22.307356 36,000 322 446 -64
2023-01-20 14:06:22 GMT 42.978195 22.316425 36,025 322 445 -64
2023-01-20 14:06:17 GMT 42.970322 22.324873 36,025 322 445 0
2023-01-20 14:06:12 GMT 42.962631 22.333097 36,025 322 445 0
2023-01-20 14:06:10 GMT 42.959476 22.336514 36,025 322 445 0
2023-01-20 14:06:07 GMT 42.954449 22.341875 36,025 322 445 0
2023-01-20 14:06:02 GMT 42.946426 22.350471 36,025 322 446 0
2023-01-20 14:05:59 GMT 42.941116 22.356155 36,025 322 446 0
2023-01-20 14:05:56 GMT 42.936905 22.360691 36,025 322 446 0
2023-01-20 14:05:51 GMT 42.927074 22.371172 36,025 322 445 0
2023-01-20 14:05:47 GMT 42.921864 22.376732 36,025 322 445 0
2023-01-20 14:05:42 GMT 42.913010 22.386112 36,025 322 445 0
2023-01-20 14:05:37 GMT 42.905010 22.394714 36,000 322 445 0
2023-01-20 14:05:32 GMT 42.888840 22.411919 36,000 322 445 64
2023-01-20 14:05:27 GMT 42.888840 22.411919 36,000 322 445 0
2023-01-20 14:05:23 GMT 42.881313 22.419956 36,000 322 445 0
2023-01-20 14:05:19 GMT 42.875172 22.426561 36,000 322 445 0
2023-01-20 14:05:17 GMT 42.872097 22.429831 36,000 322 445 0
2023-01-20 14:05:13 GMT 42.864716 22.437723 36,000 322 445 64
2023-01-20 14:05:07 GMT 42.856503 22.446507 36,000 322 446 64
2023-01-20 14:05:04 GMT 42.851521 22.451868 36,000 322 446 64
2023-01-20 14:05:01 GMT 42.846169 22.457560 35,975 322 446 64
2023-01-20 14:04:57 GMT 42.840302 22.463772 35,975 322 446 64
2023-01-20 14:04:51 GMT 42.830017 22.474770 35,975 322 445 0
2023-01-20 14:04:46 GMT 42.822098 22.483265 35,975 322 445 0
2023-01-20 14:04:41 GMT 42.813812 22.492081 35,975 322 445 0
2023-01-20 14:04:37 GMT 42.807575 22.498722 35,975 322 445 0
2023-01-20 14:04:33 GMT 42.800964 22.505749 35,975 322 445 0
2023-01-20 14:04:31 GMT 42.797653 22.509300 35,975 322 444 0
2023-01-20 14:04:29 GMT 42.794403 22.512733 35,975 322 443 0
2023-01-20 14:04:26 GMT 42.788132 22.519476 35,975 322 444 0
2023-01-20 14:04:21 GMT 42.781738 22.526253 35,975 322 443 0
2023-01-20 14:04:17 GMT 42.775360 22.533085 35,975 322 443 64
2023-01-20 14:04:12 GMT 42.766937 22.542156 35,975 322 444 0
2023-01-20 14:04:09 GMT 42.763210 22.546118 35,975 322 444 0
2023-01-20 14:04:06 GMT 42.757507 22.552246 35,975 322 443 0
2023-01-20 14:04:01 GMT 42.748398 22.562174 35,975 322 444 0
2023-01-20 14:03:59 GMT 42.741165 22.569975 35,975 322 443 0
2023-01-20 14:03:56 GMT 42.741165 22.569975 35,975 322 443 0
2023-01-20 14:03:49 GMT 42.729366 22.582718 35,975 322 443 0
2023-01-20 14:03:46 GMT 42.725922 22.586454 35,975 322 443 0
2023-01-20 14:03:41 GMT 42.717957 22.595194 35,975 322 442 0
2023-01-20 14:03:37 GMT 42.710495 22.603434 35,975 321 442 0
2023-01-20 14:03:31 GMT 42.702133 22.612610 35,975 321 442 -64
2023-01-20 14:03:29 GMT 42.698090 22.617043 36,000 321 442 -64
2023-01-20 14:03:26 GMT 42.692917 22.622766 36,000 321 442 -64
2023-01-20 14:03:22 GMT 42.687744 22.628403 36,000 321 442 -64
2023-01-20 14:03:20 GMT 42.684490 22.632029 36,000 321 442 -64
2023-01-20 14:03:18 GMT 42.681564 22.635269 36,000 321 442 0
2023-01-20 14:03:16 GMT 42.678162 22.638990 36,000 322 443 0
2023-01-20 14:03:11 GMT 42.670258 22.647629 36,000 322 443 0
2023-01-20 14:03:09 GMT 42.665771 22.652498 36,000 322 443 0
2023-01-20 14:03:06 GMT 42.662659 22.655853 36,000 322 443 0
2023-01-20 14:03:02 GMT 42.655441 22.663645 36,000 323 443 64
2023-01-20 14:02:58 GMT 42.648560 22.670912 36,000 323 445 0
2023-01-20 14:02:55 GMT 42.645264 22.674282 36,000 323 445 0
2023-01-20 14:02:51 GMT 42.637287 22.682425 36,000 324 446 0
2023-01-20 14:02:48 GMT 42.632305 22.687407 36,000 325 447 0
2023-01-20 14:02:45 GMT 42.628628 22.690983 36,000 325 447 0
2023-01-20 14:02:41 GMT 42.620621 22.698521 36,000 326 449 -64
2023-01-20 14:02:35 GMT 42.611435 22.706930 36,000 327 449 -64
2023-01-20 14:02:30 GMT 42.602600 22.714920 36,000 327 449 -64
2023-01-20 14:02:25 GMT 42.594040 22.722666 36,025 327 449 -64
2023-01-20 14:02:21 GMT 42.586166 22.729776 36,025 327 449 0
2023-01-20 14:02:18 GMT 42.580029 22.735312 36,025 327 449 0
2023-01-20 14:02:15 GMT 42.576828 22.738203 36,025 327 449 0
2023-01-20 14:02:11 GMT 42.568359 22.745882 36,025 327 449 0
2023-01-20 14:02:05 GMT 42.559387 22.753996 36,000 327 450 0
2023-01-20 14:02:00 GMT 42.550095 22.762331 36,000 327 450 0
2023-01-20 14:01:55 GMT 42.541111 22.770443 36,000 327 450 0
2023-01-20 14:01:51 GMT 42.533989 22.776831 36,000 327 450 0
2023-01-20 14:01:49 GMT 42.531281 22.779278 36,000 327 450 0
2023-01-20 14:01:46 GMT 42.525421 22.784582 36,000 327 450 64
2023-01-20 14:01:43 GMT 42.520569 22.788954 36,025 327 450 64
2023-01-20 14:01:39 GMT 42.513180 22.795546 36,000 327 450 64
2023-01-20 14:01:35 GMT 42.506290 22.801805 36,000 327 450 64
2023-01-20 14:01:30 GMT 42.497360 22.809864 36,000 327 450 64
2023-01-20 14:01:25 GMT 42.488846 22.817480 36,000 327 450 64
2023-01-20 14:01:20 GMT 42.480125 22.825310 36,000 327 450 64
2023-01-20 14:01:17 GMT 42.475525 22.829403 36,000 327 450 64
2023-01-20 14:01:14 GMT 42.469887 22.834509 36,000 327 450 64
2023-01-20 14:01:10 GMT 42.460342 22.843067 36,000 327 450 -64
2023-01-20 14:01:04 GMT 42.453220 22.849392 36,000 327 449 -64
2023-01-20 14:01:00 GMT 42.445259 22.856544 36,000 327 449 -64
2023-01-20 14:00:58 GMT 42.442612 22.858992 36,000 327 449 -64
2023-01-20 14:00:54 GMT 42.435699 22.865171 36,000 327 449 -64
2023-01-20 14:00:48 GMT 42.424805 22.874971 36,000 327 448 0
2023-01-20 14:00:46 GMT 42.417389 22.881651 36,000 327 448 0
2023-01-20 14:00:38 GMT 42.408600 22.889578 36,000 327 448 0
2023-01-20 14:00:36 GMT 42.404060 22.893656 36,000 327 448 0
2023-01-20 14:00:34 GMT 42.401184 22.896257 36,000 327 447 0
2023-01-20 14:00:25 GMT 42.386650 22.909306 36,000 327 447 0
2023-01-20 14:00:23 GMT 42.383205 22.912434 36,000 327 447 0
2023-01-20 14:00:18 GMT 42.373894 22.920801 36,000 327 447 0
2023-01-20 14:00:15 GMT 42.365936 22.927893 36,000 327 447 64
2023-01-20 14:00:10 GMT 42.358978 22.934147 36,000 327 447 64
2023-01-20 14:00:06 GMT 42.352386 22.939953 36,000 327 447 64
2023-01-20 14:00:03 GMT 42.348011 22.943859 36,000 327 447 64
2023-01-20 14:00:00 GMT 42.341122 22.950056 36,000 327 447 64
2023-01-20 13:59:56 GMT 42.336609 22.954016 36,000 327 447 64
2023-01-20 13:59:53 GMT 42.329903 22.960020 35,975 327 447 64
2023-01-20 13:59:49 GMT 42.323776 22.965483 35,975 327 448 64
2023-01-20 13:59:46 GMT 42.318314 22.970304 35,975 327 448 64
2023-01-20 13:59:43 GMT 42.313145 22.974903 36,000 327 448 0
2023-01-20 13:59:39 GMT 42.299644 22.986975 35,975 327 448 0
2023-01-20 13:59:35 GMT 42.299644 22.986975 35,975 327 449 0
2023-01-20 13:59:33 GMT 42.295944 22.990265 35,975 327 449 -64
2023-01-20 13:59:28 GMT 42.288116 22.997255 36,000 327 449 -64
2023-01-20 13:59:26 GMT 42.283630 23.001251 36,000 327 450 -128
2023-01-20 13:59:23 GMT 42.278229 23.006058 36,000 327 450 -64
2023-01-20 13:59:18 GMT 42.269665 23.013676 36,000 327 450 0
2023-01-20 13:59:14 GMT 42.262802 23.019791 36,000 327 450 -64
2023-01-20 13:59:11 GMT 42.258316 23.023848 36,000 327 450 0
2023-01-20 13:59:08 GMT 42.252090 23.029404 36,000 327 450 -64
2023-01-20 13:59:05 GMT 42.247131 23.033794 36,000 327 450 -64
2023-01-20 13:59:02 GMT 42.241333 23.039017 36,000 327 450 -64
2023-01-20 13:58:58 GMT 42.234055 23.045509 36,025 327 449 0
2023-01-20 13:58:54 GMT 42.228149 23.050753 36,025 327 449 -64
2023-01-20 13:58:52 GMT 42.225723 23.052937 36,025 327 449 0
2023-01-20 13:58:48 GMT 42.217209 23.060490 36,025 327 449 -64
2023-01-20 13:58:44 GMT 42.211166 23.065859 36,025 327 449 -64
2023-01-20 13:58:42 GMT 42.207504 23.069103 36,025 327 449 -64
2023-01-20 13:58:37 GMT 42.199093 23.076591 36,025 327 449 -64
2023-01-20 13:58:34 GMT 42.193737 23.081381 36,025 327 449 -64
2023-01-20 13:58:32 GMT 42.184708 23.089365 36,050 327 450 -64
2023-01-20 13:58:29 GMT 42.184708 23.089365 36,050 327 449 -64
2023-01-20 13:58:25 GMT 42.177475 23.095758 36,050 327 450 -64
2023-01-20 13:58:22 GMT 42.172371 23.100288 36,050 327 450 -64
2023-01-20 13:58:18 GMT 42.165527 23.106371 36,050 327 450 -64
2023-01-20 13:58:16 GMT 42.161758 23.109741 36,050 327 450 -64
2023-01-20 13:58:12 GMT 42.155090 23.115671 36,050 327 450 -64
2023-01-20 13:58:05 GMT 42.142731 23.126657 36,050 327 451 0
2023-01-20 13:58:02 GMT 42.137512 23.131277 36,050 327 451 64
2023-01-20 13:57:57 GMT 42.128891 23.138931 36,050 327 452 0
2023-01-20 13:57:54 GMT 42.124702 23.142700 36,050 327 454 64
2023-01-20 13:57:51 GMT 42.118515 23.148193 36,050 327 452 0
2023-01-20 13:57:47 GMT 42.113201 23.152920 36,050 327 452 0
2023-01-20 13:57:44 GMT 42.107162 23.158243 36,050 327 452 0
2023-01-20 13:57:40 GMT 42.099934 23.164738 36,050 327 453 64
2023-01-20 13:57:38 GMT 42.096443 23.167803 36,050 327 453 0
2023-01-20 13:57:34 GMT 42.089275 23.174191 36,050 327 453 64
2023-01-20 13:57:31 GMT 42.083954 23.178905 36,025 327 453 64
2023-01-20 13:57:28 GMT 42.078941 23.183325 36,025 327 453 64
2023-01-20 13:57:24 GMT 42.071869 23.189579 36,025 327 453 64
2023-01-20 13:57:21 GMT 42.066559 23.194309 36,025 327 453 64
2023-01-20 13:57:18 GMT 42.061298 23.198973 36,025 327 453 64
2023-01-20 13:57:13 GMT 42.054127 23.205297 36,025 327 453 64
2023-01-20 13:57:11 GMT 42.048679 23.210087 36,025 327 453 0
2023-01-20 13:57:06 GMT 42.040375 23.217421 36,025 327 453 0
2023-01-20 13:57:01 GMT 42.025314 23.230717 36,025 327 452 0
2023-01-20 13:56:57 GMT 42.025314 23.230717 36,025 327 452 0
2023-01-20 13:56:54 GMT 42.019260 23.236019 36,000 327 451 64
2023-01-20 13:56:48 GMT 42.008598 23.245411 36,025 327 452 64
2023-01-20 13:56:44 GMT 42.001987 23.251286 36,000 327 451 0
2023-01-20 13:56:38 GMT 41.990753 23.261240 36,000 327 451 64
2023-01-20 13:56:34 GMT 41.984436 23.266796 36,000 327 451 64
2023-01-20 13:56:32 GMT 41.980019 23.270704 36,000 327 451 64
2023-01-20 13:56:28 GMT 41.973408 23.276516 36,000 327 451 0
2023-01-20 13:56:21 GMT 41.961723 23.286863 36,000 327 451 0
2023-01-20 13:56:17 GMT 41.954414 23.293316 36,000 327 450 -64
2023-01-20 13:56:13 GMT 41.948410 23.298569 36,000 327 450 0
2023-01-20 13:56:11 GMT 41.944824 23.301746 36,000 327 450 -64
2023-01-20 13:56:09 GMT 41.941517 23.304686 36,000 327 450 0
2023-01-20 13:56:03 GMT 41.931015 23.313925 36,000 327 449 0
2023-01-20 13:56:01 GMT 41.926762 23.317715 36,000 327 449 0
2023-01-20 13:55:59 GMT 41.924015 23.320143 36,000 327 449 0
2023-01-20 13:55:51 GMT 41.909363 23.333088 36,000 327 449 0
2023-01-20 13:55:49 GMT 41.906067 23.335960 36,000 327 448 64
2023-01-20 13:55:44 GMT 41.896454 23.344479 36,000 327 448 64
2023-01-20 13:55:41 GMT 41.892883 23.347570 36,000 327 448 64
2023-01-20 13:55:39 GMT 41.888397 23.351564 35,975 327 448 64
2023-01-20 13:55:33 GMT 41.878067 23.360575 35,975 327 449 0
2023-01-20 13:55:29 GMT 41.871002 23.366734 35,975 327 448 0
2023-01-20 13:55:25 GMT 41.863823 23.373030 35,975 327 448 0
2023-01-20 13:55:23 GMT 41.860332 23.376097 35,975 327 447 0
2023-01-20 13:55:18 GMT 41.853069 23.382420 35,975 327 447 0
2023-01-20 13:55:13 GMT 41.844036 23.390341 35,975 327 447 0
2023-01-20 13:55:09 GMT 41.836990 23.396446 35,975 327 448 0
2023-01-20 13:55:07 GMT 41.832504 23.400442 35,975 327 448 0
2023-01-20 13:55:04 GMT 41.827148 23.405125 35,975 327 448 0
2023-01-20 13:54:59 GMT 41.819504 23.411802 35,975 327 447 64
2023-01-20 13:54:56 GMT 41.815338 23.415422 35,975 327 447 64
2023-01-20 13:54:53 GMT 41.809029 23.421000 35,975 327 447 64
2023-01-20 13:54:48 GMT 41.800556 23.428410 35,975 327 447 64
2023-01-20 13:54:45 GMT 41.794785 23.433462 35,975 327 447 64
2023-01-20 13:54:42 GMT 41.790035 23.437670 35,975 327 446 0
2023-01-20 13:54:38 GMT 41.782516 23.444262 35,975 327 447 0
2023-01-20 13:54:34 GMT 41.774303 23.451468 35,975 327 447 -64
2023-01-20 13:54:27 GMT 41.763657 23.460743 35,975 327 446 0
2023-01-20 13:54:23 GMT 41.756519 23.466988 35,975 327 446 0
2023-01-20 13:54:17 GMT 41.747269 23.475037 35,975 327 445 0
2023-01-20 13:54:12 GMT 41.737526 23.483532 35,975 327 445 0
2023-01-20 13:54:06 GMT 41.727703 23.492090 35,975 327 445 0
2023-01-20 13:54:01 GMT 41.719276 23.499500 35,975 327 445 0
2023-01-20 13:53:56 GMT 41.711315 23.506399 35,975 327 445 0
2023-01-20 13:53:52 GMT 41.703644 23.513115 35,975 327 446 -64
2023-01-20 13:53:46 GMT 41.685562 23.528971 36,000 327 449 64
2023-01-20 13:53:41 GMT 41.685562 23.528971 35,975 327 446 -64
2023-01-20 13:53:32 GMT 41.668255 23.544147 36,000 327 446 -64
2023-01-20 13:53:26 GMT 41.659317 23.552006 36,000 327 446 0
2023-01-20 13:53:21 GMT 41.650909 23.559307 36,000 327 446 0
2023-01-20 13:53:16 GMT 41.641251 23.567734 36,000 327 446 0
2023-01-20 13:53:12 GMT 41.633606 23.574350 36,000 327 447 0
2023-01-20 13:53:06 GMT 41.624084 23.582653 36,000 327 449 64
2023-01-20 13:53:02 GMT 41.615250 23.590330 36,000 327 448 0
2023-01-20 13:52:56 GMT 41.606297 23.598122 36,000 327 449 64
2023-01-20 13:52:51 GMT 41.597775 23.605532 36,000 327 448 0
2023-01-20 13:52:45 GMT 41.587967 23.614052 36,000 327 448 0
2023-01-20 13:52:41 GMT 41.579716 23.621244 36,000 327 449 0
2023-01-20 13:52:35 GMT 41.560581 23.637852 35,975 327 449 64
2023-01-20 13:52:29 GMT 41.560581 23.637852 36,000 327 449 64
2023-01-20 13:52:24 GMT 41.552307 23.645075 35,975 327 449 64
2023-01-20 13:52:20 GMT 41.533539 23.661430 35,975 327 449 64
2023-01-20 13:52:14 GMT 41.526833 23.667297 35,975 327 450 64
2023-01-20 13:52:11 GMT 41.526833 23.667297 35,950 327 450 64
2023-01-20 13:52:04 GMT 41.517056 23.675793 35,950 327 451 64
2023-01-20 13:52:00 GMT 41.497696 23.692577 35,950 328 452 0
2023-01-20 13:51:53 GMT 41.497696 23.692577 35,950 328 451 0
2023-01-20 13:51:50 GMT 41.491310 23.698086 35,950 328 452 0
2023-01-20 13:51:44 GMT 41.480789 23.707155 35,950 328 453 -64
2023-01-20 13:51:39 GMT 41.472832 23.713989 35,975 328 453 -128
2023-01-20 13:51:34 GMT 41.463333 23.722164 35,975 328 453 -128
2023-01-20 13:51:29 GMT 41.454620 23.729595 36,000 328 453 -128
2023-01-20 13:51:23 GMT 41.436081 23.745449 36,000 328 454 -64
2023-01-20 13:51:19 GMT 41.436081 23.745449 36,000 328 454 -64
2023-01-20 13:51:13 GMT 41.426788 23.753401 36,000 326 454 0
2023-01-20 13:51:09 GMT 41.419621 23.759787 36,000 326 454 0
2023-01-20 13:51:02 GMT 41.408707 23.769920 36,000 325 454 0
2023-01-20 13:50:59 GMT 41.401886 23.776474 36,000 324 453 0
2023-01-20 13:50:52 GMT 41.391598 23.786806 36,000 321 452 256
2023-01-20 13:50:48 GMT 41.384766 23.793945 36,000 322 452 192
2023-01-20 13:50:42 GMT 41.375198 23.804260 35,950 321 452 320
2023-01-20 13:50:39 GMT 41.367966 23.812195 35,950 321 453 256
2023-01-20 13:50:32 GMT 41.358311 23.822729 35,950 321 452 0
2023-01-20 13:50:28 GMT 41.352028 23.829659 35,950 321 452 -64
2023-01-20 13:50:22 GMT 41.342102 23.840454 35,950 321 450 0
2023-01-20 13:50:18 GMT 41.335453 23.847759 35,950 321 450 0
2023-01-20 13:50:10 GMT 41.323151 23.861145 35,950 321 447 0
2023-01-20 13:50:07 GMT 41.318928 23.865801 35,950 321 448 0
2023-01-20 13:50:01 GMT 41.308777 23.876892 35,950 321 446 0
2023-01-20 13:49:57 GMT 41.302368 23.883850 35,950 321 446 0
2023-01-20 13:49:51 GMT 41.293045 23.893953 35,950 321 444 0
2023-01-20 13:49:48 GMT 41.285980 23.901672 35,950 321 444 0
2023-01-20 13:49:41 GMT 41.276520 23.911930 35,950 321 444 -64
2023-01-20 13:49:37 GMT 41.270142 23.918859 35,950 321 444 -64
2023-01-20 13:49:31 GMT 41.254082 23.936338 35,975 321 444 -192
2023-01-20 13:49:27 GMT 41.254082 23.936338 35,975 321 445 -128
2023-01-20 13:49:20 GMT 41.244072 23.947262 36,025 321 444 -128
2023-01-20 13:49:17 GMT 41.237457 23.954407 36,025 321 444 -128
2023-01-20 13:49:10 GMT 41.227406 23.965425 36,025 321 445 -64
2023-01-20 13:49:06 GMT 41.221355 23.972042 36,025 321 445 -192
2023-01-20 13:48:59 GMT 41.204727 23.990173 36,050 321 446 0
2023-01-20 13:48:56 GMT 41.204727 23.990173 36,025 321 446 0
2023-01-20 13:48:50 GMT 41.188614 24.007690 36,025 321 447 64
2023-01-20 13:48:46 GMT 41.188614 24.007690 36,025 321 447 64
2023-01-20 13:48:39 GMT 41.178761 24.018423 36,025 321 449 0
2023-01-20 13:48:36 GMT 41.172707 24.025040 36,025 321 448 -64
2023-01-20 13:48:29 GMT 41.161907 24.036713 36,025 321 449 0
2023-01-20 13:48:25 GMT 41.155483 24.043642 36,025 321 449 0
2023-01-20 13:48:19 GMT 41.146271 24.053650 36,025 321 449 64
2023-01-20 13:48:16 GMT 41.139679 24.060791 36,025 321 449 64
2023-01-20 13:48:09 GMT 41.129601 24.071608 36,000 321 449 64
2023-01-20 13:48:05 GMT 41.123177 24.078598 36,000 321 449 0
2023-01-20 13:47:58 GMT 41.112377 24.090271 36,000 321 450 0
2023-01-20 13:47:55 GMT 41.107208 24.095827 36,000 321 450 0
2023-01-20 13:47:48 GMT 41.096222 24.107687 36,000 321 451 0
2023-01-20 13:47:45 GMT 41.090012 24.114441 36,000 321 451 0
2023-01-20 13:47:38 GMT 41.079742 24.125477 36,000 321 451 -64
2023-01-20 13:47:34 GMT 41.072388 24.133423 36,025 321 451 0
2023-01-20 13:47:28 GMT 41.063644 24.142822 36,025 321 451 -64
2023-01-20 13:47:25 GMT 41.056931 24.150072 36,025 321 452 -64
2023-01-20 13:47:17 GMT 41.046616 24.161194 36,025 321 452 -64
2023-01-20 13:47:14 GMT 41.040218 24.168049 36,050 321 452 -64
2023-01-20 13:47:07 GMT 41.030304 24.178722 36,050 321 453 -64
2023-01-20 13:47:04 GMT 41.024368 24.185120 36,050 321 454 -64
2023-01-20 13:46:57 GMT 41.013794 24.196472 36,050 321 454 -64
2023-01-20 13:46:54 GMT 41.007294 24.203491 36,050 321 454 -64
2023-01-20 13:46:47 GMT 40.996719 24.214844 36,050 321 453 0
2023-01-20 13:46:43 GMT 40.980213 24.232594 36,050 321 453 -64
2023-01-20 13:46:37 GMT 40.980213 24.232594 36,050 321 453 0
2023-01-20 13:46:34 GMT 40.974537 24.238649 36,050 321 453 0
2023-01-20 13:46:26 GMT 40.963318 24.250696 36,050 321 453 64
2023-01-20 13:46:23 GMT 40.957672 24.256714 36,050 321 453 64
2023-01-20 13:46:16 GMT 40.946884 24.268299 36,050 321 453 0
2023-01-20 13:46:12 GMT 40.940598 24.275024 36,050 321 453 0
2023-01-20 13:46:05 GMT 40.929062 24.287415 36,050 321 453 64
2023-01-20 13:46:02 GMT 40.923607 24.293268 36,050 321 453 0
2023-01-20 13:45:57 GMT 40.915512 24.301880 36,025 321 453 128
2023-01-20 13:45:53 GMT 40.908051 24.309875 36,025 321 453 128
2023-01-20 13:45:45 GMT 40.896973 24.321716 36,000 321 453 128
2023-01-20 13:45:42 GMT 40.891022 24.328100 36,000 321 452 64
2023-01-20 13:45:35 GMT 40.880081 24.339905 36,000 321 452 0
2023-01-20 13:45:32 GMT 40.875145 24.345203 36,000 321 451 0
2023-01-20 13:45:25 GMT 40.863834 24.357376 36,000 321 450 0
2023-01-20 13:45:21 GMT 40.857689 24.363993 36,025 321 450 0
2023-01-20 13:45:14 GMT 40.846050 24.376415 36,000 321 449 0
2023-01-20 13:45:11 GMT 40.841171 24.381653 36,000 321 448 0
2023-01-20 13:45:05 GMT 40.830921 24.392645 36,000 321 448 0
2023-01-20 13:45:02 GMT 40.825287 24.398638 36,000 321 448 0
2023-01-20 13:44:54 GMT 40.814022 24.410685 36,000 321 448 0
2023-01-20 13:44:51 GMT 40.808304 24.416809 36,000 321 448 64
2023-01-20 13:44:44 GMT 40.797501 24.428345 36,000 321 447 64
2023-01-20 13:44:40 GMT 40.791870 24.434326 36,000 321 447 64
2023-01-20 13:44:35 GMT 40.783356 24.443420 36,000 321 447 64
2023-01-20 13:44:31 GMT 40.774338 24.453064 35,975 321 447 0
2023-01-20 13:44:24 GMT 40.765182 24.462830 35,975 321 447 -64
2023-01-20 13:44:20 GMT 40.758774 24.469666 36,000 322 448 0
2023-01-20 13:44:13 GMT 40.748474 24.480652 36,000 322 448 0
2023-01-20 13:44:07 GMT 40.734047 24.496016 36,000 322 448 0
2023-01-20 13:44:03 GMT 40.731720 24.498474 36,000 322 448 0
2023-01-20 13:44:00 GMT 40.724945 24.505676 36,000 322 448 -64
2023-01-20 13:43:53 GMT 40.715744 24.515442 36,000 322 448 0
2023-01-20 13:43:49 GMT 40.708397 24.523294 36,025 322 448 0
2023-01-20 13:43:42 GMT 40.698486 24.533813 36,025 322 449 -64
2023-01-20 13:43:39 GMT 40.691666 24.541016 36,025 322 450 -128
2023-01-20 13:43:32 GMT 40.681721 24.551634 36,025 322 452 -256
2023-01-20 13:43:29 GMT 40.674454 24.559265 36,050 322 453 -128
2023-01-20 13:43:22 GMT 40.665707 24.568487 36,050 322 453 0
2023-01-20 13:43:18 GMT 40.657375 24.577353 36,050 322 454 0
2023-01-20 13:43:12 GMT 40.648529 24.586653 36,050 322 454 0
2023-01-20 13:43:07 GMT 40.637009 24.598877 36,050 322 455 0
2023-01-20 13:43:02 GMT 40.632004 24.604195 36,050 322 455 64
2023-01-20 13:42:55 GMT 40.620041 24.616865 36,050 322 455 128
2023-01-20 13:42:50 GMT 40.613251 24.624023 36,025 322 453 192
2023-01-20 13:42:45 GMT 40.603233 24.634657 35,975 322 452 256
2023-01-20 13:42:41 GMT 40.593521 24.644958 35,950 321 453 192
2023-01-20 13:42:34 GMT 40.582890 24.656317 35,950 321 452 64
2023-01-20 13:42:28 GMT 40.570816 24.669189 35,925 321 450 64
2023-01-20 13:42:20 GMT 40.565060 24.675293 35,950 321 449 64
2023-01-20 13:42:10 GMT 40.546463 24.695007 35,950 321 446 0
2023-01-20 13:41:59 GMT 40.529728 24.712746 35,975 322 444 -64
2023-01-20 13:41:49 GMT 40.513687 24.729675 36,000 322 443 -64
2023-01-20 13:41:41 GMT 40.502029 24.741898 36,000 322 446 -64
2023-01-20 13:41:38 GMT 40.497299 24.746887 36,000 322 446 -64
2023-01-20 13:41:29 GMT 40.481003 24.764038 36,025 322 448 -192
2023-01-20 13:41:20 GMT 40.468513 24.777166 36,025 322 448 -128
2023-01-20 13:41:17 GMT 40.463425 24.782532 36,025 322 448 -64
2023-01-20 13:41:08 GMT 40.448215 24.798576 36,025 322 446 64
2023-01-20 13:41:00 GMT 40.436188 24.811157 36,000 322 447 64
2023-01-20 13:40:57 GMT 40.430374 24.817261 36,000 322 448 64
2023-01-20 13:40:48 GMT 40.414558 24.833845 36,000 322 449 0
2023-01-20 13:40:40 GMT 40.402733 24.846205 36,000 322 449 0
2023-01-20 13:40:37 GMT 40.398285 24.850891 36,000 322 448 64
2023-01-20 13:40:30 GMT 40.386536 24.863123 36,000 322 448 64
2023-01-20 13:40:27 GMT 40.381622 24.868286 36,000 322 447 64
2023-01-20 13:40:17 GMT 40.364933 24.885843 36,000 322 446 0
2023-01-20 13:40:06 GMT 40.348362 24.903259 36,000 322 445 0
2023-01-20 13:39:56 GMT 40.331554 24.920986 36,000 322 443 0
2023-01-20 13:39:49 GMT 40.320648 24.932495 36,000 322 441 0
2023-01-20 13:39:46 GMT 40.316025 24.937317 36,025 322 441 0
2023-01-20 13:39:39 GMT 40.305542 24.948364 36,000 322 441 64
2023-01-20 13:39:36 GMT 40.299500 24.954712 36,000 322 441 64
2023-01-20 13:39:32 GMT 40.294693 24.959717 36,000 322 442 64
2023-01-20 13:39:26 GMT 40.283203 24.971802 36,000 322 443 0
2023-01-20 13:39:23 GMT 40.279861 24.975281 36,000 322 445 -64
2023-01-20 13:39:16 GMT 40.267406 24.988340 36,000 322 446 -128
2023-01-20 13:39:08 GMT 40.256329 24.999889 36,025 322 445 -64
2023-01-20 13:39:05 GMT 40.250835 25.005632 36,025 322 446 -64
2023-01-20 13:39:01 GMT 40.245201 25.011499 36,025 322 446 -64
2023-01-20 13:38:55 GMT 40.233994 25.023132 36,050 322 450 -320
2023-01-20 13:38:46 GMT 40.219971 25.037779 36,050 322 451 -384
2023-01-20 13:38:43 GMT 40.214493 25.043457 36,050 322 452 0
2023-01-20 13:38:35 GMT 40.201347 25.057194 36,050 322 453 0
2023-01-20 13:38:27 GMT 40.188858 25.070251 36,050 322 453 0
2023-01-20 13:38:23 GMT 40.182354 25.076981 36,050 322 455 128
2023-01-20 13:38:14 GMT 40.167480 25.092468 36,025 322 455 64
2023-01-20 13:38:10 GMT 40.156769 25.103638 36,025 322 455 64
2023-01-20 13:38:06 GMT 40.154240 25.106256 36,025 322 454 64
2023-01-20 13:38:03 GMT 40.149956 25.110689 36,025 322 454 64
2023-01-20 13:37:54 GMT 40.133560 25.127686 36,025 322 454 64
2023-01-20 13:37:46 GMT 40.113831 25.148132 36,025 322 453 0
2023-01-20 13:37:41 GMT 40.113831 25.148132 36,025 322 453 0
2023-01-20 13:37:34 GMT 40.099819 25.162748 36,025 322 453 0
2023-01-20 13:37:30 GMT 40.089752 25.173218 36,050 322 453 -64
2023-01-20 13:37:23 GMT 40.083023 25.180176 36,050 322 453 -64
2023-01-20 13:37:15 GMT 40.070351 25.193398 36,050 322 452 0
2023-01-20 13:37:12 GMT 40.065929 25.197954 36,050 322 452 0
2023-01-20 13:37:08 GMT 40.060017 25.204073 36,025 322 452 0
2023-01-20 13:37:03 GMT 40.050381 25.214060 36,025 322 452 0
2023-01-20 13:37:00 GMT 40.045715 25.218933 36,025 322 451 0
2023-01-20 13:36:53 GMT 40.029190 25.236023 36,025 322 451 0
2023-01-20 13:36:45 GMT 40.021099 25.244396 36,025 322 451 64
2023-01-20 13:36:42 GMT 40.016212 25.249453 36,025 322 451 64
2023-01-20 13:36:38 GMT 40.009598 25.256287 36,025 322 451 64
2023-01-20 13:36:32 GMT 40.000076 25.266113 36,025 322 451 0
2023-01-20 13:36:28 GMT 39.993492 25.272924 36,025 322 451 0
2023-01-20 13:36:25 GMT 39.988419 25.278231 36,025 322 451 0
2023-01-20 13:36:22 GMT 39.983414 25.283325 36,000 322 451 64
2023-01-20 13:36:15 GMT 39.973568 25.293587 36,000 322 450 64
2023-01-20 13:36:11 GMT 39.966213 25.301140 36,000 322 449 64
2023-01-20 13:36:07 GMT 39.960346 25.307194 36,000 322 449 64
2023-01-20 13:36:02 GMT 39.949127 25.318806 35,975 322 448 64
2023-01-20 13:35:57 GMT 39.943447 25.324673 35,975 322 447 64
2023-01-20 13:35:53 GMT 39.937771 25.330540 35,975 322 446 64
2023-01-20 13:35:50 GMT 39.932602 25.335846 35,975 322 446 64
2023-01-20 13:35:46 GMT 39.926132 25.342525 35,975 322 446 64
2023-01-20 13:35:41 GMT 39.916588 25.352356 35,950 322 445 64
2023-01-20 13:35:37 GMT 39.910629 25.358459 35,950 322 444 64
2023-01-20 13:35:33 GMT 39.905411 25.363909 35,950 322 444 0
2023-01-20 13:35:30 GMT 39.899139 25.370358 35,950 322 444 0
2023-01-20 13:35:26 GMT 39.892365 25.377283 35,950 322 444 -64
2023-01-20 13:35:23 GMT 39.889160 25.380627 35,950 322 444 -64
2023-01-20 13:35:20 GMT 39.883209 25.386717 35,975 322 443 -128
2023-01-20 13:35:15 GMT 39.875153 25.395018 35,975 322 442 -64
2023-01-20 13:35:11 GMT 39.866917 25.403503 35,975 322 442 -64
2023-01-20 13:35:05 GMT 39.859314 25.411318 35,975 322 441 -64
2023-01-20 13:35:02 GMT 39.854965 25.415735 36,000 322 441 -64
2023-01-20 13:34:59 GMT 39.850250 25.420593 36,000 322 441 -64
2023-01-20 13:34:53 GMT 39.840012 25.431091 36,000 322 441 -64
2023-01-20 13:34:50 GMT 39.835281 25.435978 36,000 322 441 -64
2023-01-20 13:34:41 GMT 39.820908 25.450726 36,000 322 441 -128
2023-01-20 13:34:39 GMT 39.817841 25.453831 36,025 322 441 -128
2023-01-20 13:34:34 GMT 39.811295 25.460577 36,025 322 441 -64
2023-01-20 13:34:30 GMT 39.803284 25.468758 36,025 322 441 -64
2023-01-20 13:34:24 GMT 39.793854 25.478430 36,025 322 440 0
2023-01-20 13:34:20 GMT 39.787491 25.484997 36,025 322 440 0
2023-01-20 13:34:14 GMT 39.778141 25.494629 36,025 322 440 0
2023-01-20 13:34:10 GMT 39.766502 25.506592 36,025 322 440 0
2023-01-20 13:34:04 GMT 39.762360 25.510864 36,050 322 440 0
2023-01-20 13:34:01 GMT 39.757462 25.515926 36,050 322 440 0
2023-01-20 13:33:57 GMT 39.750351 25.523193 36,050 322 441 0
2023-01-20 13:33:53 GMT 39.745010 25.528704 36,050 322 441 0
2023-01-20 13:33:51 GMT 39.740845 25.533003 36,050 322 441 0
2023-01-20 13:33:48 GMT 39.736038 25.537899 36,050 322 441 0
2023-01-20 13:33:42 GMT 39.726051 25.548218 36,050 322 442 0
2023-01-20 13:33:39 GMT 39.721939 25.552408 36,025 322 442 0
2023-01-20 13:33:36 GMT 39.718231 25.556170 36,050 322 442 0
2023-01-20 13:33:33 GMT 39.712688 25.561829 36,050 322 442 0
2023-01-20 13:33:31 GMT 39.709339 25.565308 36,025 322 442 0
2023-01-20 13:33:26 GMT 39.702026 25.572769 36,025 322 442 64
2023-01-20 13:33:23 GMT 39.695938 25.578978 36,025 322 442 64
2023-01-20 13:33:21 GMT 39.692764 25.582214 36,025 322 442 64
2023-01-20 13:33:12 GMT 39.679047 25.596233 36,025 322 442 64
2023-01-20 13:33:10 GMT 39.676102 25.599243 36,025 322 442 0
2023-01-20 13:33:06 GMT 39.669678 25.605774 36,025 322 442 0
2023-01-20 13:33:03 GMT 39.662971 25.612671 36,025 322 440 0
2023-01-20 13:32:58 GMT 39.656406 25.619385 36,025 322 440 0
2023-01-20 13:32:53 GMT 39.647049 25.628895 36,025 322 440 -64
2023-01-20 13:32:49 GMT 39.642162 25.633850 36,025 322 440 -64
2023-01-20 13:32:40 GMT 39.627453 25.648865 36,025 322 439 0
2023-01-20 13:32:37 GMT 39.622658 25.653748 36,025 322 438 0
2023-01-20 13:32:29 GMT 39.610882 25.665771 36,025 322 437 128
2023-01-20 13:32:22 GMT 39.598846 25.677975 36,000 322 437 64
2023-01-20 13:32:19 GMT 39.594818 25.682068 36,000 322 437 64
2023-01-20 13:32:11 GMT 39.581413 25.695618 36,000 322 437 64
2023-01-20 13:32:08 GMT 39.577271 25.699829 36,000 322 437 64
2023-01-20 13:32:04 GMT 39.570938 25.706299 36,000 322 436 0
2023-01-20 13:32:01 GMT 39.565399 25.711914 36,000 322 435 0
2023-01-20 13:31:59 GMT 39.562046 25.715332 35,975 322 435 0
2023-01-20 13:31:50 GMT 39.548454 25.729187 36,000 322 435 0
2023-01-20 13:31:48 GMT 39.545380 25.732368 36,000 322 434 -64
2023-01-20 13:31:42 GMT 39.534348 25.743654 36,000 322 434 0
2023-01-20 13:31:37 GMT 39.515259 25.763119 36,025 322 433 0
2023-01-20 13:31:29 GMT 39.515259 25.763119 36,025 322 434 -64
2023-01-20 13:31:27 GMT 39.512146 25.766342 36,000 322 439 128
2023-01-20 13:31:20 GMT 39.500877 25.777832 36,025 322 433 -64
2023-01-20 13:31:16 GMT 39.494823 25.783875 36,025 322 435 -64
2023-01-20 13:31:11 GMT 39.486053 25.792793 36,025 322 436 0
2023-01-20 13:31:08 GMT 39.482849 25.796019 36,025 322 436 0
2023-01-20 13:31:06 GMT 39.478951 25.799927 36,000 323 437 64
2023-01-20 13:31:02 GMT 39.471455 25.807495 36,000 323 438 64
2023-01-20 13:30:58 GMT 39.465775 25.813213 36,000 322 439 128
2023-01-20 13:30:55 GMT 39.460831 25.818171 35,975 323 440 128
2023-01-20 13:30:51 GMT 39.454185 25.824951 35,975 323 440 128
2023-01-20 13:30:49 GMT 39.450645 25.828491 35,975 322 441 64
2023-01-20 13:30:46 GMT 39.446365 25.832798 35,975 322 441 64
2023-01-20 13:30:42 GMT 39.439056 25.840149 35,975 322 441 0
2023-01-20 13:30:39 GMT 39.435608 25.843664 35,975 322 442 0
2023-01-20 13:30:35 GMT 39.429657 25.849695 35,975 322 440 0
2023-01-20 13:30:30 GMT 39.419456 25.859985 36,000 322 440 0
2023-01-20 13:30:27 GMT 39.416061 25.863487 36,000 322 439 0
2023-01-20 13:30:24 GMT 39.411392 25.868145 36,000 322 437 0
2023-01-20 13:30:19 GMT 39.403473 25.876205 36,000 322 436 0
2023-01-20 13:30:15 GMT 39.397018 25.882751 36,000 322 436 0
2023-01-20 13:30:08 GMT 39.386078 25.893860 36,000 322 435 0
2023-01-20 13:30:03 GMT 39.377426 25.902597 36,000 322 435 0
2023-01-20 13:29:56 GMT 39.366943 25.913166 36,000 322 436 0
2023-01-20 13:29:53 GMT 39.362183 25.917942 36,000 322 436 0
2023-01-20 13:29:46 GMT 39.351585 25.928650 36,000 322 437 0
2023-01-20 13:29:43 GMT 39.345795 25.934542 36,000 322 438 0
2023-01-20 13:29:35 GMT 39.334122 25.946304 36,025 322 440 -384
2023-01-20 13:29:32 GMT 39.328491 25.951977 36,050 322 441 -448
2023-01-20 13:29:26 GMT 39.318512 25.962008 36,050 322 441 0
2023-01-20 13:29:22 GMT 39.311920 25.968636 36,075 323 442 0
2023-01-20 13:29:15 GMT 39.301758 25.978905 36,050 323 443 0
2023-01-20 13:29:12 GMT 39.295673 25.984985 36,050 323 443 0
2023-01-20 13:29:05 GMT 39.285667 25.995056 36,050 322 444 0
2023-01-20 13:29:02 GMT 39.279739 26.000996 36,050 322 444 -64
2023-01-20 13:28:55 GMT 39.268208 26.012634 36,050 322 443 0
2023-01-20 13:28:52 GMT 39.263367 26.017517 36,050 322 442 0
2023-01-20 13:28:44 GMT 39.251862 26.029119 36,050 322 440 64
2023-01-20 13:28:41 GMT 39.245865 26.035217 36,050 322 440 64
2023-01-20 13:28:35 GMT 39.236664 26.044464 36,025 322 438 128
2023-01-20 13:28:31 GMT 39.229935 26.051271 36,025 322 438 64
2023-01-20 13:28:25 GMT 39.220306 26.060974 36,025 323 437 64
2023-01-20 13:28:21 GMT 39.214005 26.067272 36,000 323 437 64
2023-01-20 13:28:11 GMT 39.198753 26.082520 36,000 323 436 0
2023-01-20 13:28:09 GMT 39.195511 26.085781 36,000 323 436 -64
2023-01-20 13:28:05 GMT 39.188419 26.092834 36,025 323 434 -64
2023-01-20 13:27:54 GMT 39.171066 26.110203 36,025 323 433 -64
2023-01-20 13:27:49 GMT 39.163467 26.117786 36,025 323 431 128
2023-01-20 13:27:38 GMT 39.146896 26.134325 36,025 323 431 128
2023-01-20 13:27:29 GMT 39.130741 26.150452 35,975 323 431 128
2023-01-20 13:27:26 GMT 39.127533 26.153671 35,975 323 431 192
2023-01-20 13:27:22 GMT 39.121010 26.160217 35,950 322 431 128
2023-01-20 13:27:17 GMT 39.113750 26.167480 35,975 322 431 0
2023-01-20 13:27:11 GMT 39.103695 26.177612 35,950 322 430 128
2023-01-20 13:27:08 GMT 39.099060 26.182211 35,950 322 430 128
2023-01-20 13:27:03 GMT 39.090912 26.190392 35,975 322 430 128
2023-01-20 13:26:56 GMT 39.080322 26.200989 35,950 322 429 0
2023-01-20 13:26:49 GMT 39.069351 26.212065 35,950 322 428 64
2023-01-20 13:26:47 GMT 39.066311 26.215149 35,950 322 428 0
2023-01-20 13:26:44 GMT 39.061066 26.220366 35,950 322 428 128
2023-01-20 13:26:37 GMT 39.049927 26.231567 35,950 322 428 0
2023-01-20 13:26:33 GMT 39.044151 26.237366 35,950 322 428 -64
2023-01-20 13:26:26 GMT 39.032887 26.248596 35,950 323 427 -64
2023-01-20 13:26:23 GMT 39.027767 26.253723 35,975 323 427 -64
2023-01-20 13:26:13 GMT 39.013000 26.268490 35,975 323 427 -128
2023-01-20 13:26:09 GMT 39.007332 26.274170 35,975 323 427 -128
2023-01-20 13:26:04 GMT 38.998905 26.282532 36,000 322 426 -128
2023-01-20 13:26:01 GMT 38.994900 26.286621 36,000 322 426 -128
2023-01-20 13:25:52 GMT 38.980316 26.301149 36,000 323 426 0
2023-01-20 13:25:46 GMT 38.970928 26.310547 36,000 323 426 -64
2023-01-20 13:25:42 GMT 38.964432 26.317034 36,000 323 427 0
2023-01-20 13:25:34 GMT 38.951885 26.329590 36,000 323 427 0
2023-01-20 13:25:32 GMT 38.949512 26.331909 36,000 323 428 64
2023-01-20 13:25:29 GMT 38.945602 26.335815 36,000 323 429 64
2023-01-20 13:25:24 GMT 38.937103 26.344318 36,000 323 429 64
2023-01-20 13:25:20 GMT 38.930191 26.351126 35,975 323 429 0
2023-01-20 13:25:13 GMT 38.919525 26.361753 35,975 323 429 0
2023-01-20 13:25:04 GMT 38.904778 26.376282 36,000 323 431 -64
2023-01-20 13:24:52 GMT 38.886433 26.394287 36,025 323 431 -192
2023-01-20 13:24:46 GMT 38.875122 26.405334 36,050 323 432 -128
2023-01-20 13:24:43 GMT 38.871304 26.409058 36,050 323 432 -128
2023-01-20 13:24:35 GMT 38.859852 26.420166 36,050 323 433 0
2023-01-20 13:24:32 GMT 38.854267 26.425598 36,025 323 432 0
2023-01-20 13:24:27 GMT 38.841602 26.437805 36,025 324 435 0
2023-01-20 13:24:19 GMT 38.833969 26.445107 36,025 324 435 0
2023-01-20 13:24:14 GMT 38.820602 26.457945 36,025 324 435 0
2023-01-20 13:24:09 GMT 38.817352 26.460989 36,025 324 435 -64
2023-01-20 13:23:59 GMT 38.801289 26.476318 36,025 323 435 128
2023-01-20 13:23:56 GMT 38.796524 26.480871 36,025 323 435 128
2023-01-20 13:23:48 GMT 38.778900 26.497803 36,025 323 435 64
2023-01-20 13:23:41 GMT 38.771805 26.504755 36,000 323 434 64
2023-01-20 13:23:35 GMT 38.757935 26.518787 36,000 321 434 64
2023-01-20 13:23:30 GMT 38.754501 26.522369 36,000 321 434 64
2023-01-20 13:23:27 GMT 38.750408 26.526733 36,000 321 433 64
2023-01-20 13:23:19 GMT 38.737095 26.541382 36,000 319 432 0
2023-01-20 13:23:08 GMT 38.721588 26.558851 35,975 319 431 64
2023-01-20 13:22:56 GMT 38.699062 26.584167 35,975 319 430 0
2023-01-20 13:22:48 GMT 38.691330 26.592825 35,975 319 430 0
2023-01-20 13:22:43 GMT 38.679703 26.605902 35,975 319 429 0
2023-01-20 13:22:37 GMT 38.674896 26.611216 36,000 319 429 0
2023-01-20 13:22:26 GMT 38.658981 26.628967 36,000 319 428 -64
2023-01-20 13:22:16 GMT 38.644363 26.645264 36,000 319 428 0
2023-01-20 13:22:04 GMT 38.621040 26.671265 36,000 319 428 0
2023-01-20 13:21:56 GMT 38.613731 26.679382 36,000 319 428 0
2023-01-20 13:21:51 GMT 38.602478 26.691940 36,000 319 429 0
2023-01-20 13:21:45 GMT 38.597992 26.696957 36,000 319 429 0
2023-01-20 13:21:34 GMT 38.581612 26.715210 36,000 319 429 0
2023-01-20 13:21:27 GMT 38.570251 26.727844 36,000 319 429 0
2023-01-20 13:21:24 GMT 38.566200 26.732361 36,000 319 429 0
2023-01-20 13:21:18 GMT 38.556660 26.742981 36,000 319 429 0
2023-01-20 13:21:14 GMT 38.551346 26.748903 36,000 319 429 0
2023-01-20 13:21:08 GMT 38.541779 26.759590 36,000 319 428 0
2023-01-20 13:21:04 GMT 38.536037 26.765991 36,000 319 428 0
2023-01-20 13:20:57 GMT 38.525024 26.778219 36,000 319 428 0
2023-01-20 13:20:55 GMT 38.518295 26.785683 36,000 319 428 0
2023-01-20 13:20:47 GMT 38.511688 26.793091 36,000 319 427 -64
2023-01-20 13:20:45 GMT 38.504288 26.801268 36,000 319 427 -64
2023-01-20 13:20:35 GMT 38.493813 26.812927 36,000 319 425 0
2023-01-20 13:20:33 GMT 38.490135 26.817017 36,000 319 424 -64
2023-01-20 13:20:27 GMT 38.481171 26.826941 36,000 320 423 64
2023-01-20 13:20:23 GMT 38.474865 26.833862 36,000 320 423 0
2023-01-20 13:20:14 GMT 38.461624 26.848436 36,000 320 423 0
2023-01-20 13:20:06 GMT 38.449867 26.861389 36,000 320 423 64
2023-01-20 13:20:02 GMT 38.445190 26.866528 35,975 320 422 64
2023-01-20 13:19:56 GMT 38.434937 26.877693 35,975 320 423 384
2023-01-20 13:19:53 GMT 38.431339 26.881714 35,950 320 423 640
2023-01-20 13:19:45 GMT 38.419468 26.894714 35,825 320 423 1216
2023-01-20 13:19:43 GMT 38.416580 26.897875 35,800 320 423 960
2023-01-20 13:19:34 GMT 38.403992 26.911770 35,700 320 423 448
2023-01-20 13:19:32 GMT 38.399734 26.916504 35,675 320 423 448
2023-01-20 13:19:25 GMT 38.384274 26.933521 35,575 320 422 832
2023-01-20 13:19:21 GMT 38.384274 26.933521 35,575 320 422 896
2023-01-20 13:19:15 GMT 38.374359 26.944387 35,450 320 423 1216
2023-01-20 13:19:10 GMT 38.367844 26.951612 35,350 319 424 1280
2023-01-20 13:19:05 GMT 38.359417 26.960926 35,225 319 425 1152
2023-01-20 13:19:03 GMT 38.356438 26.964272 35,150 319 426 1024
2023-01-20 13:19:00 GMT 38.352715 26.968390 35,150 319 427 1024
2023-01-20 13:18:54 GMT 38.343109 26.979033 35,050 319 427 768
2023-01-20 13:18:52 GMT 38.340912 26.981544 35,000 319 427 704
2023-01-20 13:18:48 GMT 38.334743 26.988453 35,000 319 427 704
2023-01-20 13:18:44 GMT 38.329575 26.994244 34,950 319 427 640
2023-01-20 13:18:42 GMT 38.325806 26.998550 34,925 319 427 576
2023-01-20 13:18:37 GMT 38.318573 27.006674 34,875 319 427 576
2023-01-20 13:18:34 GMT 38.314213 27.011620 34,850 319 427 512
2023-01-20 13:18:30 GMT 38.307907 27.018711 34,825 319 426 448
2023-01-20 13:18:27 GMT 38.304440 27.022606 34,800 319 426 512
2023-01-20 13:18:23 GMT 38.298752 27.028997 34,750 319 426 640
2023-01-20 13:18:20 GMT 38.294174 27.034140 34,675 319 426 1088
2023-01-20 13:18:17 GMT 38.288937 27.040039 34,650 319 426 1216
2023-01-20 13:18:13 GMT 38.282700 27.046967 34,575 319 427 1408
2023-01-20 13:18:09 GMT 38.277531 27.052757 34,350 319 428 1728
2023-01-20 13:18:04 GMT 38.269089 27.062132 34,275 319 430 2304
2023-01-20 13:18:01 GMT 38.265240 27.066431 34,075 319 432 2496
2023-01-20 13:17:56 GMT 38.257187 27.075397 33,950 319 437 2560
2023-01-20 13:17:53 GMT 38.251831 27.081299 33,800 319 438 2496
2023-01-20 13:17:50 GMT 38.248489 27.085039 33,700 319 443 2304
2023-01-20 13:17:46 GMT 38.242104 27.092167 33,550 319 444 2176
2023-01-20 13:17:43 GMT 38.237549 27.097252 33,450 319 446 1792
2023-01-20 13:17:39 GMT 38.231400 27.104048 33,350 319 448 1408
2023-01-20 13:17:33 GMT 38.222832 27.113602 33,250 319 449 896
2023-01-20 13:17:31 GMT 38.218178 27.118855 33,200 319 449 640
2023-01-20 13:17:27 GMT 38.214127 27.123392 33,175 319 449 448
2023-01-20 13:17:22 GMT 38.206352 27.132111 33,150 319 448 128
2023-01-20 13:17:19 GMT 38.200974 27.138100 33,150 319 447 64
2023-01-20 13:17:15 GMT 38.194248 27.145664 33,150 319 445 64
2023-01-20 13:17:13 GMT 38.191086 27.149204 33,150 319 444 64
2023-01-20 13:17:09 GMT 38.184723 27.156275 33,125 319 444 128
2023-01-20 13:17:02 GMT 38.170715 27.171879 33,100 319 442 256
2023-01-20 13:17:00 GMT 38.170715 27.171879 33,050 319 440 384
2023-01-20 13:16:57 GMT 38.165897 27.177311 33,050 319 440 384
2023-01-20 13:16:53 GMT 38.160461 27.183331 33,050 319 440 384
2023-01-20 13:16:49 GMT 38.154648 27.189817 33,000 319 439 640
2023-01-20 13:16:42 GMT 38.143135 27.202625 32,925 319 438 704
2023-01-20 13:16:38 GMT 38.132996 27.213894 32,850 319 437 640
2023-01-20 13:16:32 GMT 38.128281 27.219154 32,800 319 437 640
2023-01-20 13:16:29 GMT 38.123955 27.223942 32,775 319 437 640
2023-01-20 13:16:26 GMT 38.119446 27.228912 32,750 319 437 576
2023-01-20 13:16:22 GMT 38.113083 27.236042 32,700 319 436 512
2023-01-20 13:16:19 GMT 38.108643 27.240892 32,675 319 435 256
2023-01-20 13:16:16 GMT 38.103565 27.246571 32,675 319 435 256
2023-01-20 13:16:11 GMT 38.097233 27.253616 32,650 319 435 128
2023-01-20 13:16:09 GMT 38.087814 27.264093 32,650 319 431 0
2023-01-20 13:16:02 GMT 38.082012 27.270514 32,650 319 431 0
2023-01-20 13:15:59 GMT 38.078102 27.274813 32,650 319 430 64
2023-01-20 13:15:56 GMT 38.073578 27.279871 32,650 319 429 192
2023-01-20 13:15:51 GMT 38.065659 27.288694 32,625 319 427 320
2023-01-20 13:15:46 GMT 38.059479 27.295591 32,600 319 427 448
2023-01-20 13:15:41 GMT 38.051754 27.304190 32,575 319 427 448
2023-01-20 13:15:37 GMT 38.044815 27.311953 32,550 319 425 448
2023-01-20 13:15:31 GMT 38.036995 27.320728 32,500 319 425 384
2023-01-20 13:15:27 GMT 38.031052 27.327381 32,450 319 424 384
2023-01-20 13:15:21 GMT 38.022125 27.337433 32,425 319 422 512
2023-01-20 13:15:17 GMT 38.016312 27.344036 32,400 319 422 576
2023-01-20 13:15:10 GMT 38.006317 27.355242 32,325 319 420 640
2023-01-20 13:15:07 GMT 38.001987 27.360138 32,300 319 419 640
2023-01-20 13:15:00 GMT 37.991512 27.371780 32,225 319 417 1088
2023-01-20 13:14:56 GMT 37.985973 27.377871 32,125 319 418 1600
2023-01-20 13:14:51 GMT 37.977585 27.387104 31,950 319 420 1920
2023-01-20 13:14:46 GMT 37.971684 27.393694 31,825 319 421 1856
2023-01-20 13:14:39 GMT 37.960136 27.406351 31,625 320 425 1152
2023-01-20 13:14:34 GMT 37.953964 27.413168 31,550 319 425 704
2023-01-20 13:14:30 GMT 37.947384 27.420443 31,525 319 425 320
2023-01-20 13:14:25 GMT 37.940262 27.428265 31,475 319 423 320
2023-01-20 13:14:22 GMT 37.935978 27.432981 31,500 319 422 320
2023-01-20 13:14:18 GMT 37.930252 27.439369 31,475 319 422 384
2023-01-20 13:14:14 GMT 37.923363 27.446953 31,425 319 420 576
2023-01-20 13:14:10 GMT 37.917824 27.453102 31,375 319 419 640
2023-01-20 13:14:07 GMT 37.911400 27.460209 31,350 319 418 384
2023-01-20 13:14:04 GMT 37.908932 27.462954 31,325 319 418 320
2023-01-20 13:14:02 GMT 37.906742 27.465343 31,325 319 416 320
2023-01-20 13:14:00 GMT 37.903198 27.469328 31,300 319 416 448
2023-01-20 13:13:56 GMT 37.897198 27.475971 31,250 319 416 1472
2023-01-20 13:13:52 GMT 37.891205 27.482592 31,200 319 416 1472
2023-01-20 13:13:48 GMT 37.886124 27.488201 31,100 319 417 1600
2023-01-20 13:13:43 GMT 37.877602 27.497644 30,925 319 421 1536
2023-01-20 13:13:37 GMT 37.869965 27.506063 30,800 319 422 1280
2023-01-20 13:13:34 GMT 37.865402 27.511080 30,675 319 423 1024
2023-01-20 13:13:31 GMT 37.860516 27.516453 30,675 319 423 1024
2023-01-20 13:13:26 GMT 37.847435 27.530903 30,550 319 421 960
2023-01-20 13:13:21 GMT 37.847435 27.530903 30,550 319 421 960
2023-01-20 13:13:15 GMT 37.837234 27.542139 30,425 319 420 960
2023-01-20 13:13:11 GMT 37.832840 27.546991 30,375 319 420 1024
2023-01-20 13:13:05 GMT 37.818329 27.562944 30,250 319 419 768
2023-01-20 13:13:02 GMT 37.818329 27.562944 30,225 319 419 576
2023-01-20 13:12:57 GMT 37.811783 27.570190 30,200 319 418 448
2023-01-20 13:12:55 GMT 37.807983 27.574398 30,150 319 418 768
2023-01-20 13:12:51 GMT 37.803452 27.579365 30,125 319 418 1024
2023-01-20 13:12:48 GMT 37.797318 27.586086 30,050 319 418 1088
2023-01-20 13:12:43 GMT 37.786499 27.598015 29,925 319 417 1088
2023-01-20 13:12:37 GMT 37.782124 27.602791 29,875 319 416 1152
2023-01-20 13:12:34 GMT 37.778000 27.607357 29,775 319 416 1216
2023-01-20 13:12:31 GMT 37.773834 27.611927 29,750 319 416 1280
2023-01-20 13:12:28 GMT 37.767738 27.618673 29,650 319 416 1344
2023-01-20 13:12:21 GMT 37.759033 27.628227 29,525 319 417 1280
2023-01-20 13:12:17 GMT 37.753601 27.634237 29,450 319 416 1088
2023-01-20 13:12:12 GMT 37.745773 27.642887 29,350 319 415 896
2023-01-20 13:12:01 GMT 37.729984 27.660351 29,200 319 413 896
2023-01-20 13:11:57 GMT 37.724442 27.666437 29,125 319 412 896
2023-01-20 13:11:54 GMT 37.718533 27.673008 29,050 319 411 832
2023-01-20 13:11:51 GMT 37.715645 27.676172 29,025 319 411 768
2023-01-20 13:11:46 GMT 37.709610 27.682917 28,975 319 410 576
2023-01-20 13:11:43 GMT 37.704517 27.688473 28,950 319 408 704
2023-01-20 13:11:39 GMT 37.699493 27.694078 28,925 319 407 832
2023-01-20 13:11:37 GMT 37.695831 27.698111 28,875 319 406 1216
2023-01-20 13:11:31 GMT 37.686768 27.708103 28,725 319 407 1536
2023-01-20 13:11:28 GMT 37.683151 27.712057 28,675 319 407 1536
2023-01-20 13:11:25 GMT 37.678730 27.716894 28,600 319 407 1792
2023-01-20 13:11:22 GMT 37.674820 27.721193 28,425 319 409 2240
2023-01-20 13:11:18 GMT 37.668549 27.728090 28,350 319 411 2496
2023-01-20 13:11:16 GMT 37.666397 27.730427 28,300 319 409 2368
2023-01-20 13:11:13 GMT 37.660576 27.736776 28,125 319 412 2432
2023-01-20 13:11:09 GMT 37.655045 27.742874 27,975 319 413 2240
2023-01-20 13:11:07 GMT 37.647675 27.750938 27,825 319 415 1856
2023-01-20 13:11:00 GMT 37.636135 27.763586 27,650 319 415 1088
2023-01-20 13:10:55 GMT 37.636135 27.763586 27,650 320 414 1152
2023-01-20 13:10:51 GMT 37.629059 27.771349 27,575 320 414 1280
2023-01-20 13:10:45 GMT 37.621582 27.779457 27,450 320 414 1664
2023-01-20 13:10:41 GMT 37.615746 27.785856 27,200 320 414 2176
2023-01-20 13:10:35 GMT 37.606853 27.795530 27,100 320 416 2624
2023-01-20 13:10:30 GMT 37.598846 27.804247 26,850 320 418 2880
2023-01-20 13:10:25 GMT 37.591492 27.812187 26,575 320 421 3200
2023-01-20 13:10:20 GMT 37.584274 27.820129 26,325 320 425 2816
2023-01-20 13:10:14 GMT 37.575851 27.829304 26,075 320 427 2368
2023-01-20 13:10:09 GMT 37.568867 27.836847 25,925 320 428 1920
2023-01-20 13:10:03 GMT 37.559277 27.847357 25,750 319 429 1152
2023-01-20 13:09:59 GMT 37.554108 27.852972 25,700 319 428 1024
2023-01-20 13:09:53 GMT 37.544403 27.863607 25,600 319 426 960
2023-01-20 13:09:49 GMT 37.539261 27.869209 25,525 319 426 1088
2023-01-20 13:09:42 GMT 37.528133 27.881390 25,375 320 425 1152
2023-01-20 13:09:39 GMT 37.523254 27.886690 25,325 320 425 1216
2023-01-20 13:09:30 GMT 37.509613 27.901533 25,100 320 423 1472
2023-01-20 13:09:20 GMT 37.494827 27.917721 24,850 319 423 1344
2023-01-20 13:09:09 GMT 37.478851 27.935078 24,625 319 421 1216
2023-01-20 13:08:59 GMT 37.464478 27.950796 24,400 319 420 1664
2023-01-20 13:08:50 GMT 37.450298 27.966236 24,125 319 420 1600
2023-01-20 13:08:39 GMT 37.430466 27.987906 23,825 320 418 1408
2023-01-20 13:08:30 GMT 37.421062 27.998119 23,675 319 416 960
2023-01-20 13:08:27 GMT 37.417923 28.001520 23,650 319 416 960
2023-01-20 13:08:18 GMT 37.404816 28.015795 23,500 320 412 1024
2023-01-20 13:08:10 GMT 37.391922 28.029804 23,300 320 411 1792
2023-01-20 13:08:00 GMT 37.377869 28.044882 22,925 320 414 2688
2023-01-20 13:07:58 GMT 37.375023 28.047976 22,825 320 415 2752
2023-01-20 13:07:53 GMT 37.368668 28.054815 22,625 320 416 2560
2023-01-20 13:07:48 GMT 37.360291 28.063873 22,425 320 420 1920
2023-01-20 13:07:44 GMT 37.355377 28.069174 22,325 320 420 1600
2023-01-20 13:07:38 GMT 37.345596 28.079826 22,175 320 420 1216
2023-01-20 13:07:35 GMT 37.341972 28.083681 22,125 320 420 1216
2023-01-20 13:07:27 GMT 37.329914 28.096758 21,975 320 419 1280
2023-01-20 13:07:22 GMT 37.323166 28.104042 21,850 320 419 1408
2023-01-20 13:07:19 GMT 37.318726 28.108871 21,800 320 418 1472
2023-01-20 13:07:17 GMT 37.314690 28.113237 21,725 320 417 1472
2023-01-20 13:07:12 GMT 37.308544 28.119865 21,625 320 417 1344
2023-01-20 13:07:07 GMT 37.300213 28.128881 21,475 320 416 1344
2023-01-20 13:07:04 GMT 37.296444 28.133001 21,450 320 414 1344
2023-01-20 13:06:57 GMT 37.285629 28.144693 21,275 320 412 1216
2023-01-20 13:06:53 GMT 37.280548 28.150127 21,200 320 411 1408
2023-01-20 13:06:46 GMT 37.270477 28.160997 21,025 320 409 1792
2023-01-20 13:06:39 GMT 37.259808 28.172527 20,775 320 407 2240
2023-01-20 13:06:36 GMT 37.255524 28.177126 20,650 320 407 2240
2023-01-20 13:06:32 GMT 37.250633 28.182381 20,525 320 407 2176
2023-01-20 13:06:29 GMT 37.245438 28.187939 20,400 320 406 1920
2023-01-20 13:06:25 GMT 37.239651 28.194202 20,275 320 406 1856
2023-01-20 13:06:22 GMT 37.236530 28.197546 20,200 320 404 1728
2023-01-20 13:06:17 GMT 37.228912 28.205761 20,050 320 404 1792
2023-01-20 13:06:15 GMT 37.225868 28.209009 19,975 320 403 1856
2023-01-20 13:06:11 GMT 37.220856 28.214411 19,875 320 402 1920
2023-01-20 13:06:08 GMT 37.216141 28.219519 19,775 320 402 2048
2023-01-20 13:06:05 GMT 37.212135 28.223759 19,675 320 402 2048
2023-01-20 13:05:59 GMT 37.202591 28.233929 19,425 320 402 2240
2023-01-20 13:05:55 GMT 37.197567 28.239342 19,300 320 402 2176
2023-01-20 13:05:49 GMT 37.188488 28.249014 19,075 320 404 2048
2023-01-20 13:05:45 GMT 37.183506 28.254328 18,950 320 404 1792
2023-01-20 13:05:39 GMT 37.174709 28.263823 18,800 320 402 1280
2023-01-20 13:05:34 GMT 37.168579 28.270393 18,700 320 401 1152
2023-01-20 13:05:29 GMT 37.160091 28.279585 18,600 320 399 1088
2023-01-20 13:05:24 GMT 37.154709 28.285412 18,525 320 396 1088
2023-01-20 13:05:19 GMT 37.146561 28.294235 18,400 320 393 1472
2023-01-20 13:05:14 GMT 37.140244 28.301132 18,275 319 392 1792
2023-01-20 13:05:08 GMT 37.131695 28.310453 18,050 319 391 2240
2023-01-20 13:05:03 GMT 37.125870 28.316793 17,875 319 392 2560
2023-01-20 13:04:59 GMT 37.118774 28.324623 17,625 319 394 2880
2023-01-20 13:04:54 GMT 37.112503 28.331636 17,400 319 395 2560
2023-01-20 13:04:48 GMT 37.105019 28.339951 17,200 319 397 2048
2023-01-20 13:04:44 GMT 37.098827 28.346876 17,075 319 397 1536
2023-01-20 13:04:37 GMT 37.089523 28.356474 16,975 325 399 896
2023-01-20 13:04:33 GMT 37.083572 28.361557 16,925 329 401 704
2023-01-20 13:04:28 GMT 37.065170 28.372660 16,850 340 401 640
2023-01-20 13:04:22 GMT 37.065170 28.372660 16,800 340 401 704
2023-01-20 13:04:18 GMT 37.057861 28.375715 16,750 344 401 832
2023-01-20 13:04:13 GMT 37.048969 28.379000 16,675 344 398 1216
2023-01-20 13:04:07 GMT 37.039215 28.382593 16,550 344 395 1344
2023-01-20 13:04:02 GMT 37.030163 28.385866 16,425 344 393 1472
2023-01-20 13:03:57 GMT 37.020355 28.389490 16,275 344 390 1856
2023-01-20 13:03:53 GMT 37.013077 28.392120 16,125 344 389 2176
2023-01-20 13:03:45 GMT 37.000648 28.396673 15,850 344 389 2240
2023-01-20 13:03:42 GMT 36.995296 28.398643 15,750 344 388 2176
2023-01-20 13:03:37 GMT 36.987011 28.401688 15,575 344 388 2048
2023-01-20 13:03:32 GMT 36.977280 28.405210 15,400 344 387 1792
2023-01-20 13:03:28 GMT 36.969681 28.408014 15,275 344 385 1792
2023-01-20 13:03:22 GMT 36.960297 28.411463 15,100 344 384 1792
2023-01-20 13:03:18 GMT 36.952606 28.414268 14,975 344 382 1856
2023-01-20 13:03:12 GMT 36.942947 28.417774 14,775 344 380 2048
2023-01-20 13:03:07 GMT 36.934406 28.420855 14,600 344 379 2112
2023-01-20 13:03:02 GMT 36.925655 28.424080 14,425 344 378 2112
2023-01-20 13:02:58 GMT 36.918320 28.426716 14,275 344 377 1984
2023-01-20 13:02:51 GMT 36.908058 28.430468 14,075 344 375 1984
2023-01-20 13:02:48 GMT 36.901913 28.432676 13,950 344 373 2048
2023-01-20 13:02:41 GMT 36.891357 28.436474 13,700 344 372 2112
2023-01-20 13:02:37 GMT 36.884640 28.438887 13,575 345 371 2112
2023-01-20 13:02:31 GMT 36.874649 28.442434 13,350 345 370 2304
2023-01-20 13:02:27 GMT 36.867977 28.444798 13,175 345 369 2432
2023-01-20 13:02:20 GMT 36.857407 28.448441 12,900 345 369 2944
2023-01-20 13:02:16 GMT 36.850983 28.450708 12,700 345 370 3072
2023-01-20 13:02:10 GMT 36.840775 28.454247 12,375 345 372 2816
2023-01-20 13:02:07 GMT 36.834274 28.456478 12,200 345 373 2688
2023-01-20 13:02:00 GMT 36.823151 28.460369 11,900 345 374 3072
2023-01-20 13:01:57 GMT 36.817978 28.462200 11,725 345 375 3136
2023-01-20 13:01:50 GMT 36.806625 28.466263 11,400 344 375 2368
2023-01-20 13:01:46 GMT 36.799870 28.468733 11,275 344 374 1920
2023-01-20 13:01:40 GMT 36.789963 28.472843 11,150 338 367 704
2023-01-20 13:01:37 GMT 36.784973 28.475418 11,125 334 362 512
2023-01-20 13:01:35 GMT 36.782600 28.476854 11,125 333 360 512
2023-01-20 13:01:29 GMT 36.774261 28.482857 11,050 327 349 640
2023-01-20 13:01:25 GMT 36.768772 28.487606 11,000 323 343 832
2023-01-20 13:01:17 GMT 36.749126 28.507126 10,700 322 323 1152
2023-01-20 13:01:09 GMT 36.749126 28.507126 10,700 322 323 1152
2023-01-20 13:01:06 GMT 36.746246 28.509979 10,650 322 320 1088
2023-01-20 13:00:59 GMT 36.737732 28.518391 10,525 322 312 1024
2023-01-20 13:00:56 GMT 36.734802 28.521252 10,475 322 309 1152
2023-01-20 13:00:53 GMT 36.730637 28.525314 10,400 322 305 1472
2023-01-20 13:00:46 GMT 36.723633 28.532181 10,225 322 302 2048
2023-01-20 13:00:42 GMT 36.718460 28.537216 10,050 323 300 2560
2023-01-20 13:00:38 GMT 36.714027 28.541487 9,875 323 300 2752
2023-01-20 13:00:34 GMT 36.710209 28.545227 9,725 323 300 2496
2023-01-20 13:00:29 GMT 36.702950 28.552181 9,400 323 298 2240
2023-01-20 13:00:26 GMT 36.701477 28.553581 9,400 323 297 2304
2023-01-20 13:00:18 GMT 36.692661 28.562117 9,075 323 295 2624
2023-01-20 13:00:15 GMT 36.689960 28.564745 8,975 323 295 2624
2023-01-20 13:00:11 GMT 36.685272 28.569260 8,775 322 294 2752
2023-01-20 13:00:06 GMT 36.679367 28.575039 8,525 322 293 2624
2023-01-20 13:00:01 GMT 36.674377 28.579960 8,300 322 292 2944
2023-01-20 12:59:56 GMT 36.668777 28.585667 8,050 320 292 2880
2023-01-20 12:59:50 GMT 36.663517 28.591511 7,800 315 290 2432
2023-01-20 12:59:46 GMT 36.659470 28.597237 7,625 305 286 2176
2023-01-20 12:59:39 GMT 36.654812 28.606705 7,400 295 280 2176
2023-01-20 12:59:36 GMT 36.652950 28.612022 7,250 289 275 2432
2023-01-20 12:59:28 GMT 36.650345 28.622774 6,950 285 273 2496
2023-01-20 12:59:25 GMT 36.649181 28.628208 6,800 285 272 2496
2023-01-20 12:59:18 GMT 36.647095 28.637753 5,850 286 269 2816
2023-01-20 12:59:15 GMT 36.646088 28.642387 6,400 286 269 2816
2023-01-20 12:59:05 GMT 36.642792 28.657150 5,900 287 268 2944
2023-01-20 12:58:55 GMT 36.639175 28.672256 5,375 288 268 3328
2023-01-20 12:58:45 GMT 36.635307 28.687407 4,775 289 271 3392
2023-01-20 12:58:35 GMT 36.631306 28.702309 4,200 289 274 3520
2023-01-20 12:58:25 GMT 36.627869 28.717518 3,600 278 273 3328
2023-01-20 12:58:14 GMT 36.627857 28.734858 3,025 261 267 3008
2023-01-20 12:58:04 GMT 36.631584 28.749060 2,575 241 256 2240
2023-01-20 12:57:54 GMT 36.638008 28.760395 2,250 226 242 1600
2023-01-20 12:57:44 GMT 36.646591 28.768673 2,025 209 222 1280
2023-01-20 12:57:42 GMT 36.648468 28.769932 1,975 206 219 1344
2023-01-20 12:57:41 GMT 36.649364 28.770447 1,950 204 216 1408
2023-01-20 12:57:40 GMT 36.651215 28.771477 1,900 200 211 1280
2023-01-20 12:57:37 GMT 36.653137 28.772318 1,875 199 208 1152
2023-01-20 12:57:36 GMT 36.653931 28.772667 1,850 198 207 1088
2023-01-20 12:57:35 GMT 36.654831 28.773022 1,825 196 204 896
2023-01-20 12:57:33 GMT 36.656570 28.773594 1,800 195 201 640
2023-01-20 12:57:32 GMT 36.657349 28.773880 1,800 194 196 448
2023-01-20 12:57:31 GMT 36.659374 28.774479 1,775 194 195 320
2023-01-20 12:57:29 GMT 36.660168 28.774714 1,775 193 192 384
2023-01-20 12:57:28 GMT 36.662018 28.775253 1,750 193 187 768
2023-01-20 12:57:26 GMT 36.662796 28.775425 1,750 193 187 832
2023-01-20 12:57:25 GMT 36.664581 28.775940 1,700 193 185 1024
2023-01-20 12:57:23 GMT 36.665314 28.776169 1,700 193 184 960
2023-01-20 12:57:22 GMT 36.666218 28.776407 1,675 193 183 960
2023-01-20 12:57:20 GMT 36.667969 28.776855 1,650 193 180 960
2023-01-20 12:57:19 GMT 36.668823 28.777109 1,625 193 179 960
2023-01-20 12:57:18 GMT 36.671219 28.777771 1,600 193 177 960
2023-01-20 12:57:16 GMT 36.671219 28.777771 1,575 193 176 1024
2023-01-20 12:57:14 GMT 36.672729 28.778172 1,550 193 174 1088
2023-01-20 12:57:13 GMT 36.673573 28.778395 1,525 193 172 1024
2023-01-20 12:57:11 GMT 36.675018 28.778862 1,500 194 170 1088
2023-01-20 12:57:10 GMT 36.675854 28.779097 1,475 194 169 1216
2023-01-20 12:57:09 GMT 36.678230 28.779797 1,425 194 167 1152
2023-01-20 12:57:07 GMT 36.678230 28.779797 1,425 194 165 1152
2023-01-20 12:57:05 GMT 36.679718 28.780264 1,375 195 164 1088
2023-01-20 12:57:04 GMT 36.680420 28.780460 1,350 195 164 1088
2023-01-20 12:57:02 GMT 36.681767 28.780907 1,325 196 162 896
2023-01-20 12:57:01 GMT 36.683208 28.781433 1,300 196 159 768
2023-01-20 12:56:59 GMT 36.683899 28.781662 1,300 196 158 640
2023-01-20 12:56:56 GMT 36.686188 28.782427 1,250 197 153 896
2023-01-20 12:56:54 GMT 36.687492 28.782894 1,200 197 152 1280
2023-01-20 12:56:52 GMT 36.688751 28.783361 1,150 197 150 1792
2023-01-20 12:56:51 GMT 36.689392 28.783607 1,125 197 149 2240
2023-01-20 12:56:50 GMT 36.690079 28.783836 1,075 198 149 2432
2023-01-20 12:56:48 GMT 36.691311 28.784298 1,000 198 150 2496
2023-01-20 12:56:46 GMT 36.693329 28.785095 875 198 151 2624

Making use of Plane Finder data

You are free to use the raw flight data, aircraft information and images provided in this report for your own purposes provided the data is correctly attributed to Plane Finder. We ask that you please credit Plane Finder and link to planefinder.net in close proximity to the content.

Optionally one of the following logos (no smaller then 150x24px) can be used and must link to planefinder.net

Embedding the Plane Finder map

You are welcome to embed the Plane Finder playback map on your website to offer visitors a more interactive experience. We suggest using the following HTML code:

<iframe src="//planefinder.net/data/report/U21944-G-EZUN-7700-squawk-2023-01-20/map" width="800" height="600" seamless="seamless"></iframe>

Where our data comes from

Plane Finder has a global network of data feeds and antenna radars that receive data broadcast directly from aircraft. The primary technologies used are ADS-B and MLAT. We also show feeds from the FAA and a FLARM glider feed.

Click here to find out more about the Plane Finder network.

How we collect our data